<?xml version='1.0' encoding='UTF-8'?><gpx version="1.1" creator="JPX - https://github.com/jenetics/jpx" xmlns="http://www.topografix.com/GPX/1/1"><trk><trkseg><trkpt lat="43.1251907" lon="12.3517989"><ele>361.0</ele><time>2026-04-30T09:33:20.692Z</time></trkpt><trkpt lat="43.1251336" lon="12.3518595"><ele>361.0</ele><time>2026-04-30T09:33:22.692Z</time></trkpt><trkpt lat="43.1250597" lon="12.3518918"><ele>361.0</ele><time>2026-04-30T09:33:24.692Z</time></trkpt><trkpt lat="43.1249583" lon="12.3519062"><ele>361.0</ele><time>2026-04-30T09:33:26.692Z</time></trkpt><trkpt lat="43.1248888" lon="12.3517664"><ele>361.0</ele><time>2026-04-30T09:33:28.692Z</time></trkpt><trkpt lat="43.1248559" lon="12.3516037"><ele>359.66666666666663</ele><time>2026-04-30T09:33:30.692Z</time></trkpt><trkpt lat="43.1248484" lon="12.3515148"><ele>358.3333333333333</ele><time>2026-04-30T09:33:31.692Z</time></trkpt><trkpt lat="43.1248443" lon="12.3513771"><ele>357.0</ele><time>2026-04-30T09:33:33.691Z</time></trkpt><trkpt lat="43.1248635" lon="12.3512548"><ele>355.6666666666667</ele><time>2026-04-30T09:33:35.691Z</time></trkpt><trkpt lat="43.1248918" lon="12.3511572"><ele>354.33333333333337</ele><time>2026-04-30T09:33:38.692Z</time></trkpt><trkpt lat="43.1249093" lon="12.3510659"><ele>353.0</ele><time>2026-04-30T09:33:55.692Z</time></trkpt><trkpt lat="43.1249335" lon="12.350981"><ele>353.0</ele><time>2026-04-30T09:33:58.692Z</time></trkpt><trkpt lat="43.124987" lon="12.350926"><ele>353.0</ele><time>2026-04-30T09:33:59.691Z</time></trkpt><trkpt lat="43.1250535" lon="12.3509041"><ele>353.0</ele><time>2026-04-30T09:34:00.692Z</time></trkpt><trkpt lat="43.1251255" lon="12.3509006"><ele>353.0</ele><time>2026-04-30T09:34:01.691Z</time></trkpt><trkpt lat="43.1251901" lon="12.3508619"><ele>353.0</ele><time>2026-04-30T09:34:02.692Z</time></trkpt><trkpt lat="43.1252756" lon="12.350832"><ele>353.0</ele><time>2026-04-30T09:34:03.692Z</time></trkpt><trkpt lat="43.1253673" lon="12.3508082"><ele>353.0</ele><time>2026-04-30T09:34:04.692Z</time></trkpt><trkpt lat="43.125475" lon="12.3507803"><ele>353.0</ele><time>2026-04-30T09:34:05.691Z</time></trkpt><trkpt lat="43.125591" lon="12.3507609"><ele>353.0</ele><time>2026-04-30T09:34:06.692Z</time></trkpt><trkpt lat="43.1257009" lon="12.3507511"><ele>353.0</ele><time>2026-04-30T09:34:07.692Z</time></trkpt><trkpt lat="43.1258066" lon="12.3507558"><ele>353.0</ele><time>2026-04-30T09:34:08.691Z</time></trkpt><trkpt lat="43.125916" lon="12.3507528"><ele>353.25</ele><time>2026-04-30T09:34:09.691Z</time></trkpt><trkpt lat="43.1260473" lon="12.3507882"><ele>353.5</ele><time>2026-04-30T09:34:10.692Z</time></trkpt><trkpt lat="43.1261748" lon="12.3508126"><ele>353.75</ele><time>2026-04-30T09:34:11.692Z</time></trkpt><trkpt lat="43.1262985" lon="12.3508581"><ele>354.0</ele><time>2026-04-30T09:34:12.691Z</time></trkpt><trkpt lat="43.1264469" lon="12.3509269"><ele>352.79999999999995</ele><time>2026-04-30T09:34:13.692Z</time></trkpt><trkpt lat="43.1265842" lon="12.3509689"><ele>351.59999999999997</ele><time>2026-04-30T09:34:14.692Z</time></trkpt><trkpt lat="43.1267003" lon="12.3510036"><ele>350.4</ele><time>2026-04-30T09:34:15.692Z</time></trkpt><trkpt lat="43.1267978" lon="12.3510314"><ele>349.2</ele><time>2026-04-30T09:34:16.692Z</time></trkpt><trkpt lat="43.1268728" lon="12.3510265"><ele>348.0</ele><time>2026-04-30T09:34:17.691Z</time></trkpt><trkpt lat="43.126938" lon="12.3510334"><ele>348.0</ele><time>2026-04-30T09:34:18.691Z</time></trkpt><trkpt lat="43.1270342" lon="12.3509791"><ele>348.0</ele><time>2026-04-30T09:34:20.692Z</time></trkpt><trkpt lat="43.1270863" lon="12.35093"><ele>348.0</ele><time>2026-04-30T09:34:21.691Z</time></trkpt><trkpt lat="43.1271485" lon="12.3507778"><ele>348.0</ele><time>2026-04-30T09:34:22.693Z</time></trkpt><trkpt lat="43.1271976" lon="12.3506229"><ele>348.0</ele><time>2026-04-30T09:34:23.692Z</time></trkpt><trkpt lat="43.1272516" lon="12.3504706"><ele>347.6666666666667</ele><time>2026-04-30T09:34:24.692Z</time></trkpt><trkpt lat="43.1273126" lon="12.3503525"><ele>347.3333333333333</ele><time>2026-04-30T09:34:25.692Z</time></trkpt><trkpt lat="43.1273643" lon="12.3502608"><ele>347.0</ele><time>2026-04-30T09:34:26.691Z</time></trkpt><trkpt lat="43.1274048" lon="12.3501918"><ele>346.66666666666663</ele><time>2026-04-30T09:34:27.692Z</time></trkpt><trkpt lat="43.1274598" lon="12.3501123"><ele>346.3333333333333</ele><time>2026-04-30T09:34:29.692Z</time></trkpt><trkpt lat="43.12749" lon="12.3500275"><ele>346.0</ele><time>2026-04-30T09:34:31.691Z</time></trkpt><trkpt lat="43.1275376" lon="12.3499499"><ele>346.6</ele><time>2026-04-30T09:34:34.69Z</time></trkpt><trkpt lat="43.1275244" lon="12.3498442"><ele>347.20000000000005</ele><time>2026-04-30T09:34:36.691Z</time></trkpt><trkpt lat="43.1274171" lon="12.3497392"><ele>347.79999999999995</ele><time>2026-04-30T09:34:38.692Z</time></trkpt><trkpt lat="43.1273317" lon="12.3496953"><ele>348.4</ele><time>2026-04-30T09:34:39.692Z</time></trkpt><trkpt lat="43.1272473" lon="12.3496299"><ele>349.0</ele><time>2026-04-30T09:34:40.692Z</time></trkpt><trkpt lat="43.1271567" lon="12.3495322"><ele>349.0</ele><time>2026-04-30T09:34:41.693Z</time></trkpt><trkpt lat="43.1270546" lon="12.3494478"><ele>349.0</ele><time>2026-04-30T09:34:42.692Z</time></trkpt><trkpt lat="43.1269094" lon="12.3493521"><ele>349.0</ele><time>2026-04-30T09:34:43.692Z</time></trkpt><trkpt lat="43.1267814" lon="12.3492587"><ele>349.0</ele><time>2026-04-30T09:34:44.692Z</time></trkpt><trkpt lat="43.1266521" lon="12.3491565"><ele>347.0</ele><time>2026-04-30T09:34:45.692Z</time></trkpt><trkpt lat="43.1265465" lon="12.3490809"><ele>345.0</ele><time>2026-04-30T09:34:46.692Z</time></trkpt><trkpt lat="43.1264348" lon="12.348996"><ele>343.0</ele><time>2026-04-30T09:34:47.691Z</time></trkpt><trkpt lat="43.1263672" lon="12.3489156"><ele>341.0</ele><time>2026-04-30T09:34:48.693Z</time></trkpt><trkpt lat="43.126289" lon="12.3488119"><ele>339.0</ele><time>2026-04-30T09:34:49.691Z</time></trkpt><trkpt lat="43.1262329" lon="12.3486946"><ele>339.0</ele><time>2026-04-30T09:34:50.692Z</time></trkpt><trkpt lat="43.1262938" lon="12.3485785"><ele>339.0</ele><time>2026-04-30T09:34:51.692Z</time></trkpt><trkpt lat="43.126319" lon="12.3484656"><ele>339.0</ele><time>2026-04-30T09:34:52.691Z</time></trkpt><trkpt lat="43.1263785" lon="12.3483451"><ele>339.0</ele><time>2026-04-30T09:34:53.692Z</time></trkpt><trkpt lat="43.1264222" lon="12.3481978"><ele>339.0</ele><time>2026-04-30T09:34:54.692Z</time></trkpt><trkpt lat="43.1264798" lon="12.3480357"><ele>339.0</ele><time>2026-04-30T09:34:55.691Z</time></trkpt><trkpt lat="43.1265344" lon="12.3478631"><ele>339.0</ele><time>2026-04-30T09:34:56.692Z</time></trkpt><trkpt lat="43.1265858" lon="12.3476812"><ele>339.0</ele><time>2026-04-30T09:34:57.692Z</time></trkpt><trkpt lat="43.1266149" lon="12.3474773"><ele>339.0</ele><time>2026-04-30T09:34:58.692Z</time></trkpt><trkpt lat="43.1266311" lon="12.347262"><ele>343.3333333333333</ele><time>2026-04-30T09:34:59.692Z</time></trkpt><trkpt lat="43.1266528" lon="12.347034"><ele>347.66666666666663</ele><time>2026-04-30T09:35:00.692Z</time></trkpt><trkpt lat="43.1266672" lon="12.3468014"><ele>352.0</ele><time>2026-04-30T09:35:01.691Z</time></trkpt><trkpt lat="43.1266857" lon="12.3465865"><ele>352.0</ele><time>2026-04-30T09:35:02.691Z</time></trkpt><trkpt lat="43.1267093" lon="12.3463923"><ele>352.0</ele><time>2026-04-30T09:35:03.692Z</time></trkpt><trkpt lat="43.1267418" lon="12.3462201"><ele>352.0</ele><time>2026-04-30T09:35:04.692Z</time></trkpt><trkpt lat="43.1267775" lon="12.3460535"><ele>352.0</ele><time>2026-04-30T09:35:05.692Z</time></trkpt><trkpt lat="43.1268097" lon="12.3458929"><ele>351.5</ele><time>2026-04-30T09:35:06.692Z</time></trkpt><trkpt lat="43.1268489" lon="12.3457274"><ele>351.0</ele><time>2026-04-30T09:35:07.692Z</time></trkpt><trkpt lat="43.126893" lon="12.3455314"><ele>350.5</ele><time>2026-04-30T09:35:08.693Z</time></trkpt><trkpt lat="43.1269289" lon="12.3453663"><ele>350.0</ele><time>2026-04-30T09:35:09.692Z</time></trkpt><trkpt lat="43.1269693" lon="12.3451957"><ele>349.4</ele><time>2026-04-30T09:35:10.692Z</time></trkpt><trkpt lat="43.1269958" lon="12.3450452"><ele>348.8</ele><time>2026-04-30T09:35:11.691Z</time></trkpt><trkpt lat="43.1270204" lon="12.3449144"><ele>348.20000000000005</ele><time>2026-04-30T09:35:12.692Z</time></trkpt><trkpt lat="43.1270447" lon="12.3448152"><ele>347.6</ele><time>2026-04-30T09:35:13.692Z</time></trkpt><trkpt lat="43.1271177" lon="12.3446993"><ele>347.0</ele><time>2026-04-30T09:35:15.692Z</time></trkpt><trkpt lat="43.1273088" lon="12.3447332"><ele>350.25</ele><time>2026-04-30T09:35:17.692Z</time></trkpt><trkpt lat="43.1274025" lon="12.3447579"><ele>353.5</ele><time>2026-04-30T09:35:18.692Z</time></trkpt><trkpt lat="43.1275272" lon="12.3448085"><ele>356.75</ele><time>2026-04-30T09:35:19.693Z</time></trkpt><trkpt lat="43.1276611" lon="12.3448261"><ele>360.0</ele><time>2026-04-30T09:35:20.691Z</time></trkpt><trkpt lat="43.1278037" lon="12.3448516"><ele>360.0</ele><time>2026-04-30T09:35:21.691Z</time></trkpt><trkpt lat="43.1280099" lon="12.3448582"><ele>360.0</ele><time>2026-04-30T09:35:22.691Z</time></trkpt><trkpt lat="43.1281818" lon="12.3448589"><ele>360.0</ele><time>2026-04-30T09:35:23.692Z</time></trkpt><trkpt lat="43.1283559" lon="12.3448683"><ele>363.3333333333333</ele><time>2026-04-30T09:35:24.692Z</time></trkpt><trkpt lat="43.128512" lon="12.3448763"><ele>366.66666666666663</ele><time>2026-04-30T09:35:25.693Z</time></trkpt><trkpt lat="43.1286504" lon="12.3449092"><ele>370.0</ele><time>2026-04-30T09:35:26.691Z</time></trkpt><trkpt lat="43.1288111" lon="12.3449398"><ele>370.0</ele><time>2026-04-30T09:35:27.692Z</time></trkpt><trkpt lat="43.1289329" lon="12.345103"><ele>370.0</ele><time>2026-04-30T09:35:28.693Z</time></trkpt><trkpt lat="43.1290475" lon="12.3452519"><ele>370.0</ele><time>2026-04-30T09:35:29.693Z</time></trkpt><trkpt lat="43.1291704" lon="12.3453965"><ele>369.66666666666663</ele><time>2026-04-30T09:35:30.693Z</time></trkpt><trkpt lat="43.12931" lon="12.3455797"><ele>369.3333333333333</ele><time>2026-04-30T09:35:31.693Z</time></trkpt><trkpt lat="43.129439" lon="12.3457219"><ele>369.0</ele><time>2026-04-30T09:35:32.693Z</time></trkpt><trkpt lat="43.1295588" lon="12.345849"><ele>369.0</ele><time>2026-04-30T09:35:33.693Z</time></trkpt><trkpt lat="43.1296886" lon="12.34598"><ele>369.0</ele><time>2026-04-30T09:35:34.692Z</time></trkpt><trkpt lat="43.1297834" lon="12.3460991"><ele>369.0</ele><time>2026-04-30T09:35:35.693Z</time></trkpt><trkpt lat="43.1298982" lon="12.3461799"><ele>369.0</ele><time>2026-04-30T09:35:36.692Z</time></trkpt><trkpt lat="43.1299865" lon="12.3462898"><ele>373.75</ele><time>2026-04-30T09:35:37.693Z</time></trkpt><trkpt lat="43.1300148" lon="12.3464572"><ele>378.5</ele><time>2026-04-30T09:35:38.693Z</time></trkpt><trkpt lat="43.1300871" lon="12.3465639"><ele>383.25</ele><time>2026-04-30T09:35:39.693Z</time></trkpt><trkpt lat="43.130126" lon="12.3467269"><ele>388.0</ele><time>2026-04-30T09:35:40.693Z</time></trkpt><trkpt lat="43.1301491" lon="12.3469436"><ele>388.33333333333337</ele><time>2026-04-30T09:35:41.693Z</time></trkpt><trkpt lat="43.1301141" lon="12.3472285"><ele>388.66666666666663</ele><time>2026-04-30T09:35:42.692Z</time></trkpt><trkpt lat="43.1300907" lon="12.3475019"><ele>389.0</ele><time>2026-04-30T09:35:43.693Z</time></trkpt><trkpt lat="43.1300783" lon="12.3477034"><ele>389.0</ele><time>2026-04-30T09:35:44.693Z</time></trkpt><trkpt lat="43.1300444" lon="12.3478147"><ele>389.0</ele><time>2026-04-30T09:35:45.693Z</time></trkpt><trkpt lat="43.130031" lon="12.3480175"><ele>389.0</ele><time>2026-04-30T09:35:46.693Z</time></trkpt><trkpt lat="43.1300509" lon="12.3481868"><ele>389.0</ele><time>2026-04-30T09:35:47.693Z</time></trkpt><trkpt lat="43.1300847" lon="12.3483361"><ele>389.0</ele><time>2026-04-30T09:35:48.692Z</time></trkpt><trkpt lat="43.1301753" lon="12.3485236"><ele>389.0</ele><time>2026-04-30T09:35:49.693Z</time></trkpt><trkpt lat="43.1302493" lon="12.3486949"><ele>389.0</ele><time>2026-04-30T09:35:50.693Z</time></trkpt><trkpt lat="43.1303004" lon="12.3489103"><ele>389.0</ele><time>2026-04-30T09:35:51.692Z</time></trkpt><trkpt lat="43.1303368" lon="12.3490859"><ele>389.0</ele><time>2026-04-30T09:35:52.693Z</time></trkpt><trkpt lat="43.1303745" lon="12.3492725"><ele>389.0</ele><time>2026-04-30T09:35:53.692Z</time></trkpt><trkpt lat="43.1304056" lon="12.3494243"><ele>389.0</ele><time>2026-04-30T09:35:54.692Z</time></trkpt><trkpt lat="43.1304512" lon="12.3496091"><ele>389.0</ele><time>2026-04-30T09:35:55.693Z</time></trkpt><trkpt lat="43.1305393" lon="12.3497082"><ele>389.0</ele><time>2026-04-30T09:35:56.693Z</time></trkpt><trkpt lat="43.1306088" lon="12.3498438"><ele>389.0</ele><time>2026-04-30T09:35:57.693Z</time></trkpt><trkpt lat="43.1307142" lon="12.3499604"><ele>389.0</ele><time>2026-04-30T09:35:58.692Z</time></trkpt><trkpt lat="43.1308218" lon="12.3499859"><ele>390.5</ele><time>2026-04-30T09:35:59.693Z</time></trkpt><trkpt lat="43.1309234" lon="12.3500814"><ele>392.0</ele><time>2026-04-30T09:36:00.693Z</time></trkpt><trkpt lat="43.1310242" lon="12.3501488"><ele>393.5</ele><time>2026-04-30T09:36:01.693Z</time></trkpt><trkpt lat="43.1311378" lon="12.3502573"><ele>395.0</ele><time>2026-04-30T09:36:02.692Z</time></trkpt><trkpt lat="43.1312586" lon="12.3503512"><ele>395.0</ele><time>2026-04-30T09:36:03.693Z</time></trkpt><trkpt lat="43.1313784" lon="12.3504604"><ele>395.0</ele><time>2026-04-30T09:36:04.691Z</time></trkpt><trkpt lat="43.1314225" lon="12.3506331"><ele>395.0</ele><time>2026-04-30T09:36:05.693Z</time></trkpt><trkpt lat="43.1315061" lon="12.3507811"><ele>395.0</ele><time>2026-04-30T09:36:06.692Z</time></trkpt><trkpt lat="43.1316294" lon="12.3508612"><ele>394.25</ele><time>2026-04-30T09:36:07.692Z</time></trkpt><trkpt lat="43.1317486" lon="12.3509578"><ele>393.5</ele><time>2026-04-30T09:36:08.692Z</time></trkpt><trkpt lat="43.1318712" lon="12.3510087"><ele>392.75</ele><time>2026-04-30T09:36:09.691Z</time></trkpt><trkpt lat="43.1319811" lon="12.351074"><ele>392.0</ele><time>2026-04-30T09:36:10.692Z</time></trkpt><trkpt lat="43.1320901" lon="12.3511076"><ele>392.0</ele><time>2026-04-30T09:36:11.692Z</time></trkpt><trkpt lat="43.1322001" lon="12.351134"><ele>392.0</ele><time>2026-04-30T09:36:12.692Z</time></trkpt><trkpt lat="43.1323055" lon="12.3511446"><ele>392.0</ele><time>2026-04-30T09:36:13.692Z</time></trkpt><trkpt lat="43.1324166" lon="12.351127"><ele>392.0</ele><time>2026-04-30T09:36:14.692Z</time></trkpt><trkpt lat="43.1325143" lon="12.3510982"><ele>392.0</ele><time>2026-04-30T09:36:15.692Z</time></trkpt><trkpt lat="43.1326194" lon="12.3510754"><ele>394.0</ele><time>2026-04-30T09:36:16.692Z</time></trkpt><trkpt lat="43.1327189" lon="12.350977"><ele>396.0</ele><time>2026-04-30T09:36:17.693Z</time></trkpt><trkpt lat="43.132815" lon="12.3509817"><ele>398.0</ele><time>2026-04-30T09:36:18.692Z</time></trkpt><trkpt lat="43.1329047" lon="12.351022"><ele>400.0</ele><time>2026-04-30T09:36:19.692Z</time></trkpt><trkpt lat="43.1329761" lon="12.3511165"><ele>402.0</ele><time>2026-04-30T09:36:20.692Z</time></trkpt><trkpt lat="43.1330278" lon="12.3512588"><ele>398.25</ele><time>2026-04-30T09:36:21.691Z</time></trkpt><trkpt lat="43.1330719" lon="12.351449"><ele>394.5</ele><time>2026-04-30T09:36:22.691Z</time></trkpt><trkpt lat="43.1331118" lon="12.3516236"><ele>390.75</ele><time>2026-04-30T09:36:23.692Z</time></trkpt><trkpt lat="43.1331284" lon="12.3518012"><ele>387.0</ele><time>2026-04-30T09:36:24.693Z</time></trkpt><trkpt lat="43.1331437" lon="12.3519322"><ele>387.0</ele><time>2026-04-30T09:36:25.692Z</time></trkpt><trkpt lat="43.1331473" lon="12.3520584"><ele>387.0</ele><time>2026-04-30T09:36:26.692Z</time></trkpt><trkpt lat="43.1331578" lon="12.352166"><ele>387.0</ele><time>2026-04-30T09:36:27.692Z</time></trkpt><trkpt lat="43.1331674" lon="12.3522711"><ele>387.0</ele><time>2026-04-30T09:36:28.693Z</time></trkpt><trkpt lat="43.1331906" lon="12.3523669"><ele>387.0</ele><time>2026-04-30T09:36:29.692Z</time></trkpt><trkpt lat="43.1332681" lon="12.3524515"><ele>387.0</ele><time>2026-04-30T09:36:31.691Z</time></trkpt><trkpt lat="43.133381" lon="12.3524311"><ele>389.5</ele><time>2026-04-30T09:36:33.692Z</time></trkpt><trkpt lat="43.1335148" lon="12.3523224"><ele>392.0</ele><time>2026-04-30T09:36:34.691Z</time></trkpt><trkpt lat="43.133624" lon="12.3522587"><ele>394.5</ele><time>2026-04-30T09:36:35.692Z</time></trkpt><trkpt lat="43.1337905" lon="12.3522374"><ele>397.0</ele><time>2026-04-30T09:36:36.693Z</time></trkpt><trkpt lat="43.1339303" lon="12.3521958"><ele>397.33333333333337</ele><time>2026-04-30T09:36:37.692Z</time></trkpt><trkpt lat="43.1340852" lon="12.3521993"><ele>397.66666666666663</ele><time>2026-04-30T09:36:38.692Z</time></trkpt><trkpt lat="43.1342709" lon="12.3522211"><ele>398.0</ele><time>2026-04-30T09:36:39.693Z</time></trkpt><trkpt lat="43.1344544" lon="12.3522489"><ele>398.0</ele><time>2026-04-30T09:36:40.693Z</time></trkpt><trkpt lat="43.1346429" lon="12.3523159"><ele>398.0</ele><time>2026-04-30T09:36:41.693Z</time></trkpt><trkpt lat="43.1348887" lon="12.3524724"><ele>396.66666666666663</ele><time>2026-04-30T09:36:42.693Z</time></trkpt><trkpt lat="43.1350616" lon="12.3526079"><ele>395.33333333333337</ele><time>2026-04-30T09:36:43.693Z</time></trkpt><trkpt lat="43.1352495" lon="12.3527638"><ele>394.0</ele><time>2026-04-30T09:36:44.693Z</time></trkpt><trkpt lat="43.135424" lon="12.3529302"><ele>393.0</ele><time>2026-04-30T09:36:45.692Z</time></trkpt><trkpt lat="43.1356089" lon="12.3530919"><ele>392.0</ele><time>2026-04-30T09:36:46.693Z</time></trkpt><trkpt lat="43.1358127" lon="12.3532596"><ele>392.0</ele><time>2026-04-30T09:36:47.693Z</time></trkpt><trkpt lat="43.1360103" lon="12.353424"><ele>392.0</ele><time>2026-04-30T09:36:48.693Z</time></trkpt><trkpt lat="43.1362004" lon="12.3535925"><ele>392.0</ele><time>2026-04-30T09:36:49.693Z</time></trkpt><trkpt lat="43.1363811" lon="12.3537576"><ele>392.0</ele><time>2026-04-30T09:36:50.693Z</time></trkpt><trkpt lat="43.1365654" lon="12.3539104"><ele>392.0</ele><time>2026-04-30T09:36:51.693Z</time></trkpt><trkpt lat="43.1367283" lon="12.3540308"><ele>389.3333333333333</ele><time>2026-04-30T09:36:52.692Z</time></trkpt><trkpt lat="43.1368421" lon="12.3541893"><ele>386.66666666666663</ele><time>2026-04-30T09:36:53.693Z</time></trkpt><trkpt lat="43.1369788" lon="12.354333"><ele>384.0</ele><time>2026-04-30T09:36:54.692Z</time></trkpt><trkpt lat="43.1370577" lon="12.3545421"><ele>386.25</ele><time>2026-04-30T09:36:55.693Z</time></trkpt><trkpt lat="43.1371095" lon="12.3547247"><ele>388.5</ele><time>2026-04-30T09:36:56.692Z</time></trkpt><trkpt lat="43.1371288" lon="12.3549245"><ele>390.75</ele><time>2026-04-30T09:36:57.691Z</time></trkpt><trkpt lat="43.1371202" lon="12.355113"><ele>393.0</ele><time>2026-04-30T09:36:58.691Z</time></trkpt><trkpt lat="43.1370831" lon="12.3552975"><ele>393.0</ele><time>2026-04-30T09:36:59.692Z</time></trkpt><trkpt lat="43.137034" lon="12.3554951"><ele>393.0</ele><time>2026-04-30T09:37:00.692Z</time></trkpt><trkpt lat="43.1369946" lon="12.3557188"><ele>393.0</ele><time>2026-04-30T09:37:01.692Z</time></trkpt><trkpt lat="43.1370005" lon="12.3559466"><ele>395.66666666666663</ele><time>2026-04-30T09:37:02.692Z</time></trkpt><trkpt lat="43.1370487" lon="12.3561628"><ele>398.3333333333333</ele><time>2026-04-30T09:37:03.692Z</time></trkpt><trkpt lat="43.1370983" lon="12.3563776"><ele>401.0</ele><time>2026-04-30T09:37:04.691Z</time></trkpt><trkpt lat="43.1371619" lon="12.3565997"><ele>401.0</ele><time>2026-04-30T09:37:05.691Z</time></trkpt><trkpt lat="43.1373211" lon="12.3567971"><ele>401.0</ele><time>2026-04-30T09:37:06.693Z</time></trkpt><trkpt lat="43.1374225" lon="12.3569789"><ele>401.0</ele><time>2026-04-30T09:37:07.692Z</time></trkpt><trkpt lat="43.1377695" lon="12.3566097"><ele>393.3333333333333</ele><time>2026-04-30T09:37:08.692Z</time></trkpt><trkpt lat="43.1379552" lon="12.3564872"><ele>385.66666666666663</ele><time>2026-04-30T09:37:09.692Z</time></trkpt><trkpt lat="43.1381151" lon="12.3563399"><ele>378.0</ele><time>2026-04-30T09:37:10.692Z</time></trkpt><trkpt lat="43.1382683" lon="12.3561882"><ele>372.6666666666667</ele><time>2026-04-30T09:37:11.693Z</time></trkpt><trkpt lat="43.1384299" lon="12.3560902"><ele>367.33333333333337</ele><time>2026-04-30T09:37:12.692Z</time></trkpt><trkpt lat="43.1385865" lon="12.3560566"><ele>362.0</ele><time>2026-04-30T09:37:13.692Z</time></trkpt><trkpt lat="43.1387563" lon="12.3560413"><ele>362.0</ele><time>2026-04-30T09:37:14.692Z</time></trkpt><trkpt lat="43.1389286" lon="12.3561017"><ele>362.0</ele><time>2026-04-30T09:37:15.692Z</time></trkpt><trkpt lat="43.1390864" lon="12.3561819"><ele>362.0</ele><time>2026-04-30T09:37:16.692Z</time></trkpt><trkpt lat="43.1392423" lon="12.356279"><ele>360.6666666666667</ele><time>2026-04-30T09:37:17.692Z</time></trkpt><trkpt lat="43.1393997" lon="12.3563258"><ele>359.3333333333333</ele><time>2026-04-30T09:37:18.691Z</time></trkpt><trkpt lat="43.1395557" lon="12.3563393"><ele>358.0</ele><time>2026-04-30T09:37:19.692Z</time></trkpt><trkpt lat="43.139714" lon="12.3563082"><ele>358.0</ele><time>2026-04-30T09:37:20.692Z</time></trkpt><trkpt lat="43.1398675" lon="12.3562159"><ele>358.0</ele><time>2026-04-30T09:37:21.691Z</time></trkpt><trkpt lat="43.1400004" lon="12.3560489"><ele>358.0</ele><time>2026-04-30T09:37:22.692Z</time></trkpt><trkpt lat="43.1401078" lon="12.3558579"><ele>357.66666666666663</ele><time>2026-04-30T09:37:23.693Z</time></trkpt><trkpt lat="43.1402093" lon="12.3556363"><ele>357.3333333333333</ele><time>2026-04-30T09:37:24.693Z</time></trkpt><trkpt lat="43.1402818" lon="12.3554031"><ele>357.0</ele><time>2026-04-30T09:37:25.693Z</time></trkpt><trkpt lat="43.1403732" lon="12.3551929"><ele>355.0</ele><time>2026-04-30T09:37:26.692Z</time></trkpt><trkpt lat="43.1404759" lon="12.3549884"><ele>353.0</ele><time>2026-04-30T09:37:27.691Z</time></trkpt><trkpt lat="43.1406094" lon="12.3548331"><ele>351.0</ele><time>2026-04-30T09:37:28.692Z</time></trkpt><trkpt lat="43.1407487" lon="12.3546703"><ele>347.6666666666667</ele><time>2026-04-30T09:37:29.692Z</time></trkpt><trkpt lat="43.1408893" lon="12.3545954"><ele>344.33333333333337</ele><time>2026-04-30T09:37:30.693Z</time></trkpt><trkpt lat="43.1410328" lon="12.3545012"><ele>341.0</ele><time>2026-04-30T09:37:31.692Z</time></trkpt><trkpt lat="43.1411841" lon="12.3544618"><ele>341.0</ele><time>2026-04-30T09:37:32.693Z</time></trkpt><trkpt lat="43.1413365" lon="12.3544261"><ele>341.0</ele><time>2026-04-30T09:37:33.691Z</time></trkpt><trkpt lat="43.1414898" lon="12.354397"><ele>341.0</ele><time>2026-04-30T09:37:34.691Z</time></trkpt><trkpt lat="43.141643" lon="12.3543879"><ele>340.75</ele><time>2026-04-30T09:37:35.692Z</time></trkpt><trkpt lat="43.1417902" lon="12.3543942"><ele>340.5</ele><time>2026-04-30T09:37:36.692Z</time></trkpt><trkpt lat="43.1419217" lon="12.354417"><ele>340.25</ele><time>2026-04-30T09:37:37.691Z</time></trkpt><trkpt lat="43.1420503" lon="12.3544518"><ele>340.0</ele><time>2026-04-30T09:37:38.693Z</time></trkpt><trkpt lat="43.1421672" lon="12.3545517"><ele>340.0</ele><time>2026-04-30T09:37:39.693Z</time></trkpt><trkpt lat="43.1422825" lon="12.3546416"><ele>340.0</ele><time>2026-04-30T09:37:40.692Z</time></trkpt><trkpt lat="43.142373" lon="12.35476"><ele>340.0</ele><time>2026-04-30T09:37:41.692Z</time></trkpt><trkpt lat="43.1424784" lon="12.354874"><ele>340.0</ele><time>2026-04-30T09:37:42.692Z</time></trkpt><trkpt lat="43.1426475" lon="12.3551195"><ele>340.5</ele><time>2026-04-30T09:37:43.692Z</time></trkpt><trkpt lat="43.14278" lon="12.3554233"><ele>341.0</ele><time>2026-04-30T09:37:44.692Z</time></trkpt><trkpt lat="43.1429351" lon="12.3556872"><ele>342.6666666666667</ele><time>2026-04-30T09:37:45.691Z</time></trkpt><trkpt lat="43.1431016" lon="12.3558924"><ele>344.3333333333333</ele><time>2026-04-30T09:37:46.692Z</time></trkpt><trkpt lat="43.1432441" lon="12.3560816"><ele>346.0</ele><time>2026-04-30T09:37:47.691Z</time></trkpt><trkpt lat="43.1434506" lon="12.3561104"><ele>340.3333333333333</ele><time>2026-04-30T09:37:48.692Z</time></trkpt><trkpt lat="43.1436499" lon="12.3561121"><ele>334.6666666666667</ele><time>2026-04-30T09:37:49.693Z</time></trkpt><trkpt lat="43.1438222" lon="12.3560713"><ele>329.0</ele><time>2026-04-30T09:37:50.692Z</time></trkpt><trkpt lat="43.1439855" lon="12.3559741"><ele>329.0</ele><time>2026-04-30T09:37:51.692Z</time></trkpt><trkpt lat="43.1441314" lon="12.3558237"><ele>329.0</ele><time>2026-04-30T09:37:52.692Z</time></trkpt><trkpt lat="43.1442362" lon="12.355613"><ele>329.0</ele><time>2026-04-30T09:37:53.692Z</time></trkpt><trkpt lat="43.1443015" lon="12.3553854"><ele>328.33333333333337</ele><time>2026-04-30T09:37:54.692Z</time></trkpt><trkpt lat="43.1443274" lon="12.3551468"><ele>327.6666666666667</ele><time>2026-04-30T09:37:55.692Z</time></trkpt><trkpt lat="43.144311" lon="12.3548748"><ele>327.0</ele><time>2026-04-30T09:37:56.692Z</time></trkpt><trkpt lat="43.1442677" lon="12.3546462"><ele>324.3333333333333</ele><time>2026-04-30T09:37:57.692Z</time></trkpt><trkpt lat="43.1442105" lon="12.354412"><ele>321.66666666666663</ele><time>2026-04-30T09:37:58.692Z</time></trkpt><trkpt lat="43.1441569" lon="12.354172"><ele>319.0</ele><time>2026-04-30T09:37:59.692Z</time></trkpt><trkpt lat="43.144126" lon="12.3539685"><ele>317.66666666666663</ele><time>2026-04-30T09:38:00.693Z</time></trkpt><trkpt lat="43.1441227" lon="12.3537578"><ele>316.3333333333333</ele><time>2026-04-30T09:38:01.692Z</time></trkpt><trkpt lat="43.1441288" lon="12.3535323"><ele>315.0</ele><time>2026-04-30T09:38:02.691Z</time></trkpt><trkpt lat="43.1442156" lon="12.3533186"><ele>315.0</ele><time>2026-04-30T09:38:03.693Z</time></trkpt><trkpt lat="43.1442719" lon="12.3531032"><ele>315.0</ele><time>2026-04-30T09:38:04.691Z</time></trkpt><trkpt lat="43.1444421" lon="12.3529522"><ele>315.0</ele><time>2026-04-30T09:38:05.693Z</time></trkpt><trkpt lat="43.1445659" lon="12.3527537"><ele>314.3333333333333</ele><time>2026-04-30T09:38:06.693Z</time></trkpt><trkpt lat="43.1447028" lon="12.3525614"><ele>313.66666666666663</ele><time>2026-04-30T09:38:07.692Z</time></trkpt><trkpt lat="43.1448542" lon="12.3523746"><ele>313.0</ele><time>2026-04-30T09:38:08.692Z</time></trkpt><trkpt lat="43.1450008" lon="12.352179"><ele>312.0</ele><time>2026-04-30T09:38:09.692Z</time></trkpt><trkpt lat="43.1451585" lon="12.3520223"><ele>311.0</ele><time>2026-04-30T09:38:10.692Z</time></trkpt><trkpt lat="43.1452972" lon="12.3518051"><ele>310.0</ele><time>2026-04-30T09:38:11.692Z</time></trkpt><trkpt lat="43.1454528" lon="12.3516196"><ele>310.0</ele><time>2026-04-30T09:38:12.691Z</time></trkpt><trkpt lat="43.1456042" lon="12.351432"><ele>310.0</ele><time>2026-04-30T09:38:13.692Z</time></trkpt><trkpt lat="43.1457743" lon="12.3512682"><ele>310.0</ele><time>2026-04-30T09:38:14.693Z</time></trkpt><trkpt lat="43.1459546" lon="12.3511118"><ele>308.66666666666663</ele><time>2026-04-30T09:38:15.691Z</time></trkpt><trkpt lat="43.146134" lon="12.3509782"><ele>307.3333333333333</ele><time>2026-04-30T09:38:16.692Z</time></trkpt><trkpt lat="43.1463345" lon="12.3508959"><ele>306.0</ele><time>2026-04-30T09:38:17.691Z</time></trkpt><trkpt lat="43.1465426" lon="12.3508497"><ele>305.3333333333333</ele><time>2026-04-30T09:38:18.692Z</time></trkpt><trkpt lat="43.1467554" lon="12.3508245"><ele>304.66666666666663</ele><time>2026-04-30T09:38:19.692Z</time></trkpt><trkpt lat="43.1469654" lon="12.3508086"><ele>304.0</ele><time>2026-04-30T09:38:20.692Z</time></trkpt><trkpt lat="43.1471746" lon="12.3507816"><ele>304.0</ele><time>2026-04-30T09:38:21.692Z</time></trkpt><trkpt lat="43.1473797" lon="12.3507411"><ele>304.0</ele><time>2026-04-30T09:38:22.692Z</time></trkpt><trkpt lat="43.1475739" lon="12.3506861"><ele>304.0</ele><time>2026-04-30T09:38:23.692Z</time></trkpt><trkpt lat="43.1477722" lon="12.3506007"><ele>303.3333333333333</ele><time>2026-04-30T09:38:24.692Z</time></trkpt><trkpt lat="43.1479734" lon="12.3504988"><ele>302.6666666666667</ele><time>2026-04-30T09:38:25.692Z</time></trkpt><trkpt lat="43.1481662" lon="12.3503812"><ele>302.0</ele><time>2026-04-30T09:38:26.692Z</time></trkpt><trkpt lat="43.1483532" lon="12.3502378"><ele>302.0</ele><time>2026-04-30T09:38:27.692Z</time></trkpt><trkpt lat="43.1485279" lon="12.3500765"><ele>302.0</ele><time>2026-04-30T09:38:28.693Z</time></trkpt><trkpt lat="43.1486976" lon="12.349904"><ele>302.0</ele><time>2026-04-30T09:38:29.692Z</time></trkpt><trkpt lat="43.1488474" lon="12.3497161"><ele>301.6666666666667</ele><time>2026-04-30T09:38:30.692Z</time></trkpt><trkpt lat="43.1489885" lon="12.3495339"><ele>301.3333333333333</ele><time>2026-04-30T09:38:31.691Z</time></trkpt><trkpt lat="43.1491247" lon="12.3493402"><ele>301.0</ele><time>2026-04-30T09:38:32.692Z</time></trkpt><trkpt lat="43.1492427" lon="12.3491458"><ele>301.0</ele><time>2026-04-30T09:38:33.692Z</time></trkpt><trkpt lat="43.1493558" lon="12.3489481"><ele>301.0</ele><time>2026-04-30T09:38:34.692Z</time></trkpt><trkpt lat="43.1494676" lon="12.3487472"><ele>301.0</ele><time>2026-04-30T09:38:35.692Z</time></trkpt><trkpt lat="43.1495757" lon="12.348555"><ele>300.3333333333333</ele><time>2026-04-30T09:38:36.692Z</time></trkpt><trkpt lat="43.1496669" lon="12.348338"><ele>299.6666666666667</ele><time>2026-04-30T09:38:37.691Z</time></trkpt><trkpt lat="43.149758" lon="12.348165"><ele>299.0</ele><time>2026-04-30T09:38:38.691Z</time></trkpt><trkpt lat="43.1498572" lon="12.347998"><ele>298.6666666666667</ele><time>2026-04-30T09:38:39.691Z</time></trkpt><trkpt lat="43.1499818" lon="12.3478683"><ele>298.3333333333333</ele><time>2026-04-30T09:38:40.692Z</time></trkpt><trkpt lat="43.1501133" lon="12.3477394"><ele>298.0</ele><time>2026-04-30T09:38:41.692Z</time></trkpt><trkpt lat="43.1502497" lon="12.3476292"><ele>298.0</ele><time>2026-04-30T09:38:42.691Z</time></trkpt><trkpt lat="43.1503914" lon="12.3475077"><ele>298.0</ele><time>2026-04-30T09:38:43.691Z</time></trkpt><trkpt lat="43.1505417" lon="12.3474069"><ele>298.0</ele><time>2026-04-30T09:38:44.693Z</time></trkpt><trkpt lat="43.1506926" lon="12.3473051"><ele>296.66666666666663</ele><time>2026-04-30T09:38:45.692Z</time></trkpt><trkpt lat="43.150844" lon="12.3472306"><ele>295.3333333333333</ele><time>2026-04-30T09:38:46.691Z</time></trkpt><trkpt lat="43.1509906" lon="12.3471631"><ele>294.0</ele><time>2026-04-30T09:38:47.692Z</time></trkpt><trkpt lat="43.1511353" lon="12.347083"><ele>293.6666666666667</ele><time>2026-04-30T09:38:48.692Z</time></trkpt><trkpt lat="43.1512764" lon="12.3469851"><ele>293.33333333333337</ele><time>2026-04-30T09:38:49.692Z</time></trkpt><trkpt lat="43.1514126" lon="12.3468781"><ele>293.0</ele><time>2026-04-30T09:38:50.691Z</time></trkpt><trkpt lat="43.1515481" lon="12.3467661"><ele>292.5</ele><time>2026-04-30T09:38:51.691Z</time></trkpt><trkpt lat="43.1516729" lon="12.3466546"><ele>292.0</ele><time>2026-04-30T09:38:52.691Z</time></trkpt><trkpt lat="43.1517741" lon="12.3465357"><ele>291.5</ele><time>2026-04-30T09:38:53.693Z</time></trkpt><trkpt lat="43.1518671" lon="12.3464087"><ele>291.0</ele><time>2026-04-30T09:38:54.692Z</time></trkpt><trkpt lat="43.1520487" lon="12.3461691"><ele>291.0</ele><time>2026-04-30T09:38:56.386Z</time></trkpt><trkpt lat="43.15217" lon="12.3459878"><ele>291.0</ele><time>2026-04-30T09:38:57.692Z</time></trkpt><trkpt lat="43.1522597" lon="12.3458583"><ele>291.0</ele><time>2026-04-30T09:38:58.691Z</time></trkpt><trkpt lat="43.1523128" lon="12.345697"><ele>291.0</ele><time>2026-04-30T09:38:59.691Z</time></trkpt><trkpt lat="43.1523724" lon="12.345535"><ele>291.25</ele><time>2026-04-30T09:39:00.691Z</time></trkpt><trkpt lat="43.1524178" lon="12.3453788"><ele>291.5</ele><time>2026-04-30T09:39:01.692Z</time></trkpt><trkpt lat="43.1524653" lon="12.3452058"><ele>291.75</ele><time>2026-04-30T09:39:02.692Z</time></trkpt><trkpt lat="43.1525055" lon="12.345029"><ele>292.0</ele><time>2026-04-30T09:39:03.692Z</time></trkpt><trkpt lat="43.1525457" lon="12.3448528"><ele>292.0</ele><time>2026-04-30T09:39:04.691Z</time></trkpt><trkpt lat="43.1525813" lon="12.3446755"><ele>292.0</ele><time>2026-04-30T09:39:05.692Z</time></trkpt><trkpt lat="43.1526076" lon="12.3445229"><ele>292.0</ele><time>2026-04-30T09:39:06.692Z</time></trkpt><trkpt lat="43.1526375" lon="12.3443649"><ele>292.0</ele><time>2026-04-30T09:39:07.692Z</time></trkpt><trkpt lat="43.1526671" lon="12.3442244"><ele>292.0</ele><time>2026-04-30T09:39:08.692Z</time></trkpt><trkpt lat="43.1526993" lon="12.3440965"><ele>292.0</ele><time>2026-04-30T09:39:09.691Z</time></trkpt><trkpt lat="43.1527426" lon="12.3439826"><ele>292.0</ele><time>2026-04-30T09:39:10.692Z</time></trkpt><trkpt lat="43.1527858" lon="12.3438826"><ele>292.0</ele><time>2026-04-30T09:39:11.691Z</time></trkpt><trkpt lat="43.1528346" lon="12.3437973"><ele>292.0</ele><time>2026-04-30T09:39:12.692Z</time></trkpt><trkpt lat="43.1528848" lon="12.3437167"><ele>292.0</ele><time>2026-04-30T09:39:13.692Z</time></trkpt><trkpt lat="43.1529421" lon="12.3436521"><ele>292.0</ele><time>2026-04-30T09:39:14.692Z</time></trkpt><trkpt lat="43.1530393" lon="12.3435864"><ele>292.0</ele><time>2026-04-30T09:39:16.691Z</time></trkpt><trkpt lat="43.1530387" lon="12.3436825"><ele>292.0</ele><time>2026-04-30T09:39:17.693Z</time></trkpt><trkpt lat="43.1530179" lon="12.3437739"><ele>292.0</ele><time>2026-04-30T09:39:18.691Z</time></trkpt><trkpt lat="43.1529915" lon="12.3439855"><ele>292.0</ele><time>2026-04-30T09:39:20.692Z</time></trkpt><trkpt lat="43.1529753" lon="12.3441044"><ele>292.0</ele><time>2026-04-30T09:39:21.693Z</time></trkpt><trkpt lat="43.152954" lon="12.3442161"><ele>292.0</ele><time>2026-04-30T09:39:22.692Z</time></trkpt><trkpt lat="43.1529457" lon="12.3443665"><ele>292.0</ele><time>2026-04-30T09:39:23.692Z</time></trkpt><trkpt lat="43.1529341" lon="12.3445194"><ele>292.0</ele><time>2026-04-30T09:39:24.691Z</time></trkpt><trkpt lat="43.1529452" lon="12.3446702"><ele>292.0</ele><time>2026-04-30T09:39:25.692Z</time></trkpt><trkpt lat="43.1529373" lon="12.3448399"><ele>292.0</ele><time>2026-04-30T09:39:26.692Z</time></trkpt><trkpt lat="43.1529435" lon="12.3450056"><ele>292.0</ele><time>2026-04-30T09:39:27.691Z</time></trkpt><trkpt lat="43.1529642" lon="12.3451499"><ele>292.0</ele><time>2026-04-30T09:39:28.693Z</time></trkpt><trkpt lat="43.1529684" lon="12.3452664"><ele>292.0</ele><time>2026-04-30T09:39:29.692Z</time></trkpt><trkpt lat="43.1529906" lon="12.3453711"><ele>292.0</ele><time>2026-04-30T09:39:30.692Z</time></trkpt><trkpt lat="43.1530202" lon="12.3454604"><ele>292.4</ele><time>2026-04-30T09:39:31.692Z</time></trkpt><trkpt lat="43.1530657" lon="12.3455641"><ele>292.79999999999995</ele><time>2026-04-30T09:39:32.692Z</time></trkpt><trkpt lat="43.1531079" lon="12.3456613"><ele>293.2</ele><time>2026-04-30T09:39:33.691Z</time></trkpt><trkpt lat="43.1531571" lon="12.3457675"><ele>293.59999999999997</ele><time>2026-04-30T09:39:34.692Z</time></trkpt><trkpt lat="43.1532029" lon="12.3458805"><ele>294.0</ele><time>2026-04-30T09:39:35.692Z</time></trkpt><trkpt lat="43.1532767" lon="12.345986"><ele>294.0</ele><time>2026-04-30T09:39:36.692Z</time></trkpt><trkpt lat="43.153314" lon="12.3460862"><ele>294.0</ele><time>2026-04-30T09:39:37.692Z</time></trkpt><trkpt lat="43.1533534" lon="12.3461665"><ele>294.0</ele><time>2026-04-30T09:39:38.692Z</time></trkpt><trkpt lat="43.1533933" lon="12.3462714"><ele>294.0</ele><time>2026-04-30T09:39:39.692Z</time></trkpt><trkpt lat="43.153444" lon="12.346412"><ele>294.0</ele><time>2026-04-30T09:39:40.693Z</time></trkpt><trkpt lat="43.1534828" lon="12.346531"><ele>294.0</ele><time>2026-04-30T09:39:41.691Z</time></trkpt><trkpt lat="43.1535472" lon="12.3466863"><ele>294.0</ele><time>2026-04-30T09:39:42.692Z</time></trkpt><trkpt lat="43.1536014" lon="12.3468165"><ele>294.0</ele><time>2026-04-30T09:39:43.692Z</time></trkpt><trkpt lat="43.153653" lon="12.3469493"><ele>294.0</ele><time>2026-04-30T09:39:44.692Z</time></trkpt><trkpt lat="43.1536894" lon="12.3470636"><ele>294.0</ele><time>2026-04-30T09:39:45.691Z</time></trkpt><trkpt lat="43.1537258" lon="12.3471782"><ele>294.0</ele><time>2026-04-30T09:39:46.693Z</time></trkpt><trkpt lat="43.1537647" lon="12.3473236"><ele>294.3333333333333</ele><time>2026-04-30T09:39:48.692Z</time></trkpt><trkpt lat="43.1538252" lon="12.3474298"><ele>294.6666666666667</ele><time>2026-04-30T09:39:50.692Z</time></trkpt><trkpt lat="43.1538747" lon="12.3475043"><ele>295.0</ele><time>2026-04-30T09:39:52.692Z</time></trkpt><trkpt lat="43.1539409" lon="12.3475517"><ele>295.33333333333337</ele><time>2026-04-30T09:39:54.693Z</time></trkpt><trkpt lat="43.1540283" lon="12.3475556"><ele>295.6666666666667</ele><time>2026-04-30T09:39:56.692Z</time></trkpt><trkpt lat="43.1541045" lon="12.347558"><ele>296.0</ele><time>2026-04-30T09:39:58.693Z</time></trkpt><trkpt lat="43.1541918" lon="12.347572"><ele>296.2</ele><time>2026-04-30T09:40:01.692Z</time></trkpt><trkpt lat="43.1542577" lon="12.3475944"><ele>296.40000000000003</ele><time>2026-04-30T09:40:03.691Z</time></trkpt><trkpt lat="43.1543765" lon="12.3476246"><ele>296.6</ele><time>2026-04-30T09:40:05.692Z</time></trkpt><trkpt lat="43.1544661" lon="12.3476116"><ele>296.8</ele><time>2026-04-30T09:40:06.692Z</time></trkpt><trkpt lat="43.1545512" lon="12.3476512"><ele>297.0</ele><time>2026-04-30T09:40:07.693Z</time></trkpt><trkpt lat="43.1546525" lon="12.3476861"><ele>297.0</ele><time>2026-04-30T09:40:08.693Z</time></trkpt><trkpt lat="43.154741" lon="12.3477243"><ele>297.0</ele><time>2026-04-30T09:40:09.692Z</time></trkpt><trkpt lat="43.1548237" lon="12.347761"><ele>297.0</ele><time>2026-04-30T09:40:10.693Z</time></trkpt><trkpt lat="43.1549166" lon="12.347795"><ele>297.0</ele><time>2026-04-30T09:40:11.692Z</time></trkpt><trkpt lat="43.1550153" lon="12.3478278"><ele>297.0</ele><time>2026-04-30T09:40:12.692Z</time></trkpt><trkpt lat="43.1551254" lon="12.3478863"><ele>297.8</ele><time>2026-04-30T09:40:13.693Z</time></trkpt><trkpt lat="43.1552228" lon="12.3479254"><ele>298.6</ele><time>2026-04-30T09:40:14.693Z</time></trkpt><trkpt lat="43.1553129" lon="12.3479601"><ele>299.40000000000003</ele><time>2026-04-30T09:40:15.692Z</time></trkpt><trkpt lat="43.1553941" lon="12.3480117"><ele>300.2</ele><time>2026-04-30T09:40:16.693Z</time></trkpt><trkpt lat="43.1554796" lon="12.3480666"><ele>301.0</ele><time>2026-04-30T09:40:17.692Z</time></trkpt><trkpt lat="43.1555529" lon="12.3480934"><ele>301.0</ele><time>2026-04-30T09:40:18.692Z</time></trkpt><trkpt lat="43.1556392" lon="12.3480777"><ele>301.0</ele><time>2026-04-30T09:40:19.691Z</time></trkpt><trkpt lat="43.1557121" lon="12.3480824"><ele>301.0</ele><time>2026-04-30T09:40:20.692Z</time></trkpt><trkpt lat="43.155817" lon="12.3481646"><ele>301.0</ele><time>2026-04-30T09:40:22.692Z</time></trkpt><trkpt lat="43.1558704" lon="12.3482414"><ele>301.0</ele><time>2026-04-30T09:40:23.692Z</time></trkpt><trkpt lat="43.1559343" lon="12.3483092"><ele>301.0</ele><time>2026-04-30T09:40:24.692Z</time></trkpt><trkpt lat="43.1560074" lon="12.3483481"><ele>303.0</ele><time>2026-04-30T09:40:25.692Z</time></trkpt><trkpt lat="43.1560973" lon="12.3483379"><ele>305.0</ele><time>2026-04-30T09:40:26.692Z</time></trkpt><trkpt lat="43.156193" lon="12.3483505"><ele>307.0</ele><time>2026-04-30T09:40:27.692Z</time></trkpt><trkpt lat="43.1562839" lon="12.3483532"><ele>309.0</ele><time>2026-04-30T09:40:28.692Z</time></trkpt><trkpt lat="43.1563811" lon="12.3483507"><ele>311.0</ele><time>2026-04-30T09:40:29.692Z</time></trkpt><trkpt lat="43.1564756" lon="12.348338"><ele>313.8</ele><time>2026-04-30T09:40:30.692Z</time></trkpt><trkpt lat="43.1565743" lon="12.3483209"><ele>316.6</ele><time>2026-04-30T09:40:31.693Z</time></trkpt><trkpt lat="43.1566661" lon="12.3483101"><ele>319.4</ele><time>2026-04-30T09:40:32.691Z</time></trkpt><trkpt lat="43.1567535" lon="12.3482973"><ele>322.2</ele><time>2026-04-30T09:40:33.691Z</time></trkpt><trkpt lat="43.1568289" lon="12.3482753"><ele>325.0</ele><time>2026-04-30T09:40:34.694Z</time></trkpt><trkpt lat="43.1569296" lon="12.348284"><ele>325.0</ele><time>2026-04-30T09:40:35.692Z</time></trkpt><trkpt lat="43.1570138" lon="12.3483059"><ele>325.0</ele><time>2026-04-30T09:40:36.691Z</time></trkpt><trkpt lat="43.1570933" lon="12.3483444"><ele>325.0</ele><time>2026-04-30T09:40:37.692Z</time></trkpt><trkpt lat="43.1571786" lon="12.3483774"><ele>325.0</ele><time>2026-04-30T09:40:38.692Z</time></trkpt><trkpt lat="43.157271" lon="12.3484355"><ele>325.0</ele><time>2026-04-30T09:40:39.693Z</time></trkpt><trkpt lat="43.1573604" lon="12.3484811"><ele>328.3333333333333</ele><time>2026-04-30T09:40:40.691Z</time></trkpt><trkpt lat="43.1574163" lon="12.3485226"><ele>331.66666666666663</ele><time>2026-04-30T09:40:41.692Z</time></trkpt><trkpt lat="43.157479" lon="12.3485572"><ele>335.0</ele><time>2026-04-30T09:40:42.692Z</time></trkpt><trkpt lat="43.1575783" lon="12.3485932"><ele>338.3333333333333</ele><time>2026-04-30T09:40:44.692Z</time></trkpt><trkpt lat="43.1576579" lon="12.3485985"><ele>341.6666666666667</ele><time>2026-04-30T09:40:46.693Z</time></trkpt><trkpt lat="43.1577239" lon="12.3485752"><ele>345.0</ele><time>2026-04-30T09:40:48.693Z</time></trkpt><trkpt lat="43.157798" lon="12.3484914"><ele>345.0</ele><time>2026-04-30T09:40:51.693Z</time></trkpt><trkpt lat="43.1578475" lon="12.3484115"><ele>345.0</ele><time>2026-04-30T09:40:53.692Z</time></trkpt><trkpt lat="43.1579318" lon="12.348313"><ele>345.0</ele><time>2026-04-30T09:40:56.693Z</time></trkpt><trkpt lat="43.1580175" lon="12.3482944"><ele>345.0</ele><time>2026-04-30T09:40:58.692Z</time></trkpt><trkpt lat="43.1581376" lon="12.348274"><ele>345.0</ele><time>2026-04-30T09:41:00.692Z</time></trkpt><trkpt lat="43.1582781" lon="12.3482449"><ele>346.5</ele><time>2026-04-30T09:41:02.692Z</time></trkpt><trkpt lat="43.1583627" lon="12.3482262"><ele>348.0</ele><time>2026-04-30T09:41:03.691Z</time></trkpt><trkpt lat="43.158438" lon="12.34821"><ele>349.5</ele><time>2026-04-30T09:41:04.692Z</time></trkpt><trkpt lat="43.1585089" lon="12.3481925"><ele>351.0</ele><time>2026-04-30T09:41:05.692Z</time></trkpt><trkpt lat="43.1585872" lon="12.34818"><ele>352.5</ele><time>2026-04-30T09:41:06.692Z</time></trkpt><trkpt lat="43.1586686" lon="12.3481515"><ele>354.0</ele><time>2026-04-30T09:41:07.693Z</time></trkpt><trkpt lat="43.1587466" lon="12.3481348"><ele>354.0</ele><time>2026-04-30T09:41:08.692Z</time></trkpt><trkpt lat="43.1588201" lon="12.348115"><ele>354.0</ele><time>2026-04-30T09:41:09.693Z</time></trkpt><trkpt lat="43.1588876" lon="12.3481152"><ele>354.0</ele><time>2026-04-30T09:41:10.692Z</time></trkpt><trkpt lat="43.1589552" lon="12.3482294"><ele>354.0</ele><time>2026-04-30T09:41:12.693Z</time></trkpt><trkpt lat="43.1589669" lon="12.3483294"><ele>354.0</ele><time>2026-04-30T09:41:13.692Z</time></trkpt><trkpt lat="43.1589681" lon="12.3484492"><ele>354.0</ele><time>2026-04-30T09:41:14.693Z</time></trkpt><trkpt lat="43.1589757" lon="12.3485489"><ele>354.0</ele><time>2026-04-30T09:41:15.693Z</time></trkpt><trkpt lat="43.1590261" lon="12.3486993"><ele>354.0</ele><time>2026-04-30T09:41:17.692Z</time></trkpt><trkpt lat="43.1590656" lon="12.3487676"><ele>354.0</ele><time>2026-04-30T09:41:18.692Z</time></trkpt><trkpt lat="43.1591564" lon="12.3488693"><ele>354.0</ele><time>2026-04-30T09:41:20.693Z</time></trkpt><trkpt lat="43.159218" lon="12.3488992"><ele>354.0</ele><time>2026-04-30T09:41:21.693Z</time></trkpt><trkpt lat="43.1592884" lon="12.3489346"><ele>354.0</ele><time>2026-04-30T09:41:22.693Z</time></trkpt><trkpt lat="43.1593594" lon="12.3489741"><ele>356.79999999999995</ele><time>2026-04-30T09:41:23.691Z</time></trkpt><trkpt lat="43.1594354" lon="12.3490107"><ele>359.59999999999997</ele><time>2026-04-30T09:41:24.693Z</time></trkpt><trkpt lat="43.1595175" lon="12.3490514"><ele>362.4</ele><time>2026-04-30T09:41:25.693Z</time></trkpt><trkpt lat="43.1596008" lon="12.3490902"><ele>365.2</ele><time>2026-04-30T09:41:26.691Z</time></trkpt><trkpt lat="43.159689" lon="12.3491261"><ele>368.0</ele><time>2026-04-30T09:41:27.692Z</time></trkpt><trkpt lat="43.1597925" lon="12.3491343"><ele>369.5</ele><time>2026-04-30T09:41:28.692Z</time></trkpt><trkpt lat="43.1598786" lon="12.3491676"><ele>371.0</ele><time>2026-04-30T09:41:29.692Z</time></trkpt><trkpt lat="43.1599585" lon="12.3491785"><ele>372.5</ele><time>2026-04-30T09:41:30.692Z</time></trkpt><trkpt lat="43.1600402" lon="12.3491811"><ele>374.0</ele><time>2026-04-30T09:41:31.693Z</time></trkpt><trkpt lat="43.1601327" lon="12.3491439"><ele>375.5</ele><time>2026-04-30T09:41:32.692Z</time></trkpt><trkpt lat="43.1602107" lon="12.3491339"><ele>377.0</ele><time>2026-04-30T09:41:33.691Z</time></trkpt><trkpt lat="43.1602866" lon="12.3491204"><ele>377.0</ele><time>2026-04-30T09:41:34.692Z</time></trkpt><trkpt lat="43.1603681" lon="12.3491202"><ele>377.0</ele><time>2026-04-30T09:41:35.692Z</time></trkpt><trkpt lat="43.160447" lon="12.3491111"><ele>377.0</ele><time>2026-04-30T09:41:36.693Z</time></trkpt><trkpt lat="43.1605199" lon="12.3491923"><ele>377.0</ele><time>2026-04-30T09:41:38.691Z</time></trkpt><trkpt lat="43.1605632" lon="12.3493707"><ele>377.0</ele><time>2026-04-30T09:41:40.692Z</time></trkpt><trkpt lat="43.1605911" lon="12.3494762"><ele>377.0</ele><time>2026-04-30T09:41:41.693Z</time></trkpt><trkpt lat="43.1606246" lon="12.3495768"><ele>377.0</ele><time>2026-04-30T09:41:42.692Z</time></trkpt><trkpt lat="43.1606727" lon="12.3497278"><ele>377.0</ele><time>2026-04-30T09:41:43.693Z</time></trkpt><trkpt lat="43.160714" lon="12.3498587"><ele>377.0</ele><time>2026-04-30T09:41:44.692Z</time></trkpt><trkpt lat="43.1607777" lon="12.3499936"><ele>377.0</ele><time>2026-04-30T09:41:45.693Z</time></trkpt><trkpt lat="43.1608069" lon="12.3501367"><ele>381.40000000000003</ele><time>2026-04-30T09:41:46.692Z</time></trkpt><trkpt lat="43.1608576" lon="12.3502779"><ele>385.8</ele><time>2026-04-30T09:41:47.691Z</time></trkpt><trkpt lat="43.1609051" lon="12.3504105"><ele>390.2</ele><time>2026-04-30T09:41:48.692Z</time></trkpt><trkpt lat="43.1609637" lon="12.3505237"><ele>394.6</ele><time>2026-04-30T09:41:49.692Z</time></trkpt><trkpt lat="43.1610116" lon="12.3506435"><ele>399.0</ele><time>2026-04-30T09:41:50.691Z</time></trkpt><trkpt lat="43.1610602" lon="12.3507244"><ele>400.3333333333333</ele><time>2026-04-30T09:41:51.692Z</time></trkpt><trkpt lat="43.1611079" lon="12.3508326"><ele>401.66666666666663</ele><time>2026-04-30T09:41:53.692Z</time></trkpt><trkpt lat="43.1611803" lon="12.3508707"><ele>403.0</ele><time>2026-04-30T09:42:01.692Z</time></trkpt><trkpt lat="43.1612539" lon="12.3508536"><ele>404.3333333333333</ele><time>2026-04-30T09:42:03.693Z</time></trkpt><trkpt lat="43.1613595" lon="12.3508404"><ele>405.66666666666663</ele><time>2026-04-30T09:42:05.692Z</time></trkpt><trkpt lat="43.1614302" lon="12.3508416"><ele>407.0</ele><time>2026-04-30T09:42:06.693Z</time></trkpt><trkpt lat="43.161542" lon="12.350833"><ele>407.8333333333333</ele><time>2026-04-30T09:42:08.692Z</time></trkpt><trkpt lat="43.1616064" lon="12.3508169"><ele>408.66666666666663</ele><time>2026-04-30T09:42:09.693Z</time></trkpt><trkpt lat="43.1616793" lon="12.350811"><ele>409.5</ele><time>2026-04-30T09:42:10.692Z</time></trkpt><trkpt lat="43.1617594" lon="12.3508031"><ele>410.33333333333337</ele><time>2026-04-30T09:42:11.693Z</time></trkpt><trkpt lat="43.1618289" lon="12.3507872"><ele>411.1666666666667</ele><time>2026-04-30T09:42:12.692Z</time></trkpt><trkpt lat="43.1619161" lon="12.350778"><ele>412.0</ele><time>2026-04-30T09:42:13.692Z</time></trkpt><trkpt lat="43.162001" lon="12.3507571"><ele>412.0</ele><time>2026-04-30T09:42:14.691Z</time></trkpt><trkpt lat="43.1621027" lon="12.350727"><ele>412.0</ele><time>2026-04-30T09:42:15.692Z</time></trkpt><trkpt lat="43.1622154" lon="12.3506929"><ele>412.0</ele><time>2026-04-30T09:42:16.693Z</time></trkpt><trkpt lat="43.1623119" lon="12.3506498"><ele>412.0</ele><time>2026-04-30T09:42:17.693Z</time></trkpt><trkpt lat="43.1623968" lon="12.3506167"><ele>412.0</ele><time>2026-04-30T09:42:18.692Z</time></trkpt><trkpt lat="43.1624742" lon="12.350583"><ele>413.00000000000006</ele><time>2026-04-30T09:42:19.693Z</time></trkpt><trkpt lat="43.1625604" lon="12.3505388"><ele>414.0</ele><time>2026-04-30T09:42:20.692Z</time></trkpt><trkpt lat="43.1626282" lon="12.3505151"><ele>415.0</ele><time>2026-04-30T09:42:21.692Z</time></trkpt><trkpt lat="43.1627177" lon="12.3504764"><ele>416.0</ele><time>2026-04-30T09:42:22.692Z</time></trkpt><trkpt lat="43.1627997" lon="12.3504398"><ele>417.00000000000006</ele><time>2026-04-30T09:42:23.692Z</time></trkpt><trkpt lat="43.1628796" lon="12.3503888"><ele>418.0</ele><time>2026-04-30T09:42:24.693Z</time></trkpt><trkpt lat="43.1629732" lon="12.3503229"><ele>418.00000000000006</ele><time>2026-04-30T09:42:25.691Z</time></trkpt><trkpt lat="43.1630499" lon="12.3502778"><ele>418.0</ele><time>2026-04-30T09:42:26.691Z</time></trkpt><trkpt lat="43.1631346" lon="12.3502294"><ele>418.0</ele><time>2026-04-30T09:42:27.691Z</time></trkpt><trkpt lat="43.1632118" lon="12.3502308"><ele>418.0</ele><time>2026-04-30T09:42:28.693Z</time></trkpt><trkpt lat="43.1632932" lon="12.3502197"><ele>418.00000000000006</ele><time>2026-04-30T09:42:29.693Z</time></trkpt><trkpt lat="43.1633753" lon="12.3502015"><ele>418.0</ele><time>2026-04-30T09:42:30.693Z</time></trkpt><trkpt lat="43.1634569" lon="12.3501793"><ele>420.1666666666667</ele><time>2026-04-30T09:42:31.692Z</time></trkpt><trkpt lat="43.1635194" lon="12.3501622"><ele>422.33333333333337</ele><time>2026-04-30T09:42:32.693Z</time></trkpt><trkpt lat="43.1636085" lon="12.3500715"><ele>424.5</ele><time>2026-04-30T09:42:34.692Z</time></trkpt><trkpt lat="43.1636593" lon="12.3499957"><ele>426.66666666666663</ele><time>2026-04-30T09:42:35.693Z</time></trkpt><trkpt lat="43.1637153" lon="12.3499085"><ele>428.8333333333333</ele><time>2026-04-30T09:42:36.692Z</time></trkpt><trkpt lat="43.163765" lon="12.3498334"><ele>431.0</ele><time>2026-04-30T09:42:37.693Z</time></trkpt><trkpt lat="43.1638203" lon="12.3497595"><ele>430.7142857142857</ele><time>2026-04-30T09:42:38.693Z</time></trkpt><trkpt lat="43.1638686" lon="12.3497015"><ele>430.4285714285714</ele><time>2026-04-30T09:42:39.693Z</time></trkpt><trkpt lat="43.163928" lon="12.3496354"><ele>430.1428571428571</ele><time>2026-04-30T09:42:40.692Z</time></trkpt><trkpt lat="43.1639803" lon="12.3495785"><ele>429.8571428571429</ele><time>2026-04-30T09:42:41.692Z</time></trkpt><trkpt lat="43.1640338" lon="12.3495225"><ele>429.57142857142856</ele><time>2026-04-30T09:42:42.693Z</time></trkpt><trkpt lat="43.1641058" lon="12.3494851"><ele>429.2857142857143</ele><time>2026-04-30T09:42:43.693Z</time></trkpt><trkpt lat="43.1641945" lon="12.3494421"><ele>429.0</ele><time>2026-04-30T09:42:44.692Z</time></trkpt><trkpt lat="43.1642858" lon="12.3494255"><ele>429.0</ele><time>2026-04-30T09:42:45.692Z</time></trkpt><trkpt lat="43.1643768" lon="12.3494022"><ele>429.0</ele><time>2026-04-30T09:42:46.692Z</time></trkpt><trkpt lat="43.1644773" lon="12.3493861"><ele>429.0</ele><time>2026-04-30T09:42:47.693Z</time></trkpt><trkpt lat="43.1645679" lon="12.3493706"><ele>429.0</ele><time>2026-04-30T09:42:48.691Z</time></trkpt><trkpt lat="43.164643" lon="12.349359"><ele>429.0</ele><time>2026-04-30T09:42:49.692Z</time></trkpt><trkpt lat="43.1647206" lon="12.3493556"><ele>429.0</ele><time>2026-04-30T09:42:50.692Z</time></trkpt><trkpt lat="43.1647981" lon="12.3493468"><ele>431.0</ele><time>2026-04-30T09:42:51.691Z</time></trkpt><trkpt lat="43.1649192" lon="12.349312"><ele>433.0</ele><time>2026-04-30T09:42:53.692Z</time></trkpt><trkpt lat="43.1650311" lon="12.3492841"><ele>435.0</ele><time>2026-04-30T09:42:55.692Z</time></trkpt><trkpt lat="43.1650977" lon="12.3492379"><ele>437.0</ele><time>2026-04-30T09:42:56.692Z</time></trkpt><trkpt lat="43.1651914" lon="12.3492228"><ele>439.0</ele><time>2026-04-30T09:42:58.692Z</time></trkpt><trkpt lat="43.1652551" lon="12.3492105"><ele>439.00000000000006</ele><time>2026-04-30T09:43:00.692Z</time></trkpt><trkpt lat="43.1653428" lon="12.3492072"><ele>439.0</ele><time>2026-04-30T09:43:03.693Z</time></trkpt><trkpt lat="43.1654175" lon="12.3491987"><ele>439.0</ele><time>2026-04-30T09:43:05.693Z</time></trkpt><trkpt lat="43.1654893" lon="12.3491875"><ele>439.0</ele><time>2026-04-30T09:43:07.693Z</time></trkpt><trkpt lat="43.1655512" lon="12.3491375"><ele>439.00000000000006</ele><time>2026-04-30T09:43:10.692Z</time></trkpt><trkpt lat="43.1656243" lon="12.3491098"><ele>439.0</ele><time>2026-04-30T09:43:13.692Z</time></trkpt><trkpt lat="43.1657173" lon="12.3490782"><ele>441.6</ele><time>2026-04-30T09:43:15.693Z</time></trkpt><trkpt lat="43.165805" lon="12.3490583"><ele>444.2</ele><time>2026-04-30T09:43:17.692Z</time></trkpt><trkpt lat="43.1659092" lon="12.3490412"><ele>446.80000000000007</ele><time>2026-04-30T09:43:19.692Z</time></trkpt><trkpt lat="43.1660307" lon="12.3489984"><ele>449.40000000000003</ele><time>2026-04-30T09:43:21.691Z</time></trkpt><trkpt lat="43.1661385" lon="12.3489705"><ele>452.0</ele><time>2026-04-30T09:43:24.693Z</time></trkpt><trkpt lat="43.1662418" lon="12.3489997"><ele>452.0</ele><time>2026-04-30T09:43:26.692Z</time></trkpt><trkpt lat="43.166342" lon="12.3490312"><ele>452.0</ele><time>2026-04-30T09:43:28.691Z</time></trkpt><trkpt lat="43.1664298" lon="12.3490968"><ele>452.0</ele><time>2026-04-30T09:43:30.692Z</time></trkpt><trkpt lat="43.1665145" lon="12.3492108"><ele>452.0</ele><time>2026-04-30T09:43:32.693Z</time></trkpt><trkpt lat="43.1665971" lon="12.3493533"><ele>453.0</ele><time>2026-04-30T09:43:34.693Z</time></trkpt><trkpt lat="43.1666512" lon="12.3494324"><ele>454.0</ele><time>2026-04-30T09:43:36.692Z</time></trkpt><trkpt lat="43.1666916" lon="12.34953"><ele>455.0</ele><time>2026-04-30T09:43:38.693Z</time></trkpt><trkpt lat="43.1667317" lon="12.349601"><ele>456.0</ele><time>2026-04-30T09:43:40.691Z</time></trkpt><trkpt lat="43.1667847" lon="12.3496665"><ele>457.0</ele><time>2026-04-30T09:43:44.692Z</time></trkpt><trkpt lat="43.1668589" lon="12.3496655"><ele>458.0</ele><time>2026-04-30T09:43:47.692Z</time></trkpt><trkpt lat="43.1669237" lon="12.3496597"><ele>459.0</ele><time>2026-04-30T09:43:49.692Z</time></trkpt><trkpt lat="43.1669963" lon="12.3496392"><ele>459.0</ele><time>2026-04-30T09:43:51.692Z</time></trkpt><trkpt lat="43.1670895" lon="12.3495508"><ele>459.0</ele><time>2026-04-30T09:43:53.692Z</time></trkpt><trkpt lat="43.1671883" lon="12.3494527"><ele>459.0</ele><time>2026-04-30T09:43:55.692Z</time></trkpt><trkpt lat="43.1672655" lon="12.3493653"><ele>459.0</ele><time>2026-04-30T09:43:57.691Z</time></trkpt><trkpt lat="43.16734" lon="12.3492672"><ele>459.0</ele><time>2026-04-30T09:43:59.693Z</time></trkpt><trkpt lat="43.1673959" lon="12.3491569"><ele>459.2</ele><time>2026-04-30T09:44:01.692Z</time></trkpt><trkpt lat="43.167443" lon="12.3490699"><ele>459.4</ele><time>2026-04-30T09:44:03.693Z</time></trkpt><trkpt lat="43.1674822" lon="12.3490014"><ele>459.6</ele><time>2026-04-30T09:44:05.692Z</time></trkpt><trkpt lat="43.1675498" lon="12.3489018"><ele>459.8</ele><time>2026-04-30T09:44:07.693Z</time></trkpt><trkpt lat="43.1676205" lon="12.3487927"><ele>460.0</ele><time>2026-04-30T09:44:09.693Z</time></trkpt><trkpt lat="43.1676945" lon="12.3486846"><ele>461.8</ele><time>2026-04-30T09:44:11.691Z</time></trkpt><trkpt lat="43.1677754" lon="12.34858"><ele>463.6</ele><time>2026-04-30T09:44:13.693Z</time></trkpt><trkpt lat="43.1678522" lon="12.3484779"><ele>465.4</ele><time>2026-04-30T09:44:15.692Z</time></trkpt><trkpt lat="43.1679286" lon="12.3483924"><ele>467.2</ele><time>2026-04-30T09:44:17.692Z</time></trkpt><trkpt lat="43.1680252" lon="12.3483209"><ele>469.0</ele><time>2026-04-30T09:44:19.692Z</time></trkpt><trkpt lat="43.1681004" lon="12.3482791"><ele>471.2</ele><time>2026-04-30T09:44:21.693Z</time></trkpt><trkpt lat="43.1682016" lon="12.3482619"><ele>473.4</ele><time>2026-04-30T09:44:23.693Z</time></trkpt><trkpt lat="43.1682658" lon="12.3482497"><ele>475.6</ele><time>2026-04-30T09:44:24.693Z</time></trkpt><trkpt lat="43.1683999" lon="12.3482006"><ele>477.8</ele><time>2026-04-30T09:44:26.693Z</time></trkpt><trkpt lat="43.1684738" lon="12.3482024"><ele>480.0</ele><time>2026-04-30T09:44:27.691Z</time></trkpt><trkpt lat="43.1685471" lon="12.3482017"><ele>480.0</ele><time>2026-04-30T09:44:28.693Z</time></trkpt><trkpt lat="43.1686599" lon="12.3481637"><ele>480.0</ele><time>2026-04-30T09:44:30.693Z</time></trkpt><trkpt lat="43.168723" lon="12.3481549"><ele>480.0</ele><time>2026-04-30T09:44:31.692Z</time></trkpt><trkpt lat="43.1688191" lon="12.3481114"><ele>480.0</ele><time>2026-04-30T09:44:33.693Z</time></trkpt><trkpt lat="43.1688866" lon="12.3480082"><ele>480.0</ele><time>2026-04-30T09:44:35.692Z</time></trkpt><trkpt lat="43.1689566" lon="12.3479165"><ele>482.1666666666667</ele><time>2026-04-30T09:44:37.694Z</time></trkpt><trkpt lat="43.169027" lon="12.3479098"><ele>484.33333333333337</ele><time>2026-04-30T09:44:39.693Z</time></trkpt><trkpt lat="43.1691069" lon="12.347902"><ele>486.5</ele><time>2026-04-30T09:44:41.693Z</time></trkpt><trkpt lat="43.1692114" lon="12.347886"><ele>488.6666666666667</ele><time>2026-04-30T09:44:43.693Z</time></trkpt><trkpt lat="43.1692985" lon="12.347835"><ele>490.83333333333337</ele><time>2026-04-30T09:44:45.692Z</time></trkpt><trkpt lat="43.1693797" lon="12.3477859"><ele>493.0</ele><time>2026-04-30T09:44:48.693Z</time></trkpt><trkpt lat="43.1694372" lon="12.3477382"><ele>493.00000000000006</ele><time>2026-04-30T09:44:50.691Z</time></trkpt><trkpt lat="43.1694949" lon="12.3476612"><ele>493.0</ele><time>2026-04-30T09:44:53.692Z</time></trkpt><trkpt lat="43.1695531" lon="12.3476156"><ele>493.0</ele><time>2026-04-30T09:44:55.692Z</time></trkpt><trkpt lat="43.1696253" lon="12.3475481"><ele>493.0</ele><time>2026-04-30T09:44:58.691Z</time></trkpt><trkpt lat="43.1697048" lon="12.3474861"><ele>493.00000000000006</ele><time>2026-04-30T09:45:00.691Z</time></trkpt><trkpt lat="43.1697773" lon="12.3474237"><ele>493.0</ele><time>2026-04-30T09:45:02.692Z</time></trkpt><trkpt lat="43.1698535" lon="12.3473924"><ele>492.2</ele><time>2026-04-30T09:45:04.691Z</time></trkpt><trkpt lat="43.1699352" lon="12.3473512"><ele>491.4</ele><time>2026-04-30T09:45:06.692Z</time></trkpt><trkpt lat="43.1700271" lon="12.3472876"><ele>490.59999999999997</ele><time>2026-04-30T09:45:07.692Z</time></trkpt><trkpt lat="43.1701282" lon="12.347235"><ele>489.79999999999995</ele><time>2026-04-30T09:45:09.692Z</time></trkpt><trkpt lat="43.1702515" lon="12.3471905"><ele>489.0</ele><time>2026-04-30T09:45:11.691Z</time></trkpt><trkpt lat="43.1703385" lon="12.347137"><ele>489.0</ele><time>2026-04-30T09:45:12.692Z</time></trkpt><trkpt lat="43.1704376" lon="12.3470972"><ele>489.0</ele><time>2026-04-30T09:45:14.692Z</time></trkpt><trkpt lat="43.1705153" lon="12.3470825"><ele>489.0</ele><time>2026-04-30T09:45:16.692Z</time></trkpt><trkpt lat="43.1705961" lon="12.3469824"><ele>489.0</ele><time>2026-04-30T09:45:25.691Z</time></trkpt><trkpt lat="43.1706435" lon="12.3468938"><ele>489.0</ele><time>2026-04-30T09:45:27.692Z</time></trkpt><trkpt lat="43.1707185" lon="12.3468433"><ele>488.1666666666667</ele><time>2026-04-30T09:45:29.692Z</time></trkpt><trkpt lat="43.170782" lon="12.3467985"><ele>487.33333333333337</ele><time>2026-04-30T09:45:30.691Z</time></trkpt><trkpt lat="43.1708645" lon="12.346717"><ele>486.5</ele><time>2026-04-30T09:45:32.692Z</time></trkpt><trkpt lat="43.1709075" lon="12.3466143"><ele>485.6666666666667</ele><time>2026-04-30T09:45:34.692Z</time></trkpt><trkpt lat="43.1709729" lon="12.3465105"><ele>484.83333333333337</ele><time>2026-04-30T09:45:36.692Z</time></trkpt><trkpt lat="43.1710384" lon="12.3464555"><ele>484.0</ele><time>2026-04-30T09:45:38.692Z</time></trkpt><trkpt lat="43.1710895" lon="12.3464049"><ele>484.0</ele><time>2026-04-30T09:45:39.692Z</time></trkpt><trkpt lat="43.171235" lon="12.3463904"><ele>484.0</ele><time>2026-04-30T09:45:42.692Z</time></trkpt><trkpt lat="43.1713102" lon="12.3464284"><ele>484.0</ele><time>2026-04-30T09:45:43.692Z</time></trkpt><trkpt lat="43.1713981" lon="12.3464434"><ele>484.0</ele><time>2026-04-30T09:45:44.692Z</time></trkpt><trkpt lat="43.1714884" lon="12.3464278"><ele>484.0</ele><time>2026-04-30T09:45:45.691Z</time></trkpt><trkpt lat="43.1715579" lon="12.3464611"><ele>481.4</ele><time>2026-04-30T09:45:46.692Z</time></trkpt><trkpt lat="43.1716824" lon="12.3464857"><ele>478.79999999999995</ele><time>2026-04-30T09:45:48.692Z</time></trkpt><trkpt lat="43.1717621" lon="12.3465072"><ele>476.20000000000005</ele><time>2026-04-30T09:45:49.692Z</time></trkpt><trkpt lat="43.1718559" lon="12.3465369"><ele>473.6</ele><time>2026-04-30T09:45:51.692Z</time></trkpt><trkpt lat="43.1719289" lon="12.3465938"><ele>471.0</ele><time>2026-04-30T09:45:53.692Z</time></trkpt><trkpt lat="43.1719963" lon="12.3466947"><ele>471.0</ele><time>2026-04-30T09:45:55.692Z</time></trkpt><trkpt lat="43.1720771" lon="12.3468057"><ele>471.0</ele><time>2026-04-30T09:45:57.692Z</time></trkpt><trkpt lat="43.1721232" lon="12.3468767"><ele>471.0</ele><time>2026-04-30T09:45:58.692Z</time></trkpt><trkpt lat="43.1721805" lon="12.3469365"><ele>471.0</ele><time>2026-04-30T09:45:59.692Z</time></trkpt><trkpt lat="43.1722307" lon="12.3470037"><ele>471.0</ele><time>2026-04-30T09:46:00.692Z</time></trkpt><trkpt lat="43.1723024" lon="12.3470436"><ele>471.0</ele><time>2026-04-30T09:46:01.691Z</time></trkpt><trkpt lat="43.1723704" lon="12.347083"><ele>470.3333333333333</ele><time>2026-04-30T09:46:02.692Z</time></trkpt><trkpt lat="43.1724461" lon="12.3471023"><ele>469.66666666666663</ele><time>2026-04-30T09:46:03.693Z</time></trkpt><trkpt lat="43.1725145" lon="12.3471505"><ele>469.0</ele><time>2026-04-30T09:46:04.693Z</time></trkpt><trkpt lat="43.1725875" lon="12.3471846"><ele>468.3333333333333</ele><time>2026-04-30T09:46:05.693Z</time></trkpt><trkpt lat="43.1726662" lon="12.3472481"><ele>467.66666666666663</ele><time>2026-04-30T09:46:06.692Z</time></trkpt><trkpt lat="43.1727427" lon="12.3473156"><ele>467.0</ele><time>2026-04-30T09:46:07.693Z</time></trkpt><trkpt lat="43.1728256" lon="12.3473825"><ele>468.3333333333333</ele><time>2026-04-30T09:46:08.693Z</time></trkpt><trkpt lat="43.1728931" lon="12.3474411"><ele>469.66666666666663</ele><time>2026-04-30T09:46:09.693Z</time></trkpt><trkpt lat="43.1729781" lon="12.3474625"><ele>471.0</ele><time>2026-04-30T09:46:10.691Z</time></trkpt><trkpt lat="43.1730693" lon="12.3474807"><ele>472.33333333333337</ele><time>2026-04-30T09:46:11.692Z</time></trkpt><trkpt lat="43.1731505" lon="12.3474836"><ele>473.6666666666667</ele><time>2026-04-30T09:46:12.692Z</time></trkpt><trkpt lat="43.1732131" lon="12.3474958"><ele>475.0</ele><time>2026-04-30T09:46:13.692Z</time></trkpt><trkpt lat="43.1733136" lon="12.3474662"><ele>475.50000000000006</ele><time>2026-04-30T09:46:15.693Z</time></trkpt><trkpt lat="43.1733742" lon="12.3474367"><ele>476.0</ele><time>2026-04-30T09:46:16.691Z</time></trkpt><trkpt lat="43.1734937" lon="12.3474111"><ele>476.5</ele><time>2026-04-30T09:46:18.692Z</time></trkpt><trkpt lat="43.1735568" lon="12.3474221"><ele>477.0</ele><time>2026-04-30T09:46:19.692Z</time></trkpt><trkpt lat="43.1736241" lon="12.3474186"><ele>477.50000000000006</ele><time>2026-04-30T09:46:20.692Z</time></trkpt><trkpt lat="43.1736974" lon="12.3474264"><ele>478.0</ele><time>2026-04-30T09:46:21.691Z</time></trkpt><trkpt lat="43.1737938" lon="12.3474432"><ele>478.0</ele><time>2026-04-30T09:46:22.693Z</time></trkpt><trkpt lat="43.173874" lon="12.3474619"><ele>477.99999999999994</ele><time>2026-04-30T09:46:23.692Z</time></trkpt><trkpt lat="43.1739392" lon="12.3474931"><ele>477.99999999999994</ele><time>2026-04-30T09:46:24.693Z</time></trkpt><trkpt lat="43.1740074" lon="12.3475048"><ele>478.0</ele><time>2026-04-30T09:46:25.692Z</time></trkpt><trkpt lat="43.174121" lon="12.3475405"><ele>478.0</ele><time>2026-04-30T09:46:27.692Z</time></trkpt><trkpt lat="43.1742408" lon="12.3475721"><ele>479.00000000000006</ele><time>2026-04-30T09:46:29.693Z</time></trkpt><trkpt lat="43.1743075" lon="12.3475812"><ele>480.0</ele><time>2026-04-30T09:46:30.693Z</time></trkpt><trkpt lat="43.1743717" lon="12.3475935"><ele>481.0</ele><time>2026-04-30T09:46:31.693Z</time></trkpt><trkpt lat="43.1744443" lon="12.3475876"><ele>482.0</ele><time>2026-04-30T09:46:32.693Z</time></trkpt><trkpt lat="43.174557" lon="12.3475929"><ele>483.00000000000006</ele><time>2026-04-30T09:46:34.691Z</time></trkpt><trkpt lat="43.1746339" lon="12.3477347"><ele>484.0</ele><time>2026-04-30T09:46:36.693Z</time></trkpt><trkpt lat="43.1746545" lon="12.3478296"><ele>484.0</ele><time>2026-04-30T09:46:37.693Z</time></trkpt><trkpt lat="43.1746637" lon="12.3479164"><ele>484.0</ele><time>2026-04-30T09:46:38.692Z</time></trkpt><trkpt lat="43.1746831" lon="12.3480662"><ele>484.0</ele><time>2026-04-30T09:46:40.692Z</time></trkpt><trkpt lat="43.1747066" lon="12.3482041"><ele>484.0</ele><time>2026-04-30T09:46:42.692Z</time></trkpt><trkpt lat="43.1747251" lon="12.3483256"><ele>484.0</ele><time>2026-04-30T09:46:44.693Z</time></trkpt><trkpt lat="43.1747689" lon="12.3484309"><ele>484.0</ele><time>2026-04-30T09:46:46.692Z</time></trkpt><trkpt lat="43.1748155" lon="12.3485025"><ele>484.0</ele><time>2026-04-30T09:46:47.694Z</time></trkpt><trkpt lat="43.1748723" lon="12.3486417"><ele>484.0</ele><time>2026-04-30T09:46:49.691Z</time></trkpt><trkpt lat="43.174943" lon="12.3487657"><ele>484.0</ele><time>2026-04-30T09:46:51.693Z</time></trkpt><trkpt lat="43.1750316" lon="12.3488507"><ele>484.0</ele><time>2026-04-30T09:46:53.692Z</time></trkpt><trkpt lat="43.1750793" lon="12.3489355"><ele>485.50000000000006</ele><time>2026-04-30T09:46:55.693Z</time></trkpt><trkpt lat="43.1751293" lon="12.3490271"><ele>487.0</ele><time>2026-04-30T09:46:57.692Z</time></trkpt><trkpt lat="43.1751728" lon="12.3491309"><ele>488.5</ele><time>2026-04-30T09:46:59.692Z</time></trkpt><trkpt lat="43.1751848" lon="12.3492471"><ele>490.0</ele><time>2026-04-30T09:47:01.692Z</time></trkpt><trkpt lat="43.1752255" lon="12.3493502"><ele>491.50000000000006</ele><time>2026-04-30T09:47:03.692Z</time></trkpt><trkpt lat="43.1752836" lon="12.3492808"><ele>493.0</ele><time>2026-04-30T09:47:06.693Z</time></trkpt><trkpt lat="43.1753518" lon="12.3491768"><ele>493.0</ele><time>2026-04-30T09:47:08.693Z</time></trkpt><trkpt lat="43.1754097" lon="12.3491263"><ele>493.0</ele><time>2026-04-30T09:47:09.693Z</time></trkpt><trkpt lat="43.1754657" lon="12.3490824"><ele>493.0</ele><time>2026-04-30T09:47:10.692Z</time></trkpt><trkpt lat="43.1755259" lon="12.3490293"><ele>493.0</ele><time>2026-04-30T09:47:11.694Z</time></trkpt><trkpt lat="43.1755833" lon="12.3489865"><ele>493.0</ele><time>2026-04-30T09:47:12.692Z</time></trkpt><trkpt lat="43.1756555" lon="12.3489342"><ele>493.0</ele><time>2026-04-30T09:47:13.693Z</time></trkpt><trkpt lat="43.1757296" lon="12.3488897"><ele>493.0</ele><time>2026-04-30T09:47:14.692Z</time></trkpt><trkpt lat="43.1758021" lon="12.3488507"><ele>494.79999999999995</ele><time>2026-04-30T09:47:15.691Z</time></trkpt><trkpt lat="43.1759264" lon="12.3488494"><ele>496.59999999999997</ele><time>2026-04-30T09:47:17.692Z</time></trkpt><trkpt lat="43.176047" lon="12.3488896"><ele>498.40000000000003</ele><time>2026-04-30T09:47:19.692Z</time></trkpt><trkpt lat="43.176108" lon="12.3489278"><ele>500.20000000000005</ele><time>2026-04-30T09:47:20.693Z</time></trkpt><trkpt lat="43.1761978" lon="12.348961"><ele>502.0</ele><time>2026-04-30T09:47:22.693Z</time></trkpt><trkpt lat="43.1762597" lon="12.3490113"><ele>502.33333333333337</ele><time>2026-04-30T09:47:24.693Z</time></trkpt><trkpt lat="43.1763189" lon="12.349047"><ele>502.6666666666667</ele><time>2026-04-30T09:47:26.693Z</time></trkpt><trkpt lat="43.176397" lon="12.3490423"><ele>503.0</ele><time>2026-04-30T09:47:28.694Z</time></trkpt><trkpt lat="43.1765065" lon="12.3489885"><ele>503.33333333333337</ele><time>2026-04-30T09:47:30.692Z</time></trkpt><trkpt lat="43.1765677" lon="12.3489664"><ele>503.6666666666667</ele><time>2026-04-30T09:47:31.693Z</time></trkpt><trkpt lat="43.1766817" lon="12.3489308"><ele>504.0</ele><time>2026-04-30T09:47:33.693Z</time></trkpt><trkpt lat="43.1767448" lon="12.348906"><ele>505.5</ele><time>2026-04-30T09:47:35.692Z</time></trkpt><trkpt lat="43.1768206" lon="12.348865"><ele>507.0</ele><time>2026-04-30T09:47:37.693Z</time></trkpt><trkpt lat="43.1768836" lon="12.3488129"><ele>508.5</ele><time>2026-04-30T09:47:39.691Z</time></trkpt><trkpt lat="43.1769513" lon="12.3487358"><ele>510.0</ele><time>2026-04-30T09:47:41.693Z</time></trkpt><trkpt lat="43.1770017" lon="12.3486692"><ele>511.5</ele><time>2026-04-30T09:47:42.692Z</time></trkpt><trkpt lat="43.1770468" lon="12.3486008"><ele>513.0</ele><time>2026-04-30T09:47:43.692Z</time></trkpt><trkpt lat="43.177106" lon="12.3485179"><ele>513.0</ele><time>2026-04-30T09:47:44.693Z</time></trkpt><trkpt lat="43.1771709" lon="12.3484557"><ele>513.0</ele><time>2026-04-30T09:47:45.693Z</time></trkpt><trkpt lat="43.1772322" lon="12.3483774"><ele>513.0</ele><time>2026-04-30T09:47:46.692Z</time></trkpt><trkpt lat="43.1772858" lon="12.3482964"><ele>513.0</ele><time>2026-04-30T09:47:47.693Z</time></trkpt><trkpt lat="43.1773333" lon="12.3482316"><ele>513.0</ele><time>2026-04-30T09:47:48.692Z</time></trkpt><trkpt lat="43.177385" lon="12.3481618"><ele>513.0</ele><time>2026-04-30T09:47:49.692Z</time></trkpt><trkpt lat="43.1774603" lon="12.3480355"><ele>514.3333333333334</ele><time>2026-04-30T09:47:51.693Z</time></trkpt><trkpt lat="43.1775188" lon="12.3479853"><ele>515.6666666666666</ele><time>2026-04-30T09:47:52.692Z</time></trkpt><trkpt lat="43.1775702" lon="12.3479272"><ele>517.0</ele><time>2026-04-30T09:47:53.693Z</time></trkpt><trkpt lat="43.1776311" lon="12.3478573"><ele>518.3333333333333</ele><time>2026-04-30T09:47:55.693Z</time></trkpt><trkpt lat="43.1776836" lon="12.3478015"><ele>519.6666666666666</ele><time>2026-04-30T09:47:57.693Z</time></trkpt><trkpt lat="43.1777494" lon="12.3477084"><ele>521.0</ele><time>2026-04-30T09:47:59.693Z</time></trkpt><trkpt lat="43.1778095" lon="12.3476222"><ele>521.0</ele><time>2026-04-30T09:48:01.692Z</time></trkpt><trkpt lat="43.1778733" lon="12.3475259"><ele>521.0</ele><time>2026-04-30T09:48:03.693Z</time></trkpt><trkpt lat="43.1779781" lon="12.3474944"><ele>521.0</ele><time>2026-04-30T09:48:05.693Z</time></trkpt><trkpt lat="43.1780672" lon="12.3474792"><ele>521.0</ele><time>2026-04-30T09:48:07.693Z</time></trkpt><trkpt lat="43.1781522" lon="12.347416"><ele>521.0</ele><time>2026-04-30T09:48:09.692Z</time></trkpt><trkpt lat="43.178257" lon="12.3473329"><ele>521.3333333333333</ele><time>2026-04-30T09:48:11.692Z</time></trkpt><trkpt lat="43.1783267" lon="12.3472695"><ele>521.6666666666666</ele><time>2026-04-30T09:48:12.693Z</time></trkpt><trkpt lat="43.1784428" lon="12.3471843"><ele>522.0</ele><time>2026-04-30T09:48:14.692Z</time></trkpt><trkpt lat="43.1785014" lon="12.3471333"><ele>522.3333333333334</ele><time>2026-04-30T09:48:15.693Z</time></trkpt><trkpt lat="43.1785732" lon="12.3470869"><ele>522.6666666666667</ele><time>2026-04-30T09:48:16.692Z</time></trkpt><trkpt lat="43.1786451" lon="12.347036"><ele>523.0</ele><time>2026-04-30T09:48:17.692Z</time></trkpt><trkpt lat="43.1787231" lon="12.3469767"><ele>523.0</ele><time>2026-04-30T09:48:18.693Z</time></trkpt><trkpt lat="43.1788284" lon="12.3469272"><ele>523.0</ele><time>2026-04-30T09:48:19.693Z</time></trkpt><trkpt lat="43.1789193" lon="12.3468674"><ele>523.0</ele><time>2026-04-30T09:48:20.692Z</time></trkpt><trkpt lat="43.1789845" lon="12.3468106"><ele>523.0</ele><time>2026-04-30T09:48:21.693Z</time></trkpt><trkpt lat="43.1790644" lon="12.3467974"><ele>523.0</ele><time>2026-04-30T09:48:22.692Z</time></trkpt><trkpt lat="43.1791483" lon="12.346777"><ele>524.0</ele><time>2026-04-30T09:48:23.693Z</time></trkpt><trkpt lat="43.1792269" lon="12.3467915"><ele>525.0</ele><time>2026-04-30T09:48:24.693Z</time></trkpt><trkpt lat="43.1792924" lon="12.3468095"><ele>526.0</ele><time>2026-04-30T09:48:25.692Z</time></trkpt><trkpt lat="43.1793624" lon="12.346811"><ele>527.0</ele><time>2026-04-30T09:48:26.693Z</time></trkpt><trkpt lat="43.1794631" lon="12.3468296"><ele>528.0</ele><time>2026-04-30T09:48:28.909Z</time></trkpt><trkpt lat="43.1798298" lon="12.3467736"><ele>528.75</ele><time>2026-04-30T09:48:32.91Z</time></trkpt><trkpt lat="43.179897" lon="12.3466664"><ele>529.5</ele><time>2026-04-30T09:48:33.91Z</time></trkpt><trkpt lat="43.1800054" lon="12.3466397"><ele>530.25</ele><time>2026-04-30T09:48:34.91Z</time></trkpt><trkpt lat="43.1801483" lon="12.346542"><ele>531.0</ele><time>2026-04-30T09:48:36.91Z</time></trkpt><trkpt lat="43.1803159" lon="12.3464886"><ele>531.0</ele><time>2026-04-30T09:48:37.91Z</time></trkpt><trkpt lat="43.180417" lon="12.3464387"><ele>531.0</ele><time>2026-04-30T09:48:39.692Z</time></trkpt><trkpt lat="43.180527" lon="12.3463937"><ele>531.0</ele><time>2026-04-30T09:48:41.692Z</time></trkpt><trkpt lat="43.1806154" lon="12.3463526"><ele>531.0</ele><time>2026-04-30T09:48:42.691Z</time></trkpt><trkpt lat="43.1807027" lon="12.3463224"><ele>531.0</ele><time>2026-04-30T09:48:43.692Z</time></trkpt><trkpt lat="43.1808137" lon="12.3462672"><ele>531.2</ele><time>2026-04-30T09:48:44.692Z</time></trkpt><trkpt lat="43.180915" lon="12.3462194"><ele>531.4000000000001</ele><time>2026-04-30T09:48:45.691Z</time></trkpt><trkpt lat="43.1810145" lon="12.3461655"><ele>531.6</ele><time>2026-04-30T09:48:46.691Z</time></trkpt><trkpt lat="43.1811194" lon="12.3461234"><ele>531.8000000000001</ele><time>2026-04-30T09:48:47.691Z</time></trkpt><trkpt lat="43.1812262" lon="12.3460794"><ele>532.0</ele><time>2026-04-30T09:48:48.692Z</time></trkpt><trkpt lat="43.1813337" lon="12.3460359"><ele>532.0</ele><time>2026-04-30T09:48:49.692Z</time></trkpt><trkpt lat="43.1814247" lon="12.3460063"><ele>532.0</ele><time>2026-04-30T09:48:50.692Z</time></trkpt><trkpt lat="43.1815107" lon="12.3459627"><ele>532.0</ele><time>2026-04-30T09:48:51.692Z</time></trkpt><trkpt lat="43.1815862" lon="12.3459474"><ele>532.0</ele><time>2026-04-30T09:48:52.691Z</time></trkpt><trkpt lat="43.1816705" lon="12.3459084"><ele>532.0</ele><time>2026-04-30T09:48:53.692Z</time></trkpt><trkpt lat="43.1817505" lon="12.345866"><ele>532.0</ele><time>2026-04-30T09:48:54.691Z</time></trkpt><trkpt lat="43.1818281" lon="12.3458316"><ele>532.3333333333334</ele><time>2026-04-30T09:48:55.693Z</time></trkpt><trkpt lat="43.1819052" lon="12.3457977"><ele>532.6666666666667</ele><time>2026-04-30T09:48:56.692Z</time></trkpt><trkpt lat="43.1819708" lon="12.34578"><ele>533.0</ele><time>2026-04-30T09:48:57.694Z</time></trkpt><trkpt lat="43.1820488" lon="12.3457577"><ele>533.3333333333334</ele><time>2026-04-30T09:48:58.692Z</time></trkpt><trkpt lat="43.1821167" lon="12.3457435"><ele>533.6666666666666</ele><time>2026-04-30T09:48:59.694Z</time></trkpt><trkpt lat="43.1821921" lon="12.3457289"><ele>534.0</ele><time>2026-04-30T09:49:00.692Z</time></trkpt><trkpt lat="43.1823163" lon="12.3457212"><ele>535.1666666666666</ele><time>2026-04-30T09:49:02.692Z</time></trkpt><trkpt lat="43.1824221" lon="12.3456808"><ele>536.3333333333334</ele><time>2026-04-30T09:49:04.692Z</time></trkpt><trkpt lat="43.182488" lon="12.3456634"><ele>537.5</ele><time>2026-04-30T09:49:05.693Z</time></trkpt><trkpt lat="43.1825559" lon="12.3456499"><ele>538.6666666666667</ele><time>2026-04-30T09:49:06.692Z</time></trkpt><trkpt lat="43.1826388" lon="12.345645"><ele>539.8333333333334</ele><time>2026-04-30T09:49:07.693Z</time></trkpt><trkpt lat="43.1827389" lon="12.34562"><ele>541.0</ele><time>2026-04-30T09:49:08.693Z</time></trkpt><trkpt lat="43.182845" lon="12.3455983"><ele>541.0</ele><time>2026-04-30T09:49:09.693Z</time></trkpt><trkpt lat="43.1829799" lon="12.3455783"><ele>541.0</ele><time>2026-04-30T09:49:10.694Z</time></trkpt><trkpt lat="43.1831129" lon="12.3455525"><ele>541.0</ele><time>2026-04-30T09:49:11.693Z</time></trkpt><trkpt lat="43.1832425" lon="12.3455246"><ele>541.0</ele><time>2026-04-30T09:49:12.693Z</time></trkpt><trkpt lat="43.1833398" lon="12.3455045"><ele>542.0</ele><time>2026-04-30T09:49:13.693Z</time></trkpt><trkpt lat="43.1834532" lon="12.3454595"><ele>543.0</ele><time>2026-04-30T09:49:14.691Z</time></trkpt><trkpt lat="43.1835626" lon="12.3454353"><ele>544.0</ele><time>2026-04-30T09:49:15.692Z</time></trkpt><trkpt lat="43.183673" lon="12.3453687"><ele>545.0</ele><time>2026-04-30T09:49:16.693Z</time></trkpt><trkpt lat="43.1837911" lon="12.3453093"><ele>545.0</ele><time>2026-04-30T09:49:17.693Z</time></trkpt><trkpt lat="43.1838926" lon="12.3452897"><ele>545.0</ele><time>2026-04-30T09:49:18.692Z</time></trkpt><trkpt lat="43.1839624" lon="12.3453157"><ele>545.0</ele><time>2026-04-30T09:49:19.694Z</time></trkpt><trkpt lat="43.1840286" lon="12.3453525"><ele>545.0</ele><time>2026-04-30T09:49:20.692Z</time></trkpt><trkpt lat="43.1841092" lon="12.3453981"><ele>545.0</ele><time>2026-04-30T09:49:21.692Z</time></trkpt><trkpt lat="43.1841942" lon="12.3454454"><ele>545.0</ele><time>2026-04-30T09:49:22.693Z</time></trkpt><trkpt lat="43.1842653" lon="12.34542"><ele>547.8</ele><time>2026-04-30T09:49:23.693Z</time></trkpt><trkpt lat="43.1843443" lon="12.3454475"><ele>550.6</ele><time>2026-04-30T09:49:24.693Z</time></trkpt><trkpt lat="43.1844333" lon="12.3454547"><ele>553.4</ele><time>2026-04-30T09:49:25.693Z</time></trkpt><trkpt lat="43.1845466" lon="12.3454743"><ele>556.2</ele><time>2026-04-30T09:49:26.694Z</time></trkpt><trkpt lat="43.1846456" lon="12.3454972"><ele>559.0</ele><time>2026-04-30T09:49:27.693Z</time></trkpt><trkpt lat="43.1847433" lon="12.3454989"><ele>559.0</ele><time>2026-04-30T09:49:28.693Z</time></trkpt><trkpt lat="43.1848319" lon="12.3455215"><ele>559.0</ele><time>2026-04-30T09:49:29.693Z</time></trkpt><trkpt lat="43.1849515" lon="12.3455542"><ele>559.0</ele><time>2026-04-30T09:49:30.693Z</time></trkpt><trkpt lat="43.1850695" lon="12.3455748"><ele>559.0</ele><time>2026-04-30T09:49:31.693Z</time></trkpt><trkpt lat="43.1851823" lon="12.3455953"><ele>559.0</ele><time>2026-04-30T09:49:32.692Z</time></trkpt><trkpt lat="43.1853067" lon="12.3455969"><ele>560.25</ele><time>2026-04-30T09:49:33.693Z</time></trkpt><trkpt lat="43.1854399" lon="12.3456003"><ele>561.5</ele><time>2026-04-30T09:49:34.693Z</time></trkpt><trkpt lat="43.1855592" lon="12.3455925"><ele>562.75</ele><time>2026-04-30T09:49:35.693Z</time></trkpt><trkpt lat="43.1856596" lon="12.3455756"><ele>564.0</ele><time>2026-04-30T09:49:36.693Z</time></trkpt><trkpt lat="43.1857584" lon="12.3455811"><ele>564.0</ele><time>2026-04-30T09:49:37.693Z</time></trkpt><trkpt lat="43.1858429" lon="12.3455917"><ele>564.0</ele><time>2026-04-30T09:49:38.693Z</time></trkpt><trkpt lat="43.1859407" lon="12.3455738"><ele>564.0</ele><time>2026-04-30T09:49:39.693Z</time></trkpt><trkpt lat="43.1860488" lon="12.3455233"><ele>564.0</ele><time>2026-04-30T09:49:40.693Z</time></trkpt><trkpt lat="43.1861485" lon="12.3454842"><ele>564.0</ele><time>2026-04-30T09:49:41.693Z</time></trkpt><trkpt lat="43.1862537" lon="12.3454342"><ele>563.8</ele><time>2026-04-30T09:49:42.693Z</time></trkpt><trkpt lat="43.1863541" lon="12.3453741"><ele>563.5999999999999</ele><time>2026-04-30T09:49:43.692Z</time></trkpt><trkpt lat="43.1864454" lon="12.345325"><ele>563.4</ele><time>2026-04-30T09:49:44.693Z</time></trkpt><trkpt lat="43.1865313" lon="12.3453033"><ele>563.1999999999999</ele><time>2026-04-30T09:49:45.693Z</time></trkpt><trkpt lat="43.1866072" lon="12.345246"><ele>563.0</ele><time>2026-04-30T09:49:46.693Z</time></trkpt><trkpt lat="43.1866743" lon="12.3451961"><ele>563.0</ele><time>2026-04-30T09:49:47.693Z</time></trkpt><trkpt lat="43.1867634" lon="12.3451275"><ele>563.0</ele><time>2026-04-30T09:49:48.693Z</time></trkpt><trkpt lat="43.1868446" lon="12.3450586"><ele>563.0</ele><time>2026-04-30T09:49:49.693Z</time></trkpt><trkpt lat="43.1869084" lon="12.3449971"><ele>563.0</ele><time>2026-04-30T09:49:50.693Z</time></trkpt><trkpt lat="43.1870025" lon="12.3448887"><ele>563.0</ele><time>2026-04-30T09:49:52.693Z</time></trkpt><trkpt lat="43.1869881" lon="12.3447789"><ele>561.4</ele><time>2026-04-30T09:49:54.693Z</time></trkpt><trkpt lat="43.1869295" lon="12.3446688"><ele>559.8</ele><time>2026-04-30T09:49:56.692Z</time></trkpt><trkpt lat="43.1868668" lon="12.3445782"><ele>558.2</ele><time>2026-04-30T09:49:57.693Z</time></trkpt><trkpt lat="43.1868035" lon="12.3444864"><ele>556.6</ele><time>2026-04-30T09:49:58.693Z</time></trkpt><trkpt lat="43.186727" lon="12.3443823"><ele>555.0</ele><time>2026-04-30T09:49:59.693Z</time></trkpt><trkpt lat="43.1866637" lon="12.3442804"><ele>555.0</ele><time>2026-04-30T09:50:00.693Z</time></trkpt><trkpt lat="43.1866013" lon="12.3441785"><ele>555.0</ele><time>2026-04-30T09:50:01.693Z</time></trkpt><trkpt lat="43.1865458" lon="12.3440905"><ele>555.0</ele><time>2026-04-30T09:50:02.693Z</time></trkpt><trkpt lat="43.1864859" lon="12.344015"><ele>555.0</ele><time>2026-04-30T09:50:03.692Z</time></trkpt><trkpt lat="43.1864319" lon="12.3439294"><ele>555.0</ele><time>2026-04-30T09:50:04.692Z</time></trkpt><trkpt lat="43.1863767" lon="12.3438442"><ele>555.0</ele><time>2026-04-30T09:50:05.693Z</time></trkpt><trkpt lat="43.186325" lon="12.3437666"><ele>554.0</ele><time>2026-04-30T09:50:06.693Z</time></trkpt><trkpt lat="43.1863088" lon="12.3436197"><ele>553.0</ele><time>2026-04-30T09:50:08.694Z</time></trkpt><trkpt lat="43.1863447" lon="12.3435364"><ele>552.0</ele><time>2026-04-30T09:50:09.693Z</time></trkpt><trkpt lat="43.1864117" lon="12.3434473"><ele>551.0</ele><time>2026-04-30T09:50:10.693Z</time></trkpt><trkpt lat="43.1864973" lon="12.343336"><ele>550.0</ele><time>2026-04-30T09:50:11.693Z</time></trkpt><trkpt lat="43.1866084" lon="12.3432105"><ele>550.0</ele><time>2026-04-30T09:50:12.693Z</time></trkpt><trkpt lat="43.1867137" lon="12.3430774"><ele>550.0</ele><time>2026-04-30T09:50:13.692Z</time></trkpt><trkpt lat="43.186811" lon="12.3429577"><ele>550.0</ele><time>2026-04-30T09:50:14.692Z</time></trkpt><trkpt lat="43.1868863" lon="12.3428398"><ele>550.0</ele><time>2026-04-30T09:50:15.693Z</time></trkpt><trkpt lat="43.1869757" lon="12.3427315"><ele>550.5</ele><time>2026-04-30T09:50:16.693Z</time></trkpt><trkpt lat="43.1870566" lon="12.3426221"><ele>551.0</ele><time>2026-04-30T09:50:17.692Z</time></trkpt><trkpt lat="43.1871614" lon="12.3425171"><ele>551.5</ele><time>2026-04-30T09:50:18.693Z</time></trkpt><trkpt lat="43.1872716" lon="12.3424042"><ele>552.0</ele><time>2026-04-30T09:50:19.692Z</time></trkpt><trkpt lat="43.1873829" lon="12.342316"><ele>552.0</ele><time>2026-04-30T09:50:20.693Z</time></trkpt><trkpt lat="43.1874885" lon="12.3422441"><ele>552.0</ele><time>2026-04-30T09:50:21.693Z</time></trkpt><trkpt lat="43.1875867" lon="12.3421861"><ele>552.0</ele><time>2026-04-30T09:50:22.693Z</time></trkpt><trkpt lat="43.1876841" lon="12.3421302"><ele>552.0</ele><time>2026-04-30T09:50:23.693Z</time></trkpt><trkpt lat="43.1877907" lon="12.3420727"><ele>552.0</ele><time>2026-04-30T09:50:24.693Z</time></trkpt><trkpt lat="43.1878964" lon="12.3420357"><ele>550.6666666666666</ele><time>2026-04-30T09:50:25.693Z</time></trkpt><trkpt lat="43.187988" lon="12.342012"><ele>549.3333333333334</ele><time>2026-04-30T09:50:26.692Z</time></trkpt><trkpt lat="43.1880687" lon="12.3419916"><ele>548.0</ele><time>2026-04-30T09:50:27.692Z</time></trkpt><trkpt lat="43.1881496" lon="12.3419675"><ele>546.6666666666667</ele><time>2026-04-30T09:50:28.693Z</time></trkpt><trkpt lat="43.1882359" lon="12.3419524"><ele>545.3333333333334</ele><time>2026-04-30T09:50:29.693Z</time></trkpt><trkpt lat="43.1883271" lon="12.3419571"><ele>544.0</ele><time>2026-04-30T09:50:30.693Z</time></trkpt><trkpt lat="43.1884156" lon="12.3419516"><ele>543.8</ele><time>2026-04-30T09:50:31.693Z</time></trkpt><trkpt lat="43.1885038" lon="12.3419113"><ele>543.5999999999999</ele><time>2026-04-30T09:50:32.693Z</time></trkpt><trkpt lat="43.1886015" lon="12.3418839"><ele>543.4</ele><time>2026-04-30T09:50:33.692Z</time></trkpt><trkpt lat="43.1886977" lon="12.3418604"><ele>543.1999999999999</ele><time>2026-04-30T09:50:34.693Z</time></trkpt><trkpt lat="43.1887897" lon="12.3418073"><ele>543.0</ele><time>2026-04-30T09:50:35.693Z</time></trkpt><trkpt lat="43.18888" lon="12.3417702"><ele>543.0</ele><time>2026-04-30T09:50:36.693Z</time></trkpt><trkpt lat="43.1889655" lon="12.3417478"><ele>543.0</ele><time>2026-04-30T09:50:37.693Z</time></trkpt><trkpt lat="43.1890404" lon="12.3417137"><ele>543.0</ele><time>2026-04-30T09:50:38.693Z</time></trkpt><trkpt lat="43.189123" lon="12.3416845"><ele>543.0</ele><time>2026-04-30T09:50:39.693Z</time></trkpt><trkpt lat="43.1891982" lon="12.3416486"><ele>543.0</ele><time>2026-04-30T09:50:40.692Z</time></trkpt><trkpt lat="43.1892606" lon="12.3416275"><ele>543.0</ele><time>2026-04-30T09:50:41.692Z</time></trkpt><trkpt lat="43.1893265" lon="12.3416457"><ele>542.8</ele><time>2026-04-30T09:50:44.694Z</time></trkpt><trkpt lat="43.1893648" lon="12.3417592"><ele>542.5999999999999</ele><time>2026-04-30T09:50:46.693Z</time></trkpt><trkpt lat="43.1893833" lon="12.3419139"><ele>542.4000000000001</ele><time>2026-04-30T09:50:48.693Z</time></trkpt><trkpt lat="43.1893882" lon="12.3420308"><ele>542.2</ele><time>2026-04-30T09:50:49.693Z</time></trkpt><trkpt lat="43.1894055" lon="12.342139"><ele>542.0</ele><time>2026-04-30T09:50:50.693Z</time></trkpt><trkpt lat="43.189417" lon="12.3422534"><ele>545.75</ele><time>2026-04-30T09:50:51.693Z</time></trkpt><trkpt lat="43.1894316" lon="12.3423892"><ele>549.5</ele><time>2026-04-30T09:50:52.693Z</time></trkpt><trkpt lat="43.1896003" lon="12.3424825"><ele>553.25</ele><time>2026-04-30T09:50:56.693Z</time></trkpt><trkpt lat="43.1897181" lon="12.3425077"><ele>557.0</ele><time>2026-04-30T09:50:57.693Z</time></trkpt><trkpt lat="43.1897898" lon="12.3425657"><ele>556.0</ele><time>2026-04-30T09:50:58.693Z</time></trkpt><trkpt lat="43.1898583" lon="12.3426081"><ele>555.0</ele><time>2026-04-30T09:50:59.692Z</time></trkpt><trkpt lat="43.1899378" lon="12.3426524"><ele>554.0</ele><time>2026-04-30T09:51:00.693Z</time></trkpt><trkpt lat="43.1900305" lon="12.3426595"><ele>553.0</ele><time>2026-04-30T09:51:01.693Z</time></trkpt><trkpt lat="43.1901176" lon="12.3426609"><ele>552.0</ele><time>2026-04-30T09:51:02.693Z</time></trkpt><trkpt lat="43.1901827" lon="12.3426597"><ele>551.0</ele><time>2026-04-30T09:51:03.693Z</time></trkpt><trkpt lat="43.1902508" lon="12.3426451"><ele>551.0</ele><time>2026-04-30T09:51:04.693Z</time></trkpt><trkpt lat="43.1903404" lon="12.342586"><ele>551.0</ele><time>2026-04-30T09:51:05.692Z</time></trkpt><trkpt lat="43.1903978" lon="12.342525"><ele>551.0</ele><time>2026-04-30T09:51:06.693Z</time></trkpt><trkpt lat="43.1904751" lon="12.3424778"><ele>551.0</ele><time>2026-04-30T09:51:07.692Z</time></trkpt><trkpt lat="43.1905571" lon="12.3424221"><ele>551.0</ele><time>2026-04-30T09:51:08.693Z</time></trkpt><trkpt lat="43.1906412" lon="12.3423627"><ele>551.0</ele><time>2026-04-30T09:51:09.692Z</time></trkpt><trkpt lat="43.1907315" lon="12.3422982"><ele>551.8333333333333</ele><time>2026-04-30T09:51:10.692Z</time></trkpt><trkpt lat="43.1908285" lon="12.3422364"><ele>552.6666666666666</ele><time>2026-04-30T09:51:11.693Z</time></trkpt><trkpt lat="43.1908877" lon="12.3421842"><ele>553.5</ele><time>2026-04-30T09:51:12.693Z</time></trkpt><trkpt lat="43.1909689" lon="12.34211"><ele>554.3333333333334</ele><time>2026-04-30T09:51:13.693Z</time></trkpt><trkpt lat="43.1910204" lon="12.3420508"><ele>555.1666666666667</ele><time>2026-04-30T09:51:14.693Z</time></trkpt><trkpt lat="43.1910652" lon="12.3419781"><ele>556.0</ele><time>2026-04-30T09:51:15.693Z</time></trkpt><trkpt lat="43.1910999" lon="12.3418969"><ele>553.3333333333334</ele><time>2026-04-30T09:51:16.693Z</time></trkpt><trkpt lat="43.1911489" lon="12.3418108"><ele>550.6666666666667</ele><time>2026-04-30T09:51:17.693Z</time></trkpt><trkpt lat="43.1912002" lon="12.3417382"><ele>548.0</ele><time>2026-04-30T09:51:18.693Z</time></trkpt><trkpt lat="43.1912551" lon="12.3416598"><ele>545.3333333333334</ele><time>2026-04-30T09:51:19.693Z</time></trkpt><trkpt lat="43.191353" lon="12.3416096"><ele>542.6666666666666</ele><time>2026-04-30T09:51:20.692Z</time></trkpt><trkpt lat="43.1914236" lon="12.3415321"><ele>540.0</ele><time>2026-04-30T09:51:21.693Z</time></trkpt><trkpt lat="43.1915273" lon="12.3414691"><ele>540.0</ele><time>2026-04-30T09:51:22.693Z</time></trkpt><trkpt lat="43.1916347" lon="12.3413852"><ele>540.0</ele><time>2026-04-30T09:51:23.693Z</time></trkpt><trkpt lat="43.1917401" lon="12.3413118"><ele>540.0</ele><time>2026-04-30T09:51:24.693Z</time></trkpt><trkpt lat="43.1918272" lon="12.3412491"><ele>540.0</ele><time>2026-04-30T09:51:25.692Z</time></trkpt><trkpt lat="43.1919214" lon="12.3411925"><ele>540.0</ele><time>2026-04-30T09:51:26.693Z</time></trkpt><trkpt lat="43.192008" lon="12.3411216"><ele>537.0</ele><time>2026-04-30T09:51:27.693Z</time></trkpt><trkpt lat="43.1921065" lon="12.3410613"><ele>534.0</ele><time>2026-04-30T09:51:28.693Z</time></trkpt><trkpt lat="43.1921959" lon="12.3409949"><ele>531.0</ele><time>2026-04-30T09:51:29.694Z</time></trkpt><trkpt lat="43.19227" lon="12.3409264"><ele>528.0</ele><time>2026-04-30T09:51:30.694Z</time></trkpt><trkpt lat="43.1923434" lon="12.3408772"><ele>525.0</ele><time>2026-04-30T09:51:31.693Z</time></trkpt><trkpt lat="43.192421" lon="12.3408188"><ele>525.0</ele><time>2026-04-30T09:51:32.693Z</time></trkpt><trkpt lat="43.1924943" lon="12.340757"><ele>525.0</ele><time>2026-04-30T09:51:33.694Z</time></trkpt><trkpt lat="43.1925659" lon="12.340698"><ele>525.0</ele><time>2026-04-30T09:51:34.694Z</time></trkpt><trkpt lat="43.1926449" lon="12.3406301"><ele>525.0</ele><time>2026-04-30T09:51:35.694Z</time></trkpt><trkpt lat="43.1927212" lon="12.3405633"><ele>525.0</ele><time>2026-04-30T09:51:36.694Z</time></trkpt><trkpt lat="43.1927982" lon="12.3404779"><ele>523.0</ele><time>2026-04-30T09:51:37.694Z</time></trkpt><trkpt lat="43.1928953" lon="12.3404469"><ele>521.0</ele><time>2026-04-30T09:51:38.694Z</time></trkpt><trkpt lat="43.1929808" lon="12.3404113"><ele>519.0</ele><time>2026-04-30T09:51:39.693Z</time></trkpt><trkpt lat="43.1930697" lon="12.34038"><ele>517.0</ele><time>2026-04-30T09:51:40.694Z</time></trkpt><trkpt lat="43.1931557" lon="12.3403499"><ele>515.0</ele><time>2026-04-30T09:51:41.694Z</time></trkpt><trkpt lat="43.1932297" lon="12.3403188"><ele>513.0</ele><time>2026-04-30T09:51:42.694Z</time></trkpt><trkpt lat="43.1933357" lon="12.3402328"><ele>513.0</ele><time>2026-04-30T09:51:44.694Z</time></trkpt><trkpt lat="43.1933882" lon="12.3401687"><ele>513.0</ele><time>2026-04-30T09:51:45.693Z</time></trkpt><trkpt lat="43.1934455" lon="12.3401116"><ele>513.0</ele><time>2026-04-30T09:51:46.694Z</time></trkpt><trkpt lat="43.1935483" lon="12.3399907"><ele>513.0</ele><time>2026-04-30T09:51:48.692Z</time></trkpt><trkpt lat="43.1936453" lon="12.3398907"><ele>513.0</ele><time>2026-04-30T09:51:50.692Z</time></trkpt><trkpt lat="43.1936988" lon="12.3398136"><ele>513.0</ele><time>2026-04-30T09:51:51.692Z</time></trkpt><trkpt lat="43.1937708" lon="12.3397414"><ele>513.0</ele><time>2026-04-30T09:51:52.693Z</time></trkpt><trkpt lat="43.1938979" lon="12.3396655"><ele>513.0</ele><time>2026-04-30T09:51:54.693Z</time></trkpt><trkpt lat="43.1939842" lon="12.3396142"><ele>513.0</ele><time>2026-04-30T09:51:55.693Z</time></trkpt><trkpt lat="43.1940804" lon="12.3395664"><ele>513.0</ele><time>2026-04-30T09:51:56.693Z</time></trkpt><trkpt lat="43.1941629" lon="12.3395024"><ele>512.0</ele><time>2026-04-30T09:51:57.693Z</time></trkpt><trkpt lat="43.1942932" lon="12.3393833"><ele>511.0</ele><time>2026-04-30T09:51:58.693Z</time></trkpt><trkpt lat="43.1944109" lon="12.3393054"><ele>510.0</ele><time>2026-04-30T09:51:59.692Z</time></trkpt><trkpt lat="43.1945134" lon="12.3392126"><ele>509.0</ele><time>2026-04-30T09:52:00.693Z</time></trkpt><trkpt lat="43.1945989" lon="12.3391594"><ele>508.99999999999994</ele><time>2026-04-30T09:52:01.692Z</time></trkpt><trkpt lat="43.1947053" lon="12.3390783"><ele>509.0</ele><time>2026-04-30T09:52:02.693Z</time></trkpt><trkpt lat="43.1947721" lon="12.3390186"><ele>509.0</ele><time>2026-04-30T09:52:03.693Z</time></trkpt><trkpt lat="43.1948425" lon="12.3389426"><ele>509.0</ele><time>2026-04-30T09:52:04.693Z</time></trkpt><trkpt lat="43.1949017" lon="12.3388762"><ele>508.99999999999994</ele><time>2026-04-30T09:52:05.693Z</time></trkpt><trkpt lat="43.1949595" lon="12.3388005"><ele>509.0</ele><time>2026-04-30T09:52:06.692Z</time></trkpt><trkpt lat="43.1950184" lon="12.3387261"><ele>507.79999999999995</ele><time>2026-04-30T09:52:07.692Z</time></trkpt><trkpt lat="43.1951168" lon="12.3386661"><ele>506.59999999999997</ele><time>2026-04-30T09:52:08.692Z</time></trkpt><trkpt lat="43.1952116" lon="12.3385906"><ele>505.4</ele><time>2026-04-30T09:52:09.692Z</time></trkpt><trkpt lat="43.1952743" lon="12.3385473"><ele>504.2</ele><time>2026-04-30T09:52:10.692Z</time></trkpt><trkpt lat="43.1953594" lon="12.3385005"><ele>503.0</ele><time>2026-04-30T09:52:11.693Z</time></trkpt><trkpt lat="43.195441" lon="12.3384267"><ele>503.0</ele><time>2026-04-30T09:52:12.693Z</time></trkpt><trkpt lat="43.1955293" lon="12.3383363"><ele>502.99999999999994</ele><time>2026-04-30T09:52:13.693Z</time></trkpt><trkpt lat="43.1956281" lon="12.3382408"><ele>502.99999999999994</ele><time>2026-04-30T09:52:14.692Z</time></trkpt><trkpt lat="43.1957315" lon="12.3381764"><ele>503.0</ele><time>2026-04-30T09:52:15.693Z</time></trkpt><trkpt lat="43.1958082" lon="12.3381062"><ele>503.0</ele><time>2026-04-30T09:52:16.693Z</time></trkpt><trkpt lat="43.1958747" lon="12.3380373"><ele>502.0</ele><time>2026-04-30T09:52:17.693Z</time></trkpt><trkpt lat="43.1959496" lon="12.3379534"><ele>500.99999999999994</ele><time>2026-04-30T09:52:18.692Z</time></trkpt><trkpt lat="43.1960322" lon="12.3378691"><ele>499.99999999999994</ele><time>2026-04-30T09:52:19.693Z</time></trkpt><trkpt lat="43.1960914" lon="12.3377818"><ele>499.0</ele><time>2026-04-30T09:52:20.693Z</time></trkpt><trkpt lat="43.1961507" lon="12.3376817"><ele>498.0</ele><time>2026-04-30T09:52:21.693Z</time></trkpt><trkpt lat="43.1962176" lon="12.3375896"><ele>498.0</ele><time>2026-04-30T09:52:22.693Z</time></trkpt><trkpt lat="43.1962948" lon="12.3374955"><ele>497.99999999999994</ele><time>2026-04-30T09:52:23.692Z</time></trkpt><trkpt lat="43.1963672" lon="12.3373972"><ele>497.99999999999994</ele><time>2026-04-30T09:52:24.693Z</time></trkpt><trkpt lat="43.1964364" lon="12.3372828"><ele>498.0</ele><time>2026-04-30T09:52:25.693Z</time></trkpt><trkpt lat="43.1965201" lon="12.3372015"><ele>498.0</ele><time>2026-04-30T09:52:26.693Z</time></trkpt><trkpt lat="43.1966002" lon="12.3370936"><ele>499.59999999999997</ele><time>2026-04-30T09:52:27.692Z</time></trkpt><trkpt lat="43.196686" lon="12.3369909"><ele>501.19999999999993</ele><time>2026-04-30T09:52:28.693Z</time></trkpt><trkpt lat="43.1967506" lon="12.3368856"><ele>502.8</ele><time>2026-04-30T09:52:29.693Z</time></trkpt><trkpt lat="43.1968032" lon="12.3367785"><ele>504.4</ele><time>2026-04-30T09:52:30.693Z</time></trkpt><trkpt lat="43.1968543" lon="12.3366791"><ele>506.0</ele><time>2026-04-30T09:52:31.692Z</time></trkpt><trkpt lat="43.1968932" lon="12.3366031"><ele>506.0</ele><time>2026-04-30T09:52:32.693Z</time></trkpt><trkpt lat="43.1969597" lon="12.3365378"><ele>506.0</ele><time>2026-04-30T09:52:33.692Z</time></trkpt><trkpt lat="43.197032" lon="12.3364805"><ele>506.0</ele><time>2026-04-30T09:52:34.692Z</time></trkpt><trkpt lat="43.1971005" lon="12.3364349"><ele>506.0</ele><time>2026-04-30T09:52:35.693Z</time></trkpt><trkpt lat="43.1972137" lon="12.3363651"><ele>506.0</ele><time>2026-04-30T09:52:36.693Z</time></trkpt><trkpt lat="43.197301" lon="12.3363105"><ele>505.20000000000005</ele><time>2026-04-30T09:52:37.692Z</time></trkpt><trkpt lat="43.1973625" lon="12.3362593"><ele>504.40000000000003</ele><time>2026-04-30T09:52:38.692Z</time></trkpt><trkpt lat="43.1974327" lon="12.336195"><ele>503.6</ele><time>2026-04-30T09:52:39.692Z</time></trkpt><trkpt lat="43.1975023" lon="12.33615"><ele>502.8</ele><time>2026-04-30T09:52:40.693Z</time></trkpt><trkpt lat="43.1976299" lon="12.3361019"><ele>502.0</ele><time>2026-04-30T09:52:41.693Z</time></trkpt><trkpt lat="43.1977705" lon="12.3360259"><ele>502.0</ele><time>2026-04-30T09:52:42.693Z</time></trkpt><trkpt lat="43.1978705" lon="12.3359822"><ele>502.00000000000006</ele><time>2026-04-30T09:52:43.693Z</time></trkpt><trkpt lat="43.1979647" lon="12.335964"><ele>502.00000000000006</ele><time>2026-04-30T09:52:44.692Z</time></trkpt><trkpt lat="43.1980625" lon="12.3359067"><ele>502.0</ele><time>2026-04-30T09:52:45.693Z</time></trkpt><trkpt lat="43.1981536" lon="12.3358455"><ele>502.0</ele><time>2026-04-30T09:52:46.693Z</time></trkpt><trkpt lat="43.1982346" lon="12.3357801"><ele>500.6666666666667</ele><time>2026-04-30T09:52:47.692Z</time></trkpt><trkpt lat="43.1983053" lon="12.3357463"><ele>499.33333333333337</ele><time>2026-04-30T09:52:48.692Z</time></trkpt><trkpt lat="43.1983576" lon="12.3356929"><ele>498.0</ele><time>2026-04-30T09:52:49.693Z</time></trkpt><trkpt lat="43.1984211" lon="12.3356289"><ele>496.66666666666663</ele><time>2026-04-30T09:52:50.693Z</time></trkpt><trkpt lat="43.1984815" lon="12.3355622"><ele>495.3333333333333</ele><time>2026-04-30T09:52:51.692Z</time></trkpt><trkpt lat="43.19854" lon="12.3354812"><ele>494.0</ele><time>2026-04-30T09:52:52.692Z</time></trkpt><trkpt lat="43.1985867" lon="12.3353829"><ele>493.99999999999994</ele><time>2026-04-30T09:52:53.693Z</time></trkpt><trkpt lat="43.1986238" lon="12.3352716"><ele>494.0</ele><time>2026-04-30T09:52:54.693Z</time></trkpt><trkpt lat="43.1986558" lon="12.3351644"><ele>494.0</ele><time>2026-04-30T09:52:55.692Z</time></trkpt><trkpt lat="43.1986981" lon="12.3350649"><ele>494.0</ele><time>2026-04-30T09:52:56.693Z</time></trkpt><trkpt lat="43.1987539" lon="12.3349678"><ele>493.99999999999994</ele><time>2026-04-30T09:52:57.692Z</time></trkpt><trkpt lat="43.1988106" lon="12.3348776"><ele>494.0</ele><time>2026-04-30T09:52:58.693Z</time></trkpt><trkpt lat="43.1988717" lon="12.3348155"><ele>493.99999999999994</ele><time>2026-04-30T09:52:59.692Z</time></trkpt><trkpt lat="43.1989147" lon="12.3347339"><ele>494.0</ele><time>2026-04-30T09:53:00.692Z</time></trkpt><trkpt lat="43.1989702" lon="12.3346441"><ele>494.0</ele><time>2026-04-30T09:53:01.693Z</time></trkpt><trkpt lat="43.199022" lon="12.3345644"><ele>494.0</ele><time>2026-04-30T09:53:02.693Z</time></trkpt><trkpt lat="43.1990658" lon="12.3344722"><ele>493.99999999999994</ele><time>2026-04-30T09:53:03.693Z</time></trkpt><trkpt lat="43.1991113" lon="12.3344009"><ele>494.0</ele><time>2026-04-30T09:53:04.693Z</time></trkpt><trkpt lat="43.1991665" lon="12.3343546"><ele>492.8333333333333</ele><time>2026-04-30T09:53:05.692Z</time></trkpt><trkpt lat="43.1992243" lon="12.3343196"><ele>491.66666666666663</ele><time>2026-04-30T09:53:06.693Z</time></trkpt><trkpt lat="43.1993003" lon="12.3342848"><ele>490.5</ele><time>2026-04-30T09:53:07.692Z</time></trkpt><trkpt lat="43.1993753" lon="12.3342384"><ele>489.33333333333337</ele><time>2026-04-30T09:53:08.692Z</time></trkpt><trkpt lat="43.1994804" lon="12.3341867"><ele>488.1666666666667</ele><time>2026-04-30T09:53:09.693Z</time></trkpt><trkpt lat="43.1995609" lon="12.3341463"><ele>487.0</ele><time>2026-04-30T09:53:10.693Z</time></trkpt><trkpt lat="43.199625" lon="12.334074"><ele>487.0</ele><time>2026-04-30T09:53:11.692Z</time></trkpt><trkpt lat="43.1996842" lon="12.3339638"><ele>487.00000000000006</ele><time>2026-04-30T09:53:12.693Z</time></trkpt><trkpt lat="43.1997351" lon="12.3338735"><ele>487.00000000000006</ele><time>2026-04-30T09:53:13.693Z</time></trkpt><trkpt lat="43.1997895" lon="12.3337873"><ele>487.0</ele><time>2026-04-30T09:53:14.692Z</time></trkpt><trkpt lat="43.1998454" lon="12.3337206"><ele>487.0</ele><time>2026-04-30T09:53:15.693Z</time></trkpt><trkpt lat="43.1999279" lon="12.3335479"><ele>485.6</ele><time>2026-04-30T09:53:17.692Z</time></trkpt><trkpt lat="43.1999597" lon="12.3334475"><ele>484.20000000000005</ele><time>2026-04-30T09:53:18.692Z</time></trkpt><trkpt lat="43.1999924" lon="12.3333653"><ele>482.8</ele><time>2026-04-30T09:53:19.693Z</time></trkpt><trkpt lat="43.2000128" lon="12.3332056"><ele>481.4</ele><time>2026-04-30T09:53:20.693Z</time></trkpt><trkpt lat="43.2000529" lon="12.3330816"><ele>480.0</ele><time>2026-04-30T09:53:21.692Z</time></trkpt><trkpt lat="43.2000852" lon="12.3329695"><ele>477.6</ele><time>2026-04-30T09:53:22.693Z</time></trkpt><trkpt lat="43.2001169" lon="12.332839"><ele>475.2</ele><time>2026-04-30T09:53:23.692Z</time></trkpt><trkpt lat="43.2001367" lon="12.3327071"><ele>472.79999999999995</ele><time>2026-04-30T09:53:24.692Z</time></trkpt><trkpt lat="43.2001636" lon="12.3325708"><ele>470.4</ele><time>2026-04-30T09:53:25.693Z</time></trkpt><trkpt lat="43.2001828" lon="12.3324521"><ele>468.0</ele><time>2026-04-30T09:53:26.692Z</time></trkpt><trkpt lat="43.2002115" lon="12.3323357"><ele>468.0</ele><time>2026-04-30T09:53:27.693Z</time></trkpt><trkpt lat="43.20026" lon="12.3322431"><ele>468.0</ele><time>2026-04-30T09:53:28.692Z</time></trkpt><trkpt lat="43.2003113" lon="12.3321462"><ele>468.0</ele><time>2026-04-30T09:53:29.693Z</time></trkpt><trkpt lat="43.200378" lon="12.3320872"><ele>468.0</ele><time>2026-04-30T09:53:30.692Z</time></trkpt><trkpt lat="43.2004598" lon="12.3320343"><ele>468.0</ele><time>2026-04-30T09:53:31.693Z</time></trkpt><trkpt lat="43.2005357" lon="12.3319945"><ele>468.0</ele><time>2026-04-30T09:53:32.692Z</time></trkpt><trkpt lat="43.2006086" lon="12.3319894"><ele>468.4</ele><time>2026-04-30T09:53:33.693Z</time></trkpt><trkpt lat="43.2007376" lon="12.331955"><ele>468.79999999999995</ele><time>2026-04-30T09:53:35.692Z</time></trkpt><trkpt lat="43.2008101" lon="12.3318968"><ele>469.2</ele><time>2026-04-30T09:53:36.693Z</time></trkpt><trkpt lat="43.2008726" lon="12.3318284"><ele>469.6</ele><time>2026-04-30T09:53:37.692Z</time></trkpt><trkpt lat="43.2009476" lon="12.3317433"><ele>470.0</ele><time>2026-04-30T09:53:38.693Z</time></trkpt><trkpt lat="43.2010657" lon="12.3316147"><ele>470.0</ele><time>2026-04-30T09:53:39.693Z</time></trkpt><trkpt lat="43.2011661" lon="12.3314955"><ele>470.0</ele><time>2026-04-30T09:53:40.693Z</time></trkpt><trkpt lat="43.2012606" lon="12.3313746"><ele>470.0</ele><time>2026-04-30T09:53:41.693Z</time></trkpt><trkpt lat="43.2013459" lon="12.3312875"><ele>470.0</ele><time>2026-04-30T09:53:42.693Z</time></trkpt><trkpt lat="43.2014209" lon="12.3312013"><ele>470.6</ele><time>2026-04-30T09:53:43.693Z</time></trkpt><trkpt lat="43.2014908" lon="12.3311257"><ele>471.2</ele><time>2026-04-30T09:53:44.692Z</time></trkpt><trkpt lat="43.2015576" lon="12.3310336"><ele>471.79999999999995</ele><time>2026-04-30T09:53:45.693Z</time></trkpt><trkpt lat="43.201607" lon="12.3309734"><ele>472.4</ele><time>2026-04-30T09:53:46.693Z</time></trkpt><trkpt lat="43.2016985" lon="12.3308974"><ele>473.0</ele><time>2026-04-30T09:53:48.693Z</time></trkpt><trkpt lat="43.2018389" lon="12.3308719"><ele>473.0</ele><time>2026-04-30T09:53:51.693Z</time></trkpt><trkpt lat="43.2019955" lon="12.3309689"><ele>473.0</ele><time>2026-04-30T09:53:53.692Z</time></trkpt><trkpt lat="43.202103" lon="12.3310389"><ele>473.0</ele><time>2026-04-30T09:53:54.693Z</time></trkpt><trkpt lat="43.2022248" lon="12.3311043"><ele>473.0</ele><time>2026-04-30T09:53:55.693Z</time></trkpt><trkpt lat="43.2023587" lon="12.3311573"><ele>472.5</ele><time>2026-04-30T09:53:56.693Z</time></trkpt><trkpt lat="43.2025058" lon="12.3312075"><ele>472.0</ele><time>2026-04-30T09:53:57.693Z</time></trkpt><trkpt lat="43.2026407" lon="12.3312533"><ele>471.5</ele><time>2026-04-30T09:53:58.693Z</time></trkpt><trkpt lat="43.2027798" lon="12.331299"><ele>471.0</ele><time>2026-04-30T09:53:59.693Z</time></trkpt><trkpt lat="43.2029086" lon="12.3313276"><ele>471.0</ele><time>2026-04-30T09:54:00.693Z</time></trkpt><trkpt lat="43.2030228" lon="12.3313356"><ele>471.0</ele><time>2026-04-30T09:54:01.692Z</time></trkpt><trkpt lat="43.2031378" lon="12.3313353"><ele>471.0</ele><time>2026-04-30T09:54:02.692Z</time></trkpt><trkpt lat="43.2032491" lon="12.3313298"><ele>471.0</ele><time>2026-04-30T09:54:03.692Z</time></trkpt><trkpt lat="43.2033707" lon="12.331292"><ele>472.25</ele><time>2026-04-30T09:54:04.692Z</time></trkpt><trkpt lat="43.2034839" lon="12.3312323"><ele>473.5</ele><time>2026-04-30T09:54:05.693Z</time></trkpt><trkpt lat="43.2036033" lon="12.3311695"><ele>474.75</ele><time>2026-04-30T09:54:06.693Z</time></trkpt><trkpt lat="43.2037693" lon="12.3310914"><ele>476.0</ele><time>2026-04-30T09:54:07.692Z</time></trkpt><trkpt lat="43.2039189" lon="12.3310045"><ele>478.5</ele><time>2026-04-30T09:54:08.694Z</time></trkpt><trkpt lat="43.2040815" lon="12.3309035"><ele>481.0</ele><time>2026-04-30T09:54:09.694Z</time></trkpt><trkpt lat="43.2042101" lon="12.3308483"><ele>483.5</ele><time>2026-04-30T09:54:10.693Z</time></trkpt><trkpt lat="43.2043353" lon="12.3307839"><ele>486.0</ele><time>2026-04-30T09:54:11.693Z</time></trkpt><trkpt lat="43.2044486" lon="12.3307461"><ele>486.0</ele><time>2026-04-30T09:54:12.693Z</time></trkpt><trkpt lat="43.2045436" lon="12.3306939"><ele>486.0</ele><time>2026-04-30T09:54:13.693Z</time></trkpt><trkpt lat="43.2046412" lon="12.3306515"><ele>486.0</ele><time>2026-04-30T09:54:14.692Z</time></trkpt><trkpt lat="43.2047331" lon="12.3306243"><ele>486.0</ele><time>2026-04-30T09:54:15.692Z</time></trkpt><trkpt lat="43.2048368" lon="12.3306074"><ele>486.0</ele><time>2026-04-30T09:54:16.693Z</time></trkpt><trkpt lat="43.204952" lon="12.3306055"><ele>488.25</ele><time>2026-04-30T09:54:17.693Z</time></trkpt><trkpt lat="43.2050824" lon="12.3306211"><ele>490.5</ele><time>2026-04-30T09:54:18.692Z</time></trkpt><trkpt lat="43.2052162" lon="12.330637"><ele>492.75</ele><time>2026-04-30T09:54:19.693Z</time></trkpt><trkpt lat="43.2053408" lon="12.3306494"><ele>495.0</ele><time>2026-04-30T09:54:20.693Z</time></trkpt><trkpt lat="43.2054539" lon="12.3306694"><ele>495.0</ele><time>2026-04-30T09:54:21.692Z</time></trkpt><trkpt lat="43.2055478" lon="12.3306752"><ele>495.0</ele><time>2026-04-30T09:54:22.692Z</time></trkpt><trkpt lat="43.2056354" lon="12.3306889"><ele>495.0</ele><time>2026-04-30T09:54:23.692Z</time></trkpt><trkpt lat="43.2057289" lon="12.3306949"><ele>495.0</ele><time>2026-04-30T09:54:24.693Z</time></trkpt><trkpt lat="43.2058305" lon="12.3306788"><ele>495.0</ele><time>2026-04-30T09:54:25.693Z</time></trkpt><trkpt lat="43.2059307" lon="12.3306563"><ele>495.0</ele><time>2026-04-30T09:54:26.694Z</time></trkpt><trkpt lat="43.2060322" lon="12.3306059"><ele>495.0</ele><time>2026-04-30T09:54:27.693Z</time></trkpt><trkpt lat="43.2061271" lon="12.3305456"><ele>495.0</ele><time>2026-04-30T09:54:28.693Z</time></trkpt><trkpt lat="43.2062166" lon="12.3304848"><ele>495.0</ele><time>2026-04-30T09:54:29.692Z</time></trkpt><trkpt lat="43.2062835" lon="12.3304137"><ele>495.0</ele><time>2026-04-30T09:54:30.693Z</time></trkpt><trkpt lat="43.2063534" lon="12.3303473"><ele>492.6</ele><time>2026-04-30T09:54:31.693Z</time></trkpt><trkpt lat="43.2064389" lon="12.3302556"><ele>490.2</ele><time>2026-04-30T09:54:32.693Z</time></trkpt><trkpt lat="43.2065149" lon="12.3301751"><ele>487.79999999999995</ele><time>2026-04-30T09:54:33.693Z</time></trkpt><trkpt lat="43.2065923" lon="12.330096"><ele>485.4</ele><time>2026-04-30T09:54:34.693Z</time></trkpt><trkpt lat="43.2066778" lon="12.3299877"><ele>483.0</ele><time>2026-04-30T09:54:35.695Z</time></trkpt><trkpt lat="43.2067611" lon="12.3299062"><ele>483.0</ele><time>2026-04-30T09:54:36.692Z</time></trkpt><trkpt lat="43.2068477" lon="12.32982"><ele>482.99999999999994</ele><time>2026-04-30T09:54:37.693Z</time></trkpt><trkpt lat="43.2069447" lon="12.3297488"><ele>482.99999999999994</ele><time>2026-04-30T09:54:38.695Z</time></trkpt><trkpt lat="43.2070424" lon="12.3296719"><ele>483.0</ele><time>2026-04-30T09:54:39.694Z</time></trkpt><trkpt lat="43.2071397" lon="12.3296176"><ele>483.0</ele><time>2026-04-30T09:54:40.694Z</time></trkpt><trkpt lat="43.2072355" lon="12.3295701"><ele>480.2</ele><time>2026-04-30T09:54:41.694Z</time></trkpt><trkpt lat="43.2073405" lon="12.3295347"><ele>477.4</ele><time>2026-04-30T09:54:42.694Z</time></trkpt><trkpt lat="43.2074555" lon="12.3295182"><ele>474.59999999999997</ele><time>2026-04-30T09:54:43.693Z</time></trkpt><trkpt lat="43.2075548" lon="12.3295181"><ele>471.79999999999995</ele><time>2026-04-30T09:54:44.693Z</time></trkpt><trkpt lat="43.2076509" lon="12.3295008"><ele>469.0</ele><time>2026-04-30T09:54:45.693Z</time></trkpt><trkpt lat="43.207742" lon="12.3294853"><ele>469.0</ele><time>2026-04-30T09:54:46.693Z</time></trkpt><trkpt lat="43.2078289" lon="12.3294639"><ele>469.0</ele><time>2026-04-30T09:54:47.694Z</time></trkpt><trkpt lat="43.2079129" lon="12.3294354"><ele>469.0</ele><time>2026-04-30T09:54:48.694Z</time></trkpt><trkpt lat="43.2080052" lon="12.3293963"><ele>469.0</ele><time>2026-04-30T09:54:49.694Z</time></trkpt><trkpt lat="43.2081085" lon="12.3293417"><ele>469.0</ele><time>2026-04-30T09:54:50.694Z</time></trkpt><trkpt lat="43.2081836" lon="12.3292936"><ele>469.2</ele><time>2026-04-30T09:54:51.694Z</time></trkpt><trkpt lat="43.2082664" lon="12.3292285"><ele>469.4</ele><time>2026-04-30T09:54:52.694Z</time></trkpt><trkpt lat="43.2083496" lon="12.3291713"><ele>469.6</ele><time>2026-04-30T09:54:53.694Z</time></trkpt><trkpt lat="43.2084307" lon="12.3290986"><ele>469.8</ele><time>2026-04-30T09:54:54.694Z</time></trkpt><trkpt lat="43.2085324" lon="12.3290148"><ele>470.0</ele><time>2026-04-30T09:54:55.694Z</time></trkpt><trkpt lat="43.2086332" lon="12.3289358"><ele>467.6</ele><time>2026-04-30T09:54:56.693Z</time></trkpt><trkpt lat="43.2087375" lon="12.3288522"><ele>465.2</ele><time>2026-04-30T09:54:57.693Z</time></trkpt><trkpt lat="43.2088312" lon="12.3288098"><ele>462.79999999999995</ele><time>2026-04-30T09:54:58.694Z</time></trkpt><trkpt lat="43.2089304" lon="12.3287612"><ele>460.4</ele><time>2026-04-30T09:54:59.694Z</time></trkpt><trkpt lat="43.2090252" lon="12.328719"><ele>458.0</ele><time>2026-04-30T09:55:00.694Z</time></trkpt><trkpt lat="43.2091192" lon="12.3286741"><ele>457.99999999999994</ele><time>2026-04-30T09:55:01.693Z</time></trkpt><trkpt lat="43.2091888" lon="12.3286392"><ele>458.0</ele><time>2026-04-30T09:55:02.694Z</time></trkpt><trkpt lat="43.2092579" lon="12.328613"><ele>458.0</ele><time>2026-04-30T09:55:03.693Z</time></trkpt><trkpt lat="43.2093223" lon="12.3285744"><ele>458.0</ele><time>2026-04-30T09:55:04.693Z</time></trkpt><trkpt lat="43.2094418" lon="12.3285113"><ele>457.99999999999994</ele><time>2026-04-30T09:55:06.693Z</time></trkpt><trkpt lat="43.2095062" lon="12.3284818"><ele>458.0</ele><time>2026-04-30T09:55:07.694Z</time></trkpt><trkpt lat="43.209566" lon="12.3284443"><ele>457.99999999999994</ele><time>2026-04-30T09:55:08.694Z</time></trkpt><trkpt lat="43.2096238" lon="12.3283997"><ele>458.0</ele><time>2026-04-30T09:55:09.694Z</time></trkpt><trkpt lat="43.2096785" lon="12.3283309"><ele>458.0</ele><time>2026-04-30T09:55:10.693Z</time></trkpt><trkpt lat="43.209721" lon="12.3282671"><ele>458.0</ele><time>2026-04-30T09:55:11.694Z</time></trkpt><trkpt lat="43.209775" lon="12.3282079"><ele>457.99999999999994</ele><time>2026-04-30T09:55:12.694Z</time></trkpt><trkpt lat="43.2098226" lon="12.3281505"><ele>458.0</ele><time>2026-04-30T09:55:13.693Z</time></trkpt><trkpt lat="43.2099279" lon="12.3280682"><ele>456.16666666666663</ele><time>2026-04-30T09:55:15.693Z</time></trkpt><trkpt lat="43.2100172" lon="12.3280469"><ele>454.3333333333333</ele><time>2026-04-30T09:55:16.693Z</time></trkpt><trkpt lat="43.2100962" lon="12.3280133"><ele>452.5</ele><time>2026-04-30T09:55:17.693Z</time></trkpt><trkpt lat="43.2101596" lon="12.3279728"><ele>450.66666666666663</ele><time>2026-04-30T09:55:18.692Z</time></trkpt><trkpt lat="43.210231" lon="12.3279366"><ele>448.8333333333333</ele><time>2026-04-30T09:55:19.693Z</time></trkpt><trkpt lat="43.2103008" lon="12.3279153"><ele>447.0</ele><time>2026-04-30T09:55:20.693Z</time></trkpt><trkpt lat="43.2103932" lon="12.3278967"><ele>446.99999999999994</ele><time>2026-04-30T09:55:21.693Z</time></trkpt><trkpt lat="43.2104724" lon="12.3278612"><ele>447.0</ele><time>2026-04-30T09:55:22.692Z</time></trkpt><trkpt lat="43.2105421" lon="12.3278494"><ele>447.0</ele><time>2026-04-30T09:55:23.692Z</time></trkpt><trkpt lat="43.2106071" lon="12.3278234"><ele>447.0</ele><time>2026-04-30T09:55:24.693Z</time></trkpt><trkpt lat="43.2106752" lon="12.3278128"><ele>447.0</ele><time>2026-04-30T09:55:25.692Z</time></trkpt><trkpt lat="43.210737" lon="12.3277926"><ele>446.99999999999994</ele><time>2026-04-30T09:55:26.692Z</time></trkpt><trkpt lat="43.2108069" lon="12.3277699"><ele>447.0</ele><time>2026-04-30T09:55:27.692Z</time></trkpt><trkpt lat="43.210888" lon="12.3277507"><ele>446.0</ele><time>2026-04-30T09:55:28.692Z</time></trkpt><trkpt lat="43.2109572" lon="12.3277402"><ele>445.00000000000006</ele><time>2026-04-30T09:55:29.692Z</time></trkpt><trkpt lat="43.2110644" lon="12.32769"><ele>444.00000000000006</ele><time>2026-04-30T09:55:31.693Z</time></trkpt><trkpt lat="43.21116" lon="12.3276792"><ele>443.0</ele><time>2026-04-30T09:55:33.693Z</time></trkpt><trkpt lat="43.211264" lon="12.3276571"><ele>442.0</ele><time>2026-04-30T09:55:35.693Z</time></trkpt><trkpt lat="43.2113621" lon="12.3276426"><ele>442.0</ele><time>2026-04-30T09:55:37.693Z</time></trkpt><trkpt lat="43.2114841" lon="12.3276354"><ele>442.00000000000006</ele><time>2026-04-30T09:55:39.693Z</time></trkpt><trkpt lat="43.2115562" lon="12.3276279"><ele>442.00000000000006</ele><time>2026-04-30T09:55:40.693Z</time></trkpt><trkpt lat="43.2116609" lon="12.3276199"><ele>442.0</ele><time>2026-04-30T09:55:41.694Z</time></trkpt><trkpt lat="43.2117547" lon="12.3276133"><ele>442.0</ele><time>2026-04-30T09:55:42.693Z</time></trkpt><trkpt lat="43.2118774" lon="12.3275996"><ele>441.33333333333337</ele><time>2026-04-30T09:55:43.695Z</time></trkpt><trkpt lat="43.2119858" lon="12.3275854"><ele>440.6666666666667</ele><time>2026-04-30T09:55:44.692Z</time></trkpt><trkpt lat="43.2120588" lon="12.3275524"><ele>440.0</ele><time>2026-04-30T09:55:45.695Z</time></trkpt><trkpt lat="43.2121356" lon="12.3275419"><ele>439.33333333333337</ele><time>2026-04-30T09:55:46.693Z</time></trkpt><trkpt lat="43.2122016" lon="12.3275354"><ele>438.6666666666667</ele><time>2026-04-30T09:55:47.693Z</time></trkpt><trkpt lat="43.2122718" lon="12.3275295"><ele>438.0</ele><time>2026-04-30T09:55:48.694Z</time></trkpt><trkpt lat="43.2123607" lon="12.3275196"><ele>438.0</ele><time>2026-04-30T09:55:49.694Z</time></trkpt><trkpt lat="43.2124446" lon="12.3274993"><ele>438.0</ele><time>2026-04-30T09:55:50.693Z</time></trkpt><trkpt lat="43.2125201" lon="12.3274824"><ele>438.0</ele><time>2026-04-30T09:55:51.692Z</time></trkpt><trkpt lat="43.2125832" lon="12.327474"><ele>438.0</ele><time>2026-04-30T09:55:52.693Z</time></trkpt><trkpt lat="43.2126524" lon="12.3274507"><ele>438.0</ele><time>2026-04-30T09:55:53.694Z</time></trkpt><trkpt lat="43.2127139" lon="12.3274227"><ele>438.0</ele><time>2026-04-30T09:55:54.694Z</time></trkpt><trkpt lat="43.2127811" lon="12.3274025"><ele>438.0</ele><time>2026-04-30T09:55:55.692Z</time></trkpt><trkpt lat="43.2128492" lon="12.3273467"><ele>438.0</ele><time>2026-04-30T09:55:56.695Z</time></trkpt><trkpt lat="43.2129557" lon="12.3273283"><ele>437.99999999999994</ele><time>2026-04-30T09:55:58.693Z</time></trkpt><trkpt lat="43.2130229" lon="12.3273207"><ele>437.99999999999994</ele><time>2026-04-30T09:55:59.693Z</time></trkpt><trkpt lat="43.2131303" lon="12.3272998"><ele>438.0</ele><time>2026-04-30T09:56:01.693Z</time></trkpt><trkpt lat="43.2132561" lon="12.327271"><ele>438.0</ele><time>2026-04-30T09:56:03.694Z</time></trkpt><trkpt lat="43.2133398" lon="12.3272452"><ele>434.5</ele><time>2026-04-30T09:56:04.693Z</time></trkpt><trkpt lat="43.2134147" lon="12.3272208"><ele>431.0</ele><time>2026-04-30T09:56:05.693Z</time></trkpt><trkpt lat="43.2134916" lon="12.3271972"><ele>427.5</ele><time>2026-04-30T09:56:06.693Z</time></trkpt><trkpt lat="43.2136532" lon="12.3271209"><ele>424.0</ele><time>2026-04-30T09:56:07.695Z</time></trkpt><trkpt lat="43.2137786" lon="12.3270731"><ele>424.0</ele><time>2026-04-30T09:56:08.694Z</time></trkpt><trkpt lat="43.2138839" lon="12.3270483"><ele>424.0</ele><time>2026-04-30T09:56:09.694Z</time></trkpt><trkpt lat="43.2139831" lon="12.327012"><ele>424.0</ele><time>2026-04-30T09:56:10.694Z</time></trkpt><trkpt lat="43.2140836" lon="12.3269712"><ele>424.0</ele><time>2026-04-30T09:56:11.694Z</time></trkpt><trkpt lat="43.2141936" lon="12.3268962"><ele>424.0</ele><time>2026-04-30T09:56:12.694Z</time></trkpt><trkpt lat="43.2143089" lon="12.3268371"><ele>423.1666666666667</ele><time>2026-04-30T09:56:13.694Z</time></trkpt><trkpt lat="43.2143865" lon="12.3268151"><ele>422.33333333333337</ele><time>2026-04-30T09:56:14.694Z</time></trkpt><trkpt lat="43.2144732" lon="12.3267607"><ele>421.5</ele><time>2026-04-30T09:56:15.694Z</time></trkpt><trkpt lat="43.2145502" lon="12.3267309"><ele>420.66666666666663</ele><time>2026-04-30T09:56:16.694Z</time></trkpt><trkpt lat="43.2146234" lon="12.326705"><ele>419.8333333333333</ele><time>2026-04-30T09:56:17.694Z</time></trkpt><trkpt lat="43.2146877" lon="12.3266718"><ele>419.0</ele><time>2026-04-30T09:56:18.692Z</time></trkpt><trkpt lat="43.2147914" lon="12.3265993"><ele>418.99999999999994</ele><time>2026-04-30T09:56:20.694Z</time></trkpt><trkpt lat="43.2148039" lon="12.3265024"><ele>419.0</ele><time>2026-04-30T09:56:21.694Z</time></trkpt><trkpt lat="43.2147963" lon="12.3263113"><ele>419.0</ele><time>2026-04-30T09:56:23.694Z</time></trkpt><trkpt lat="43.2147737" lon="12.3261969"><ele>419.0</ele><time>2026-04-30T09:56:24.694Z</time></trkpt><trkpt lat="43.2147618" lon="12.3261102"><ele>418.99999999999994</ele><time>2026-04-30T09:56:25.694Z</time></trkpt><trkpt lat="43.2147581" lon="12.3260198"><ele>419.0</ele><time>2026-04-30T09:56:26.693Z</time></trkpt><trkpt lat="43.2148142" lon="12.3258842"><ele>417.49999999999994</ele><time>2026-04-30T09:56:28.693Z</time></trkpt><trkpt lat="43.2148775" lon="12.3258323"><ele>416.0</ele><time>2026-04-30T09:56:29.694Z</time></trkpt><trkpt lat="43.2149496" lon="12.3257563"><ele>414.5</ele><time>2026-04-30T09:56:30.694Z</time></trkpt><trkpt lat="43.2150189" lon="12.3256887"><ele>413.0</ele><time>2026-04-30T09:56:31.694Z</time></trkpt><trkpt lat="43.2150987" lon="12.3256154"><ele>411.49999999999994</ele><time>2026-04-30T09:56:32.693Z</time></trkpt><trkpt lat="43.2151652" lon="12.3255645"><ele>410.0</ele><time>2026-04-30T09:56:33.694Z</time></trkpt><trkpt lat="43.2152267" lon="12.3255051"><ele>407.8333333333333</ele><time>2026-04-30T09:56:34.693Z</time></trkpt><trkpt lat="43.2153011" lon="12.3254774"><ele>405.66666666666663</ele><time>2026-04-30T09:56:35.694Z</time></trkpt><trkpt lat="43.2153822" lon="12.325452"><ele>403.5</ele><time>2026-04-30T09:56:36.694Z</time></trkpt><trkpt lat="43.2154684" lon="12.3254397"><ele>401.33333333333337</ele><time>2026-04-30T09:56:37.694Z</time></trkpt><trkpt lat="43.2155639" lon="12.3254709"><ele>399.1666666666667</ele><time>2026-04-30T09:56:38.694Z</time></trkpt><trkpt lat="43.2156498" lon="12.3254893"><ele>397.0</ele><time>2026-04-30T09:56:39.694Z</time></trkpt><trkpt lat="43.2157479" lon="12.3255247"><ele>398.50000000000006</ele><time>2026-04-30T09:56:40.694Z</time></trkpt><trkpt lat="43.215834" lon="12.3255979"><ele>400.0</ele><time>2026-04-30T09:56:41.694Z</time></trkpt><trkpt lat="43.2159134" lon="12.3256545"><ele>401.5</ele><time>2026-04-30T09:56:42.694Z</time></trkpt><trkpt lat="43.2159953" lon="12.3257153"><ele>403.0</ele><time>2026-04-30T09:56:43.693Z</time></trkpt><trkpt lat="43.2160406" lon="12.3257927"><ele>404.50000000000006</ele><time>2026-04-30T09:56:44.694Z</time></trkpt><trkpt lat="43.2160941" lon="12.3258939"><ele>406.0</ele><time>2026-04-30T09:56:45.694Z</time></trkpt><trkpt lat="43.2161675" lon="12.3259546"><ele>406.0</ele><time>2026-04-30T09:56:46.694Z</time></trkpt><trkpt lat="43.2162517" lon="12.3259752"><ele>406.0</ele><time>2026-04-30T09:56:47.694Z</time></trkpt><trkpt lat="43.2163348" lon="12.3259954"><ele>406.0</ele><time>2026-04-30T09:56:48.694Z</time></trkpt><trkpt lat="43.2164467" lon="12.326003"><ele>406.0</ele><time>2026-04-30T09:56:49.693Z</time></trkpt><trkpt lat="43.2165691" lon="12.3260589"><ele>406.0</ele><time>2026-04-30T09:56:50.694Z</time></trkpt><trkpt lat="43.2166988" lon="12.3261069"><ele>404.6</ele><time>2026-04-30T09:56:51.694Z</time></trkpt><trkpt lat="43.2168164" lon="12.3261538"><ele>403.20000000000005</ele><time>2026-04-30T09:56:52.694Z</time></trkpt><trkpt lat="43.2169272" lon="12.3261943"><ele>401.79999999999995</ele><time>2026-04-30T09:56:53.694Z</time></trkpt><trkpt lat="43.2170353" lon="12.3262467"><ele>400.4</ele><time>2026-04-30T09:56:54.694Z</time></trkpt><trkpt lat="43.2171102" lon="12.3262687"><ele>399.0</ele><time>2026-04-30T09:56:55.693Z</time></trkpt><trkpt lat="43.2171739" lon="12.326264"><ele>399.0</ele><time>2026-04-30T09:56:56.693Z</time></trkpt><trkpt lat="43.2172661" lon="12.3262464"><ele>399.0</ele><time>2026-04-30T09:56:57.693Z</time></trkpt><trkpt lat="43.2173661" lon="12.3262152"><ele>399.0</ele><time>2026-04-30T09:56:58.693Z</time></trkpt><trkpt lat="43.217453" lon="12.3261945"><ele>399.0</ele><time>2026-04-30T09:56:59.694Z</time></trkpt><trkpt lat="43.2175406" lon="12.3261686"><ele>399.0</ele><time>2026-04-30T09:57:00.693Z</time></trkpt><trkpt lat="43.2176374" lon="12.3261831"><ele>398.2</ele><time>2026-04-30T09:57:01.693Z</time></trkpt><trkpt lat="43.2177465" lon="12.3261901"><ele>397.4</ele><time>2026-04-30T09:57:02.694Z</time></trkpt><trkpt lat="43.2178523" lon="12.3262049"><ele>396.6</ele><time>2026-04-30T09:57:03.693Z</time></trkpt><trkpt lat="43.2179628" lon="12.3262562"><ele>395.8</ele><time>2026-04-30T09:57:04.694Z</time></trkpt><trkpt lat="43.218071" lon="12.3263037"><ele>395.0</ele><time>2026-04-30T09:57:05.694Z</time></trkpt><trkpt lat="43.2182043" lon="12.3264047"><ele>395.0</ele><time>2026-04-30T09:57:06.694Z</time></trkpt><trkpt lat="43.2183184" lon="12.3264751"><ele>395.0</ele><time>2026-04-30T09:57:07.693Z</time></trkpt><trkpt lat="43.2184408" lon="12.3265431"><ele>395.0</ele><time>2026-04-30T09:57:08.693Z</time></trkpt><trkpt lat="43.2185382" lon="12.3266086"><ele>395.0</ele><time>2026-04-30T09:57:09.694Z</time></trkpt><trkpt lat="43.2186532" lon="12.3266463"><ele>395.0</ele><time>2026-04-30T09:57:10.694Z</time></trkpt><trkpt lat="43.2187678" lon="12.3266846"><ele>395.0</ele><time>2026-04-30T09:57:11.693Z</time></trkpt><trkpt lat="43.2188879" lon="12.3267237"><ele>395.0</ele><time>2026-04-30T09:57:12.694Z</time></trkpt><trkpt lat="43.2190204" lon="12.326753"><ele>395.0</ele><time>2026-04-30T09:57:13.693Z</time></trkpt><trkpt lat="43.2191608" lon="12.3267811"><ele>392.5</ele><time>2026-04-30T09:57:14.693Z</time></trkpt><trkpt lat="43.219308" lon="12.3267955"><ele>390.0</ele><time>2026-04-30T09:57:15.694Z</time></trkpt><trkpt lat="43.2194565" lon="12.3268049"><ele>387.5</ele><time>2026-04-30T09:57:16.694Z</time></trkpt><trkpt lat="43.2196008" lon="12.3268212"><ele>385.0</ele><time>2026-04-30T09:57:17.695Z</time></trkpt><trkpt lat="43.2197415" lon="12.326842"><ele>384.5</ele><time>2026-04-30T09:57:18.694Z</time></trkpt><trkpt lat="43.2198816" lon="12.3268521"><ele>384.0</ele><time>2026-04-30T09:57:19.693Z</time></trkpt><trkpt lat="43.220001" lon="12.3268879"><ele>383.5</ele><time>2026-04-30T09:57:20.693Z</time></trkpt><trkpt lat="43.2201158" lon="12.326921"><ele>383.0</ele><time>2026-04-30T09:57:21.693Z</time></trkpt><trkpt lat="43.2202315" lon="12.3269421"><ele>383.0</ele><time>2026-04-30T09:57:22.693Z</time></trkpt><trkpt lat="43.22036" lon="12.3269632"><ele>383.0</ele><time>2026-04-30T09:57:23.695Z</time></trkpt><trkpt lat="43.2204999" lon="12.3270093"><ele>383.0</ele><time>2026-04-30T09:57:24.693Z</time></trkpt><trkpt lat="43.2206072" lon="12.3270795"><ele>383.0</ele><time>2026-04-30T09:57:25.693Z</time></trkpt><trkpt lat="43.2207176" lon="12.3271394"><ele>382.33333333333337</ele><time>2026-04-30T09:57:26.693Z</time></trkpt><trkpt lat="43.220809" lon="12.3272026"><ele>381.6666666666667</ele><time>2026-04-30T09:57:27.693Z</time></trkpt><trkpt lat="43.2208906" lon="12.3272563"><ele>381.0</ele><time>2026-04-30T09:57:28.693Z</time></trkpt><trkpt lat="43.2209751" lon="12.3272808"><ele>380.3333333333333</ele><time>2026-04-30T09:57:29.694Z</time></trkpt><trkpt lat="43.22104" lon="12.3273112"><ele>379.66666666666663</ele><time>2026-04-30T09:57:30.693Z</time></trkpt><trkpt lat="43.2211395" lon="12.3273251"><ele>379.0</ele><time>2026-04-30T09:57:32.694Z</time></trkpt><trkpt lat="43.221221" lon="12.3272568"><ele>379.0</ele><time>2026-04-30T09:57:34.694Z</time></trkpt><trkpt lat="43.2213187" lon="12.3271179"><ele>379.0</ele><time>2026-04-30T09:57:36.693Z</time></trkpt><trkpt lat="43.2213711" lon="12.327035"><ele>379.0</ele><time>2026-04-30T09:57:37.693Z</time></trkpt><trkpt lat="43.2214428" lon="12.3269576"><ele>379.0</ele><time>2026-04-30T09:57:38.693Z</time></trkpt><trkpt lat="43.2215018" lon="12.3268806"><ele>379.0</ele><time>2026-04-30T09:57:39.693Z</time></trkpt><trkpt lat="43.2215611" lon="12.3268037"><ele>378.79999999999995</ele><time>2026-04-30T09:57:40.693Z</time></trkpt><trkpt lat="43.2216781" lon="12.3267404"><ele>378.59999999999997</ele><time>2026-04-30T09:57:42.693Z</time></trkpt><trkpt lat="43.2217298" lon="12.3266861"><ele>378.4</ele><time>2026-04-30T09:57:43.693Z</time></trkpt><trkpt lat="43.2218417" lon="12.3265669"><ele>378.2</ele><time>2026-04-30T09:57:46.694Z</time></trkpt><trkpt lat="43.2218913" lon="12.3265117"><ele>378.0</ele><time>2026-04-30T09:57:49.693Z</time></trkpt><trkpt lat="43.2219644" lon="12.3264217"><ele>378.25</ele><time>2026-04-30T09:57:51.693Z</time></trkpt><trkpt lat="43.2220914" lon="12.3262508"><ele>378.5</ele><time>2026-04-30T09:57:53.695Z</time></trkpt><trkpt lat="43.2221878" lon="12.3261421"><ele>378.75</ele><time>2026-04-30T09:57:54.692Z</time></trkpt><trkpt lat="43.2223027" lon="12.3260326"><ele>379.0</ele><time>2026-04-30T09:57:55.692Z</time></trkpt><trkpt lat="43.222437" lon="12.3259286"><ele>379.0</ele><time>2026-04-30T09:57:56.694Z</time></trkpt><trkpt lat="43.2225967" lon="12.3258343"><ele>379.0</ele><time>2026-04-30T09:57:57.694Z</time></trkpt><trkpt lat="43.2227613" lon="12.325745"><ele>379.0</ele><time>2026-04-30T09:57:58.694Z</time></trkpt><trkpt lat="43.2229415" lon="12.3256479"><ele>379.3333333333333</ele><time>2026-04-30T09:57:59.694Z</time></trkpt><trkpt lat="43.2231278" lon="12.3255441"><ele>379.6666666666667</ele><time>2026-04-30T09:58:00.693Z</time></trkpt><trkpt lat="43.2233128" lon="12.3254336"><ele>380.0</ele><time>2026-04-30T09:58:01.693Z</time></trkpt><trkpt lat="43.2235027" lon="12.3253128"><ele>381.33333333333337</ele><time>2026-04-30T09:58:02.693Z</time></trkpt><trkpt lat="43.2236726" lon="12.325188"><ele>382.6666666666667</ele><time>2026-04-30T09:58:03.693Z</time></trkpt><trkpt lat="43.2238444" lon="12.3250363"><ele>384.0</ele><time>2026-04-30T09:58:04.692Z</time></trkpt><trkpt lat="43.2240082" lon="12.3248553"><ele>389.33333333333337</ele><time>2026-04-30T09:58:05.694Z</time></trkpt><trkpt lat="43.2241633" lon="12.3246849"><ele>394.6666666666667</ele><time>2026-04-30T09:58:06.693Z</time></trkpt><trkpt lat="43.2243262" lon="12.3245352"><ele>400.0</ele><time>2026-04-30T09:58:07.693Z</time></trkpt><trkpt lat="43.2245" lon="12.3243913"><ele>400.0</ele><time>2026-04-30T09:58:08.694Z</time></trkpt><trkpt lat="43.2246827" lon="12.3242453"><ele>400.0</ele><time>2026-04-30T09:58:09.694Z</time></trkpt><trkpt lat="43.2248613" lon="12.324124"><ele>400.0</ele><time>2026-04-30T09:58:10.694Z</time></trkpt><trkpt lat="43.2250283" lon="12.3240095"><ele>403.33333333333337</ele><time>2026-04-30T09:58:11.694Z</time></trkpt><trkpt lat="43.2251843" lon="12.3238821"><ele>406.66666666666663</ele><time>2026-04-30T09:58:12.694Z</time></trkpt><trkpt lat="43.2253388" lon="12.3237678"><ele>410.0</ele><time>2026-04-30T09:58:13.694Z</time></trkpt><trkpt lat="43.2254886" lon="12.3236251"><ele>410.0</ele><time>2026-04-30T09:58:14.695Z</time></trkpt><trkpt lat="43.2256435" lon="12.3234892"><ele>410.0</ele><time>2026-04-30T09:58:15.693Z</time></trkpt><trkpt lat="43.2258046" lon="12.3233181"><ele>410.0</ele><time>2026-04-30T09:58:16.693Z</time></trkpt><trkpt lat="43.2259448" lon="12.3231799"><ele>411.3333333333333</ele><time>2026-04-30T09:58:17.694Z</time></trkpt><trkpt lat="43.2260951" lon="12.3230476"><ele>412.66666666666663</ele><time>2026-04-30T09:58:18.694Z</time></trkpt><trkpt lat="43.2262554" lon="12.3228987"><ele>414.0</ele><time>2026-04-30T09:58:19.694Z</time></trkpt><trkpt lat="43.2264114" lon="12.3227704"><ele>409.0</ele><time>2026-04-30T09:58:20.694Z</time></trkpt><trkpt lat="43.226595" lon="12.3226796"><ele>404.0</ele><time>2026-04-30T09:58:21.693Z</time></trkpt><trkpt lat="43.2267954" lon="12.3225787"><ele>399.0</ele><time>2026-04-30T09:58:22.694Z</time></trkpt><trkpt lat="43.2269834" lon="12.3224915"><ele>399.0</ele><time>2026-04-30T09:58:23.694Z</time></trkpt><trkpt lat="43.2271731" lon="12.3224118"><ele>399.0</ele><time>2026-04-30T09:58:24.694Z</time></trkpt><trkpt lat="43.2273541" lon="12.3223389"><ele>399.0</ele><time>2026-04-30T09:58:25.694Z</time></trkpt><trkpt lat="43.227528" lon="12.3222666"><ele>398.33333333333337</ele><time>2026-04-30T09:58:26.693Z</time></trkpt><trkpt lat="43.2277043" lon="12.3221883"><ele>397.6666666666667</ele><time>2026-04-30T09:58:27.693Z</time></trkpt><trkpt lat="43.2278652" lon="12.3221238"><ele>397.0</ele><time>2026-04-30T09:58:28.694Z</time></trkpt><trkpt lat="43.2280423" lon="12.3220692"><ele>393.6666666666667</ele><time>2026-04-30T09:58:29.694Z</time></trkpt><trkpt lat="43.2282189" lon="12.3220351"><ele>390.33333333333337</ele><time>2026-04-30T09:58:30.693Z</time></trkpt><trkpt lat="43.2284196" lon="12.3220149"><ele>387.0</ele><time>2026-04-30T09:58:31.693Z</time></trkpt><trkpt lat="43.2286142" lon="12.3220106"><ele>387.0</ele><time>2026-04-30T09:58:32.694Z</time></trkpt><trkpt lat="43.2288151" lon="12.3220237"><ele>387.0</ele><time>2026-04-30T09:58:33.694Z</time></trkpt><trkpt lat="43.2289844" lon="12.3220634"><ele>387.0</ele><time>2026-04-30T09:58:34.694Z</time></trkpt><trkpt lat="43.2291636" lon="12.322073"><ele>383.0</ele><time>2026-04-30T09:58:35.693Z</time></trkpt><trkpt lat="43.2293377" lon="12.3220749"><ele>379.0</ele><time>2026-04-30T09:58:36.694Z</time></trkpt><trkpt lat="43.2295042" lon="12.3220779"><ele>375.0</ele><time>2026-04-30T09:58:37.693Z</time></trkpt><trkpt lat="43.2296723" lon="12.3220758"><ele>370.6666666666667</ele><time>2026-04-30T09:58:38.694Z</time></trkpt><trkpt lat="43.2298396" lon="12.3220586"><ele>366.33333333333337</ele><time>2026-04-30T09:58:39.693Z</time></trkpt><trkpt lat="43.2300106" lon="12.3219973"><ele>362.0</ele><time>2026-04-30T09:58:40.694Z</time></trkpt><trkpt lat="43.230186" lon="12.3218913"><ele>362.0</ele><time>2026-04-30T09:58:41.693Z</time></trkpt><trkpt lat="43.2303503" lon="12.3217742"><ele>362.0</ele><time>2026-04-30T09:58:42.693Z</time></trkpt><trkpt lat="43.2305023" lon="12.3216635"><ele>362.0</ele><time>2026-04-30T09:58:43.693Z</time></trkpt><trkpt lat="43.2306686" lon="12.3215577"><ele>363.33333333333337</ele><time>2026-04-30T09:58:44.694Z</time></trkpt><trkpt lat="43.230817" lon="12.3214313"><ele>364.6666666666667</ele><time>2026-04-30T09:58:45.694Z</time></trkpt><trkpt lat="43.2309662" lon="12.3213141"><ele>366.0</ele><time>2026-04-30T09:58:46.693Z</time></trkpt><trkpt lat="43.2311044" lon="12.3212105"><ele>358.6666666666667</ele><time>2026-04-30T09:58:47.693Z</time></trkpt><trkpt lat="43.2312935" lon="12.3212158"><ele>351.33333333333337</ele><time>2026-04-30T09:58:48.694Z</time></trkpt><trkpt lat="43.2314525" lon="12.3211815"><ele>344.0</ele><time>2026-04-30T09:58:49.693Z</time></trkpt><trkpt lat="43.2316202" lon="12.3211701"><ele>343.0</ele><time>2026-04-30T09:58:50.694Z</time></trkpt><trkpt lat="43.2317865" lon="12.3211346"><ele>342.0</ele><time>2026-04-30T09:58:51.693Z</time></trkpt><trkpt lat="43.2319472" lon="12.321078"><ele>341.0</ele><time>2026-04-30T09:58:52.693Z</time></trkpt><trkpt lat="43.2320936" lon="12.3209732"><ele>341.0</ele><time>2026-04-30T09:58:53.693Z</time></trkpt><trkpt lat="43.2322192" lon="12.3208497"><ele>341.0</ele><time>2026-04-30T09:58:54.694Z</time></trkpt><trkpt lat="43.2323401" lon="12.320661"><ele>341.0</ele><time>2026-04-30T09:58:55.692Z</time></trkpt><trkpt lat="43.2324338" lon="12.3204528"><ele>340.33333333333337</ele><time>2026-04-30T09:58:56.694Z</time></trkpt><trkpt lat="43.2325078" lon="12.3202354"><ele>339.6666666666667</ele><time>2026-04-30T09:58:57.694Z</time></trkpt><trkpt lat="43.2325879" lon="12.3200027"><ele>339.0</ele><time>2026-04-30T09:58:58.694Z</time></trkpt><trkpt lat="43.2326821" lon="12.3197947"><ele>334.6666666666667</ele><time>2026-04-30T09:58:59.692Z</time></trkpt><trkpt lat="43.2327799" lon="12.3195841"><ele>330.33333333333337</ele><time>2026-04-30T09:59:00.694Z</time></trkpt><trkpt lat="43.2329397" lon="12.3194122"><ele>326.0</ele><time>2026-04-30T09:59:01.694Z</time></trkpt><trkpt lat="43.2330752" lon="12.3192239"><ele>324.0</ele><time>2026-04-30T09:59:02.693Z</time></trkpt><trkpt lat="43.2332429" lon="12.3190216"><ele>322.0</ele><time>2026-04-30T09:59:03.693Z</time></trkpt><trkpt lat="43.2334062" lon="12.3188348"><ele>320.0</ele><time>2026-04-30T09:59:04.693Z</time></trkpt><trkpt lat="43.2335556" lon="12.3186273"><ele>320.0</ele><time>2026-04-30T09:59:05.693Z</time></trkpt><trkpt lat="43.2336994" lon="12.3184353"><ele>320.0</ele><time>2026-04-30T09:59:06.694Z</time></trkpt><trkpt lat="43.2338406" lon="12.3182361"><ele>320.0</ele><time>2026-04-30T09:59:07.694Z</time></trkpt><trkpt lat="43.2339778" lon="12.318041"><ele>317.33333333333337</ele><time>2026-04-30T09:59:08.694Z</time></trkpt><trkpt lat="43.2341125" lon="12.3178593"><ele>314.6666666666667</ele><time>2026-04-30T09:59:09.694Z</time></trkpt><trkpt lat="43.2342563" lon="12.3176822"><ele>312.0</ele><time>2026-04-30T09:59:10.695Z</time></trkpt><trkpt lat="43.2343723" lon="12.3175138"><ele>312.0</ele><time>2026-04-30T09:59:11.693Z</time></trkpt><trkpt lat="43.2344853" lon="12.3173638"><ele>312.0</ele><time>2026-04-30T09:59:12.694Z</time></trkpt><trkpt lat="43.2346134" lon="12.317213"><ele>312.0</ele><time>2026-04-30T09:59:13.694Z</time></trkpt><trkpt lat="43.2347497" lon="12.3170979"><ele>310.3333333333333</ele><time>2026-04-30T09:59:14.694Z</time></trkpt><trkpt lat="43.2349107" lon="12.3170243"><ele>308.66666666666663</ele><time>2026-04-30T09:59:15.694Z</time></trkpt><trkpt lat="43.2350823" lon="12.316971"><ele>307.0</ele><time>2026-04-30T09:59:16.693Z</time></trkpt><trkpt lat="43.2352549" lon="12.3169425"><ele>307.0</ele><time>2026-04-30T09:59:17.693Z</time></trkpt><trkpt lat="43.2354244" lon="12.3169115"><ele>307.0</ele><time>2026-04-30T09:59:18.693Z</time></trkpt><trkpt lat="43.2356231" lon="12.3168785"><ele>307.0</ele><time>2026-04-30T09:59:19.694Z</time></trkpt><trkpt lat="43.2358223" lon="12.3168508"><ele>306.66666666666663</ele><time>2026-04-30T09:59:20.693Z</time></trkpt><trkpt lat="43.2360235" lon="12.3168365"><ele>306.3333333333333</ele><time>2026-04-30T09:59:21.694Z</time></trkpt><trkpt lat="43.2362162" lon="12.3168508"><ele>306.0</ele><time>2026-04-30T09:59:22.694Z</time></trkpt><trkpt lat="43.2364139" lon="12.3168638"><ele>305.3333333333333</ele><time>2026-04-30T09:59:23.694Z</time></trkpt><trkpt lat="43.2365863" lon="12.316878"><ele>304.66666666666663</ele><time>2026-04-30T09:59:24.693Z</time></trkpt><trkpt lat="43.2367541" lon="12.3168874"><ele>304.0</ele><time>2026-04-30T09:59:25.693Z</time></trkpt><trkpt lat="43.2368952" lon="12.3168902"><ele>304.0</ele><time>2026-04-30T09:59:26.693Z</time></trkpt><trkpt lat="43.2370253" lon="12.3168719"><ele>304.0</ele><time>2026-04-30T09:59:27.693Z</time></trkpt><trkpt lat="43.237149" lon="12.3168154"><ele>304.0</ele><time>2026-04-30T09:59:28.694Z</time></trkpt><trkpt lat="43.2372733" lon="12.3167379"><ele>304.0</ele><time>2026-04-30T09:59:29.694Z</time></trkpt><trkpt lat="43.2373553" lon="12.3165659"><ele>303.25</ele><time>2026-04-30T09:59:30.695Z</time></trkpt><trkpt lat="43.237434" lon="12.3164055"><ele>302.5</ele><time>2026-04-30T09:59:31.693Z</time></trkpt><trkpt lat="43.2375028" lon="12.3162423"><ele>301.75</ele><time>2026-04-30T09:59:32.694Z</time></trkpt><trkpt lat="43.237635" lon="12.3161734"><ele>301.0</ele><time>2026-04-30T09:59:33.695Z</time></trkpt><trkpt lat="43.2377513" lon="12.3160752"><ele>301.0</ele><time>2026-04-30T09:59:34.694Z</time></trkpt><trkpt lat="43.2378563" lon="12.3159799"><ele>301.0</ele><time>2026-04-30T09:59:35.694Z</time></trkpt><trkpt lat="43.2379813" lon="12.3160166"><ele>301.0</ele><time>2026-04-30T09:59:36.692Z</time></trkpt><trkpt lat="43.2381104" lon="12.3160609"><ele>301.0</ele><time>2026-04-30T09:59:37.694Z</time></trkpt><trkpt lat="43.2382076" lon="12.316246"><ele>302.3333333333333</ele><time>2026-04-30T09:59:38.693Z</time></trkpt><trkpt lat="43.2383541" lon="12.3164571"><ele>303.6666666666667</ele><time>2026-04-30T09:59:39.694Z</time></trkpt><trkpt lat="43.2384875" lon="12.3166043"><ele>305.0</ele><time>2026-04-30T09:59:40.694Z</time></trkpt><trkpt lat="43.2386268" lon="12.3167348"><ele>305.0</ele><time>2026-04-30T09:59:41.694Z</time></trkpt><trkpt lat="43.2387692" lon="12.3168581"><ele>305.0</ele><time>2026-04-30T09:59:42.694Z</time></trkpt><trkpt lat="43.2389257" lon="12.316977"><ele>305.0</ele><time>2026-04-30T09:59:43.693Z</time></trkpt><trkpt lat="43.2390785" lon="12.3170932"><ele>304.6666666666667</ele><time>2026-04-30T09:59:44.693Z</time></trkpt><trkpt lat="43.2392426" lon="12.3172162"><ele>304.3333333333333</ele><time>2026-04-30T09:59:45.694Z</time></trkpt><trkpt lat="43.2394193" lon="12.3173626"><ele>304.0</ele><time>2026-04-30T09:59:46.695Z</time></trkpt><trkpt lat="43.2395896" lon="12.3174834"><ele>304.0</ele><time>2026-04-30T09:59:47.694Z</time></trkpt><trkpt lat="43.2397252" lon="12.3176717"><ele>304.0</ele><time>2026-04-30T09:59:48.694Z</time></trkpt><trkpt lat="43.2398767" lon="12.3178544"><ele>304.0</ele><time>2026-04-30T09:59:49.693Z</time></trkpt><trkpt lat="43.2400462" lon="12.3179838"><ele>304.3333333333333</ele><time>2026-04-30T09:59:50.693Z</time></trkpt><trkpt lat="43.240221" lon="12.3181234"><ele>304.6666666666667</ele><time>2026-04-30T09:59:51.693Z</time></trkpt><trkpt lat="43.2404226" lon="12.3182028"><ele>305.0</ele><time>2026-04-30T09:59:52.694Z</time></trkpt><trkpt lat="43.2406136" lon="12.3182977"><ele>310.6666666666667</ele><time>2026-04-30T09:59:53.694Z</time></trkpt><trkpt lat="43.240773" lon="12.3184211"><ele>316.3333333333333</ele><time>2026-04-30T09:59:54.694Z</time></trkpt><trkpt lat="43.2409435" lon="12.3185345"><ele>322.0</ele><time>2026-04-30T09:59:55.693Z</time></trkpt><trkpt lat="43.241077" lon="12.3187078"><ele>315.0</ele><time>2026-04-30T09:59:56.693Z</time></trkpt><trkpt lat="43.2412028" lon="12.3189057"><ele>308.0</ele><time>2026-04-30T09:59:57.694Z</time></trkpt><trkpt lat="43.2412911" lon="12.3191208"><ele>301.0</ele><time>2026-04-30T09:59:58.693Z</time></trkpt><trkpt lat="43.2413704" lon="12.3193423"><ele>301.0</ele><time>2026-04-30T09:59:59.693Z</time></trkpt><trkpt lat="43.2413803" lon="12.3196257"><ele>301.0</ele><time>2026-04-30T10:00:00.695Z</time></trkpt><trkpt lat="43.2414151" lon="12.3198926"><ele>301.0</ele><time>2026-04-30T10:00:01.694Z</time></trkpt><trkpt lat="43.2414965" lon="12.3202144"><ele>305.0</ele><time>2026-04-30T10:00:03.133Z</time></trkpt><trkpt lat="43.2415988" lon="12.3204402"><ele>309.0</ele><time>2026-04-30T10:00:04.252Z</time></trkpt><trkpt lat="43.241774" lon="12.3206724"><ele>313.0</ele><time>2026-04-30T10:00:05.695Z</time></trkpt><trkpt lat="43.2418751" lon="12.32086"><ele>313.0</ele><time>2026-04-30T10:00:06.694Z</time></trkpt><trkpt lat="43.2419491" lon="12.321088"><ele>313.0</ele><time>2026-04-30T10:00:07.694Z</time></trkpt><trkpt lat="43.2419904" lon="12.3213474"><ele>313.0</ele><time>2026-04-30T10:00:08.694Z</time></trkpt><trkpt lat="43.2420316" lon="12.3216379"><ele>310.0</ele><time>2026-04-30T10:00:09.694Z</time></trkpt><trkpt lat="43.2420626" lon="12.3219424"><ele>307.0</ele><time>2026-04-30T10:00:10.694Z</time></trkpt><trkpt lat="43.2420909" lon="12.3222363"><ele>304.0</ele><time>2026-04-30T10:00:11.694Z</time></trkpt><trkpt lat="43.2420688" lon="12.3224861"><ele>304.0</ele><time>2026-04-30T10:00:12.693Z</time></trkpt><trkpt lat="43.2420645" lon="12.3227521"><ele>304.0</ele><time>2026-04-30T10:00:13.694Z</time></trkpt><trkpt lat="43.2419884" lon="12.322926"><ele>304.0</ele><time>2026-04-30T10:00:14.694Z</time></trkpt><trkpt lat="43.241928" lon="12.3231411"><ele>308.3333333333333</ele><time>2026-04-30T10:00:15.694Z</time></trkpt><trkpt lat="43.2418381" lon="12.3233193"><ele>312.6666666666667</ele><time>2026-04-30T10:00:16.693Z</time></trkpt><trkpt lat="43.2417009" lon="12.3234274"><ele>317.0</ele><time>2026-04-30T10:00:17.694Z</time></trkpt><trkpt lat="43.2416002" lon="12.3235939"><ele>317.0</ele><time>2026-04-30T10:00:18.694Z</time></trkpt><trkpt lat="43.2414673" lon="12.3237452"><ele>317.0</ele><time>2026-04-30T10:00:19.694Z</time></trkpt><trkpt lat="43.2413227" lon="12.3238837"><ele>317.0</ele><time>2026-04-30T10:00:20.693Z</time></trkpt><trkpt lat="43.2411707" lon="12.3239977"><ele>316.5</ele><time>2026-04-30T10:00:21.693Z</time></trkpt><trkpt lat="43.2410306" lon="12.3240872"><ele>316.0</ele><time>2026-04-30T10:00:22.694Z</time></trkpt><trkpt lat="43.2409177" lon="12.324203"><ele>315.5</ele><time>2026-04-30T10:00:23.694Z</time></trkpt><trkpt lat="43.2408427" lon="12.3243476"><ele>315.0</ele><time>2026-04-30T10:00:24.694Z</time></trkpt><trkpt lat="43.2407638" lon="12.3244968"><ele>315.0</ele><time>2026-04-30T10:00:25.693Z</time></trkpt><trkpt lat="43.2406875" lon="12.3246915"><ele>315.0</ele><time>2026-04-30T10:00:26.694Z</time></trkpt><trkpt lat="43.2408056" lon="12.3249576"><ele>315.0</ele><time>2026-04-30T10:00:27.693Z</time></trkpt><trkpt lat="43.2408396" lon="12.3251457"><ele>314.6666666666667</ele><time>2026-04-30T10:00:28.694Z</time></trkpt><trkpt lat="43.2409225" lon="12.3253091"><ele>314.33333333333337</ele><time>2026-04-30T10:00:29.694Z</time></trkpt><trkpt lat="43.2410394" lon="12.3254857"><ele>314.0</ele><time>2026-04-30T10:00:30.692Z</time></trkpt><trkpt lat="43.2411868" lon="12.3256609"><ele>314.0</ele><time>2026-04-30T10:00:31.694Z</time></trkpt><trkpt lat="43.2413523" lon="12.3258563"><ele>314.0</ele><time>2026-04-30T10:00:32.694Z</time></trkpt><trkpt lat="43.2414925" lon="12.3260484"><ele>314.0</ele><time>2026-04-30T10:00:33.694Z</time></trkpt><trkpt lat="43.2416174" lon="12.3262478"><ele>316.6666666666667</ele><time>2026-04-30T10:00:34.694Z</time></trkpt><trkpt lat="43.2417228" lon="12.3264411"><ele>319.3333333333333</ele><time>2026-04-30T10:00:35.693Z</time></trkpt><trkpt lat="43.241824" lon="12.3266079"><ele>322.0</ele><time>2026-04-30T10:00:36.693Z</time></trkpt><trkpt lat="43.2419386" lon="12.3267459"><ele>322.0</ele><time>2026-04-30T10:00:37.693Z</time></trkpt><trkpt lat="43.2420705" lon="12.3268224"><ele>322.0</ele><time>2026-04-30T10:00:38.694Z</time></trkpt><trkpt lat="43.2422124" lon="12.3268798"><ele>322.0</ele><time>2026-04-30T10:00:39.694Z</time></trkpt><trkpt lat="43.2423937" lon="12.326833"><ele>326.66666666666663</ele><time>2026-04-30T10:00:40.694Z</time></trkpt><trkpt lat="43.2425599" lon="12.3268168"><ele>331.3333333333333</ele><time>2026-04-30T10:00:41.694Z</time></trkpt><trkpt lat="43.2427141" lon="12.3268075"><ele>336.0</ele><time>2026-04-30T10:00:42.694Z</time></trkpt><trkpt lat="43.2428636" lon="12.326775"><ele>336.0</ele><time>2026-04-30T10:00:43.694Z</time></trkpt><trkpt lat="43.242997" lon="12.3266921"><ele>336.0</ele><time>2026-04-30T10:00:44.693Z</time></trkpt><trkpt lat="43.2431241" lon="12.3265476"><ele>336.0</ele><time>2026-04-30T10:00:45.694Z</time></trkpt><trkpt lat="43.2432402" lon="12.3264074"><ele>338.0</ele><time>2026-04-30T10:00:46.693Z</time></trkpt><trkpt lat="43.243351" lon="12.3262435"><ele>340.0</ele><time>2026-04-30T10:00:47.695Z</time></trkpt><trkpt lat="43.243459" lon="12.3259889"><ele>342.0</ele><time>2026-04-30T10:00:48.694Z</time></trkpt><trkpt lat="43.2435696" lon="12.3257593"><ele>349.6666666666667</ele><time>2026-04-30T10:00:49.693Z</time></trkpt><trkpt lat="43.2436963" lon="12.3255285"><ele>357.33333333333337</ele><time>2026-04-30T10:00:50.693Z</time></trkpt><trkpt lat="43.2438208" lon="12.3252998"><ele>365.0</ele><time>2026-04-30T10:00:51.694Z</time></trkpt><trkpt lat="43.2439418" lon="12.3250831"><ele>360.6666666666667</ele><time>2026-04-30T10:00:52.693Z</time></trkpt><trkpt lat="43.2440999" lon="12.3249953"><ele>356.3333333333333</ele><time>2026-04-30T10:00:53.694Z</time></trkpt><trkpt lat="43.2442607" lon="12.3248573"><ele>352.0</ele><time>2026-04-30T10:00:54.692Z</time></trkpt><trkpt lat="43.2444279" lon="12.3247249"><ele>357.3333333333333</ele><time>2026-04-30T10:00:55.693Z</time></trkpt><trkpt lat="43.2446042" lon="12.3246171"><ele>362.6666666666667</ele><time>2026-04-30T10:00:56.693Z</time></trkpt><trkpt lat="43.244788" lon="12.3244987"><ele>368.0</ele><time>2026-04-30T10:00:57.694Z</time></trkpt><trkpt lat="43.2449794" lon="12.3243984"><ele>368.0</ele><time>2026-04-30T10:00:58.693Z</time></trkpt><trkpt lat="43.2451493" lon="12.3243093"><ele>368.0</ele><time>2026-04-30T10:00:59.694Z</time></trkpt><trkpt lat="43.2453048" lon="12.3242304"><ele>368.0</ele><time>2026-04-30T10:01:00.693Z</time></trkpt><trkpt lat="43.2454478" lon="12.3241398"><ele>368.0</ele><time>2026-04-30T10:01:01.695Z</time></trkpt><trkpt lat="43.2455958" lon="12.3240569"><ele>368.0</ele><time>2026-04-30T10:01:02.694Z</time></trkpt><trkpt lat="43.2457587" lon="12.3238735"><ele>368.0</ele><time>2026-04-30T10:01:03.694Z</time></trkpt><trkpt lat="43.2459056" lon="12.3237256"><ele>370.33333333333337</ele><time>2026-04-30T10:01:04.695Z</time></trkpt><trkpt lat="43.2460562" lon="12.3235844"><ele>372.6666666666667</ele><time>2026-04-30T10:01:05.694Z</time></trkpt><trkpt lat="43.2462019" lon="12.3234042"><ele>375.0</ele><time>2026-04-30T10:01:06.693Z</time></trkpt><trkpt lat="43.2463415" lon="12.3232329"><ele>374.6666666666667</ele><time>2026-04-30T10:01:07.693Z</time></trkpt><trkpt lat="43.2464794" lon="12.3231059"><ele>374.33333333333337</ele><time>2026-04-30T10:01:08.694Z</time></trkpt><trkpt lat="43.2466301" lon="12.3229799"><ele>374.0</ele><time>2026-04-30T10:01:09.693Z</time></trkpt><trkpt lat="43.2467915" lon="12.3229814"><ele>374.0</ele><time>2026-04-30T10:01:10.694Z</time></trkpt><trkpt lat="43.2469364" lon="12.3230325"><ele>374.0</ele><time>2026-04-30T10:01:11.694Z</time></trkpt><trkpt lat="43.2471216" lon="12.3230618"><ele>374.0</ele><time>2026-04-30T10:01:12.694Z</time></trkpt><trkpt lat="43.2473056" lon="12.3231079"><ele>372.6666666666667</ele><time>2026-04-30T10:01:13.694Z</time></trkpt><trkpt lat="43.2475067" lon="12.3231193"><ele>371.3333333333333</ele><time>2026-04-30T10:01:14.694Z</time></trkpt><trkpt lat="43.2476909" lon="12.3231495"><ele>370.0</ele><time>2026-04-30T10:01:15.694Z</time></trkpt><trkpt lat="43.2478759" lon="12.3231556"><ele>370.0</ele><time>2026-04-30T10:01:16.694Z</time></trkpt><trkpt lat="43.2480429" lon="12.3231229"><ele>370.0</ele><time>2026-04-30T10:01:17.693Z</time></trkpt><trkpt lat="43.2482053" lon="12.3230248"><ele>370.0</ele><time>2026-04-30T10:01:18.694Z</time></trkpt><trkpt lat="43.2483661" lon="12.3229325"><ele>376.0</ele><time>2026-04-30T10:01:19.694Z</time></trkpt><trkpt lat="43.2484997" lon="12.3228323"><ele>382.0</ele><time>2026-04-30T10:01:20.695Z</time></trkpt><trkpt lat="43.2486813" lon="12.3228574"><ele>388.0</ele><time>2026-04-30T10:01:21.695Z</time></trkpt><trkpt lat="43.2488552" lon="12.322847"><ele>389.33333333333337</ele><time>2026-04-30T10:01:22.693Z</time></trkpt><trkpt lat="43.2490689" lon="12.3228876"><ele>390.66666666666663</ele><time>2026-04-30T10:01:23.694Z</time></trkpt><trkpt lat="43.2492734" lon="12.322962"><ele>392.0</ele><time>2026-04-30T10:01:24.693Z</time></trkpt><trkpt lat="43.2494672" lon="12.3230106"><ele>392.0</ele><time>2026-04-30T10:01:25.693Z</time></trkpt><trkpt lat="43.2496531" lon="12.3230285"><ele>392.0</ele><time>2026-04-30T10:01:26.694Z</time></trkpt><trkpt lat="43.2498159" lon="12.3230378"><ele>392.0</ele><time>2026-04-30T10:01:27.694Z</time></trkpt><trkpt lat="43.2499719" lon="12.3230218"><ele>395.3333333333333</ele><time>2026-04-30T10:01:28.694Z</time></trkpt><trkpt lat="43.2501253" lon="12.3230031"><ele>398.66666666666663</ele><time>2026-04-30T10:01:29.694Z</time></trkpt><trkpt lat="43.2502668" lon="12.3229467"><ele>402.0</ele><time>2026-04-30T10:01:30.694Z</time></trkpt><trkpt lat="43.2504164" lon="12.3228979"><ele>402.0</ele><time>2026-04-30T10:01:31.693Z</time></trkpt><trkpt lat="43.2505644" lon="12.3229007"><ele>402.0</ele><time>2026-04-30T10:01:32.693Z</time></trkpt><trkpt lat="43.2507248" lon="12.3228742"><ele>402.0</ele><time>2026-04-30T10:01:33.694Z</time></trkpt><trkpt lat="43.2508755" lon="12.322814"><ele>401.0</ele><time>2026-04-30T10:01:34.693Z</time></trkpt><trkpt lat="43.2510122" lon="12.322793"><ele>400.0</ele><time>2026-04-30T10:01:35.694Z</time></trkpt><trkpt lat="43.2511489" lon="12.3227776"><ele>399.0</ele><time>2026-04-30T10:01:36.693Z</time></trkpt><trkpt lat="43.2512773" lon="12.3227853"><ele>398.0</ele><time>2026-04-30T10:01:37.694Z</time></trkpt><trkpt lat="43.2514021" lon="12.3227916"><ele>400.0</ele><time>2026-04-30T10:01:38.694Z</time></trkpt><trkpt lat="43.2515276" lon="12.3228186"><ele>402.0</ele><time>2026-04-30T10:01:39.695Z</time></trkpt><trkpt lat="43.2516548" lon="12.3228245"><ele>404.0</ele><time>2026-04-30T10:01:40.694Z</time></trkpt><trkpt lat="43.2517921" lon="12.3228203"><ele>406.0</ele><time>2026-04-30T10:01:41.693Z</time></trkpt><trkpt lat="43.2519331" lon="12.32281"><ele>406.0</ele><time>2026-04-30T10:01:42.694Z</time></trkpt><trkpt lat="43.252078" lon="12.3227938"><ele>406.0</ele><time>2026-04-30T10:01:43.694Z</time></trkpt><trkpt lat="43.2522737" lon="12.3227554"><ele>406.0</ele><time>2026-04-30T10:01:44.693Z</time></trkpt><trkpt lat="43.2524745" lon="12.3226762"><ele>404.33333333333337</ele><time>2026-04-30T10:01:45.693Z</time></trkpt><trkpt lat="43.2526593" lon="12.3225661"><ele>402.66666666666663</ele><time>2026-04-30T10:01:46.694Z</time></trkpt><trkpt lat="43.2528421" lon="12.3224372"><ele>401.0</ele><time>2026-04-30T10:01:47.693Z</time></trkpt><trkpt lat="43.2530286" lon="12.3223232"><ele>399.3333333333333</ele><time>2026-04-30T10:01:48.694Z</time></trkpt><trkpt lat="43.2532155" lon="12.3222651"><ele>397.66666666666663</ele><time>2026-04-30T10:01:49.694Z</time></trkpt><trkpt lat="43.2533955" lon="12.3222203"><ele>396.0</ele><time>2026-04-30T10:01:50.694Z</time></trkpt><trkpt lat="43.2535651" lon="12.3221498"><ele>399.66666666666663</ele><time>2026-04-30T10:01:51.693Z</time></trkpt><trkpt lat="43.2537309" lon="12.3220382"><ele>403.3333333333333</ele><time>2026-04-30T10:01:52.694Z</time></trkpt><trkpt lat="43.2538972" lon="12.3218669"><ele>407.0</ele><time>2026-04-30T10:01:53.694Z</time></trkpt><trkpt lat="43.2540561" lon="12.3216826"><ele>407.0</ele><time>2026-04-30T10:01:54.694Z</time></trkpt><trkpt lat="43.2542026" lon="12.3214688"><ele>407.0</ele><time>2026-04-30T10:01:55.694Z</time></trkpt><trkpt lat="43.2543169" lon="12.3212745"><ele>407.0</ele><time>2026-04-30T10:01:56.694Z</time></trkpt><trkpt lat="43.2544237" lon="12.3210987"><ele>408.25</ele><time>2026-04-30T10:01:57.694Z</time></trkpt><trkpt lat="43.254554" lon="12.3209558"><ele>409.5</ele><time>2026-04-30T10:01:58.693Z</time></trkpt><trkpt lat="43.2546636" lon="12.3208724"><ele>410.75</ele><time>2026-04-30T10:01:59.694Z</time></trkpt><trkpt lat="43.2547854" lon="12.3208622"><ele>412.0</ele><time>2026-04-30T10:02:00.694Z</time></trkpt><trkpt lat="43.2549123" lon="12.3208468"><ele>412.0</ele><time>2026-04-30T10:02:01.694Z</time></trkpt><trkpt lat="43.2550379" lon="12.3209109"><ele>412.0</ele><time>2026-04-30T10:02:02.693Z</time></trkpt><trkpt lat="43.2551458" lon="12.3210304"><ele>412.0</ele><time>2026-04-30T10:02:03.694Z</time></trkpt><trkpt lat="43.2552283" lon="12.3211512"><ele>412.0</ele><time>2026-04-30T10:02:04.693Z</time></trkpt><trkpt lat="43.2552923" lon="12.3213076"><ele>410.75</ele><time>2026-04-30T10:02:05.694Z</time></trkpt><trkpt lat="43.2552997" lon="12.3215059"><ele>409.5</ele><time>2026-04-30T10:02:06.694Z</time></trkpt><trkpt lat="43.2552924" lon="12.3217018"><ele>408.25</ele><time>2026-04-30T10:02:07.693Z</time></trkpt><trkpt lat="43.2552975" lon="12.3218916"><ele>407.0</ele><time>2026-04-30T10:02:08.694Z</time></trkpt><trkpt lat="43.2553012" lon="12.322124"><ele>407.0</ele><time>2026-04-30T10:02:09.694Z</time></trkpt><trkpt lat="43.2553302" lon="12.322354"><ele>407.0</ele><time>2026-04-30T10:02:10.694Z</time></trkpt><trkpt lat="43.2554097" lon="12.3225516"><ele>407.0</ele><time>2026-04-30T10:02:11.694Z</time></trkpt><trkpt lat="43.2554847" lon="12.3227407"><ele>407.0</ele><time>2026-04-30T10:02:12.694Z</time></trkpt><trkpt lat="43.2555605" lon="12.3229757"><ele>407.0</ele><time>2026-04-30T10:02:13.693Z</time></trkpt><trkpt lat="43.2556539" lon="12.3231619"><ele>407.0</ele><time>2026-04-30T10:02:14.694Z</time></trkpt><trkpt lat="43.2557521" lon="12.3233121"><ele>409.5</ele><time>2026-04-30T10:02:15.694Z</time></trkpt><trkpt lat="43.2558571" lon="12.3234408"><ele>412.0</ele><time>2026-04-30T10:02:16.694Z</time></trkpt><trkpt lat="43.2559758" lon="12.323546"><ele>414.5</ele><time>2026-04-30T10:02:17.694Z</time></trkpt><trkpt lat="43.2561182" lon="12.3235949"><ele>417.0</ele><time>2026-04-30T10:02:18.694Z</time></trkpt><trkpt lat="43.2562708" lon="12.3235876"><ele>417.0</ele><time>2026-04-30T10:02:19.694Z</time></trkpt><trkpt lat="43.2564356" lon="12.3235708"><ele>417.0</ele><time>2026-04-30T10:02:20.694Z</time></trkpt><trkpt lat="43.2566064" lon="12.3236163"><ele>417.0</ele><time>2026-04-30T10:02:21.694Z</time></trkpt><trkpt lat="43.2567712" lon="12.3237106"><ele>415.66666666666663</ele><time>2026-04-30T10:02:22.694Z</time></trkpt><trkpt lat="43.2569306" lon="12.3238306"><ele>414.3333333333333</ele><time>2026-04-30T10:02:23.694Z</time></trkpt><trkpt lat="43.2570778" lon="12.3239596"><ele>413.0</ele><time>2026-04-30T10:02:24.694Z</time></trkpt><trkpt lat="43.2572044" lon="12.3241109"><ele>415.3333333333333</ele><time>2026-04-30T10:02:25.694Z</time></trkpt><trkpt lat="43.2572867" lon="12.3242821"><ele>417.66666666666663</ele><time>2026-04-30T10:02:26.694Z</time></trkpt><trkpt lat="43.2573556" lon="12.3244752"><ele>420.0</ele><time>2026-04-30T10:02:27.695Z</time></trkpt><trkpt lat="43.2573381" lon="12.3246956"><ele>418.25</ele><time>2026-04-30T10:02:28.693Z</time></trkpt><trkpt lat="43.2573279" lon="12.3249048"><ele>416.5</ele><time>2026-04-30T10:02:29.694Z</time></trkpt><trkpt lat="43.2573185" lon="12.3251121"><ele>414.75</ele><time>2026-04-30T10:02:30.693Z</time></trkpt><trkpt lat="43.2572405" lon="12.325276"><ele>413.0</ele><time>2026-04-30T10:02:31.695Z</time></trkpt><trkpt lat="43.2571165" lon="12.3253849"><ele>410.5</ele><time>2026-04-30T10:02:32.695Z</time></trkpt><trkpt lat="43.2570369" lon="12.325537"><ele>408.0</ele><time>2026-04-30T10:02:33.693Z</time></trkpt><trkpt lat="43.2569832" lon="12.325715"><ele>405.5</ele><time>2026-04-30T10:02:34.693Z</time></trkpt><trkpt lat="43.2570039" lon="12.3259161"><ele>403.0</ele><time>2026-04-30T10:02:35.694Z</time></trkpt><trkpt lat="43.2570472" lon="12.3261151"><ele>402.6666666666667</ele><time>2026-04-30T10:02:36.694Z</time></trkpt><trkpt lat="43.257106" lon="12.3263184"><ele>402.33333333333337</ele><time>2026-04-30T10:02:37.693Z</time></trkpt><trkpt lat="43.2571733" lon="12.3265213"><ele>402.0</ele><time>2026-04-30T10:02:38.693Z</time></trkpt><trkpt lat="43.2572566" lon="12.3267086"><ele>403.66666666666663</ele><time>2026-04-30T10:02:39.694Z</time></trkpt><trkpt lat="43.2573506" lon="12.3269017"><ele>405.3333333333333</ele><time>2026-04-30T10:02:40.693Z</time></trkpt><trkpt lat="43.2574574" lon="12.3270418"><ele>407.0</ele><time>2026-04-30T10:02:41.695Z</time></trkpt><trkpt lat="43.2575643" lon="12.3272061"><ele>402.0</ele><time>2026-04-30T10:02:42.694Z</time></trkpt><trkpt lat="43.2576875" lon="12.3272983"><ele>397.0</ele><time>2026-04-30T10:02:43.695Z</time></trkpt><trkpt lat="43.2578126" lon="12.3274218"><ele>392.0</ele><time>2026-04-30T10:02:44.693Z</time></trkpt><trkpt lat="43.2579562" lon="12.3275229"><ele>392.0</ele><time>2026-04-30T10:02:45.694Z</time></trkpt><trkpt lat="43.2580966" lon="12.3276345"><ele>392.0</ele><time>2026-04-30T10:02:46.694Z</time></trkpt><trkpt lat="43.258277" lon="12.327497"><ele>392.0</ele><time>2026-04-30T10:02:47.695Z</time></trkpt><trkpt lat="43.2584215" lon="12.3275366"><ele>393.3333333333333</ele><time>2026-04-30T10:02:48.694Z</time></trkpt><trkpt lat="43.2585711" lon="12.327579"><ele>394.66666666666663</ele><time>2026-04-30T10:02:49.694Z</time></trkpt><trkpt lat="43.2587278" lon="12.3275903"><ele>396.0</ele><time>2026-04-30T10:02:50.694Z</time></trkpt><trkpt lat="43.2588719" lon="12.3276177"><ele>394.33333333333337</ele><time>2026-04-30T10:02:51.693Z</time></trkpt><trkpt lat="43.2590203" lon="12.3276285"><ele>392.6666666666667</ele><time>2026-04-30T10:02:52.694Z</time></trkpt><trkpt lat="43.2591709" lon="12.3275464"><ele>391.0</ele><time>2026-04-30T10:02:53.695Z</time></trkpt><trkpt lat="43.2593211" lon="12.3275154"><ele>391.0</ele><time>2026-04-30T10:02:54.694Z</time></trkpt><trkpt lat="43.2594681" lon="12.3275006"><ele>391.0</ele><time>2026-04-30T10:02:55.694Z</time></trkpt><trkpt lat="43.2596074" lon="12.3275617"><ele>391.0</ele><time>2026-04-30T10:02:56.694Z</time></trkpt><trkpt lat="43.2597385" lon="12.3276274"><ele>391.0</ele><time>2026-04-30T10:02:57.693Z</time></trkpt><trkpt lat="43.2598588" lon="12.3277841"><ele>391.0</ele><time>2026-04-30T10:02:58.695Z</time></trkpt><trkpt lat="43.2600122" lon="12.3278606"><ele>391.0</ele><time>2026-04-30T10:02:59.694Z</time></trkpt><trkpt lat="43.2601788" lon="12.3279891"><ele>391.0</ele><time>2026-04-30T10:03:00.694Z</time></trkpt><trkpt lat="43.2603469" lon="12.3281294"><ele>387.6666666666667</ele><time>2026-04-30T10:03:01.694Z</time></trkpt><trkpt lat="43.2605173" lon="12.3282514"><ele>384.33333333333337</ele><time>2026-04-30T10:03:02.694Z</time></trkpt><trkpt lat="43.2606867" lon="12.32838"><ele>381.0</ele><time>2026-04-30T10:03:03.694Z</time></trkpt><trkpt lat="43.2608455" lon="12.3284897"><ele>381.0</ele><time>2026-04-30T10:03:04.694Z</time></trkpt><trkpt lat="43.2610004" lon="12.3285898"><ele>381.0</ele><time>2026-04-30T10:03:05.694Z</time></trkpt><trkpt lat="43.2611511" lon="12.3286799"><ele>381.0</ele><time>2026-04-30T10:03:06.694Z</time></trkpt><trkpt lat="43.2613047" lon="12.328771"><ele>375.3333333333333</ele><time>2026-04-30T10:03:07.694Z</time></trkpt><trkpt lat="43.2614585" lon="12.3288667"><ele>369.66666666666663</ele><time>2026-04-30T10:03:08.694Z</time></trkpt><trkpt lat="43.2616156" lon="12.3289746"><ele>364.0</ele><time>2026-04-30T10:03:09.694Z</time></trkpt><trkpt lat="43.2617606" lon="12.3291233"><ele>363.66666666666663</ele><time>2026-04-30T10:03:10.694Z</time></trkpt><trkpt lat="43.261927" lon="12.3292725"><ele>363.3333333333333</ele><time>2026-04-30T10:03:11.694Z</time></trkpt><trkpt lat="43.2620726" lon="12.3294685"><ele>363.0</ele><time>2026-04-30T10:03:12.694Z</time></trkpt><trkpt lat="43.2622083" lon="12.3296717"><ele>364.0</ele><time>2026-04-30T10:03:13.694Z</time></trkpt><trkpt lat="43.262345" lon="12.3298802"><ele>365.0</ele><time>2026-04-30T10:03:14.694Z</time></trkpt><trkpt lat="43.2624875" lon="12.3300916"><ele>366.0</ele><time>2026-04-30T10:03:15.694Z</time></trkpt><trkpt lat="43.2626361" lon="12.3302673"><ele>366.0</ele><time>2026-04-30T10:03:16.694Z</time></trkpt><trkpt lat="43.262801" lon="12.3304325"><ele>366.0</ele><time>2026-04-30T10:03:17.694Z</time></trkpt><trkpt lat="43.2629666" lon="12.3305804"><ele>366.0</ele><time>2026-04-30T10:03:18.694Z</time></trkpt><trkpt lat="43.2631311" lon="12.3307239"><ele>367.3333333333333</ele><time>2026-04-30T10:03:19.694Z</time></trkpt><trkpt lat="43.263253" lon="12.3308834"><ele>368.66666666666663</ele><time>2026-04-30T10:03:20.695Z</time></trkpt><trkpt lat="43.2633997" lon="12.3310053"><ele>370.0</ele><time>2026-04-30T10:03:21.693Z</time></trkpt><trkpt lat="43.2635464" lon="12.3311255"><ele>370.0</ele><time>2026-04-30T10:03:22.693Z</time></trkpt><trkpt lat="43.2637087" lon="12.3311617"><ele>370.0</ele><time>2026-04-30T10:03:23.694Z</time></trkpt><trkpt lat="43.2638877" lon="12.3311861"><ele>370.0</ele><time>2026-04-30T10:03:24.694Z</time></trkpt><trkpt lat="43.2640725" lon="12.3311984"><ele>371.66666666666663</ele><time>2026-04-30T10:03:25.694Z</time></trkpt><trkpt lat="43.2642801" lon="12.3312042"><ele>373.3333333333333</ele><time>2026-04-30T10:03:26.694Z</time></trkpt><trkpt lat="43.2645118" lon="12.3312197"><ele>375.0</ele><time>2026-04-30T10:03:27.695Z</time></trkpt><trkpt lat="43.2647449" lon="12.3312362"><ele>373.0</ele><time>2026-04-30T10:03:28.694Z</time></trkpt><trkpt lat="43.2649719" lon="12.3312526"><ele>371.0</ele><time>2026-04-30T10:03:29.694Z</time></trkpt><trkpt lat="43.2651862" lon="12.3312822"><ele>369.0</ele><time>2026-04-30T10:03:30.695Z</time></trkpt><trkpt lat="43.2653976" lon="12.3312883"><ele>369.0</ele><time>2026-04-30T10:03:31.693Z</time></trkpt><trkpt lat="43.2656061" lon="12.3312934"><ele>369.0</ele><time>2026-04-30T10:03:32.693Z</time></trkpt><trkpt lat="43.2657912" lon="12.3312842"><ele>369.0</ele><time>2026-04-30T10:03:33.695Z</time></trkpt><trkpt lat="43.2659988" lon="12.3312808"><ele>368.6666666666667</ele><time>2026-04-30T10:03:34.694Z</time></trkpt><trkpt lat="43.2662073" lon="12.3313166"><ele>368.33333333333337</ele><time>2026-04-30T10:03:35.694Z</time></trkpt><trkpt lat="43.2664222" lon="12.3313582"><ele>368.0</ele><time>2026-04-30T10:03:36.694Z</time></trkpt><trkpt lat="43.2666398" lon="12.3314319"><ele>356.0</ele><time>2026-04-30T10:03:37.694Z</time></trkpt><trkpt lat="43.2668779" lon="12.3315033"><ele>344.0</ele><time>2026-04-30T10:03:38.694Z</time></trkpt><trkpt lat="43.267134" lon="12.331575"><ele>343.0</ele><time>2026-04-30T10:03:39.694Z</time></trkpt><trkpt lat="43.267374" lon="12.3316465"><ele>342.0</ele><time>2026-04-30T10:03:40.695Z</time></trkpt><trkpt lat="43.2675999" lon="12.3317588"><ele>342.0</ele><time>2026-04-30T10:03:41.695Z</time></trkpt><trkpt lat="43.2678338" lon="12.3318431"><ele>342.0</ele><time>2026-04-30T10:03:42.694Z</time></trkpt><trkpt lat="43.2680369" lon="12.3319559"><ele>343.3333333333333</ele><time>2026-04-30T10:03:43.695Z</time></trkpt><trkpt lat="43.2682265" lon="12.3320522"><ele>344.66666666666663</ele><time>2026-04-30T10:03:44.694Z</time></trkpt><trkpt lat="43.2684092" lon="12.3321358"><ele>346.0</ele><time>2026-04-30T10:03:45.694Z</time></trkpt><trkpt lat="43.2685923" lon="12.3321838"><ele>340.0</ele><time>2026-04-30T10:03:46.694Z</time></trkpt><trkpt lat="43.2687636" lon="12.3322295"><ele>334.0</ele><time>2026-04-30T10:03:47.694Z</time></trkpt><trkpt lat="43.2689346" lon="12.3322448"><ele>328.0</ele><time>2026-04-30T10:03:48.693Z</time></trkpt><trkpt lat="43.2691002" lon="12.3322299"><ele>331.25</ele><time>2026-04-30T10:03:49.694Z</time></trkpt><trkpt lat="43.2692472" lon="12.332215"><ele>334.5</ele><time>2026-04-30T10:03:50.694Z</time></trkpt><trkpt lat="43.2693853" lon="12.3321986"><ele>337.75</ele><time>2026-04-30T10:03:51.695Z</time></trkpt><trkpt lat="43.269512" lon="12.3321736"><ele>341.0</ele><time>2026-04-30T10:03:52.694Z</time></trkpt><trkpt lat="43.2696128" lon="12.332178"><ele>341.0</ele><time>2026-04-30T10:03:53.694Z</time></trkpt><trkpt lat="43.2696815" lon="12.3321919"><ele>341.0</ele><time>2026-04-30T10:03:54.693Z</time></trkpt><trkpt lat="43.2697617" lon="12.3321666"><ele>341.0</ele><time>2026-04-30T10:03:56.694Z</time></trkpt><trkpt lat="43.2697904" lon="12.3320629"><ele>341.0</ele><time>2026-04-30T10:03:58.694Z</time></trkpt><trkpt lat="43.2697797" lon="12.3319585"><ele>341.0</ele><time>2026-04-30T10:04:00.695Z</time></trkpt><trkpt lat="43.2697827" lon="12.3318713"><ele>341.0</ele><time>2026-04-30T10:04:02.693Z</time></trkpt><trkpt lat="43.2697754" lon="12.3317657"><ele>341.0</ele><time>2026-04-30T10:04:04.694Z</time></trkpt><trkpt lat="43.2697633" lon="12.3316635"><ele>341.0</ele><time>2026-04-30T10:04:06.693Z</time></trkpt><trkpt lat="43.2697607" lon="12.3317545"><ele>341.0</ele><time>2026-04-30T10:06:18.693Z</time></trkpt><trkpt lat="43.2697531" lon="12.3318869"><ele>341.0</ele><time>2026-04-30T10:06:20.693Z</time></trkpt><trkpt lat="43.2697447" lon="12.3320045"><ele>341.0</ele><time>2026-04-30T10:06:22.693Z</time></trkpt><trkpt lat="43.2697511" lon="12.3321094"><ele>341.0</ele><time>2026-04-30T10:06:24.694Z</time></trkpt><trkpt lat="43.2697754" lon="12.3321936"><ele>337.6666666666667</ele><time>2026-04-30T10:06:26.694Z</time></trkpt><trkpt lat="43.2698301" lon="12.3322587"><ele>334.33333333333337</ele><time>2026-04-30T10:06:27.694Z</time></trkpt><trkpt lat="43.2698878" lon="12.3323029"><ele>331.0</ele><time>2026-04-30T10:06:28.694Z</time></trkpt><trkpt lat="43.2699604" lon="12.3323726"><ele>327.6666666666667</ele><time>2026-04-30T10:06:29.693Z</time></trkpt><trkpt lat="43.2700402" lon="12.3324463"><ele>324.3333333333333</ele><time>2026-04-30T10:06:30.695Z</time></trkpt><trkpt lat="43.2701357" lon="12.3325398"><ele>321.0</ele><time>2026-04-30T10:06:31.693Z</time></trkpt><trkpt lat="43.270234" lon="12.3326504"><ele>321.0</ele><time>2026-04-30T10:06:32.694Z</time></trkpt><trkpt lat="43.2703392" lon="12.3327652"><ele>321.0</ele><time>2026-04-30T10:06:33.695Z</time></trkpt><trkpt lat="43.2704565" lon="12.3328975"><ele>321.0</ele><time>2026-04-30T10:06:34.694Z</time></trkpt><trkpt lat="43.2705665" lon="12.3330247"><ele>321.0</ele><time>2026-04-30T10:06:35.693Z</time></trkpt><trkpt lat="43.2706832" lon="12.3331258"><ele>320.3333333333333</ele><time>2026-04-30T10:06:36.694Z</time></trkpt><trkpt lat="43.2708031" lon="12.3332535"><ele>319.66666666666663</ele><time>2026-04-30T10:06:37.694Z</time></trkpt><trkpt lat="43.2709325" lon="12.3333593"><ele>319.0</ele><time>2026-04-30T10:06:38.694Z</time></trkpt><trkpt lat="43.2710532" lon="12.3334842"><ele>319.0</ele><time>2026-04-30T10:06:39.694Z</time></trkpt><trkpt lat="43.2711833" lon="12.3336267"><ele>319.0</ele><time>2026-04-30T10:06:40.695Z</time></trkpt><trkpt lat="43.2713302" lon="12.3337402"><ele>319.0</ele><time>2026-04-30T10:06:41.694Z</time></trkpt><trkpt lat="43.2714823" lon="12.3338748"><ele>319.3333333333333</ele><time>2026-04-30T10:06:42.694Z</time></trkpt><trkpt lat="43.2716413" lon="12.3340039"><ele>319.6666666666667</ele><time>2026-04-30T10:06:43.694Z</time></trkpt><trkpt lat="43.2718105" lon="12.3341354"><ele>320.0</ele><time>2026-04-30T10:06:44.694Z</time></trkpt><trkpt lat="43.2719849" lon="12.3342766"><ele>320.0</ele><time>2026-04-30T10:06:45.694Z</time></trkpt><trkpt lat="43.2721594" lon="12.3344243"><ele>320.0</ele><time>2026-04-30T10:06:46.695Z</time></trkpt><trkpt lat="43.2723424" lon="12.3345974"><ele>320.0</ele><time>2026-04-30T10:06:47.694Z</time></trkpt><trkpt lat="43.2725146" lon="12.3347546"><ele>319.0</ele><time>2026-04-30T10:06:48.694Z</time></trkpt><trkpt lat="43.2726852" lon="12.3349117"><ele>318.0</ele><time>2026-04-30T10:06:49.694Z</time></trkpt><trkpt lat="43.2728215" lon="12.3350304"><ele>317.0</ele><time>2026-04-30T10:06:50.696Z</time></trkpt><trkpt lat="43.2729792" lon="12.3351825"><ele>317.33333333333337</ele><time>2026-04-30T10:06:51.695Z</time></trkpt><trkpt lat="43.2731305" lon="12.3353371"><ele>317.6666666666667</ele><time>2026-04-30T10:06:52.695Z</time></trkpt><trkpt lat="43.2732741" lon="12.3354828"><ele>318.0</ele><time>2026-04-30T10:06:53.695Z</time></trkpt><trkpt lat="43.2734174" lon="12.3356268"><ele>318.0</ele><time>2026-04-30T10:06:54.695Z</time></trkpt><trkpt lat="43.2735615" lon="12.3357851"><ele>318.0</ele><time>2026-04-30T10:06:55.694Z</time></trkpt><trkpt lat="43.2737029" lon="12.3359336"><ele>318.0</ele><time>2026-04-30T10:06:56.695Z</time></trkpt><trkpt lat="43.2738432" lon="12.3360631"><ele>322.3333333333333</ele><time>2026-04-30T10:06:57.695Z</time></trkpt><trkpt lat="43.2739968" lon="12.3361744"><ele>326.66666666666663</ele><time>2026-04-30T10:06:58.695Z</time></trkpt><trkpt lat="43.2741626" lon="12.3362458"><ele>331.0</ele><time>2026-04-30T10:06:59.695Z</time></trkpt><trkpt lat="43.2743318" lon="12.3362944"><ele>331.0</ele><time>2026-04-30T10:07:00.695Z</time></trkpt><trkpt lat="43.2745063" lon="12.3363263"><ele>331.0</ele><time>2026-04-30T10:07:01.695Z</time></trkpt><trkpt lat="43.2746703" lon="12.3364049"><ele>331.0</ele><time>2026-04-30T10:07:02.695Z</time></trkpt><trkpt lat="43.2748437" lon="12.3364691"><ele>326.66666666666663</ele><time>2026-04-30T10:07:03.694Z</time></trkpt><trkpt lat="43.2750005" lon="12.3365695"><ele>322.3333333333333</ele><time>2026-04-30T10:07:04.695Z</time></trkpt><trkpt lat="43.2751707" lon="12.3366775"><ele>318.0</ele><time>2026-04-30T10:07:05.695Z</time></trkpt><trkpt lat="43.2753464" lon="12.3367996"><ele>318.0</ele><time>2026-04-30T10:07:06.694Z</time></trkpt><trkpt lat="43.2755168" lon="12.3369259"><ele>318.0</ele><time>2026-04-30T10:07:07.695Z</time></trkpt><trkpt lat="43.2756775" lon="12.3370403"><ele>318.0</ele><time>2026-04-30T10:07:08.694Z</time></trkpt><trkpt lat="43.275821" lon="12.3371337"><ele>317.3333333333333</ele><time>2026-04-30T10:07:09.694Z</time></trkpt><trkpt lat="43.2759646" lon="12.3372259"><ele>316.66666666666663</ele><time>2026-04-30T10:07:10.693Z</time></trkpt><trkpt lat="43.2761023" lon="12.3373253"><ele>316.0</ele><time>2026-04-30T10:07:11.695Z</time></trkpt><trkpt lat="43.2762403" lon="12.3374041"><ele>316.0</ele><time>2026-04-30T10:07:12.695Z</time></trkpt><trkpt lat="43.2763594" lon="12.3374861"><ele>316.0</ele><time>2026-04-30T10:07:13.695Z</time></trkpt><trkpt lat="43.2764751" lon="12.337565"><ele>316.0</ele><time>2026-04-30T10:07:14.694Z</time></trkpt><trkpt lat="43.2765859" lon="12.3376223"><ele>316.0</ele><time>2026-04-30T10:07:15.693Z</time></trkpt><trkpt lat="43.2766927" lon="12.3376924"><ele>316.8333333333333</ele><time>2026-04-30T10:07:16.694Z</time></trkpt><trkpt lat="43.2767708" lon="12.3377614"><ele>317.66666666666663</ele><time>2026-04-30T10:07:17.695Z</time></trkpt><trkpt lat="43.2768295" lon="12.3378182"><ele>318.5</ele><time>2026-04-30T10:07:18.693Z</time></trkpt><trkpt lat="43.2769228" lon="12.3378659"><ele>319.3333333333333</ele><time>2026-04-30T10:07:20.695Z</time></trkpt><trkpt lat="43.2769876" lon="12.3378597"><ele>320.1666666666667</ele><time>2026-04-30T10:07:22.695Z</time></trkpt><trkpt lat="43.2770047" lon="12.3377338"><ele>321.0</ele><time>2026-04-30T10:07:24.694Z</time></trkpt><trkpt lat="43.2769483" lon="12.3378199"><ele>321.0</ele><time>2026-04-30T10:07:53.695Z</time></trkpt><trkpt lat="43.2767543" lon="12.3377917"><ele>321.0</ele><time>2026-04-30T10:08:45.696Z</time></trkpt><trkpt lat="43.276677" lon="12.337709"><ele>321.0</ele><time>2026-04-30T10:08:46.694Z</time></trkpt><trkpt lat="43.276595" lon="12.3376432"><ele>321.0</ele><time>2026-04-30T10:08:47.694Z</time></trkpt><trkpt lat="43.2764617" lon="12.337587"><ele>319.3333333333333</ele><time>2026-04-30T10:08:48.696Z</time></trkpt><trkpt lat="43.2763188" lon="12.3375068"><ele>317.66666666666663</ele><time>2026-04-30T10:08:49.695Z</time></trkpt><trkpt lat="43.2761832" lon="12.337426"><ele>316.0</ele><time>2026-04-30T10:08:50.694Z</time></trkpt><trkpt lat="43.2760301" lon="12.3373243"><ele>310.5</ele><time>2026-04-30T10:08:51.695Z</time></trkpt><trkpt lat="43.275861" lon="12.3371829"><ele>305.0</ele><time>2026-04-30T10:08:52.91Z</time></trkpt><trkpt lat="43.2754308" lon="12.3372723"><ele>311.5</ele><time>2026-04-30T10:08:54.909Z</time></trkpt><trkpt lat="43.2754176" lon="12.3368548"><ele>318.0</ele><time>2026-04-30T10:08:55.908Z</time></trkpt><trkpt lat="43.2752332" lon="12.3368111"><ele>318.0</ele><time>2026-04-30T10:08:56.909Z</time></trkpt><trkpt lat="43.2751249" lon="12.3366692"><ele>318.0</ele><time>2026-04-30T10:08:57.91Z</time></trkpt><trkpt lat="43.2749797" lon="12.3365491"><ele>318.0</ele><time>2026-04-30T10:08:58.91Z</time></trkpt><trkpt lat="43.2748509" lon="12.3364302"><ele>316.3333333333333</ele><time>2026-04-30T10:08:59.91Z</time></trkpt><trkpt lat="43.2747213" lon="12.3364436"><ele>314.66666666666663</ele><time>2026-04-30T10:09:00.91Z</time></trkpt><trkpt lat="43.2747353" lon="12.3365298"><ele>313.0</ele><time>2026-04-30T10:09:01.91Z</time></trkpt><trkpt lat="43.2744004" lon="12.3363688"><ele>319.0</ele><time>2026-04-30T10:09:03.693Z</time></trkpt><trkpt lat="43.2742517" lon="12.3363015"><ele>325.0</ele><time>2026-04-30T10:09:04.695Z</time></trkpt><trkpt lat="43.2740996" lon="12.3362527"><ele>331.0</ele><time>2026-04-30T10:09:05.694Z</time></trkpt><trkpt lat="43.2739572" lon="12.3362118"><ele>327.75</ele><time>2026-04-30T10:09:06.695Z</time></trkpt><trkpt lat="43.2738281" lon="12.3361017"><ele>324.5</ele><time>2026-04-30T10:09:07.695Z</time></trkpt><trkpt lat="43.2737057" lon="12.3360018"><ele>321.25</ele><time>2026-04-30T10:09:08.695Z</time></trkpt><trkpt lat="43.2735782" lon="12.3358972"><ele>318.0</ele><time>2026-04-30T10:09:09.695Z</time></trkpt><trkpt lat="43.2734736" lon="12.3357665"><ele>318.0</ele><time>2026-04-30T10:09:10.695Z</time></trkpt><trkpt lat="43.2733675" lon="12.3356505"><ele>318.0</ele><time>2026-04-30T10:09:11.695Z</time></trkpt><trkpt lat="43.2732676" lon="12.3355415"><ele>318.0</ele><time>2026-04-30T10:09:12.694Z</time></trkpt><trkpt lat="43.2731818" lon="12.3354264"><ele>318.0</ele><time>2026-04-30T10:09:13.695Z</time></trkpt><trkpt lat="43.2730951" lon="12.3353201"><ele>317.8</ele><time>2026-04-30T10:09:14.695Z</time></trkpt><trkpt lat="43.273022" lon="12.3352132"><ele>317.6</ele><time>2026-04-30T10:09:15.694Z</time></trkpt><trkpt lat="43.272937" lon="12.3351443"><ele>317.4</ele><time>2026-04-30T10:09:16.694Z</time></trkpt><trkpt lat="43.2728601" lon="12.3350675"><ele>317.2</ele><time>2026-04-30T10:09:17.694Z</time></trkpt><trkpt lat="43.2727657" lon="12.335002"><ele>317.0</ele><time>2026-04-30T10:09:18.695Z</time></trkpt><trkpt lat="43.2726887" lon="12.3349478"><ele>317.0</ele><time>2026-04-30T10:09:19.695Z</time></trkpt><trkpt lat="43.2726078" lon="12.3348771"><ele>317.0</ele><time>2026-04-30T10:09:20.694Z</time></trkpt><trkpt lat="43.2725307" lon="12.3348013"><ele>317.0</ele><time>2026-04-30T10:09:21.694Z</time></trkpt><trkpt lat="43.2724437" lon="12.3347327"><ele>317.0</ele><time>2026-04-30T10:09:22.695Z</time></trkpt><trkpt lat="43.2723537" lon="12.334656"><ele>317.0</ele><time>2026-04-30T10:09:23.695Z</time></trkpt><trkpt lat="43.2722806" lon="12.3345699"><ele>317.6</ele><time>2026-04-30T10:09:24.695Z</time></trkpt><trkpt lat="43.2722" lon="12.334509"><ele>318.2</ele><time>2026-04-30T10:09:25.694Z</time></trkpt><trkpt lat="43.272124" lon="12.3344187"><ele>318.8</ele><time>2026-04-30T10:09:26.695Z</time></trkpt><trkpt lat="43.2720415" lon="12.3343333"><ele>319.4</ele><time>2026-04-30T10:09:27.694Z</time></trkpt><trkpt lat="43.2719724" lon="12.3342697"><ele>320.0</ele><time>2026-04-30T10:09:28.695Z</time></trkpt><trkpt lat="43.2718988" lon="12.334212"><ele>320.0</ele><time>2026-04-30T10:09:29.695Z</time></trkpt><trkpt lat="43.271809" lon="12.3341664"><ele>320.0</ele><time>2026-04-30T10:09:30.694Z</time></trkpt><trkpt lat="43.2717344" lon="12.3341034"><ele>320.0</ele><time>2026-04-30T10:09:31.695Z</time></trkpt><trkpt lat="43.2716469" lon="12.3340376"><ele>320.0</ele><time>2026-04-30T10:09:32.695Z</time></trkpt><trkpt lat="43.2715676" lon="12.3339711"><ele>320.0</ele><time>2026-04-30T10:09:33.695Z</time></trkpt><trkpt lat="43.2714984" lon="12.3339015"><ele>319.83333333333337</ele><time>2026-04-30T10:09:34.695Z</time></trkpt><trkpt lat="43.27142" lon="12.3338424"><ele>319.6666666666667</ele><time>2026-04-30T10:09:35.695Z</time></trkpt><trkpt lat="43.2713416" lon="12.333782"><ele>319.5</ele><time>2026-04-30T10:09:36.695Z</time></trkpt><trkpt lat="43.2712664" lon="12.3337082"><ele>319.3333333333333</ele><time>2026-04-30T10:09:37.695Z</time></trkpt><trkpt lat="43.271191" lon="12.3336364"><ele>319.16666666666663</ele><time>2026-04-30T10:09:38.695Z</time></trkpt><trkpt lat="43.2711216" lon="12.333567"><ele>319.0</ele><time>2026-04-30T10:09:39.694Z</time></trkpt><trkpt lat="43.271044" lon="12.3334869"><ele>319.0</ele><time>2026-04-30T10:09:40.695Z</time></trkpt><trkpt lat="43.2709588" lon="12.3334076"><ele>319.0</ele><time>2026-04-30T10:09:41.694Z</time></trkpt><trkpt lat="43.2708638" lon="12.3333086"><ele>319.0</ele><time>2026-04-30T10:09:42.694Z</time></trkpt><trkpt lat="43.2707759" lon="12.333224"><ele>319.0</ele><time>2026-04-30T10:09:43.695Z</time></trkpt><trkpt lat="43.270702" lon="12.3331334"><ele>319.0</ele><time>2026-04-30T10:09:44.695Z</time></trkpt><trkpt lat="43.2706255" lon="12.3330476"><ele>319.4</ele><time>2026-04-30T10:09:45.695Z</time></trkpt><trkpt lat="43.2705532" lon="12.3329886"><ele>319.79999999999995</ele><time>2026-04-30T10:09:46.695Z</time></trkpt><trkpt lat="43.2704765" lon="12.3328985"><ele>320.20000000000005</ele><time>2026-04-30T10:09:47.694Z</time></trkpt><trkpt lat="43.2703947" lon="12.3328151"><ele>320.6</ele><time>2026-04-30T10:09:48.693Z</time></trkpt><trkpt lat="43.2702872" lon="12.3327141"><ele>321.0</ele><time>2026-04-30T10:09:49.694Z</time></trkpt><trkpt lat="43.2701766" lon="12.3325986"><ele>321.0</ele><time>2026-04-30T10:09:50.695Z</time></trkpt><trkpt lat="43.270078" lon="12.3324818"><ele>321.0</ele><time>2026-04-30T10:09:51.695Z</time></trkpt><trkpt lat="43.2699797" lon="12.3323812"><ele>321.0</ele><time>2026-04-30T10:09:52.694Z</time></trkpt><trkpt lat="43.2698778" lon="12.3323131"><ele>321.0</ele><time>2026-04-30T10:09:53.694Z</time></trkpt><trkpt lat="43.2697857" lon="12.3322625"><ele>322.0</ele><time>2026-04-30T10:09:54.695Z</time></trkpt><trkpt lat="43.269697" lon="12.3322328"><ele>323.0</ele><time>2026-04-30T10:09:55.694Z</time></trkpt><trkpt lat="43.2696063" lon="12.332218"><ele>324.0</ele><time>2026-04-30T10:09:56.694Z</time></trkpt><trkpt lat="43.2695224" lon="12.3321925"><ele>325.0</ele><time>2026-04-30T10:09:57.694Z</time></trkpt><trkpt lat="43.2694286" lon="12.3321855"><ele>326.0</ele><time>2026-04-30T10:09:58.694Z</time></trkpt><trkpt lat="43.2692939" lon="12.3322038"><ele>326.0</ele><time>2026-04-30T10:09:59.695Z</time></trkpt><trkpt lat="43.2691713" lon="12.3322232"><ele>326.0</ele><time>2026-04-30T10:10:00.693Z</time></trkpt><trkpt lat="43.269007" lon="12.3322531"><ele>326.0</ele><time>2026-04-30T10:10:01.694Z</time></trkpt><trkpt lat="43.2688233" lon="12.3322638"><ele>326.6666666666667</ele><time>2026-04-30T10:10:02.693Z</time></trkpt><trkpt lat="43.2686451" lon="12.332271"><ele>327.3333333333333</ele><time>2026-04-30T10:10:03.695Z</time></trkpt><trkpt lat="43.2684036" lon="12.3321446"><ele>328.0</ele><time>2026-04-30T10:10:04.695Z</time></trkpt><trkpt lat="43.2681949" lon="12.3320935"><ele>335.0</ele><time>2026-04-30T10:10:05.695Z</time></trkpt><trkpt lat="43.2679616" lon="12.3319099"><ele>342.0</ele><time>2026-04-30T10:10:06.694Z</time></trkpt><trkpt lat="43.2677302" lon="12.3318086"><ele>342.0</ele><time>2026-04-30T10:10:07.695Z</time></trkpt><trkpt lat="43.2674976" lon="12.3317196"><ele>342.0</ele><time>2026-04-30T10:10:08.694Z</time></trkpt><trkpt lat="43.267247" lon="12.3316391"><ele>343.0</ele><time>2026-04-30T10:10:09.694Z</time></trkpt><trkpt lat="43.2669978" lon="12.331557"><ele>344.0</ele><time>2026-04-30T10:10:10.695Z</time></trkpt><trkpt lat="43.2667331" lon="12.3315075"><ele>344.0</ele><time>2026-04-30T10:10:11.695Z</time></trkpt><trkpt lat="43.2664644" lon="12.3314611"><ele>344.0</ele><time>2026-04-30T10:10:12.695Z</time></trkpt><trkpt lat="43.2661979" lon="12.331418"><ele>356.0</ele><time>2026-04-30T10:10:13.695Z</time></trkpt><trkpt lat="43.265934" lon="12.3313819"><ele>368.0</ele><time>2026-04-30T10:10:14.695Z</time></trkpt><trkpt lat="43.265669" lon="12.331368"><ele>368.5</ele><time>2026-04-30T10:10:15.695Z</time></trkpt><trkpt lat="43.2654119" lon="12.3313615"><ele>369.0</ele><time>2026-04-30T10:10:16.695Z</time></trkpt><trkpt lat="43.2651494" lon="12.3313608"><ele>369.0</ele><time>2026-04-30T10:10:17.695Z</time></trkpt><trkpt lat="43.2648922" lon="12.3313471"><ele>369.0</ele><time>2026-04-30T10:10:18.694Z</time></trkpt><trkpt lat="43.2646574" lon="12.3313375"><ele>371.0</ele><time>2026-04-30T10:10:19.695Z</time></trkpt><trkpt lat="43.2644316" lon="12.3313308"><ele>373.0</ele><time>2026-04-30T10:10:20.694Z</time></trkpt><trkpt lat="43.2642204" lon="12.3313314"><ele>375.0</ele><time>2026-04-30T10:10:21.694Z</time></trkpt><trkpt lat="43.2640099" lon="12.3313303"><ele>373.3333333333333</ele><time>2026-04-30T10:10:22.695Z</time></trkpt><trkpt lat="43.2638231" lon="12.331323"><ele>371.66666666666663</ele><time>2026-04-30T10:10:23.695Z</time></trkpt><trkpt lat="43.263649" lon="12.331293"><ele>370.0</ele><time>2026-04-30T10:10:24.695Z</time></trkpt><trkpt lat="43.2634784" lon="12.3312208"><ele>370.0</ele><time>2026-04-30T10:10:25.694Z</time></trkpt><trkpt lat="43.2633126" lon="12.3311062"><ele>370.0</ele><time>2026-04-30T10:10:26.694Z</time></trkpt><trkpt lat="43.2631577" lon="12.3309397"><ele>370.0</ele><time>2026-04-30T10:10:27.695Z</time></trkpt><trkpt lat="43.2630083" lon="12.3307726"><ele>368.66666666666663</ele><time>2026-04-30T10:10:28.695Z</time></trkpt><trkpt lat="43.2628508" lon="12.3306416"><ele>367.3333333333333</ele><time>2026-04-30T10:10:29.694Z</time></trkpt><trkpt lat="43.2626964" lon="12.3305079"><ele>366.0</ele><time>2026-04-30T10:10:30.695Z</time></trkpt><trkpt lat="43.2625683" lon="12.3303257"><ele>366.0</ele><time>2026-04-30T10:10:31.696Z</time></trkpt><trkpt lat="43.2624279" lon="12.3301361"><ele>366.0</ele><time>2026-04-30T10:10:32.694Z</time></trkpt><trkpt lat="43.2622689" lon="12.3299369"><ele>366.0</ele><time>2026-04-30T10:10:33.695Z</time></trkpt><trkpt lat="43.2621125" lon="12.329744"><ele>365.0</ele><time>2026-04-30T10:10:34.695Z</time></trkpt><trkpt lat="43.2619832" lon="12.3295495"><ele>364.0</ele><time>2026-04-30T10:10:35.694Z</time></trkpt><trkpt lat="43.2618565" lon="12.3293566"><ele>363.0</ele><time>2026-04-30T10:10:36.694Z</time></trkpt><trkpt lat="43.2617053" lon="12.329176"><ele>363.0</ele><time>2026-04-30T10:10:37.694Z</time></trkpt><trkpt lat="43.2615172" lon="12.3290313"><ele>363.0</ele><time>2026-04-30T10:10:38.694Z</time></trkpt><trkpt lat="43.2613023" lon="12.3288891"><ele>372.0</ele><time>2026-04-30T10:10:39.695Z</time></trkpt><trkpt lat="43.2610789" lon="12.3287516"><ele>381.0</ele><time>2026-04-30T10:10:40.695Z</time></trkpt><trkpt lat="43.2608468" lon="12.3286044"><ele>378.0</ele><time>2026-04-30T10:10:41.695Z</time></trkpt><trkpt lat="43.2606103" lon="12.3284253"><ele>375.0</ele><time>2026-04-30T10:10:42.695Z</time></trkpt><trkpt lat="43.2603674" lon="12.328237"><ele>383.0</ele><time>2026-04-30T10:10:43.695Z</time></trkpt><trkpt lat="43.2601518" lon="12.3280552"><ele>391.0</ele><time>2026-04-30T10:10:44.694Z</time></trkpt><trkpt lat="43.2599335" lon="12.327874"><ele>391.0</ele><time>2026-04-30T10:10:45.694Z</time></trkpt><trkpt lat="43.2598" lon="12.3277473"><ele>391.0</ele><time>2026-04-30T10:10:46.695Z</time></trkpt><trkpt lat="43.2596502" lon="12.3276253"><ele>391.0</ele><time>2026-04-30T10:10:47.695Z</time></trkpt><trkpt lat="43.2594814" lon="12.327579"><ele>391.0</ele><time>2026-04-30T10:10:48.695Z</time></trkpt><trkpt lat="43.2593144" lon="12.3275596"><ele>391.0</ele><time>2026-04-30T10:10:49.695Z</time></trkpt><trkpt lat="43.2591321" lon="12.3275778"><ele>391.0</ele><time>2026-04-30T10:10:50.695Z</time></trkpt><trkpt lat="43.2589303" lon="12.3276063"><ele>392.6666666666667</ele><time>2026-04-30T10:10:51.695Z</time></trkpt><trkpt lat="43.2586929" lon="12.3275924"><ele>394.33333333333337</ele><time>2026-04-30T10:10:52.695Z</time></trkpt><trkpt lat="43.258495" lon="12.3275029"><ele>396.0</ele><time>2026-04-30T10:10:53.694Z</time></trkpt><trkpt lat="43.2583026" lon="12.3274795"><ele>396.0</ele><time>2026-04-30T10:10:54.695Z</time></trkpt><trkpt lat="43.258121" lon="12.327423"><ele>396.0</ele><time>2026-04-30T10:10:55.695Z</time></trkpt><trkpt lat="43.2579482" lon="12.3273612"><ele>396.0</ele><time>2026-04-30T10:10:56.695Z</time></trkpt><trkpt lat="43.2577781" lon="12.3272766"><ele>399.66666666666663</ele><time>2026-04-30T10:10:57.694Z</time></trkpt><trkpt lat="43.2576218" lon="12.3271177"><ele>403.3333333333333</ele><time>2026-04-30T10:10:58.695Z</time></trkpt><trkpt lat="43.2574681" lon="12.3269496"><ele>407.0</ele><time>2026-04-30T10:10:59.695Z</time></trkpt><trkpt lat="43.2573252" lon="12.3267701"><ele>407.0</ele><time>2026-04-30T10:11:00.695Z</time></trkpt><trkpt lat="43.2571806" lon="12.3265824"><ele>407.0</ele><time>2026-04-30T10:11:01.694Z</time></trkpt><trkpt lat="43.2570383" lon="12.326383"><ele>407.0</ele><time>2026-04-30T10:11:02.695Z</time></trkpt><trkpt lat="43.257023" lon="12.3260931"><ele>406.0</ele><time>2026-04-30T10:11:03.695Z</time></trkpt><trkpt lat="43.256943" lon="12.3258425"><ele>405.0</ele><time>2026-04-30T10:11:04.694Z</time></trkpt><trkpt lat="43.2568685" lon="12.3256725"><ele>404.0</ele><time>2026-04-30T10:11:05.694Z</time></trkpt><trkpt lat="43.2568398" lon="12.3255427"><ele>403.0</ele><time>2026-04-30T10:11:06.694Z</time></trkpt><trkpt lat="43.2568698" lon="12.3253742"><ele>403.0</ele><time>2026-04-30T10:11:07.695Z</time></trkpt><trkpt lat="43.256966" lon="12.3252718"><ele>403.0</ele><time>2026-04-30T10:11:08.695Z</time></trkpt><trkpt lat="43.257118" lon="12.3251685"><ele>403.0</ele><time>2026-04-30T10:11:09.695Z</time></trkpt><trkpt lat="43.2572088" lon="12.3250132"><ele>403.0</ele><time>2026-04-30T10:11:10.695Z</time></trkpt><trkpt lat="43.2572564" lon="12.3248275"><ele>405.5</ele><time>2026-04-30T10:11:11.695Z</time></trkpt><trkpt lat="43.2572721" lon="12.3246229"><ele>408.0</ele><time>2026-04-30T10:11:12.695Z</time></trkpt><trkpt lat="43.2572752" lon="12.3244092"><ele>410.5</ele><time>2026-04-30T10:11:13.695Z</time></trkpt><trkpt lat="43.2572372" lon="12.3242201"><ele>413.0</ele><time>2026-04-30T10:11:14.695Z</time></trkpt><trkpt lat="43.2572051" lon="12.3240385"><ele>416.3333333333333</ele><time>2026-04-30T10:11:15.695Z</time></trkpt><trkpt lat="43.2571528" lon="12.3238544"><ele>419.66666666666663</ele><time>2026-04-30T10:11:16.694Z</time></trkpt><trkpt lat="43.2570264" lon="12.3236798"><ele>423.0</ele><time>2026-04-30T10:11:17.695Z</time></trkpt><trkpt lat="43.2568656" lon="12.3235528"><ele>423.0</ele><time>2026-04-30T10:11:18.695Z</time></trkpt><trkpt lat="43.2566835" lon="12.323458"><ele>423.0</ele><time>2026-04-30T10:11:19.694Z</time></trkpt><trkpt lat="43.2564989" lon="12.3235096"><ele>423.0</ele><time>2026-04-30T10:11:20.695Z</time></trkpt><trkpt lat="43.2563351" lon="12.3235468"><ele>421.5</ele><time>2026-04-30T10:11:21.695Z</time></trkpt><trkpt lat="43.2561929" lon="12.3235772"><ele>420.0</ele><time>2026-04-30T10:11:22.695Z</time></trkpt><trkpt lat="43.2560807" lon="12.3235831"><ele>418.5</ele><time>2026-04-30T10:11:23.694Z</time></trkpt><trkpt lat="43.2559811" lon="12.3235222"><ele>417.0</ele><time>2026-04-30T10:11:24.694Z</time></trkpt><trkpt lat="43.2559045" lon="12.3234656"><ele>417.0</ele><time>2026-04-30T10:11:25.694Z</time></trkpt><trkpt lat="43.2558406" lon="12.3233936"><ele>417.0</ele><time>2026-04-30T10:11:26.694Z</time></trkpt><trkpt lat="43.2557837" lon="12.3233066"><ele>417.0</ele><time>2026-04-30T10:11:27.695Z</time></trkpt><trkpt lat="43.2557244" lon="12.3232009"><ele>417.0</ele><time>2026-04-30T10:11:28.695Z</time></trkpt><trkpt lat="43.2556641" lon="12.3230866"><ele>417.0</ele><time>2026-04-30T10:11:29.695Z</time></trkpt><trkpt lat="43.2555984" lon="12.3229675"><ele>415.3333333333333</ele><time>2026-04-30T10:11:30.695Z</time></trkpt><trkpt lat="43.2555465" lon="12.3228376"><ele>413.66666666666663</ele><time>2026-04-30T10:11:31.695Z</time></trkpt><trkpt lat="43.2555177" lon="12.322708"><ele>412.0</ele><time>2026-04-30T10:11:32.694Z</time></trkpt><trkpt lat="43.2554992" lon="12.3225872"><ele>410.3333333333333</ele><time>2026-04-30T10:11:33.695Z</time></trkpt><trkpt lat="43.2554787" lon="12.322479"><ele>408.66666666666663</ele><time>2026-04-30T10:11:34.695Z</time></trkpt><trkpt lat="43.2554641" lon="12.3223853"><ele>407.0</ele><time>2026-04-30T10:11:35.695Z</time></trkpt><trkpt lat="43.2554704" lon="12.3222985"><ele>406.99999999999994</ele><time>2026-04-30T10:11:36.695Z</time></trkpt><trkpt lat="43.2555213" lon="12.3221461"><ele>407.0</ele><time>2026-04-30T10:11:38.694Z</time></trkpt><trkpt lat="43.2555686" lon="12.3220781"><ele>407.0</ele><time>2026-04-30T10:11:39.694Z</time></trkpt><trkpt lat="43.2556238" lon="12.322003"><ele>407.0</ele><time>2026-04-30T10:11:40.695Z</time></trkpt><trkpt lat="43.2556793" lon="12.3219343"><ele>406.99999999999994</ele><time>2026-04-30T10:11:41.694Z</time></trkpt><trkpt lat="43.2557256" lon="12.3218531"><ele>407.0</ele><time>2026-04-30T10:11:42.695Z</time></trkpt><trkpt lat="43.2557749" lon="12.3217393"><ele>409.6</ele><time>2026-04-30T10:11:43.693Z</time></trkpt><trkpt lat="43.2558283" lon="12.3216333"><ele>412.20000000000005</ele><time>2026-04-30T10:11:44.695Z</time></trkpt><trkpt lat="43.2558801" lon="12.321523"><ele>414.8</ele><time>2026-04-30T10:11:45.695Z</time></trkpt><trkpt lat="43.2559211" lon="12.3214147"><ele>417.4</ele><time>2026-04-30T10:11:46.694Z</time></trkpt><trkpt lat="43.2559525" lon="12.3212575"><ele>420.0</ele><time>2026-04-30T10:11:47.695Z</time></trkpt><trkpt lat="43.2559834" lon="12.3211055"><ele>420.0</ele><time>2026-04-30T10:11:48.695Z</time></trkpt><trkpt lat="43.2560003" lon="12.3209522"><ele>420.0</ele><time>2026-04-30T10:11:49.694Z</time></trkpt><trkpt lat="43.2560057" lon="12.3208178"><ele>420.0</ele><time>2026-04-30T10:11:50.694Z</time></trkpt><trkpt lat="43.256006" lon="12.3207268"><ele>420.0</ele><time>2026-04-30T10:11:51.694Z</time></trkpt><trkpt lat="43.2560095" lon="12.320625"><ele>420.0</ele><time>2026-04-30T10:11:52.694Z</time></trkpt><trkpt lat="43.2560136" lon="12.3204775"><ele>421.0</ele><time>2026-04-30T10:11:54.695Z</time></trkpt><trkpt lat="43.2560186" lon="12.3203678"><ele>422.0</ele><time>2026-04-30T10:11:56.694Z</time></trkpt><trkpt lat="43.2560205" lon="12.3202674"><ele>423.0</ele><time>2026-04-30T10:11:59.694Z</time></trkpt><trkpt lat="43.2560278" lon="12.3201185"><ele>424.0</ele><time>2026-04-30T10:12:02.694Z</time></trkpt><trkpt lat="43.2560335" lon="12.3200006"><ele>425.0</ele><time>2026-04-30T10:12:04.695Z</time></trkpt><trkpt lat="43.2560322" lon="12.3198591"><ele>427.2</ele><time>2026-04-30T10:12:06.695Z</time></trkpt><trkpt lat="43.2560081" lon="12.3197252"><ele>429.4</ele><time>2026-04-30T10:12:08.597Z</time></trkpt><trkpt lat="43.2560144" lon="12.3195793"><ele>431.6</ele><time>2026-04-30T10:12:10.694Z</time></trkpt><trkpt lat="43.2560517" lon="12.3194432"><ele>433.8</ele><time>2026-04-30T10:12:12.694Z</time></trkpt><trkpt lat="43.2561264" lon="12.3193255"><ele>436.0</ele><time>2026-04-30T10:12:14.693Z</time></trkpt><trkpt lat="43.2561792" lon="12.3192784"><ele>436.0</ele><time>2026-04-30T10:12:15.694Z</time></trkpt><trkpt lat="43.2562404" lon="12.3192267"><ele>436.0</ele><time>2026-04-30T10:12:16.694Z</time></trkpt><trkpt lat="43.2563067" lon="12.319165"><ele>436.0</ele><time>2026-04-30T10:12:17.694Z</time></trkpt><trkpt lat="43.2563762" lon="12.3191191"><ele>436.0</ele><time>2026-04-30T10:12:18.694Z</time></trkpt><trkpt lat="43.2564697" lon="12.3190102"><ele>436.0</ele><time>2026-04-30T10:12:20.693Z</time></trkpt><trkpt lat="43.2565429" lon="12.3188827"><ele>437.0</ele><time>2026-04-30T10:12:22.693Z</time></trkpt><trkpt lat="43.2565838" lon="12.3187394"><ele>438.0</ele><time>2026-04-30T10:12:24.694Z</time></trkpt><trkpt lat="43.25661" lon="12.3185719"><ele>439.0</ele><time>2026-04-30T10:12:26.694Z</time></trkpt><trkpt lat="43.2566138" lon="12.3184774"><ele>440.0</ele><time>2026-04-30T10:12:27.695Z</time></trkpt><trkpt lat="43.2566231" lon="12.3183692"><ele>441.0</ele><time>2026-04-30T10:12:28.695Z</time></trkpt><trkpt lat="43.2566275" lon="12.3182588"><ele>441.0</ele><time>2026-04-30T10:12:29.694Z</time></trkpt><trkpt lat="43.2566252" lon="12.3181407"><ele>441.0</ele><time>2026-04-30T10:12:30.695Z</time></trkpt><trkpt lat="43.2566224" lon="12.3180188"><ele>441.0</ele><time>2026-04-30T10:12:31.695Z</time></trkpt><trkpt lat="43.2566189" lon="12.3179116"><ele>441.0</ele><time>2026-04-30T10:12:32.695Z</time></trkpt><trkpt lat="43.2566071" lon="12.3178109"><ele>441.0</ele><time>2026-04-30T10:12:33.694Z</time></trkpt><trkpt lat="43.2565977" lon="12.3177082"><ele>441.0</ele><time>2026-04-30T10:12:34.695Z</time></trkpt><trkpt lat="43.256632" lon="12.3176016"><ele>443.3333333333333</ele><time>2026-04-30T10:12:36.695Z</time></trkpt><trkpt lat="43.2567053" lon="12.3176001"><ele>445.66666666666663</ele><time>2026-04-30T10:12:37.696Z</time></trkpt><trkpt lat="43.2568036" lon="12.3176153"><ele>448.0</ele><time>2026-04-30T10:12:38.695Z</time></trkpt><trkpt lat="43.2568688" lon="12.3176424"><ele>450.3333333333333</ele><time>2026-04-30T10:12:39.695Z</time></trkpt><trkpt lat="43.2569549" lon="12.3176049"><ele>452.66666666666663</ele><time>2026-04-30T10:12:41.695Z</time></trkpt><trkpt lat="43.2569668" lon="12.3175131"><ele>455.0</ele><time>2026-04-30T10:12:43.694Z</time></trkpt><trkpt lat="43.2568728" lon="12.3174178"><ele>455.0</ele><time>2026-04-30T10:12:45.694Z</time></trkpt><trkpt lat="43.2567677" lon="12.3173976"><ele>455.0</ele><time>2026-04-30T10:12:46.695Z</time></trkpt><trkpt lat="43.2566618" lon="12.3173664"><ele>455.0</ele><time>2026-04-30T10:12:47.695Z</time></trkpt><trkpt lat="43.2565913" lon="12.3173246"><ele>455.0</ele><time>2026-04-30T10:12:48.694Z</time></trkpt><trkpt lat="43.2565265" lon="12.3173146"><ele>455.0</ele><time>2026-04-30T10:12:49.694Z</time></trkpt><trkpt lat="43.256412" lon="12.3173678"><ele>457.4</ele><time>2026-04-30T10:12:51.694Z</time></trkpt><trkpt lat="43.2563819" lon="12.3174639"><ele>459.8</ele><time>2026-04-30T10:12:52.695Z</time></trkpt><trkpt lat="43.2563412" lon="12.3175397"><ele>462.20000000000005</ele><time>2026-04-30T10:12:53.694Z</time></trkpt><trkpt lat="43.2562701" lon="12.3176785"><ele>464.6</ele><time>2026-04-30T10:12:54.694Z</time></trkpt><trkpt lat="43.2561954" lon="12.317771"><ele>467.0</ele><time>2026-04-30T10:12:55.694Z</time></trkpt><trkpt lat="43.2561192" lon="12.3178474"><ele>467.0</ele><time>2026-04-30T10:12:56.695Z</time></trkpt><trkpt lat="43.2560458" lon="12.3179065"><ele>467.00000000000006</ele><time>2026-04-30T10:12:57.695Z</time></trkpt><trkpt lat="43.2559556" lon="12.317947"><ele>467.00000000000006</ele><time>2026-04-30T10:12:58.694Z</time></trkpt><trkpt lat="43.2558625" lon="12.3179743"><ele>467.0</ele><time>2026-04-30T10:12:59.695Z</time></trkpt><trkpt lat="43.2557618" lon="12.3179687"><ele>467.0</ele><time>2026-04-30T10:13:00.695Z</time></trkpt><trkpt lat="43.2556648" lon="12.3179451"><ele>467.0</ele><time>2026-04-30T10:13:01.695Z</time></trkpt><trkpt lat="43.2555582" lon="12.3179116"><ele>467.0</ele><time>2026-04-30T10:13:02.694Z</time></trkpt><trkpt lat="43.255456" lon="12.3178641"><ele>467.0</ele><time>2026-04-30T10:13:03.695Z</time></trkpt><trkpt lat="43.2553513" lon="12.3177992"><ele>467.0</ele><time>2026-04-30T10:13:04.695Z</time></trkpt><trkpt lat="43.2552355" lon="12.3176927"><ele>467.0</ele><time>2026-04-30T10:13:05.695Z</time></trkpt><trkpt lat="43.2551477" lon="12.3176"><ele>467.00000000000006</ele><time>2026-04-30T10:13:06.694Z</time></trkpt><trkpt lat="43.2550609" lon="12.3175106"><ele>467.00000000000006</ele><time>2026-04-30T10:13:07.694Z</time></trkpt><trkpt lat="43.2550617" lon="12.3173824"><ele>467.0</ele><time>2026-04-30T10:13:08.695Z</time></trkpt><trkpt lat="43.2550247" lon="12.3172614"><ele>467.0</ele><time>2026-04-30T10:13:09.695Z</time></trkpt><trkpt lat="43.2549958" lon="12.3171128"><ele>470.40000000000003</ele><time>2026-04-30T10:13:10.694Z</time></trkpt><trkpt lat="43.2549458" lon="12.3170071"><ele>473.80000000000007</ele><time>2026-04-30T10:13:11.694Z</time></trkpt><trkpt lat="43.2548969" lon="12.3169095"><ele>477.2</ele><time>2026-04-30T10:13:12.695Z</time></trkpt><trkpt lat="43.2548468" lon="12.3168264"><ele>480.6</ele><time>2026-04-30T10:13:13.694Z</time></trkpt><trkpt lat="43.254717" lon="12.3169096"><ele>484.0</ele><time>2026-04-30T10:13:14.695Z</time></trkpt><trkpt lat="43.2546243" lon="12.31693"><ele>485.0</ele><time>2026-04-30T10:13:15.694Z</time></trkpt><trkpt lat="43.254531" lon="12.3169638"><ele>486.0</ele><time>2026-04-30T10:13:16.694Z</time></trkpt><trkpt lat="43.25447" lon="12.3170266"><ele>487.0</ele><time>2026-04-30T10:13:17.696Z</time></trkpt><trkpt lat="43.254384" lon="12.3170731"><ele>488.0</ele><time>2026-04-30T10:13:18.695Z</time></trkpt><trkpt lat="43.2542894" lon="12.3171267"><ele>489.0</ele><time>2026-04-30T10:13:19.694Z</time></trkpt><trkpt lat="43.2541978" lon="12.3171778"><ele>489.0</ele><time>2026-04-30T10:13:20.694Z</time></trkpt><trkpt lat="43.2540936" lon="12.3172126"><ele>489.0</ele><time>2026-04-30T10:13:21.695Z</time></trkpt><trkpt lat="43.2539441" lon="12.3172424"><ele>489.0</ele><time>2026-04-30T10:13:22.694Z</time></trkpt><trkpt lat="43.2538174" lon="12.3172792"><ele>489.0</ele><time>2026-04-30T10:13:23.694Z</time></trkpt><trkpt lat="43.253706" lon="12.3173221"><ele>489.2</ele><time>2026-04-30T10:13:24.693Z</time></trkpt><trkpt lat="43.2536135" lon="12.3174077"><ele>489.4</ele><time>2026-04-30T10:13:25.694Z</time></trkpt><trkpt lat="43.2535381" lon="12.3174774"><ele>489.6</ele><time>2026-04-30T10:13:26.694Z</time></trkpt><trkpt lat="43.2534661" lon="12.3175892"><ele>489.8</ele><time>2026-04-30T10:13:27.694Z</time></trkpt><trkpt lat="43.253421" lon="12.3176991"><ele>490.0</ele><time>2026-04-30T10:13:28.693Z</time></trkpt><trkpt lat="43.2533982" lon="12.3178432"><ele>490.0</ele><time>2026-04-30T10:13:29.694Z</time></trkpt><trkpt lat="43.2533793" lon="12.3179895"><ele>490.0</ele><time>2026-04-30T10:13:30.694Z</time></trkpt><trkpt lat="43.2533862" lon="12.3181249"><ele>490.0</ele><time>2026-04-30T10:13:31.694Z</time></trkpt><trkpt lat="43.2533856" lon="12.3182524"><ele>490.0</ele><time>2026-04-30T10:13:32.694Z</time></trkpt><trkpt lat="43.2533741" lon="12.3183709"><ele>490.0</ele><time>2026-04-30T10:13:33.694Z</time></trkpt><trkpt lat="43.2533189" lon="12.3184475"><ele>488.8</ele><time>2026-04-30T10:13:34.694Z</time></trkpt><trkpt lat="43.2532819" lon="12.318533"><ele>487.6</ele><time>2026-04-30T10:13:35.693Z</time></trkpt><trkpt lat="43.2532191" lon="12.3184922"><ele>486.4</ele><time>2026-04-30T10:13:36.694Z</time></trkpt><trkpt lat="43.2531577" lon="12.3184636"><ele>485.2</ele><time>2026-04-30T10:13:37.694Z</time></trkpt><trkpt lat="43.2531357" lon="12.318308"><ele>484.0</ele><time>2026-04-30T10:13:39.694Z</time></trkpt><trkpt lat="43.2531772" lon="12.3181412"><ele>485.2</ele><time>2026-04-30T10:13:41.695Z</time></trkpt><trkpt lat="43.2531963" lon="12.3180428"><ele>486.4</ele><time>2026-04-30T10:13:42.695Z</time></trkpt><trkpt lat="43.2531902" lon="12.3178815"><ele>487.6</ele><time>2026-04-30T10:13:43.695Z</time></trkpt><trkpt lat="43.253181" lon="12.3177452"><ele>488.8</ele><time>2026-04-30T10:13:44.694Z</time></trkpt><trkpt lat="43.2531749" lon="12.317583"><ele>490.0</ele><time>2026-04-30T10:13:45.694Z</time></trkpt><trkpt lat="43.2531758" lon="12.3174312"><ele>490.0</ele><time>2026-04-30T10:13:46.695Z</time></trkpt><trkpt lat="43.2531775" lon="12.317283"><ele>490.0</ele><time>2026-04-30T10:13:47.695Z</time></trkpt><trkpt lat="43.2531823" lon="12.3171376"><ele>490.0</ele><time>2026-04-30T10:13:48.695Z</time></trkpt><trkpt lat="43.2532193" lon="12.3170233"><ele>490.0</ele><time>2026-04-30T10:13:49.694Z</time></trkpt><trkpt lat="43.2532681" lon="12.3169076"><ele>490.0</ele><time>2026-04-30T10:13:50.695Z</time></trkpt><trkpt lat="43.2533161" lon="12.3167829"><ele>492.0</ele><time>2026-04-30T10:13:51.694Z</time></trkpt><trkpt lat="43.2533817" lon="12.3166596"><ele>494.0</ele><time>2026-04-30T10:13:52.694Z</time></trkpt><trkpt lat="43.2534494" lon="12.3165436"><ele>496.0</ele><time>2026-04-30T10:13:53.694Z</time></trkpt><trkpt lat="43.2535221" lon="12.3164246"><ele>498.0</ele><time>2026-04-30T10:13:54.695Z</time></trkpt><trkpt lat="43.253595" lon="12.3163113"><ele>500.0</ele><time>2026-04-30T10:13:55.694Z</time></trkpt><trkpt lat="43.2536698" lon="12.3162149"><ele>500.4</ele><time>2026-04-30T10:13:56.694Z</time></trkpt><trkpt lat="43.2537465" lon="12.3160994"><ele>500.8</ele><time>2026-04-30T10:13:57.695Z</time></trkpt><trkpt lat="43.2538325" lon="12.3159848"><ele>501.20000000000005</ele><time>2026-04-30T10:13:58.693Z</time></trkpt><trkpt lat="43.2539059" lon="12.3158796"><ele>501.6</ele><time>2026-04-30T10:13:59.695Z</time></trkpt><trkpt lat="43.2539962" lon="12.3158029"><ele>502.0</ele><time>2026-04-30T10:14:00.694Z</time></trkpt><trkpt lat="43.2540791" lon="12.3157307"><ele>502.83333333333337</ele><time>2026-04-30T10:14:01.695Z</time></trkpt><trkpt lat="43.2541587" lon="12.3156754"><ele>503.6666666666667</ele><time>2026-04-30T10:14:02.695Z</time></trkpt><trkpt lat="43.2542293" lon="12.3156078"><ele>504.5</ele><time>2026-04-30T10:14:03.695Z</time></trkpt><trkpt lat="43.2543042" lon="12.3155416"><ele>505.33333333333337</ele><time>2026-04-30T10:14:04.695Z</time></trkpt><trkpt lat="43.2543735" lon="12.3154776"><ele>506.1666666666667</ele><time>2026-04-30T10:14:05.695Z</time></trkpt><trkpt lat="43.2544504" lon="12.3154027"><ele>507.0</ele><time>2026-04-30T10:14:06.694Z</time></trkpt><trkpt lat="43.2545258" lon="12.3153363"><ele>507.6666666666667</ele><time>2026-04-30T10:14:07.695Z</time></trkpt><trkpt lat="43.2545928" lon="12.3152633"><ele>508.33333333333337</ele><time>2026-04-30T10:14:08.695Z</time></trkpt><trkpt lat="43.2546644" lon="12.3151862"><ele>509.0</ele><time>2026-04-30T10:14:09.695Z</time></trkpt><trkpt lat="43.25473" lon="12.315117"><ele>509.6666666666667</ele><time>2026-04-30T10:14:10.694Z</time></trkpt><trkpt lat="43.2547914" lon="12.3150484"><ele>510.33333333333337</ele><time>2026-04-30T10:14:11.695Z</time></trkpt><trkpt lat="43.2548574" lon="12.3149841"><ele>511.0</ele><time>2026-04-30T10:14:12.695Z</time></trkpt><trkpt lat="43.2549185" lon="12.3149249"><ele>512.5</ele><time>2026-04-30T10:14:13.694Z</time></trkpt><trkpt lat="43.2549728" lon="12.314877"><ele>514.0</ele><time>2026-04-30T10:14:14.695Z</time></trkpt><trkpt lat="43.2550209" lon="12.3148088"><ele>515.5</ele><time>2026-04-30T10:14:15.693Z</time></trkpt><trkpt lat="43.2550544" lon="12.3147333"><ele>517.0</ele><time>2026-04-30T10:14:16.695Z</time></trkpt><trkpt lat="43.2550922" lon="12.3145922"><ele>518.5</ele><time>2026-04-30T10:14:18.694Z</time></trkpt><trkpt lat="43.2551349" lon="12.3144518"><ele>520.0</ele><time>2026-04-30T10:14:20.693Z</time></trkpt><trkpt lat="43.2551836" lon="12.3143577"><ele>520.0</ele><time>2026-04-30T10:14:23.695Z</time></trkpt><trkpt lat="43.2552496" lon="12.3143313"><ele>520.0</ele><time>2026-04-30T10:14:25.694Z</time></trkpt><trkpt lat="43.2553259" lon="12.3143749"><ele>520.0</ele><time>2026-04-30T10:14:27.695Z</time></trkpt><trkpt lat="43.2553634" lon="12.3144675"><ele>520.0</ele><time>2026-04-30T10:14:29.695Z</time></trkpt><trkpt lat="43.2553628" lon="12.3145978"><ele>520.0</ele><time>2026-04-30T10:14:32.695Z</time></trkpt><trkpt lat="43.2553961" lon="12.3147023"><ele>520.0</ele><time>2026-04-30T10:14:34.695Z</time></trkpt><trkpt lat="43.2554723" lon="12.3147765"><ele>520.0</ele><time>2026-04-30T10:14:37.694Z</time></trkpt><trkpt lat="43.2555508" lon="12.3147657"><ele>520.0</ele><time>2026-04-30T10:14:39.695Z</time></trkpt><trkpt lat="43.2556159" lon="12.3147232"><ele>520.0</ele><time>2026-04-30T10:14:41.694Z</time></trkpt><trkpt lat="43.2556761" lon="12.3146692"><ele>520.0</ele><time>2026-04-30T10:14:43.695Z</time></trkpt><trkpt lat="43.25576" lon="12.3146203"><ele>520.0</ele><time>2026-04-30T10:14:46.695Z</time></trkpt><trkpt lat="43.2558056" lon="12.3145178"><ele>520.0</ele><time>2026-04-30T10:14:47.696Z</time></trkpt><trkpt lat="43.2558495" lon="12.3144533"><ele>522.0</ele><time>2026-04-30T10:14:48.695Z</time></trkpt><trkpt lat="43.2559186" lon="12.314328"><ele>524.0</ele><time>2026-04-30T10:14:50.694Z</time></trkpt><trkpt lat="43.2559558" lon="12.3142472"><ele>526.0</ele><time>2026-04-30T10:14:52.695Z</time></trkpt><trkpt lat="43.2560525" lon="12.3141701"><ele>528.0</ele><time>2026-04-30T10:14:54.695Z</time></trkpt><trkpt lat="43.256151" lon="12.314143"><ele>530.0</ele><time>2026-04-30T10:14:56.695Z</time></trkpt><trkpt lat="43.2562304" lon="12.3141249"><ele>530.0</ele><time>2026-04-30T10:14:57.694Z</time></trkpt><trkpt lat="43.2563049" lon="12.3140926"><ele>530.0</ele><time>2026-04-30T10:14:58.695Z</time></trkpt><trkpt lat="43.2563807" lon="12.3140986"><ele>530.0</ele><time>2026-04-30T10:14:59.694Z</time></trkpt><trkpt lat="43.2564536" lon="12.3140886"><ele>530.0</ele><time>2026-04-30T10:15:00.694Z</time></trkpt><trkpt lat="43.2565465" lon="12.314195"><ele>530.0</ele><time>2026-04-30T10:15:01.695Z</time></trkpt><trkpt lat="43.2566435" lon="12.314248"><ele>530.1666666666666</ele><time>2026-04-30T10:15:02.694Z</time></trkpt><trkpt lat="43.2567256" lon="12.3143"><ele>530.3333333333333</ele><time>2026-04-30T10:15:03.695Z</time></trkpt><trkpt lat="43.2568029" lon="12.3143615"><ele>530.5</ele><time>2026-04-30T10:15:04.695Z</time></trkpt><trkpt lat="43.2568604" lon="12.3144418"><ele>530.6666666666666</ele><time>2026-04-30T10:15:05.695Z</time></trkpt><trkpt lat="43.2569374" lon="12.3144981"><ele>530.8333333333334</ele><time>2026-04-30T10:15:06.695Z</time></trkpt><trkpt lat="43.2570057" lon="12.3145304"><ele>531.0</ele><time>2026-04-30T10:15:07.694Z</time></trkpt><trkpt lat="43.2570854" lon="12.314576"><ele>531.0</ele><time>2026-04-30T10:15:08.695Z</time></trkpt><trkpt lat="43.257163" lon="12.3146211"><ele>531.0</ele><time>2026-04-30T10:15:09.695Z</time></trkpt><trkpt lat="43.2572492" lon="12.3146615"><ele>531.0</ele><time>2026-04-30T10:15:10.694Z</time></trkpt><trkpt lat="43.2573498" lon="12.3147364"><ele>531.0</ele><time>2026-04-30T10:15:11.695Z</time></trkpt><trkpt lat="43.2574305" lon="12.3147783"><ele>531.0</ele><time>2026-04-30T10:15:12.695Z</time></trkpt><trkpt lat="43.2575095" lon="12.314827"><ele>528.6666666666666</ele><time>2026-04-30T10:15:13.694Z</time></trkpt><trkpt lat="43.2575847" lon="12.3148414"><ele>526.3333333333334</ele><time>2026-04-30T10:15:14.696Z</time></trkpt><trkpt lat="43.2576621" lon="12.3148919"><ele>524.0</ele><time>2026-04-30T10:15:15.695Z</time></trkpt><trkpt lat="43.2577422" lon="12.3149284"><ele>521.6666666666667</ele><time>2026-04-30T10:15:16.695Z</time></trkpt><trkpt lat="43.257817" lon="12.3149929"><ele>519.3333333333334</ele><time>2026-04-30T10:15:17.694Z</time></trkpt><trkpt lat="43.2578823" lon="12.3150662"><ele>517.0</ele><time>2026-04-30T10:15:18.695Z</time></trkpt><trkpt lat="43.2579586" lon="12.3150936"><ele>517.0</ele><time>2026-04-30T10:15:19.695Z</time></trkpt><trkpt lat="43.2580423" lon="12.3151422"><ele>517.0</ele><time>2026-04-30T10:15:20.695Z</time></trkpt><trkpt lat="43.2581233" lon="12.315138"><ele>517.0</ele><time>2026-04-30T10:15:21.695Z</time></trkpt><trkpt lat="43.2581873" lon="12.3151453"><ele>517.0</ele><time>2026-04-30T10:15:22.695Z</time></trkpt><trkpt lat="43.2582566" lon="12.3151398"><ele>517.0</ele><time>2026-04-30T10:15:23.695Z</time></trkpt><trkpt lat="43.2583269" lon="12.3150794"><ele>517.0</ele><time>2026-04-30T10:15:24.696Z</time></trkpt><trkpt lat="43.2584201" lon="12.3150396"><ele>519.4</ele><time>2026-04-30T10:15:25.694Z</time></trkpt><trkpt lat="43.2584994" lon="12.315005"><ele>521.8000000000001</ele><time>2026-04-30T10:15:26.695Z</time></trkpt><trkpt lat="43.2586048" lon="12.3149372"><ele>524.2</ele><time>2026-04-30T10:15:27.695Z</time></trkpt><trkpt lat="43.2586919" lon="12.3148908"><ele>526.6</ele><time>2026-04-30T10:15:28.694Z</time></trkpt><trkpt lat="43.2587695" lon="12.3148789"><ele>529.0</ele><time>2026-04-30T10:15:29.695Z</time></trkpt><trkpt lat="43.2588585" lon="12.3148648"><ele>528.6</ele><time>2026-04-30T10:15:30.696Z</time></trkpt><trkpt lat="43.2589583" lon="12.3148369"><ele>528.2</ele><time>2026-04-30T10:15:31.695Z</time></trkpt><trkpt lat="43.2590453" lon="12.3148054"><ele>527.8000000000001</ele><time>2026-04-30T10:15:32.695Z</time></trkpt><trkpt lat="43.25913" lon="12.3147665"><ele>527.4</ele><time>2026-04-30T10:15:33.695Z</time></trkpt><trkpt lat="43.2592108" lon="12.3147309"><ele>527.0</ele><time>2026-04-30T10:15:34.695Z</time></trkpt><trkpt lat="43.2593057" lon="12.3147041"><ele>531.0</ele><time>2026-04-30T10:15:35.696Z</time></trkpt><trkpt lat="43.2593881" lon="12.3146907"><ele>535.0</ele><time>2026-04-30T10:15:36.695Z</time></trkpt><trkpt lat="43.2594735" lon="12.3146664"><ele>539.0</ele><time>2026-04-30T10:15:37.695Z</time></trkpt><trkpt lat="43.2595654" lon="12.3146659"><ele>543.0</ele><time>2026-04-30T10:15:38.695Z</time></trkpt><trkpt lat="43.2596566" lon="12.314637"><ele>547.0</ele><time>2026-04-30T10:15:39.695Z</time></trkpt><trkpt lat="43.2597372" lon="12.3146414"><ele>551.0</ele><time>2026-04-30T10:15:40.694Z</time></trkpt><trkpt lat="43.2598132" lon="12.3146525"><ele>552.0</ele><time>2026-04-30T10:15:41.694Z</time></trkpt><trkpt lat="43.2599377" lon="12.3146302"><ele>553.0</ele><time>2026-04-30T10:15:42.695Z</time></trkpt><trkpt lat="43.2600534" lon="12.3145839"><ele>554.0</ele><time>2026-04-30T10:15:43.695Z</time></trkpt><trkpt lat="43.2601548" lon="12.3145448"><ele>555.0</ele><time>2026-04-30T10:15:44.695Z</time></trkpt><trkpt lat="43.2602264" lon="12.3145235"><ele>556.0</ele><time>2026-04-30T10:15:45.694Z</time></trkpt><trkpt lat="43.2603104" lon="12.3144953"><ele>556.0</ele><time>2026-04-30T10:15:46.695Z</time></trkpt><trkpt lat="43.2604609" lon="12.3144516"><ele>556.0</ele><time>2026-04-30T10:15:48.694Z</time></trkpt><trkpt lat="43.2605329" lon="12.3144257"><ele>556.0</ele><time>2026-04-30T10:15:49.695Z</time></trkpt><trkpt lat="43.2606127" lon="12.3143604"><ele>556.0</ele><time>2026-04-30T10:15:50.695Z</time></trkpt><trkpt lat="43.2606868" lon="12.3143226"><ele>556.0</ele><time>2026-04-30T10:15:51.694Z</time></trkpt><trkpt lat="43.2607563" lon="12.3143267"><ele>555.6666666666667</ele><time>2026-04-30T10:15:52.695Z</time></trkpt><trkpt lat="43.2608314" lon="12.3143095"><ele>555.3333333333334</ele><time>2026-04-30T10:15:53.695Z</time></trkpt><trkpt lat="43.2609166" lon="12.314324"><ele>555.0</ele><time>2026-04-30T10:15:54.696Z</time></trkpt><trkpt lat="43.2609975" lon="12.3143152"><ele>554.6666666666666</ele><time>2026-04-30T10:15:55.695Z</time></trkpt><trkpt lat="43.2610764" lon="12.314293"><ele>554.3333333333333</ele><time>2026-04-30T10:15:56.695Z</time></trkpt><trkpt lat="43.261159" lon="12.3142732"><ele>554.0</ele><time>2026-04-30T10:15:57.695Z</time></trkpt><trkpt lat="43.2612915" lon="12.3142295"><ele>554.0</ele><time>2026-04-30T10:15:59.695Z</time></trkpt><trkpt lat="43.2613626" lon="12.314209"><ele>554.0</ele><time>2026-04-30T10:16:00.695Z</time></trkpt><trkpt lat="43.2614438" lon="12.3141768"><ele>554.0</ele><time>2026-04-30T10:16:01.694Z</time></trkpt><trkpt lat="43.2615196" lon="12.3141496"><ele>554.0</ele><time>2026-04-30T10:16:02.694Z</time></trkpt><trkpt lat="43.2616081" lon="12.3140986"><ele>554.0</ele><time>2026-04-30T10:16:03.695Z</time></trkpt><trkpt lat="43.2616806" lon="12.3140776"><ele>554.0</ele><time>2026-04-30T10:16:04.694Z</time></trkpt><trkpt lat="43.2617574" lon="12.3140555"><ele>553.8</ele><time>2026-04-30T10:16:05.695Z</time></trkpt><trkpt lat="43.2618503" lon="12.3140615"><ele>553.5999999999999</ele><time>2026-04-30T10:16:06.696Z</time></trkpt><trkpt lat="43.2619537" lon="12.3140293"><ele>553.4</ele><time>2026-04-30T10:16:07.695Z</time></trkpt><trkpt lat="43.262062" lon="12.3140163"><ele>553.1999999999999</ele><time>2026-04-30T10:16:08.694Z</time></trkpt><trkpt lat="43.2621591" lon="12.3140054"><ele>553.0</ele><time>2026-04-30T10:16:09.695Z</time></trkpt><trkpt lat="43.2622579" lon="12.3139992"><ele>553.8</ele><time>2026-04-30T10:16:10.695Z</time></trkpt><trkpt lat="43.2623477" lon="12.3139914"><ele>554.5999999999999</ele><time>2026-04-30T10:16:11.695Z</time></trkpt><trkpt lat="43.262424" lon="12.3140009"><ele>555.4000000000001</ele><time>2026-04-30T10:16:12.695Z</time></trkpt><trkpt lat="43.2624831" lon="12.3140396"><ele>556.2</ele><time>2026-04-30T10:16:13.696Z</time></trkpt><trkpt lat="43.2626049" lon="12.3141054"><ele>557.0</ele><time>2026-04-30T10:16:15.696Z</time></trkpt><trkpt lat="43.2627016" lon="12.3141291"><ele>557.0</ele><time>2026-04-30T10:16:17.696Z</time></trkpt><trkpt lat="43.2627661" lon="12.3141479"><ele>557.0</ele><time>2026-04-30T10:16:18.695Z</time></trkpt><trkpt lat="43.2628359" lon="12.3141336"><ele>557.0</ele><time>2026-04-30T10:16:19.695Z</time></trkpt><trkpt lat="43.2629054" lon="12.3141168"><ele>557.0</ele><time>2026-04-30T10:16:20.695Z</time></trkpt><trkpt lat="43.2629926" lon="12.3140903"><ele>557.0</ele><time>2026-04-30T10:16:21.694Z</time></trkpt><trkpt lat="43.2630826" lon="12.3140647"><ele>557.0</ele><time>2026-04-30T10:16:22.695Z</time></trkpt><trkpt lat="43.2631718" lon="12.3140344"><ele>557.5</ele><time>2026-04-30T10:16:23.695Z</time></trkpt><trkpt lat="43.2632607" lon="12.3140478"><ele>558.0</ele><time>2026-04-30T10:16:24.695Z</time></trkpt><trkpt lat="43.263333" lon="12.3140546"><ele>558.5</ele><time>2026-04-30T10:16:25.695Z</time></trkpt><trkpt lat="43.2633986" lon="12.3140638"><ele>559.0</ele><time>2026-04-30T10:16:26.694Z</time></trkpt><trkpt lat="43.2635135" lon="12.3140798"><ele>559.5</ele><time>2026-04-30T10:16:28.694Z</time></trkpt><trkpt lat="43.2635913" lon="12.3140864"><ele>560.0</ele><time>2026-04-30T10:16:29.694Z</time></trkpt><trkpt lat="43.2636633" lon="12.3141149"><ele>560.0</ele><time>2026-04-30T10:16:30.695Z</time></trkpt><trkpt lat="43.2637336" lon="12.314148"><ele>560.0</ele><time>2026-04-30T10:16:31.694Z</time></trkpt><trkpt lat="43.2638159" lon="12.3141827"><ele>560.0</ele><time>2026-04-30T10:16:32.695Z</time></trkpt><trkpt lat="43.2639068" lon="12.3141906"><ele>560.0</ele><time>2026-04-30T10:16:33.695Z</time></trkpt><trkpt lat="43.2639963" lon="12.3142229"><ele>560.0</ele><time>2026-04-30T10:16:34.695Z</time></trkpt><trkpt lat="43.2640929" lon="12.314262"><ele>560.0</ele><time>2026-04-30T10:16:35.695Z</time></trkpt><trkpt lat="43.264216" lon="12.3143266"><ele>561.4</ele><time>2026-04-30T10:16:36.695Z</time></trkpt><trkpt lat="43.2643172" lon="12.3143668"><ele>562.8</ele><time>2026-04-30T10:16:37.694Z</time></trkpt><trkpt lat="43.2643992" lon="12.3143929"><ele>564.2</ele><time>2026-04-30T10:16:38.695Z</time></trkpt><trkpt lat="43.264479" lon="12.3144582"><ele>565.6</ele><time>2026-04-30T10:16:39.695Z</time></trkpt><trkpt lat="43.2645528" lon="12.3145599"><ele>567.0</ele><time>2026-04-30T10:16:40.694Z</time></trkpt><trkpt lat="43.2646346" lon="12.3146234"><ele>567.0</ele><time>2026-04-30T10:16:41.694Z</time></trkpt><trkpt lat="43.2647019" lon="12.3146945"><ele>567.0</ele><time>2026-04-30T10:16:42.695Z</time></trkpt><trkpt lat="43.2647567" lon="12.3147585"><ele>567.0</ele><time>2026-04-30T10:16:43.696Z</time></trkpt><trkpt lat="43.2648181" lon="12.3148103"><ele>567.0</ele><time>2026-04-30T10:16:44.695Z</time></trkpt><trkpt lat="43.2648932" lon="12.3147877"><ele>567.0</ele><time>2026-04-30T10:16:45.696Z</time></trkpt><trkpt lat="43.2649583" lon="12.314792"><ele>567.0</ele><time>2026-04-30T10:16:46.695Z</time></trkpt><trkpt lat="43.2650255" lon="12.3147937"><ele>567.0</ele><time>2026-04-30T10:16:47.695Z</time></trkpt><trkpt lat="43.265094" lon="12.3147839"><ele>564.1666666666666</ele><time>2026-04-30T10:16:48.695Z</time></trkpt><trkpt lat="43.2652317" lon="12.3147923"><ele>561.3333333333334</ele><time>2026-04-30T10:16:50.694Z</time></trkpt><trkpt lat="43.2653027" lon="12.3147845"><ele>558.5</ele><time>2026-04-30T10:16:51.694Z</time></trkpt><trkpt lat="43.2653456" lon="12.3149061"><ele>555.6666666666667</ele><time>2026-04-30T10:16:52.695Z</time></trkpt><trkpt lat="43.2654043" lon="12.3149613"><ele>552.8333333333334</ele><time>2026-04-30T10:16:53.695Z</time></trkpt><trkpt lat="43.2654705" lon="12.3149338"><ele>550.0</ele><time>2026-04-30T10:16:54.695Z</time></trkpt><trkpt lat="43.2655648" lon="12.3149368"><ele>549.3333333333334</ele><time>2026-04-30T10:16:56.695Z</time></trkpt><trkpt lat="43.2656578" lon="12.3149269"><ele>548.6666666666667</ele><time>2026-04-30T10:16:58.695Z</time></trkpt><trkpt lat="43.2657708" lon="12.3148888"><ele>548.0</ele><time>2026-04-30T10:17:00.695Z</time></trkpt><trkpt lat="43.2658359" lon="12.3148553"><ele>547.3333333333334</ele><time>2026-04-30T10:17:01.695Z</time></trkpt><trkpt lat="43.2659203" lon="12.3148367"><ele>546.6666666666666</ele><time>2026-04-30T10:17:02.695Z</time></trkpt><trkpt lat="43.2659858" lon="12.3148306"><ele>546.0</ele><time>2026-04-30T10:17:03.693Z</time></trkpt><trkpt lat="43.2660512" lon="12.3148075"><ele>546.0</ele><time>2026-04-30T10:17:04.695Z</time></trkpt><trkpt lat="43.2661186" lon="12.3147882"><ele>546.0</ele><time>2026-04-30T10:17:05.695Z</time></trkpt><trkpt lat="43.2662312" lon="12.3148166"><ele>546.0</ele><time>2026-04-30T10:17:07.694Z</time></trkpt><trkpt lat="43.2663108" lon="12.3148156"><ele>546.0</ele><time>2026-04-30T10:17:08.694Z</time></trkpt><trkpt lat="43.2663873" lon="12.3148112"><ele>546.0</ele><time>2026-04-30T10:17:09.694Z</time></trkpt><trkpt lat="43.2664765" lon="12.3147612"><ele>546.0</ele><time>2026-04-30T10:17:10.695Z</time></trkpt><trkpt lat="43.2666029" lon="12.3147558"><ele>546.0</ele><time>2026-04-30T10:17:12.694Z</time></trkpt><trkpt lat="43.2667254" lon="12.3147472"><ele>546.0</ele><time>2026-04-30T10:17:14.695Z</time></trkpt><trkpt lat="43.266811" lon="12.3147411"><ele>546.0</ele><time>2026-04-30T10:17:15.695Z</time></trkpt><trkpt lat="43.2669018" lon="12.3147531"><ele>546.0</ele><time>2026-04-30T10:17:16.695Z</time></trkpt><trkpt lat="43.2669982" lon="12.3147391"><ele>546.0</ele><time>2026-04-30T10:17:17.695Z</time></trkpt><trkpt lat="43.2670783" lon="12.3147647"><ele>546.0</ele><time>2026-04-30T10:17:18.695Z</time></trkpt><trkpt lat="43.2671584" lon="12.3147666"><ele>546.0</ele><time>2026-04-30T10:17:19.694Z</time></trkpt><trkpt lat="43.2672477" lon="12.3147724"><ele>546.0</ele><time>2026-04-30T10:17:20.695Z</time></trkpt><trkpt lat="43.2673337" lon="12.3147597"><ele>546.0</ele><time>2026-04-30T10:17:21.694Z</time></trkpt><trkpt lat="43.2674495" lon="12.3147737"><ele>546.0</ele><time>2026-04-30T10:17:23.694Z</time></trkpt><trkpt lat="43.2675636" lon="12.3147735"><ele>546.8</ele><time>2026-04-30T10:17:25.696Z</time></trkpt><trkpt lat="43.2676568" lon="12.3147755"><ele>547.6</ele><time>2026-04-30T10:17:27.695Z</time></trkpt><trkpt lat="43.2677731" lon="12.3147421"><ele>548.4</ele><time>2026-04-30T10:17:29.695Z</time></trkpt><trkpt lat="43.2678605" lon="12.3147421"><ele>549.2</ele><time>2026-04-30T10:17:32.695Z</time></trkpt><trkpt lat="43.2679387" lon="12.314722"><ele>550.0</ele><time>2026-04-30T10:17:36.694Z</time></trkpt><trkpt lat="43.2679875" lon="12.3146518"><ele>551.2</ele><time>2026-04-30T10:17:38.695Z</time></trkpt><trkpt lat="43.2680616" lon="12.3145346"><ele>552.4</ele><time>2026-04-30T10:17:40.695Z</time></trkpt><trkpt lat="43.2681558" lon="12.3143838"><ele>553.6</ele><time>2026-04-30T10:17:42.696Z</time></trkpt><trkpt lat="43.2682294" lon="12.3143098"><ele>554.8</ele><time>2026-04-30T10:17:44.695Z</time></trkpt><trkpt lat="43.2682941" lon="12.3142272"><ele>556.0</ele><time>2026-04-30T10:17:46.695Z</time></trkpt><trkpt lat="43.2684033" lon="12.3142065"><ele>556.0</ele><time>2026-04-30T10:17:48.695Z</time></trkpt><trkpt lat="43.2684701" lon="12.3141923"><ele>556.0</ele><time>2026-04-30T10:17:49.694Z</time></trkpt><trkpt lat="43.2685539" lon="12.3141767"><ele>556.0</ele><time>2026-04-30T10:17:50.695Z</time></trkpt><trkpt lat="43.2686337" lon="12.3141831"><ele>556.0</ele><time>2026-04-30T10:17:51.694Z</time></trkpt><trkpt lat="43.2687509" lon="12.3141202"><ele>556.0</ele><time>2026-04-30T10:17:53.695Z</time></trkpt><trkpt lat="43.2688448" lon="12.3141101"><ele>556.0</ele><time>2026-04-30T10:17:55.695Z</time></trkpt><trkpt lat="43.268914" lon="12.3140914"><ele>556.0</ele><time>2026-04-30T10:17:58.694Z</time></trkpt><trkpt lat="43.2689655" lon="12.3140313"><ele>556.0</ele><time>2026-04-30T10:18:01.695Z</time></trkpt><trkpt lat="43.2690467" lon="12.314002"><ele>556.0</ele><time>2026-04-30T10:18:04.695Z</time></trkpt><trkpt lat="43.269115" lon="12.3139953"><ele>556.0</ele><time>2026-04-30T10:18:07.694Z</time></trkpt><trkpt lat="43.2691204" lon="12.3138955"><ele>556.0</ele><time>2026-04-30T10:18:11.695Z</time></trkpt><trkpt lat="43.2690999" lon="12.3139781"><ele>556.0</ele><time>2026-04-30T10:18:18.695Z</time></trkpt><trkpt lat="43.2690378" lon="12.3139979"><ele>556.0</ele><time>2026-04-30T10:18:23.695Z</time></trkpt><trkpt lat="43.2689949" lon="12.3141282"><ele>556.0</ele><time>2026-04-30T10:30:42.696Z</time></trkpt><trkpt lat="43.2689405" lon="12.3141823"><ele>556.0</ele><time>2026-04-30T10:30:49.637Z</time></trkpt><trkpt lat="43.2689669" lon="12.3141023"><ele>556.0</ele><time>2026-04-30T10:31:19.695Z</time></trkpt><trkpt lat="43.2690614" lon="12.3140386"><ele>556.0</ele><time>2026-04-30T10:33:26.696Z</time></trkpt><trkpt lat="43.2691931" lon="12.3139917"><ele>558.0</ele><time>2026-04-30T10:33:28.696Z</time></trkpt><trkpt lat="43.269249" lon="12.3139404"><ele>560.0</ele><time>2026-04-30T10:33:29.695Z</time></trkpt><trkpt lat="43.2693474" lon="12.313857"><ele>562.0</ele><time>2026-04-30T10:33:31.695Z</time></trkpt><trkpt lat="43.2693975" lon="12.3137974"><ele>564.0</ele><time>2026-04-30T10:33:32.696Z</time></trkpt><trkpt lat="43.2694533" lon="12.3137333"><ele>566.0</ele><time>2026-04-30T10:33:33.696Z</time></trkpt><trkpt lat="43.2695228" lon="12.3135926"><ele>568.0</ele><time>2026-04-30T10:33:35.696Z</time></trkpt><trkpt lat="43.2695469" lon="12.3135062"><ele>568.0</ele><time>2026-04-30T10:33:36.695Z</time></trkpt><trkpt lat="43.2695764" lon="12.3134177"><ele>568.0</ele><time>2026-04-30T10:33:37.696Z</time></trkpt><trkpt lat="43.2696019" lon="12.3133116"><ele>568.0</ele><time>2026-04-30T10:33:38.695Z</time></trkpt><trkpt lat="43.2696573" lon="12.313158"><ele>568.0</ele><time>2026-04-30T10:33:40.696Z</time></trkpt><trkpt lat="43.2697238" lon="12.3129958"><ele>568.0</ele><time>2026-04-30T10:33:42.695Z</time></trkpt><trkpt lat="43.2697938" lon="12.3128507"><ele>567.4</ele><time>2026-04-30T10:33:44.695Z</time></trkpt><trkpt lat="43.2698272" lon="12.3127714"><ele>566.8</ele><time>2026-04-30T10:33:46.696Z</time></trkpt><trkpt lat="43.2698799" lon="12.312676"><ele>566.2</ele><time>2026-04-30T10:33:48.695Z</time></trkpt><trkpt lat="43.269916" lon="12.3125526"><ele>565.6</ele><time>2026-04-30T10:33:50.696Z</time></trkpt><trkpt lat="43.27" lon="12.3124361"><ele>565.0</ele><time>2026-04-30T10:33:52.696Z</time></trkpt><trkpt lat="43.2700674" lon="12.3123652"><ele>565.0</ele><time>2026-04-30T10:33:53.696Z</time></trkpt><trkpt lat="43.2701133" lon="12.3122839"><ele>565.0</ele><time>2026-04-30T10:33:54.696Z</time></trkpt><trkpt lat="43.2701943" lon="12.3122286"><ele>565.0</ele><time>2026-04-30T10:33:55.696Z</time></trkpt><trkpt lat="43.2702562" lon="12.3121487"><ele>565.0</ele><time>2026-04-30T10:33:56.696Z</time></trkpt><trkpt lat="43.2703069" lon="12.3120924"><ele>565.0</ele><time>2026-04-30T10:33:57.696Z</time></trkpt><trkpt lat="43.2703623" lon="12.3120435"><ele>565.0</ele><time>2026-04-30T10:33:58.696Z</time></trkpt><trkpt lat="43.2704177" lon="12.3119697"><ele>566.6</ele><time>2026-04-30T10:33:59.696Z</time></trkpt><trkpt lat="43.270519" lon="12.311864"><ele>568.2</ele><time>2026-04-30T10:34:01.696Z</time></trkpt><trkpt lat="43.270594" lon="12.3117959"><ele>569.8</ele><time>2026-04-30T10:34:02.696Z</time></trkpt><trkpt lat="43.2706524" lon="12.3117072"><ele>571.4</ele><time>2026-04-30T10:34:03.696Z</time></trkpt><trkpt lat="43.2707369" lon="12.3116142"><ele>573.0</ele><time>2026-04-30T10:34:05.695Z</time></trkpt><trkpt lat="43.2707781" lon="12.3115449"><ele>573.0</ele><time>2026-04-30T10:34:06.696Z</time></trkpt><trkpt lat="43.2708414" lon="12.3115212"><ele>573.0</ele><time>2026-04-30T10:34:07.696Z</time></trkpt><trkpt lat="43.2708969" lon="12.311479"><ele>573.0</ele><time>2026-04-30T10:34:08.695Z</time></trkpt><trkpt lat="43.2709882" lon="12.3114651"><ele>573.0</ele><time>2026-04-30T10:34:10.695Z</time></trkpt><trkpt lat="43.2710584" lon="12.3114061"><ele>573.0</ele><time>2026-04-30T10:34:13.696Z</time></trkpt><trkpt lat="43.2711447" lon="12.3114201"><ele>573.0</ele><time>2026-04-30T10:34:34.696Z</time></trkpt><trkpt lat="43.2712396" lon="12.3114127"><ele>573.0</ele><time>2026-04-30T10:34:36.696Z</time></trkpt><trkpt lat="43.2713227" lon="12.311417"><ele>573.0</ele><time>2026-04-30T10:34:38.696Z</time></trkpt><trkpt lat="43.2714092" lon="12.311424"><ele>573.0</ele><time>2026-04-30T10:34:40.695Z</time></trkpt><trkpt lat="43.2714689" lon="12.3113608"><ele>573.0</ele><time>2026-04-30T10:34:42.696Z</time></trkpt><trkpt lat="43.2715614" lon="12.3113003"><ele>573.0</ele><time>2026-04-30T10:34:44.696Z</time></trkpt><trkpt lat="43.2716215" lon="12.3112487"><ele>573.0</ele><time>2026-04-30T10:34:45.695Z</time></trkpt><trkpt lat="43.271696" lon="12.3112095"><ele>571.1666666666666</ele><time>2026-04-30T10:34:47.696Z</time></trkpt><trkpt lat="43.2717526" lon="12.3111406"><ele>569.3333333333334</ele><time>2026-04-30T10:34:50.696Z</time></trkpt><trkpt lat="43.2718047" lon="12.311039"><ele>567.5</ele><time>2026-04-30T10:34:52.695Z</time></trkpt><trkpt lat="43.2718616" lon="12.3109614"><ele>565.6666666666667</ele><time>2026-04-30T10:34:54.696Z</time></trkpt><trkpt lat="43.2719112" lon="12.3108734"><ele>563.8333333333334</ele><time>2026-04-30T10:34:57.696Z</time></trkpt><trkpt lat="43.2719595" lon="12.3107829"><ele>562.0</ele><time>2026-04-30T10:34:59.696Z</time></trkpt><trkpt lat="43.2720124" lon="12.3106935"><ele>562.0</ele><time>2026-04-30T10:35:01.695Z</time></trkpt><trkpt lat="43.2720904" lon="12.3106171"><ele>562.0</ele><time>2026-04-30T10:35:03.696Z</time></trkpt><trkpt lat="43.2721137" lon="12.3105087"><ele>562.0</ele><time>2026-04-30T10:35:05.696Z</time></trkpt><trkpt lat="43.272122" lon="12.3104123"><ele>562.0</ele><time>2026-04-30T10:35:07.696Z</time></trkpt><trkpt lat="43.27215" lon="12.3103247"><ele>562.0</ele><time>2026-04-30T10:35:10.695Z</time></trkpt><trkpt lat="43.2721787" lon="12.3102407"><ele>562.0</ele><time>2026-04-30T10:35:24.694Z</time></trkpt><trkpt lat="43.2722254" lon="12.3101244"><ele>563.8333333333334</ele><time>2026-04-30T10:35:27.695Z</time></trkpt><trkpt lat="43.2722668" lon="12.3100319"><ele>565.6666666666667</ele><time>2026-04-30T10:35:29.695Z</time></trkpt><trkpt lat="43.2723069" lon="12.3099201"><ele>567.5</ele><time>2026-04-30T10:35:32.696Z</time></trkpt><trkpt lat="43.2723455" lon="12.3098362"><ele>569.3333333333334</ele><time>2026-04-30T10:35:34.696Z</time></trkpt><trkpt lat="43.2723964" lon="12.3097513"><ele>571.1666666666666</ele><time>2026-04-30T10:35:36.696Z</time></trkpt><trkpt lat="43.2724504" lon="12.3096759"><ele>573.0</ele><time>2026-04-30T10:35:38.696Z</time></trkpt><trkpt lat="43.272501" lon="12.3095684"><ele>569.3333333333334</ele><time>2026-04-30T10:35:41.696Z</time></trkpt><trkpt lat="43.2725416" lon="12.309468"><ele>565.6666666666666</ele><time>2026-04-30T10:35:43.696Z</time></trkpt><trkpt lat="43.2725734" lon="12.3093835"><ele>562.0</ele><time>2026-04-30T10:35:46.696Z</time></trkpt><trkpt lat="43.2725139" lon="12.3094766"><ele>558.3333333333333</ele><time>2026-04-30T10:36:08.695Z</time></trkpt><trkpt lat="43.2724678" lon="12.309582"><ele>554.6666666666666</ele><time>2026-04-30T10:36:10.695Z</time></trkpt><trkpt lat="43.272435" lon="12.3096991"><ele>551.0</ele><time>2026-04-30T10:36:11.695Z</time></trkpt><trkpt lat="43.2723637" lon="12.3097893"><ele>547.8</ele><time>2026-04-30T10:36:13.695Z</time></trkpt><trkpt lat="43.2722977" lon="12.3098854"><ele>544.6</ele><time>2026-04-30T10:36:15.694Z</time></trkpt><trkpt lat="43.2722454" lon="12.3100009"><ele>541.4</ele><time>2026-04-30T10:36:17.695Z</time></trkpt><trkpt lat="43.2721926" lon="12.3101145"><ele>538.2</ele><time>2026-04-30T10:36:19.695Z</time></trkpt><trkpt lat="43.2721699" lon="12.3102414"><ele>535.0</ele><time>2026-04-30T10:36:21.695Z</time></trkpt><trkpt lat="43.2721456" lon="12.3103682"><ele>540.4</ele><time>2026-04-30T10:36:23.694Z</time></trkpt><trkpt lat="43.2720976" lon="12.3104643"><ele>545.8</ele><time>2026-04-30T10:36:25.695Z</time></trkpt><trkpt lat="43.2720468" lon="12.3105362"><ele>551.2</ele><time>2026-04-30T10:36:26.695Z</time></trkpt><trkpt lat="43.2719687" lon="12.3106885"><ele>556.6</ele><time>2026-04-30T10:36:28.694Z</time></trkpt><trkpt lat="43.2718874" lon="12.3107808"><ele>562.0</ele><time>2026-04-30T10:36:30.695Z</time></trkpt><trkpt lat="43.2718221" lon="12.3108817"><ele>562.0</ele><time>2026-04-30T10:36:32.695Z</time></trkpt><trkpt lat="43.2717479" lon="12.3109958"><ele>562.0</ele><time>2026-04-30T10:36:34.695Z</time></trkpt><trkpt lat="43.2716819" lon="12.3111124"><ele>562.0</ele><time>2026-04-30T10:36:36.695Z</time></trkpt><trkpt lat="43.2716289" lon="12.311199"><ele>562.0</ele><time>2026-04-30T10:36:38.694Z</time></trkpt><trkpt lat="43.2715557" lon="12.3112856"><ele>562.0</ele><time>2026-04-30T10:36:40.695Z</time></trkpt><trkpt lat="43.2714763" lon="12.3113518"><ele>564.2</ele><time>2026-04-30T10:36:42.695Z</time></trkpt><trkpt lat="43.2713969" lon="12.3113973"><ele>566.4000000000001</ele><time>2026-04-30T10:36:44.695Z</time></trkpt><trkpt lat="43.2712926" lon="12.311393"><ele>568.5999999999999</ele><time>2026-04-30T10:36:46.695Z</time></trkpt><trkpt lat="43.2712009" lon="12.3114021"><ele>570.8</ele><time>2026-04-30T10:36:48.695Z</time></trkpt><trkpt lat="43.2711023" lon="12.3114472"><ele>573.0</ele><time>2026-04-30T10:36:50.695Z</time></trkpt><trkpt lat="43.2710323" lon="12.3114571"><ele>573.0</ele><time>2026-04-30T10:36:51.695Z</time></trkpt><trkpt lat="43.2709581" lon="12.3115583"><ele>573.0</ele><time>2026-04-30T10:36:53.695Z</time></trkpt><trkpt lat="43.2708562" lon="12.3116337"><ele>573.0</ele><time>2026-04-30T10:36:55.695Z</time></trkpt><trkpt lat="43.2707989" lon="12.3116988"><ele>573.0</ele><time>2026-04-30T10:36:57.695Z</time></trkpt><trkpt lat="43.2707194" lon="12.3117563"><ele>573.0</ele><time>2026-04-30T10:36:59.695Z</time></trkpt><trkpt lat="43.2706266" lon="12.3118312"><ele>571.6666666666666</ele><time>2026-04-30T10:37:01.695Z</time></trkpt><trkpt lat="43.2705616" lon="12.3118879"><ele>570.3333333333334</ele><time>2026-04-30T10:37:02.695Z</time></trkpt><trkpt lat="43.2704975" lon="12.3119769"><ele>569.0</ele><time>2026-04-30T10:37:03.695Z</time></trkpt><trkpt lat="43.2704351" lon="12.3120438"><ele>567.6666666666667</ele><time>2026-04-30T10:37:04.694Z</time></trkpt><trkpt lat="43.2703708" lon="12.3121061"><ele>566.3333333333334</ele><time>2026-04-30T10:37:05.694Z</time></trkpt><trkpt lat="43.2703215" lon="12.3121625"><ele>565.0</ele><time>2026-04-30T10:37:06.695Z</time></trkpt><trkpt lat="43.2702103" lon="12.3122619"><ele>565.0</ele><time>2026-04-30T10:37:08.695Z</time></trkpt><trkpt lat="43.270148" lon="12.3123119"><ele>565.0</ele><time>2026-04-30T10:37:09.695Z</time></trkpt><trkpt lat="43.2700964" lon="12.3123661"><ele>565.0</ele><time>2026-04-30T10:37:10.695Z</time></trkpt><trkpt lat="43.2700072" lon="12.3124848"><ele>565.0</ele><time>2026-04-30T10:37:12.695Z</time></trkpt><trkpt lat="43.2699416" lon="12.3126171"><ele>565.0</ele><time>2026-04-30T10:37:14.695Z</time></trkpt><trkpt lat="43.2698986" lon="12.312697"><ele>565.0</ele><time>2026-04-30T10:37:15.695Z</time></trkpt><trkpt lat="43.2698469" lon="12.3127991"><ele>565.0</ele><time>2026-04-30T10:37:16.695Z</time></trkpt><trkpt lat="43.2697714" lon="12.3129069"><ele>565.0</ele><time>2026-04-30T10:37:17.695Z</time></trkpt><trkpt lat="43.269725" lon="12.312976"><ele>565.0</ele><time>2026-04-30T10:37:18.695Z</time></trkpt><trkpt lat="43.2696772" lon="12.3131018"><ele>565.0</ele><time>2026-04-30T10:37:19.695Z</time></trkpt><trkpt lat="43.2696364" lon="12.3132165"><ele>565.6</ele><time>2026-04-30T10:37:20.695Z</time></trkpt><trkpt lat="43.269582" lon="12.3133988"><ele>566.2</ele><time>2026-04-30T10:37:22.694Z</time></trkpt><trkpt lat="43.2695457" lon="12.3135724"><ele>566.8</ele><time>2026-04-30T10:37:24.695Z</time></trkpt><trkpt lat="43.2695094" lon="12.3136601"><ele>567.4</ele><time>2026-04-30T10:37:25.694Z</time></trkpt><trkpt lat="43.2694693" lon="12.3137269"><ele>568.0</ele><time>2026-04-30T10:37:26.695Z</time></trkpt><trkpt lat="43.2694179" lon="12.3137995"><ele>568.0</ele><time>2026-04-30T10:37:27.695Z</time></trkpt><trkpt lat="43.2693637" lon="12.313846"><ele>568.0</ele><time>2026-04-30T10:37:28.694Z</time></trkpt><trkpt lat="43.2693096" lon="12.3139076"><ele>568.0</ele><time>2026-04-30T10:37:29.694Z</time></trkpt><trkpt lat="43.2691942" lon="12.3139624"><ele>568.0</ele><time>2026-04-30T10:37:31.695Z</time></trkpt><trkpt lat="43.2691326" lon="12.3140046"><ele>568.0</ele><time>2026-04-30T10:37:32.694Z</time></trkpt><trkpt lat="43.2690111" lon="12.3140323"><ele>568.0</ele><time>2026-04-30T10:37:34.694Z</time></trkpt><trkpt lat="43.2689439" lon="12.3140917"><ele>563.1666666666667</ele><time>2026-04-30T10:37:36.695Z</time></trkpt><trkpt lat="43.2689758" lon="12.3141769"><ele>558.3333333333334</ele><time>2026-04-30T10:37:38.694Z</time></trkpt><trkpt lat="43.2690753" lon="12.3141791"><ele>553.5</ele><time>2026-04-30T10:37:40.695Z</time></trkpt><trkpt lat="43.2691442" lon="12.3141795"><ele>548.6666666666666</ele><time>2026-04-30T10:37:41.695Z</time></trkpt><trkpt lat="43.2692117" lon="12.3141737"><ele>543.8333333333333</ele><time>2026-04-30T10:37:42.695Z</time></trkpt><trkpt lat="43.2692817" lon="12.31418"><ele>539.0</ele><time>2026-04-30T10:37:43.694Z</time></trkpt><trkpt lat="43.269402" lon="12.3141702"><ele>539.0</ele><time>2026-04-30T10:37:45.694Z</time></trkpt><trkpt lat="43.2695128" lon="12.3141439"><ele>539.0</ele><time>2026-04-30T10:37:47.694Z</time></trkpt><trkpt lat="43.2696171" lon="12.3140642"><ele>539.0</ele><time>2026-04-30T10:37:49.694Z</time></trkpt><trkpt lat="43.2696705" lon="12.3140162"><ele>539.0</ele><time>2026-04-30T10:37:50.696Z</time></trkpt><trkpt lat="43.269778" lon="12.3139305"><ele>539.0</ele><time>2026-04-30T10:37:52.694Z</time></trkpt><trkpt lat="43.2698531" lon="12.3138758"><ele>539.0</ele><time>2026-04-30T10:37:53.696Z</time></trkpt><trkpt lat="43.2699167" lon="12.3138238"><ele>539.0</ele><time>2026-04-30T10:37:54.697Z</time></trkpt><trkpt lat="43.2699758" lon="12.3137869"><ele>539.0</ele><time>2026-04-30T10:37:55.696Z</time></trkpt><trkpt lat="43.2700488" lon="12.3137496"><ele>539.0</ele><time>2026-04-30T10:37:56.696Z</time></trkpt><trkpt lat="43.2701175" lon="12.3137144"><ele>539.0</ele><time>2026-04-30T10:37:57.696Z</time></trkpt><trkpt lat="43.2701744" lon="12.3136735"><ele>539.0</ele><time>2026-04-30T10:37:58.696Z</time></trkpt><trkpt lat="43.2702758" lon="12.3136286"><ele>539.0</ele><time>2026-04-30T10:38:01.696Z</time></trkpt><trkpt lat="43.2703677" lon="12.3135522"><ele>539.0</ele><time>2026-04-30T10:38:28.695Z</time></trkpt><trkpt lat="43.2704536" lon="12.3134467"><ele>539.0</ele><time>2026-04-30T10:38:30.696Z</time></trkpt><trkpt lat="43.2705172" lon="12.3133564"><ele>539.0</ele><time>2026-04-30T10:38:31.695Z</time></trkpt><trkpt lat="43.2705599" lon="12.3132679"><ele>539.0</ele><time>2026-04-30T10:38:32.696Z</time></trkpt><trkpt lat="43.2706075" lon="12.3131721"><ele>538.2</ele><time>2026-04-30T10:38:33.696Z</time></trkpt><trkpt lat="43.270669" lon="12.3130556"><ele>537.4</ele><time>2026-04-30T10:38:35.695Z</time></trkpt><trkpt lat="43.2707231" lon="12.3129219"><ele>536.6</ele><time>2026-04-30T10:38:37.696Z</time></trkpt><trkpt lat="43.2707827" lon="12.3128271"><ele>535.8</ele><time>2026-04-30T10:38:38.697Z</time></trkpt><trkpt lat="43.2708433" lon="12.3127554"><ele>535.0</ele><time>2026-04-30T10:38:39.696Z</time></trkpt><trkpt lat="43.2709085" lon="12.3126994"><ele>535.0</ele><time>2026-04-30T10:38:40.696Z</time></trkpt><trkpt lat="43.2709725" lon="12.3126462"><ele>535.0</ele><time>2026-04-30T10:38:41.695Z</time></trkpt><trkpt lat="43.2710873" lon="12.3125778"><ele>535.0</ele><time>2026-04-30T10:38:42.697Z</time></trkpt><trkpt lat="43.2711614" lon="12.3125118"><ele>535.0</ele><time>2026-04-30T10:38:43.695Z</time></trkpt><trkpt lat="43.2712586" lon="12.3124708"><ele>535.0</ele><time>2026-04-30T10:38:44.696Z</time></trkpt><trkpt lat="43.2713391" lon="12.3124152"><ele>535.0</ele><time>2026-04-30T10:38:45.695Z</time></trkpt><trkpt lat="43.2714161" lon="12.3123486"><ele>535.0</ele><time>2026-04-30T10:38:46.696Z</time></trkpt><trkpt lat="43.2714965" lon="12.3122688"><ele>535.0</ele><time>2026-04-30T10:38:47.695Z</time></trkpt><trkpt lat="43.2715772" lon="12.3122074"><ele>535.0</ele><time>2026-04-30T10:38:48.696Z</time></trkpt><trkpt lat="43.2716631" lon="12.3121034"><ele>535.0</ele><time>2026-04-30T10:38:49.695Z</time></trkpt><trkpt lat="43.2717428" lon="12.312001"><ele>535.6</ele><time>2026-04-30T10:38:50.696Z</time></trkpt><trkpt lat="43.2718133" lon="12.3119078"><ele>536.2</ele><time>2026-04-30T10:38:51.695Z</time></trkpt><trkpt lat="43.2718841" lon="12.3117976"><ele>536.8</ele><time>2026-04-30T10:38:52.695Z</time></trkpt><trkpt lat="43.2719613" lon="12.3116962"><ele>537.4</ele><time>2026-04-30T10:38:53.696Z</time></trkpt><trkpt lat="43.2720406" lon="12.311569"><ele>538.0</ele><time>2026-04-30T10:38:54.696Z</time></trkpt><trkpt lat="43.2721298" lon="12.3115123"><ele>538.0</ele><time>2026-04-30T10:38:55.696Z</time></trkpt><trkpt lat="43.2722058" lon="12.3114092"><ele>538.0</ele><time>2026-04-30T10:38:56.696Z</time></trkpt><trkpt lat="43.2722937" lon="12.3113348"><ele>538.0</ele><time>2026-04-30T10:38:57.696Z</time></trkpt><trkpt lat="43.2723819" lon="12.3112333"><ele>538.0</ele><time>2026-04-30T10:38:58.696Z</time></trkpt><trkpt lat="43.2725074" lon="12.3111649"><ele>534.8</ele><time>2026-04-30T10:38:59.696Z</time></trkpt><trkpt lat="43.2726138" lon="12.3111453"><ele>531.5999999999999</ele><time>2026-04-30T10:39:00.696Z</time></trkpt><trkpt lat="43.2727295" lon="12.3111366"><ele>528.4000000000001</ele><time>2026-04-30T10:39:01.696Z</time></trkpt><trkpt lat="43.272816" lon="12.3111669"><ele>525.2</ele><time>2026-04-30T10:39:02.696Z</time></trkpt><trkpt lat="43.2729132" lon="12.3111943"><ele>522.0</ele><time>2026-04-30T10:39:03.695Z</time></trkpt><trkpt lat="43.2729954" lon="12.3112198"><ele>521.0</ele><time>2026-04-30T10:39:04.696Z</time></trkpt><trkpt lat="43.2731224" lon="12.3112529"><ele>520.0</ele><time>2026-04-30T10:39:06.695Z</time></trkpt><trkpt lat="43.2732622" lon="12.3112556"><ele>519.0</ele><time>2026-04-30T10:39:08.696Z</time></trkpt><trkpt lat="43.273345" lon="12.3112348"><ele>518.0</ele><time>2026-04-30T10:39:09.696Z</time></trkpt><trkpt lat="43.2734197" lon="12.311197"><ele>517.0</ele><time>2026-04-30T10:39:10.695Z</time></trkpt><trkpt lat="43.2735136" lon="12.3111634"><ele>517.0</ele><time>2026-04-30T10:39:11.696Z</time></trkpt><trkpt lat="43.2735853" lon="12.3111363"><ele>517.0</ele><time>2026-04-30T10:39:12.696Z</time></trkpt><trkpt lat="43.2736333" lon="12.3110753"><ele>517.0</ele><time>2026-04-30T10:39:13.695Z</time></trkpt><trkpt lat="43.273669" lon="12.3109951"><ele>517.0</ele><time>2026-04-30T10:39:14.696Z</time></trkpt><trkpt lat="43.273685" lon="12.3109025"><ele>517.0</ele><time>2026-04-30T10:39:15.696Z</time></trkpt><trkpt lat="43.27371" lon="12.3107736"><ele>517.0</ele><time>2026-04-30T10:39:16.696Z</time></trkpt><trkpt lat="43.2737481" lon="12.3106338"><ele>516.5</ele><time>2026-04-30T10:39:17.696Z</time></trkpt><trkpt lat="43.273814" lon="12.3104665"><ele>516.0</ele><time>2026-04-30T10:39:18.696Z</time></trkpt><trkpt lat="43.2738757" lon="12.3103125"><ele>515.5</ele><time>2026-04-30T10:39:19.695Z</time></trkpt><trkpt lat="43.2739244" lon="12.3101576"><ele>515.0</ele><time>2026-04-30T10:39:20.695Z</time></trkpt><trkpt lat="43.2739669" lon="12.3099893"><ele>511.75</ele><time>2026-04-30T10:39:21.695Z</time></trkpt><trkpt lat="43.2740173" lon="12.3098224"><ele>508.5</ele><time>2026-04-30T10:39:22.695Z</time></trkpt><trkpt lat="43.2741149" lon="12.3096455"><ele>505.25</ele><time>2026-04-30T10:39:23.697Z</time></trkpt><trkpt lat="43.2741995" lon="12.3094745"><ele>502.0</ele><time>2026-04-30T10:39:24.696Z</time></trkpt><trkpt lat="43.2742835" lon="12.3093171"><ele>502.0</ele><time>2026-04-30T10:39:25.697Z</time></trkpt><trkpt lat="43.2743639" lon="12.3091687"><ele>502.0</ele><time>2026-04-30T10:39:26.696Z</time></trkpt><trkpt lat="43.2744501" lon="12.3090151"><ele>502.0</ele><time>2026-04-30T10:39:27.695Z</time></trkpt><trkpt lat="43.2745284" lon="12.3088589"><ele>502.0</ele><time>2026-04-30T10:39:28.697Z</time></trkpt><trkpt lat="43.2746372" lon="12.3087236"><ele>505.0</ele><time>2026-04-30T10:39:29.696Z</time></trkpt><trkpt lat="43.2747439" lon="12.3085894"><ele>508.0</ele><time>2026-04-30T10:39:30.695Z</time></trkpt><trkpt lat="43.2748543" lon="12.3084559"><ele>511.0</ele><time>2026-04-30T10:39:31.695Z</time></trkpt><trkpt lat="43.2749858" lon="12.3083116"><ele>511.0</ele><time>2026-04-30T10:39:32.697Z</time></trkpt><trkpt lat="43.2751024" lon="12.308177"><ele>511.0</ele><time>2026-04-30T10:39:33.696Z</time></trkpt><trkpt lat="43.2752051" lon="12.3080542"><ele>511.0</ele><time>2026-04-30T10:39:34.696Z</time></trkpt><trkpt lat="43.2753197" lon="12.30794"><ele>511.0</ele><time>2026-04-30T10:39:35.696Z</time></trkpt><trkpt lat="43.2754626" lon="12.3078294"><ele>511.0</ele><time>2026-04-30T10:39:36.696Z</time></trkpt><trkpt lat="43.2755756" lon="12.3077288"><ele>511.0</ele><time>2026-04-30T10:39:37.696Z</time></trkpt><trkpt lat="43.2757077" lon="12.3076639"><ele>511.0</ele><time>2026-04-30T10:39:38.695Z</time></trkpt><trkpt lat="43.2758307" lon="12.3075979"><ele>511.0</ele><time>2026-04-30T10:39:39.695Z</time></trkpt><trkpt lat="43.2759444" lon="12.3075158"><ele>506.6666666666667</ele><time>2026-04-30T10:39:40.697Z</time></trkpt><trkpt lat="43.2760542" lon="12.3074152"><ele>502.33333333333337</ele><time>2026-04-30T10:39:41.695Z</time></trkpt><trkpt lat="43.276154" lon="12.3072591"><ele>498.0</ele><time>2026-04-30T10:39:42.696Z</time></trkpt><trkpt lat="43.2762633" lon="12.3070701"><ele>498.0</ele><time>2026-04-30T10:39:43.696Z</time></trkpt><trkpt lat="43.2763436" lon="12.3068278"><ele>498.0</ele><time>2026-04-30T10:39:44.695Z</time></trkpt><trkpt lat="43.2764466" lon="12.306619"><ele>498.0</ele><time>2026-04-30T10:39:45.696Z</time></trkpt><trkpt lat="43.2765444" lon="12.3063975"><ele>488.33333333333337</ele><time>2026-04-30T10:39:46.696Z</time></trkpt><trkpt lat="43.2766314" lon="12.3061914"><ele>478.6666666666667</ele><time>2026-04-30T10:39:47.696Z</time></trkpt><trkpt lat="43.2767007" lon="12.3059804"><ele>469.0</ele><time>2026-04-30T10:39:48.696Z</time></trkpt><trkpt lat="43.2767633" lon="12.3057957"><ele>469.0</ele><time>2026-04-30T10:39:49.696Z</time></trkpt><trkpt lat="43.2768428" lon="12.3056431"><ele>469.0</ele><time>2026-04-30T10:39:50.695Z</time></trkpt><trkpt lat="43.2769286" lon="12.305508"><ele>469.0</ele><time>2026-04-30T10:39:51.696Z</time></trkpt><trkpt lat="43.2770213" lon="12.3053945"><ele>469.0</ele><time>2026-04-30T10:39:52.696Z</time></trkpt><trkpt lat="43.2771208" lon="12.3052891"><ele>470.25</ele><time>2026-04-30T10:39:53.696Z</time></trkpt><trkpt lat="43.2772244" lon="12.3052043"><ele>471.5</ele><time>2026-04-30T10:39:54.696Z</time></trkpt><trkpt lat="43.2773285" lon="12.3051311"><ele>472.75</ele><time>2026-04-30T10:39:55.696Z</time></trkpt><trkpt lat="43.2774465" lon="12.3051032"><ele>474.0</ele><time>2026-04-30T10:39:56.696Z</time></trkpt><trkpt lat="43.2775603" lon="12.305117"><ele>474.0</ele><time>2026-04-30T10:39:57.696Z</time></trkpt><trkpt lat="43.2776485" lon="12.3052188"><ele>474.0</ele><time>2026-04-30T10:39:58.696Z</time></trkpt><trkpt lat="43.2777403" lon="12.3052796"><ele>474.0</ele><time>2026-04-30T10:39:59.696Z</time></trkpt><trkpt lat="43.2778228" lon="12.3053478"><ele>474.0</ele><time>2026-04-30T10:40:00.696Z</time></trkpt><trkpt lat="43.2779089" lon="12.3053906"><ele>474.0</ele><time>2026-04-30T10:40:01.696Z</time></trkpt><trkpt lat="43.2779955" lon="12.3054442"><ele>474.0</ele><time>2026-04-30T10:40:02.695Z</time></trkpt><trkpt lat="43.2780775" lon="12.3054373"><ele>474.0</ele><time>2026-04-30T10:40:03.697Z</time></trkpt><trkpt lat="43.2781656" lon="12.3054659"><ele>474.0</ele><time>2026-04-30T10:40:04.695Z</time></trkpt><trkpt lat="43.2782325" lon="12.305504"><ele>474.0</ele><time>2026-04-30T10:40:05.697Z</time></trkpt><trkpt lat="43.2783087" lon="12.3055423"><ele>474.0</ele><time>2026-04-30T10:40:06.696Z</time></trkpt><trkpt lat="43.2783746" lon="12.3055465"><ele>474.0</ele><time>2026-04-30T10:40:07.696Z</time></trkpt><trkpt lat="43.2784523" lon="12.3055641"><ele>470.75</ele><time>2026-04-30T10:40:08.695Z</time></trkpt><trkpt lat="43.2785269" lon="12.305581"><ele>467.5</ele><time>2026-04-30T10:40:09.695Z</time></trkpt><trkpt lat="43.278611" lon="12.3055699"><ele>464.25</ele><time>2026-04-30T10:40:11.696Z</time></trkpt><trkpt lat="43.2785979" lon="12.3054245"><ele>461.0</ele><time>2026-04-30T10:40:14.696Z</time></trkpt><trkpt lat="43.278539" lon="12.3051772"><ele>461.0</ele><time>2026-04-30T10:40:16.427Z</time></trkpt><trkpt lat="43.2785009" lon="12.3048859"><ele>461.0</ele><time>2026-04-30T10:40:17.696Z</time></trkpt><trkpt lat="43.2784682" lon="12.3046218"><ele>461.0</ele><time>2026-04-30T10:40:18.696Z</time></trkpt><trkpt lat="43.2783995" lon="12.3043195"><ele>461.3333333333333</ele><time>2026-04-30T10:40:19.696Z</time></trkpt><trkpt lat="43.2783306" lon="12.3040152"><ele>461.66666666666663</ele><time>2026-04-30T10:40:20.696Z</time></trkpt><trkpt lat="43.2782604" lon="12.3037426"><ele>462.0</ele><time>2026-04-30T10:40:21.696Z</time></trkpt><trkpt lat="43.2781928" lon="12.3034738"><ele>462.0</ele><time>2026-04-30T10:40:22.695Z</time></trkpt><trkpt lat="43.2781328" lon="12.3032541"><ele>462.0</ele><time>2026-04-30T10:40:23.695Z</time></trkpt><trkpt lat="43.2780776" lon="12.3030222"><ele>462.0</ele><time>2026-04-30T10:40:24.695Z</time></trkpt><trkpt lat="43.2780604" lon="12.3027995"><ele>464.66666666666663</ele><time>2026-04-30T10:40:25.695Z</time></trkpt><trkpt lat="43.2780423" lon="12.3025753"><ele>467.3333333333333</ele><time>2026-04-30T10:40:26.696Z</time></trkpt><trkpt lat="43.2781084" lon="12.3023878"><ele>470.0</ele><time>2026-04-30T10:40:27.696Z</time></trkpt><trkpt lat="43.2781491" lon="12.3021849"><ele>475.3333333333333</ele><time>2026-04-30T10:40:28.696Z</time></trkpt><trkpt lat="43.2782168" lon="12.301973"><ele>480.66666666666663</ele><time>2026-04-30T10:40:29.696Z</time></trkpt><trkpt lat="43.2783005" lon="12.3017709"><ele>486.0</ele><time>2026-04-30T10:40:30.695Z</time></trkpt><trkpt lat="43.278364" lon="12.3015406"><ele>489.75</ele><time>2026-04-30T10:40:31.696Z</time></trkpt><trkpt lat="43.2784331" lon="12.3013667"><ele>493.5</ele><time>2026-04-30T10:40:32.696Z</time></trkpt><trkpt lat="43.2784853" lon="12.3012056"><ele>497.25</ele><time>2026-04-30T10:40:33.696Z</time></trkpt><trkpt lat="43.2785331" lon="12.3010535"><ele>501.0</ele><time>2026-04-30T10:40:34.696Z</time></trkpt><trkpt lat="43.2785527" lon="12.3008492"><ele>501.0</ele><time>2026-04-30T10:40:35.697Z</time></trkpt><trkpt lat="43.2785962" lon="12.3006551"><ele>501.0</ele><time>2026-04-30T10:40:36.696Z</time></trkpt><trkpt lat="43.2786477" lon="12.3004406"><ele>501.0</ele><time>2026-04-30T10:40:37.696Z</time></trkpt><trkpt lat="43.2786945" lon="12.3002125"><ele>500.33333333333337</ele><time>2026-04-30T10:40:38.695Z</time></trkpt><trkpt lat="43.2787387" lon="12.2999861"><ele>499.6666666666667</ele><time>2026-04-30T10:40:39.696Z</time></trkpt><trkpt lat="43.2787866" lon="12.2998169"><ele>499.0</ele><time>2026-04-30T10:40:40.697Z</time></trkpt><trkpt lat="43.2788191" lon="12.2995903"><ele>499.0</ele><time>2026-04-30T10:40:41.696Z</time></trkpt><trkpt lat="43.2788569" lon="12.2994129"><ele>499.0</ele><time>2026-04-30T10:40:42.695Z</time></trkpt><trkpt lat="43.2788567" lon="12.2992431"><ele>499.0</ele><time>2026-04-30T10:40:43.695Z</time></trkpt><trkpt lat="43.2788332" lon="12.2990943"><ele>499.0</ele><time>2026-04-30T10:40:44.696Z</time></trkpt><trkpt lat="43.278753" lon="12.298979"><ele>499.0</ele><time>2026-04-30T10:40:45.696Z</time></trkpt><trkpt lat="43.278653" lon="12.2989227"><ele>499.0</ele><time>2026-04-30T10:40:46.696Z</time></trkpt><trkpt lat="43.2785108" lon="12.2989099"><ele>499.0</ele><time>2026-04-30T10:40:47.696Z</time></trkpt><trkpt lat="43.2783611" lon="12.2988965"><ele>499.0</ele><time>2026-04-30T10:40:48.696Z</time></trkpt><trkpt lat="43.2781466" lon="12.2988892"><ele>494.33333333333337</ele><time>2026-04-30T10:40:49.696Z</time></trkpt><trkpt lat="43.2779575" lon="12.2988724"><ele>489.66666666666663</ele><time>2026-04-30T10:40:50.696Z</time></trkpt><trkpt lat="43.2777129" lon="12.2987621"><ele>485.0</ele><time>2026-04-30T10:40:51.697Z</time></trkpt><trkpt lat="43.2775059" lon="12.2986157"><ele>485.0</ele><time>2026-04-30T10:40:52.697Z</time></trkpt><trkpt lat="43.2773009" lon="12.2984983"><ele>485.0</ele><time>2026-04-30T10:40:53.696Z</time></trkpt><trkpt lat="43.2771039" lon="12.2984167"><ele>485.0</ele><time>2026-04-30T10:40:54.695Z</time></trkpt><trkpt lat="43.2769127" lon="12.2983741"><ele>492.3333333333333</ele><time>2026-04-30T10:40:55.696Z</time></trkpt><trkpt lat="43.2767321" lon="12.2982979"><ele>499.66666666666663</ele><time>2026-04-30T10:40:56.696Z</time></trkpt><trkpt lat="43.2765536" lon="12.2982209"><ele>507.0</ele><time>2026-04-30T10:40:57.696Z</time></trkpt><trkpt lat="43.2764107" lon="12.2981109"><ele>505.25</ele><time>2026-04-30T10:40:58.695Z</time></trkpt><trkpt lat="43.2762893" lon="12.297963"><ele>503.5</ele><time>2026-04-30T10:40:59.696Z</time></trkpt><trkpt lat="43.2761855" lon="12.2978119"><ele>501.75</ele><time>2026-04-30T10:41:00.695Z</time></trkpt><trkpt lat="43.2760961" lon="12.2976774"><ele>500.0</ele><time>2026-04-30T10:41:01.695Z</time></trkpt><trkpt lat="43.275995" lon="12.2975875"><ele>500.0</ele><time>2026-04-30T10:41:02.696Z</time></trkpt><trkpt lat="43.2758639" lon="12.2975269"><ele>500.0</ele><time>2026-04-30T10:41:03.696Z</time></trkpt><trkpt lat="43.2756946" lon="12.2975359"><ele>500.0</ele><time>2026-04-30T10:41:04.697Z</time></trkpt><trkpt lat="43.2755119" lon="12.2975623"><ele>503.0</ele><time>2026-04-30T10:41:05.696Z</time></trkpt><trkpt lat="43.2753156" lon="12.2975899"><ele>506.0</ele><time>2026-04-30T10:41:06.696Z</time></trkpt><trkpt lat="43.2751065" lon="12.2976102"><ele>509.0</ele><time>2026-04-30T10:41:07.696Z</time></trkpt><trkpt lat="43.2749067" lon="12.2976538"><ele>511.3333333333333</ele><time>2026-04-30T10:41:08.696Z</time></trkpt><trkpt lat="43.2747236" lon="12.2977123"><ele>513.6666666666666</ele><time>2026-04-30T10:41:09.696Z</time></trkpt><trkpt lat="43.2745546" lon="12.297772"><ele>516.0</ele><time>2026-04-30T10:41:10.697Z</time></trkpt><trkpt lat="43.2743884" lon="12.2978315"><ele>516.0</ele><time>2026-04-30T10:41:11.695Z</time></trkpt><trkpt lat="43.2742207" lon="12.2978157"><ele>516.0</ele><time>2026-04-30T10:41:12.697Z</time></trkpt><trkpt lat="43.2740538" lon="12.2978092"><ele>516.0</ele><time>2026-04-30T10:41:13.696Z</time></trkpt><trkpt lat="43.2738916" lon="12.2977249"><ele>522.5</ele><time>2026-04-30T10:41:14.696Z</time></trkpt><trkpt lat="43.2737041" lon="12.2976366"><ele>529.0</ele><time>2026-04-30T10:41:15.697Z</time></trkpt><trkpt lat="43.2734817" lon="12.2974362"><ele>529.0</ele><time>2026-04-30T10:41:16.696Z</time></trkpt><trkpt lat="43.2732889" lon="12.2972663"><ele>529.0</ele><time>2026-04-30T10:41:17.696Z</time></trkpt><trkpt lat="43.2730773" lon="12.297082"><ele>529.0</ele><time>2026-04-30T10:41:18.696Z</time></trkpt><trkpt lat="43.2728502" lon="12.2968407"><ele>529.0</ele><time>2026-04-30T10:41:19.697Z</time></trkpt><trkpt lat="43.2726249" lon="12.2966352"><ele>529.0</ele><time>2026-04-30T10:41:20.696Z</time></trkpt><trkpt lat="43.2723845" lon="12.2964226"><ele>529.0</ele><time>2026-04-30T10:41:21.697Z</time></trkpt><trkpt lat="43.2721656" lon="12.2961785"><ele>532.0</ele><time>2026-04-30T10:41:22.696Z</time></trkpt><trkpt lat="43.2719352" lon="12.2959721"><ele>535.0</ele><time>2026-04-30T10:41:23.696Z</time></trkpt><trkpt lat="43.2717876" lon="12.2958785"><ele>538.0</ele><time>2026-04-30T10:41:24.697Z</time></trkpt><trkpt lat="43.2715952" lon="12.2957652"><ele>544.5</ele><time>2026-04-30T10:41:25.696Z</time></trkpt><trkpt lat="43.2713768" lon="12.2956653"><ele>551.0</ele><time>2026-04-30T10:41:26.695Z</time></trkpt><trkpt lat="43.2711565" lon="12.2955776"><ele>551.0</ele><time>2026-04-30T10:41:27.696Z</time></trkpt><trkpt lat="43.2709387" lon="12.2954551"><ele>551.0</ele><time>2026-04-30T10:41:28.697Z</time></trkpt><trkpt lat="43.2707322" lon="12.2952817"><ele>554.0</ele><time>2026-04-30T10:41:29.696Z</time></trkpt><trkpt lat="43.2705475" lon="12.295114"><ele>557.0</ele><time>2026-04-30T10:41:30.696Z</time></trkpt><trkpt lat="43.2703909" lon="12.2949268"><ele>560.0</ele><time>2026-04-30T10:41:31.696Z</time></trkpt><trkpt lat="43.2702585" lon="12.294745"><ele>560.0</ele><time>2026-04-30T10:41:32.695Z</time></trkpt><trkpt lat="43.2701286" lon="12.2946058"><ele>560.0</ele><time>2026-04-30T10:41:33.696Z</time></trkpt><trkpt lat="43.2699855" lon="12.2944835"><ele>560.0</ele><time>2026-04-30T10:41:34.696Z</time></trkpt><trkpt lat="43.269838" lon="12.2943742"><ele>561.25</ele><time>2026-04-30T10:41:35.696Z</time></trkpt><trkpt lat="43.2697005" lon="12.2943344"><ele>562.5</ele><time>2026-04-30T10:41:36.696Z</time></trkpt><trkpt lat="43.2695628" lon="12.2942561"><ele>563.75</ele><time>2026-04-30T10:41:37.695Z</time></trkpt><trkpt lat="43.2694616" lon="12.2941698"><ele>565.0</ele><time>2026-04-30T10:41:38.696Z</time></trkpt><trkpt lat="43.2693747" lon="12.2940825"><ele>565.0</ele><time>2026-04-30T10:41:39.696Z</time></trkpt><trkpt lat="43.2693777" lon="12.2939842"><ele>565.0</ele><time>2026-04-30T10:41:40.695Z</time></trkpt><trkpt lat="43.269384" lon="12.2938439"><ele>565.0</ele><time>2026-04-30T10:41:42.695Z</time></trkpt><trkpt lat="43.2694449" lon="12.2937694"><ele>565.0</ele><time>2026-04-30T10:41:44.696Z</time></trkpt><trkpt lat="43.2695106" lon="12.293742"><ele>565.0</ele><time>2026-04-30T10:41:45.696Z</time></trkpt><trkpt lat="43.2695993" lon="12.2937207"><ele>565.0</ele><time>2026-04-30T10:41:46.696Z</time></trkpt><trkpt lat="43.2697004" lon="12.2936766"><ele>566.4</ele><time>2026-04-30T10:41:47.696Z</time></trkpt><trkpt lat="43.2697766" lon="12.2936245"><ele>567.8</ele><time>2026-04-30T10:41:48.696Z</time></trkpt><trkpt lat="43.2698365" lon="12.2935689"><ele>569.2</ele><time>2026-04-30T10:41:49.696Z</time></trkpt><trkpt lat="43.2699097" lon="12.2934928"><ele>570.6</ele><time>2026-04-30T10:41:50.695Z</time></trkpt><trkpt lat="43.2699612" lon="12.2933638"><ele>572.0</ele><time>2026-04-30T10:41:51.696Z</time></trkpt><trkpt lat="43.2700161" lon="12.2932051"><ele>573.0</ele><time>2026-04-30T10:41:52.696Z</time></trkpt><trkpt lat="43.2700739" lon="12.2930402"><ele>574.0</ele><time>2026-04-30T10:41:53.695Z</time></trkpt><trkpt lat="43.2701285" lon="12.2928617"><ele>575.0</ele><time>2026-04-30T10:41:54.698Z</time></trkpt><trkpt lat="43.2701671" lon="12.2927163"><ele>576.0</ele><time>2026-04-30T10:41:55.696Z</time></trkpt><trkpt lat="43.2702273" lon="12.292613"><ele>576.0</ele><time>2026-04-30T10:41:56.695Z</time></trkpt><trkpt lat="43.2702876" lon="12.2925234"><ele>576.0</ele><time>2026-04-30T10:41:57.697Z</time></trkpt><trkpt lat="43.2703366" lon="12.2924583"><ele>576.0</ele><time>2026-04-30T10:41:58.697Z</time></trkpt><trkpt lat="43.2703855" lon="12.2923718"><ele>576.0</ele><time>2026-04-30T10:41:59.696Z</time></trkpt><trkpt lat="43.2704441" lon="12.2922647"><ele>576.0</ele><time>2026-04-30T10:42:00.696Z</time></trkpt><trkpt lat="43.2705072" lon="12.292174"><ele>576.0</ele><time>2026-04-30T10:42:01.696Z</time></trkpt><trkpt lat="43.270576" lon="12.2920754"><ele>576.4</ele><time>2026-04-30T10:42:02.696Z</time></trkpt><trkpt lat="43.2706265" lon="12.291985"><ele>576.8</ele><time>2026-04-30T10:42:03.696Z</time></trkpt><trkpt lat="43.2706924" lon="12.2918913"><ele>577.1999999999999</ele><time>2026-04-30T10:42:04.696Z</time></trkpt><trkpt lat="43.2707805" lon="12.2918236"><ele>577.6</ele><time>2026-04-30T10:42:05.697Z</time></trkpt><trkpt lat="43.2708519" lon="12.2917442"><ele>578.0</ele><time>2026-04-30T10:42:06.696Z</time></trkpt><trkpt lat="43.2709304" lon="12.2916501"><ele>578.0</ele><time>2026-04-30T10:42:07.697Z</time></trkpt><trkpt lat="43.2710033" lon="12.2915638"><ele>578.0</ele><time>2026-04-30T10:42:08.696Z</time></trkpt><trkpt lat="43.2710778" lon="12.2914925"><ele>578.0</ele><time>2026-04-30T10:42:09.695Z</time></trkpt><trkpt lat="43.2711632" lon="12.291398"><ele>578.0</ele><time>2026-04-30T10:42:10.696Z</time></trkpt><trkpt lat="43.2712285" lon="12.2913035"><ele>578.0</ele><time>2026-04-30T10:42:11.695Z</time></trkpt><trkpt lat="43.2712972" lon="12.2912345"><ele>578.6666666666666</ele><time>2026-04-30T10:42:12.696Z</time></trkpt><trkpt lat="43.271372" lon="12.2911449"><ele>579.3333333333333</ele><time>2026-04-30T10:42:13.696Z</time></trkpt><trkpt lat="43.271437" lon="12.2910788"><ele>580.0</ele><time>2026-04-30T10:42:14.696Z</time></trkpt><trkpt lat="43.2714983" lon="12.2910125"><ele>580.6666666666666</ele><time>2026-04-30T10:42:15.696Z</time></trkpt><trkpt lat="43.2715514" lon="12.2909418"><ele>581.3333333333334</ele><time>2026-04-30T10:42:16.697Z</time></trkpt><trkpt lat="43.2716142" lon="12.2908695"><ele>582.0</ele><time>2026-04-30T10:42:17.695Z</time></trkpt><trkpt lat="43.2716809" lon="12.2907863"><ele>583.6666666666666</ele><time>2026-04-30T10:42:18.697Z</time></trkpt><trkpt lat="43.271749" lon="12.2906753"><ele>585.3333333333334</ele><time>2026-04-30T10:42:19.696Z</time></trkpt><trkpt lat="43.2717943" lon="12.2905783"><ele>587.0</ele><time>2026-04-30T10:42:20.696Z</time></trkpt><trkpt lat="43.271839" lon="12.2904795"><ele>588.6666666666667</ele><time>2026-04-30T10:42:21.696Z</time></trkpt><trkpt lat="43.2718872" lon="12.2903978"><ele>590.3333333333334</ele><time>2026-04-30T10:42:22.698Z</time></trkpt><trkpt lat="43.2719446" lon="12.2903108"><ele>592.0</ele><time>2026-04-30T10:42:23.697Z</time></trkpt><trkpt lat="43.2719936" lon="12.2902194"><ele>592.0</ele><time>2026-04-30T10:42:24.696Z</time></trkpt><trkpt lat="43.2720548" lon="12.2901052"><ele>592.0</ele><time>2026-04-30T10:42:25.697Z</time></trkpt><trkpt lat="43.2721082" lon="12.2899864"><ele>592.0</ele><time>2026-04-30T10:42:26.696Z</time></trkpt><trkpt lat="43.2721568" lon="12.2898825"><ele>592.0</ele><time>2026-04-30T10:42:27.696Z</time></trkpt><trkpt lat="43.2722134" lon="12.289782"><ele>592.0</ele><time>2026-04-30T10:42:28.696Z</time></trkpt><trkpt lat="43.2722671" lon="12.2896761"><ele>592.0</ele><time>2026-04-30T10:42:29.696Z</time></trkpt><trkpt lat="43.2723187" lon="12.2895895"><ele>592.0</ele><time>2026-04-30T10:42:30.696Z</time></trkpt><trkpt lat="43.2723754" lon="12.2895221"><ele>592.0</ele><time>2026-04-30T10:42:31.696Z</time></trkpt><trkpt lat="43.2724262" lon="12.2894496"><ele>592.0</ele><time>2026-04-30T10:42:32.696Z</time></trkpt><trkpt lat="43.2724851" lon="12.289414"><ele>592.0</ele><time>2026-04-30T10:42:33.696Z</time></trkpt><trkpt lat="43.2725577" lon="12.2893427"><ele>592.0</ele><time>2026-04-30T10:42:35.695Z</time></trkpt><trkpt lat="43.2726142" lon="12.2892892"><ele>592.0</ele><time>2026-04-30T10:42:37.697Z</time></trkpt><trkpt lat="43.2726702" lon="12.2892323"><ele>592.0</ele><time>2026-04-30T10:42:39.696Z</time></trkpt><trkpt lat="43.2727459" lon="12.2891901"><ele>592.0</ele><time>2026-04-30T10:42:41.695Z</time></trkpt><trkpt lat="43.2728604" lon="12.2891636"><ele>592.0</ele><time>2026-04-30T10:42:43.697Z</time></trkpt><trkpt lat="43.2729499" lon="12.2891287"><ele>592.0</ele><time>2026-04-30T10:42:45.697Z</time></trkpt><trkpt lat="43.2730345" lon="12.2891205"><ele>592.0</ele><time>2026-04-30T10:42:47.695Z</time></trkpt><trkpt lat="43.2731175" lon="12.2890644"><ele>594.4</ele><time>2026-04-30T10:42:50.696Z</time></trkpt><trkpt lat="43.2732103" lon="12.2890746"><ele>596.8000000000001</ele><time>2026-04-30T10:42:52.697Z</time></trkpt><trkpt lat="43.2732843" lon="12.2891026"><ele>599.2</ele><time>2026-04-30T10:42:53.697Z</time></trkpt><trkpt lat="43.2733753" lon="12.2891403"><ele>601.6</ele><time>2026-04-30T10:42:55.697Z</time></trkpt><trkpt lat="43.2734614" lon="12.2891353"><ele>604.0</ele><time>2026-04-30T10:42:57.697Z</time></trkpt><trkpt lat="43.2735571" lon="12.2890384"><ele>604.0</ele><time>2026-04-30T10:42:59.697Z</time></trkpt><trkpt lat="43.2736067" lon="12.2889759"><ele>604.0</ele><time>2026-04-30T10:43:00.697Z</time></trkpt><trkpt lat="43.2736955" lon="12.2889098"><ele>604.0</ele><time>2026-04-30T10:43:02.697Z</time></trkpt><trkpt lat="43.2738185" lon="12.2888514"><ele>604.0</ele><time>2026-04-30T10:43:04.697Z</time></trkpt><trkpt lat="43.2738891" lon="12.2888176"><ele>604.0</ele><time>2026-04-30T10:43:05.697Z</time></trkpt><trkpt lat="43.2739526" lon="12.2888019"><ele>604.0</ele><time>2026-04-30T10:43:06.697Z</time></trkpt><trkpt lat="43.2740525" lon="12.2887846"><ele>601.5</ele><time>2026-04-30T10:43:08.697Z</time></trkpt><trkpt lat="43.2741349" lon="12.2887361"><ele>599.0</ele><time>2026-04-30T10:43:10.696Z</time></trkpt><trkpt lat="43.2742321" lon="12.2887062"><ele>596.5</ele><time>2026-04-30T10:43:12.696Z</time></trkpt><trkpt lat="43.2743397" lon="12.2887018"><ele>594.0</ele><time>2026-04-30T10:43:14.697Z</time></trkpt><trkpt lat="43.2744071" lon="12.2887035"><ele>591.5</ele><time>2026-04-30T10:43:16.697Z</time></trkpt><trkpt lat="43.2744742" lon="12.2887191"><ele>589.0</ele><time>2026-04-30T10:43:18.697Z</time></trkpt><trkpt lat="43.2746215" lon="12.2886781"><ele>590.0</ele><time>2026-04-30T10:43:21.697Z</time></trkpt><trkpt lat="43.2747757" lon="12.2886338"><ele>591.0</ele><time>2026-04-30T10:43:24.697Z</time></trkpt><trkpt lat="43.274887" lon="12.2885947"><ele>592.0</ele><time>2026-04-30T10:43:26.696Z</time></trkpt><trkpt lat="43.2749644" lon="12.2885883"><ele>593.0</ele><time>2026-04-30T10:43:28.697Z</time></trkpt><trkpt lat="43.2750532" lon="12.2885929"><ele>594.0</ele><time>2026-04-30T10:43:30.696Z</time></trkpt><trkpt lat="43.2751259" lon="12.2885304"><ele>594.0</ele><time>2026-04-30T10:43:32.697Z</time></trkpt><trkpt lat="43.2751878" lon="12.2884787"><ele>594.0</ele><time>2026-04-30T10:43:34.696Z</time></trkpt><trkpt lat="43.2752653" lon="12.2884466"><ele>594.0</ele><time>2026-04-30T10:43:37.697Z</time></trkpt><trkpt lat="43.2753155" lon="12.2883834"><ele>594.0</ele><time>2026-04-30T10:43:40.697Z</time></trkpt><trkpt lat="43.2753841" lon="12.2883913"><ele>594.0</ele><time>2026-04-30T10:44:40.696Z</time></trkpt><trkpt lat="43.2754664" lon="12.2883981"><ele>594.0</ele><time>2026-04-30T10:44:46.696Z</time></trkpt><trkpt lat="43.2755306" lon="12.2883662"><ele>594.0</ele><time>2026-04-30T10:44:48.696Z</time></trkpt><trkpt lat="43.2755859" lon="12.28832"><ele>593.3333333333334</ele><time>2026-04-30T10:44:50.695Z</time></trkpt><trkpt lat="43.275655" lon="12.2882642"><ele>592.6666666666666</ele><time>2026-04-30T10:44:52.696Z</time></trkpt><trkpt lat="43.2757502" lon="12.2882038"><ele>592.0</ele><time>2026-04-30T10:44:54.697Z</time></trkpt><trkpt lat="43.2758149" lon="12.288163"><ele>591.3333333333333</ele><time>2026-04-30T10:44:55.696Z</time></trkpt><trkpt lat="43.2758805" lon="12.2881368"><ele>590.6666666666666</ele><time>2026-04-30T10:44:56.697Z</time></trkpt><trkpt lat="43.2759634" lon="12.2880805"><ele>590.0</ele><time>2026-04-30T10:44:58.697Z</time></trkpt><trkpt lat="43.2760499" lon="12.2880104"><ele>590.0</ele><time>2026-04-30T10:45:01.696Z</time></trkpt><trkpt lat="43.2760533" lon="12.2879119"><ele>590.0</ele><time>2026-04-30T10:45:04.696Z</time></trkpt><trkpt lat="43.276053" lon="12.2877876"><ele>590.0</ele><time>2026-04-30T10:45:07.696Z</time></trkpt><trkpt lat="43.2761239" lon="12.287701"><ele>590.0</ele><time>2026-04-30T10:45:10.696Z</time></trkpt><trkpt lat="43.2761546" lon="12.2876088"><ele>590.0</ele><time>2026-04-30T10:45:12.696Z</time></trkpt><trkpt lat="43.2762033" lon="12.287504"><ele>590.0</ele><time>2026-04-30T10:45:15.698Z</time></trkpt><trkpt lat="43.2762829" lon="12.2874332"><ele>590.0</ele><time>2026-04-30T10:45:18.698Z</time></trkpt><trkpt lat="43.2763415" lon="12.2873877"><ele>590.0</ele><time>2026-04-30T10:45:20.695Z</time></trkpt><trkpt lat="43.2764085" lon="12.2873417"><ele>590.0</ele><time>2026-04-30T10:45:22.696Z</time></trkpt><trkpt lat="43.2764995" lon="12.287333"><ele>590.0</ele><time>2026-04-30T10:45:24.696Z</time></trkpt><trkpt lat="43.276583" lon="12.2872875"><ele>590.0</ele><time>2026-04-30T10:45:26.696Z</time></trkpt><trkpt lat="43.2766498" lon="12.2871889"><ele>590.0</ele><time>2026-04-30T10:45:28.696Z</time></trkpt><trkpt lat="43.2766779" lon="12.2870868"><ele>588.0</ele><time>2026-04-30T10:45:30.697Z</time></trkpt><trkpt lat="43.276699" lon="12.2869536"><ele>586.0</ele><time>2026-04-30T10:45:40.697Z</time></trkpt><trkpt lat="43.2767534" lon="12.2868246"><ele>584.0</ele><time>2026-04-30T10:45:42.695Z</time></trkpt><trkpt lat="43.2767816" lon="12.2867446"><ele>582.0</ele><time>2026-04-30T10:45:43.696Z</time></trkpt><trkpt lat="43.2768158" lon="12.2866493"><ele>580.0</ele><time>2026-04-30T10:45:44.696Z</time></trkpt><trkpt lat="43.276851" lon="12.2865538"><ele>578.0</ele><time>2026-04-30T10:45:45.697Z</time></trkpt><trkpt lat="43.2768894" lon="12.2864633"><ele>576.3333333333333</ele><time>2026-04-30T10:45:46.698Z</time></trkpt><trkpt lat="43.2769246" lon="12.2863576"><ele>574.6666666666666</ele><time>2026-04-30T10:45:47.697Z</time></trkpt><trkpt lat="43.2769589" lon="12.2862711"><ele>573.0</ele><time>2026-04-30T10:45:48.696Z</time></trkpt><trkpt lat="43.2770296" lon="12.2861843"><ele>571.3333333333334</ele><time>2026-04-30T10:45:50.697Z</time></trkpt><trkpt lat="43.2770723" lon="12.2861078"><ele>569.6666666666667</ele><time>2026-04-30T10:45:51.696Z</time></trkpt><trkpt lat="43.2771179" lon="12.2860294"><ele>568.0</ele><time>2026-04-30T10:45:52.697Z</time></trkpt><trkpt lat="43.2771557" lon="12.2858598"><ele>568.0</ele><time>2026-04-30T10:45:54.696Z</time></trkpt><trkpt lat="43.2771737" lon="12.2857712"><ele>568.0</ele><time>2026-04-30T10:45:55.697Z</time></trkpt><trkpt lat="43.277194" lon="12.2856698"><ele>568.0</ele><time>2026-04-30T10:45:56.696Z</time></trkpt><trkpt lat="43.2772148" lon="12.2855644"><ele>568.0</ele><time>2026-04-30T10:45:57.696Z</time></trkpt><trkpt lat="43.2772322" lon="12.2854624"><ele>568.0</ele><time>2026-04-30T10:45:58.696Z</time></trkpt><trkpt lat="43.2772527" lon="12.2853584"><ele>568.0</ele><time>2026-04-30T10:45:59.697Z</time></trkpt><trkpt lat="43.2772813" lon="12.2852563"><ele>568.0</ele><time>2026-04-30T10:46:00.698Z</time></trkpt><trkpt lat="43.277319" lon="12.2851723"><ele>568.0</ele><time>2026-04-30T10:46:01.697Z</time></trkpt><trkpt lat="43.2773616" lon="12.2850766"><ele>568.0</ele><time>2026-04-30T10:46:02.696Z</time></trkpt><trkpt lat="43.2774485" lon="12.2849343"><ele>568.0</ele><time>2026-04-30T10:46:04.697Z</time></trkpt><trkpt lat="43.2775281" lon="12.2848326"><ele>568.0</ele><time>2026-04-30T10:46:06.697Z</time></trkpt><trkpt lat="43.2775993" lon="12.284734"><ele>568.0</ele><time>2026-04-30T10:46:08.697Z</time></trkpt><trkpt lat="43.2776883" lon="12.284652"><ele>568.0</ele><time>2026-04-30T10:46:10.697Z</time></trkpt><trkpt lat="43.2777742" lon="12.2845665"><ele>568.0</ele><time>2026-04-30T10:46:12.697Z</time></trkpt><trkpt lat="43.277817" lon="12.2844963"><ele>568.0</ele><time>2026-04-30T10:46:13.696Z</time></trkpt><trkpt lat="43.2778914" lon="12.2844282"><ele>568.0</ele><time>2026-04-30T10:46:14.697Z</time></trkpt><trkpt lat="43.2779419" lon="12.2843406"><ele>568.0</ele><time>2026-04-30T10:46:15.696Z</time></trkpt><trkpt lat="43.2779949" lon="12.2842115"><ele>568.0</ele><time>2026-04-30T10:46:17.696Z</time></trkpt><trkpt lat="43.278038" lon="12.284135"><ele>568.0</ele><time>2026-04-30T10:46:18.697Z</time></trkpt><trkpt lat="43.2780777" lon="12.284028"><ele>568.0</ele><time>2026-04-30T10:46:19.697Z</time></trkpt><trkpt lat="43.2781057" lon="12.2839367"><ele>568.0</ele><time>2026-04-30T10:46:20.696Z</time></trkpt><trkpt lat="43.2781555" lon="12.2838218"><ele>568.0</ele><time>2026-04-30T10:46:22.696Z</time></trkpt><trkpt lat="43.2782038" lon="12.2837027"><ele>570.0</ele><time>2026-04-30T10:46:24.697Z</time></trkpt><trkpt lat="43.2782537" lon="12.2836384"><ele>572.0</ele><time>2026-04-30T10:46:28.697Z</time></trkpt><trkpt lat="43.2782884" lon="12.2835542"><ele>574.0</ele><time>2026-04-30T10:46:50.696Z</time></trkpt><trkpt lat="43.2783126" lon="12.2834709"><ele>576.0</ele><time>2026-04-30T10:46:53.696Z</time></trkpt><trkpt lat="43.2783771" lon="12.2833312"><ele>578.0</ele><time>2026-04-30T10:46:55.697Z</time></trkpt><trkpt lat="43.2784034" lon="12.2832515"><ele>580.0</ele><time>2026-04-30T10:46:56.697Z</time></trkpt><trkpt lat="43.2784717" lon="12.2831596"><ele>580.6</ele><time>2026-04-30T10:46:58.697Z</time></trkpt><trkpt lat="43.2785858" lon="12.2830565"><ele>581.2</ele><time>2026-04-30T10:47:00.697Z</time></trkpt><trkpt lat="43.278709" lon="12.2830094"><ele>581.8</ele><time>2026-04-30T10:47:02.697Z</time></trkpt><trkpt lat="43.2787761" lon="12.282962"><ele>582.4</ele><time>2026-04-30T10:47:04.697Z</time></trkpt><trkpt lat="43.2788538" lon="12.2829298"><ele>583.0</ele><time>2026-04-30T10:47:06.697Z</time></trkpt><trkpt lat="43.2789442" lon="12.2829342"><ele>583.0</ele><time>2026-04-30T10:47:08.697Z</time></trkpt><trkpt lat="43.2790074" lon="12.282958"><ele>583.0</ele><time>2026-04-30T10:47:09.696Z</time></trkpt><trkpt lat="43.2791081" lon="12.2830336"><ele>583.0</ele><time>2026-04-30T10:47:11.696Z</time></trkpt><trkpt lat="43.2791592" lon="12.2831067"><ele>583.0</ele><time>2026-04-30T10:47:12.697Z</time></trkpt><trkpt lat="43.279235" lon="12.283147"><ele>583.0</ele><time>2026-04-30T10:47:13.696Z</time></trkpt><trkpt lat="43.2792965" lon="12.2831923"><ele>583.0</ele><time>2026-04-30T10:47:14.697Z</time></trkpt><trkpt lat="43.2793778" lon="12.2832699"><ele>584.1999999999999</ele><time>2026-04-30T10:47:16.696Z</time></trkpt><trkpt lat="43.279443" lon="12.2833633"><ele>585.4</ele><time>2026-04-30T10:47:18.697Z</time></trkpt><trkpt lat="43.2795067" lon="12.2833936"><ele>586.5999999999999</ele><time>2026-04-30T10:47:19.697Z</time></trkpt><trkpt lat="43.279595" lon="12.2834791"><ele>587.8</ele><time>2026-04-30T10:47:21.697Z</time></trkpt><trkpt lat="43.279701" lon="12.2835633"><ele>589.0</ele><time>2026-04-30T10:47:23.697Z</time></trkpt><trkpt lat="43.2797906" lon="12.2836477"><ele>588.8</ele><time>2026-04-30T10:47:25.696Z</time></trkpt><trkpt lat="43.2798411" lon="12.283705"><ele>588.5999999999999</ele><time>2026-04-30T10:47:26.697Z</time></trkpt><trkpt lat="43.2799221" lon="12.2838047"><ele>588.4</ele><time>2026-04-30T10:47:28.696Z</time></trkpt><trkpt lat="43.2799957" lon="12.2839141"><ele>588.1999999999999</ele><time>2026-04-30T10:47:30.697Z</time></trkpt><trkpt lat="43.2800658" lon="12.2840083"><ele>588.0</ele><time>2026-04-30T10:47:32.697Z</time></trkpt><trkpt lat="43.2801182" lon="12.2841157"><ele>588.0</ele><time>2026-04-30T10:47:34.697Z</time></trkpt><trkpt lat="43.2801646" lon="12.2841788"><ele>588.0</ele><time>2026-04-30T10:47:36.697Z</time></trkpt><trkpt lat="43.2801822" lon="12.2842756"><ele>588.0</ele><time>2026-04-30T10:47:38.697Z</time></trkpt><trkpt lat="43.2802315" lon="12.2843613"><ele>588.0</ele><time>2026-04-30T10:47:40.697Z</time></trkpt><trkpt lat="43.2802765" lon="12.2844403"><ele>588.0</ele><time>2026-04-30T10:47:42.697Z</time></trkpt><trkpt lat="43.2803275" lon="12.284518"><ele>588.0</ele><time>2026-04-30T10:47:44.697Z</time></trkpt><trkpt lat="43.2803742" lon="12.2845993"><ele>588.0</ele><time>2026-04-30T10:47:45.696Z</time></trkpt><trkpt lat="43.2804085" lon="12.284691"><ele>587.6666666666666</ele><time>2026-04-30T10:47:47.697Z</time></trkpt><trkpt lat="43.2804473" lon="12.2848037"><ele>587.3333333333334</ele><time>2026-04-30T10:47:50.697Z</time></trkpt><trkpt lat="43.2804792" lon="12.2849016"><ele>587.0</ele><time>2026-04-30T10:47:53.697Z</time></trkpt><trkpt lat="43.2805047" lon="12.2849993"><ele>586.6666666666667</ele><time>2026-04-30T10:47:55.696Z</time></trkpt><trkpt lat="43.280528" lon="12.2850808"><ele>586.3333333333334</ele><time>2026-04-30T10:47:57.696Z</time></trkpt><trkpt lat="43.2805511" lon="12.2852075"><ele>586.0</ele><time>2026-04-30T10:48:00.696Z</time></trkpt><trkpt lat="43.2805842" lon="12.2852906"><ele>584.1666666666667</ele><time>2026-04-30T10:48:02.697Z</time></trkpt><trkpt lat="43.2806412" lon="12.2853913"><ele>582.3333333333334</ele><time>2026-04-30T10:48:05.697Z</time></trkpt><trkpt lat="43.2806838" lon="12.285506"><ele>580.5</ele><time>2026-04-30T10:48:08.696Z</time></trkpt><trkpt lat="43.2807067" lon="12.285604"><ele>578.6666666666666</ele><time>2026-04-30T10:48:10.697Z</time></trkpt><trkpt lat="43.2807364" lon="12.2857101"><ele>576.8333333333333</ele><time>2026-04-30T10:48:12.697Z</time></trkpt><trkpt lat="43.2807809" lon="12.2858156"><ele>575.0</ele><time>2026-04-30T10:48:14.696Z</time></trkpt><trkpt lat="43.2808913" lon="12.2859215"><ele>572.4</ele><time>2026-04-30T10:48:16.697Z</time></trkpt><trkpt lat="43.2809823" lon="12.2860044"><ele>569.8</ele><time>2026-04-30T10:48:18.696Z</time></trkpt><trkpt lat="43.2810791" lon="12.2860829"><ele>567.2</ele><time>2026-04-30T10:48:20.696Z</time></trkpt><trkpt lat="43.2811427" lon="12.2860994"><ele>564.6</ele><time>2026-04-30T10:48:21.697Z</time></trkpt><trkpt lat="43.2812054" lon="12.2861156"><ele>562.0</ele><time>2026-04-30T10:48:22.697Z</time></trkpt><trkpt lat="43.2813213" lon="12.2861321"><ele>562.0</ele><time>2026-04-30T10:48:24.697Z</time></trkpt><trkpt lat="43.2814314" lon="12.2861308"><ele>562.0</ele><time>2026-04-30T10:48:26.697Z</time></trkpt><trkpt lat="43.2815005" lon="12.286148"><ele>562.0</ele><time>2026-04-30T10:48:28.697Z</time></trkpt><trkpt lat="43.2815637" lon="12.286163"><ele>562.0</ele><time>2026-04-30T10:48:30.696Z</time></trkpt><trkpt lat="43.2816368" lon="12.2862075"><ele>562.0</ele><time>2026-04-30T10:48:32.697Z</time></trkpt><trkpt lat="43.2817071" lon="12.2862227"><ele>562.0</ele><time>2026-04-30T10:48:34.697Z</time></trkpt><trkpt lat="43.2817883" lon="12.2862102"><ele>561.0</ele><time>2026-04-30T10:48:36.697Z</time></trkpt><trkpt lat="43.2818641" lon="12.2861835"><ele>560.0</ele><time>2026-04-30T10:48:38.697Z</time></trkpt><trkpt lat="43.2819268" lon="12.286143"><ele>559.0</ele><time>2026-04-30T10:48:40.697Z</time></trkpt><trkpt lat="43.2820003" lon="12.2860003"><ele>558.0</ele><time>2026-04-30T10:48:42.697Z</time></trkpt><trkpt lat="43.2820564" lon="12.285823"><ele>557.0</ele><time>2026-04-30T10:48:44.696Z</time></trkpt><trkpt lat="43.2821011" lon="12.2857442"><ele>557.0</ele><time>2026-04-30T10:48:45.696Z</time></trkpt><trkpt lat="43.2821723" lon="12.2856463"><ele>557.0</ele><time>2026-04-30T10:48:47.697Z</time></trkpt><trkpt lat="43.282229" lon="12.285602"><ele>557.0</ele><time>2026-04-30T10:48:48.697Z</time></trkpt><trkpt lat="43.2823188" lon="12.2855181"><ele>557.0</ele><time>2026-04-30T10:48:50.697Z</time></trkpt><trkpt lat="43.2824131" lon="12.2854459"><ele>557.0</ele><time>2026-04-30T10:48:52.697Z</time></trkpt><trkpt lat="43.2824932" lon="12.2854028"><ele>555.8000000000001</ele><time>2026-04-30T10:48:54.697Z</time></trkpt><trkpt lat="43.2825957" lon="12.2853637"><ele>554.6</ele><time>2026-04-30T10:48:56.697Z</time></trkpt><trkpt lat="43.2827189" lon="12.2853059"><ele>553.4000000000001</ele><time>2026-04-30T10:48:58.696Z</time></trkpt><trkpt lat="43.2827758" lon="12.2852374"><ele>552.2</ele><time>2026-04-30T10:49:00.697Z</time></trkpt><trkpt lat="43.2828319" lon="12.2851576"><ele>551.0</ele><time>2026-04-30T10:49:03.696Z</time></trkpt><trkpt lat="43.2828823" lon="12.2851016"><ele>551.0</ele><time>2026-04-30T10:49:06.696Z</time></trkpt><trkpt lat="43.2829863" lon="12.2850136"><ele>551.0</ele><time>2026-04-30T10:49:09.697Z</time></trkpt><trkpt lat="43.2830599" lon="12.2849485"><ele>551.0</ele><time>2026-04-30T10:49:10.697Z</time></trkpt><trkpt lat="43.2831287" lon="12.2849196"><ele>551.0</ele><time>2026-04-30T10:49:11.697Z</time></trkpt><trkpt lat="43.2831862" lon="12.2848649"><ele>551.0</ele><time>2026-04-30T10:49:12.697Z</time></trkpt><trkpt lat="43.2832604" lon="12.2848188"><ele>551.0</ele><time>2026-04-30T10:49:13.697Z</time></trkpt><trkpt lat="43.28334" lon="12.284777"><ele>548.6</ele><time>2026-04-30T10:49:14.697Z</time></trkpt><trkpt lat="43.2834103" lon="12.2847259"><ele>546.2</ele><time>2026-04-30T10:49:15.696Z</time></trkpt><trkpt lat="43.283473" lon="12.2847068"><ele>543.8</ele><time>2026-04-30T10:49:16.696Z</time></trkpt><trkpt lat="43.2835376" lon="12.2847029"><ele>541.4</ele><time>2026-04-30T10:49:17.697Z</time></trkpt><trkpt lat="43.2836659" lon="12.2847"><ele>539.0</ele><time>2026-04-30T10:49:19.696Z</time></trkpt><trkpt lat="43.2837776" lon="12.2847561"><ele>539.0</ele><time>2026-04-30T10:49:21.696Z</time></trkpt><trkpt lat="43.2838885" lon="12.284728"><ele>539.0</ele><time>2026-04-30T10:49:23.697Z</time></trkpt><trkpt lat="43.2839739" lon="12.2847155"><ele>539.0</ele><time>2026-04-30T10:49:25.697Z</time></trkpt><trkpt lat="43.2840372" lon="12.2847285"><ele>539.0</ele><time>2026-04-30T10:49:26.697Z</time></trkpt><trkpt lat="43.2841467" lon="12.284759"><ele>539.0</ele><time>2026-04-30T10:49:28.696Z</time></trkpt><trkpt lat="43.2842389" lon="12.2847616"><ele>537.0</ele><time>2026-04-30T10:49:30.697Z</time></trkpt><trkpt lat="43.2842836" lon="12.2848276"><ele>535.0</ele><time>2026-04-30T10:49:36.697Z</time></trkpt><trkpt lat="43.2843087" lon="12.2849204"><ele>533.0</ele><time>2026-04-30T10:49:38.697Z</time></trkpt><trkpt lat="43.2843428" lon="12.285015"><ele>531.0</ele><time>2026-04-30T10:49:40.696Z</time></trkpt><trkpt lat="43.2843907" lon="12.2850777"><ele>529.0</ele><time>2026-04-30T10:49:42.697Z</time></trkpt><trkpt lat="43.2844375" lon="12.2851542"><ele>527.0</ele><time>2026-04-30T10:49:44.697Z</time></trkpt><trkpt lat="43.2845023" lon="12.285221"><ele>525.0</ele><time>2026-04-30T10:49:46.696Z</time></trkpt><trkpt lat="43.2845751" lon="12.2852421"><ele>525.0</ele><time>2026-04-30T10:49:48.697Z</time></trkpt><trkpt lat="43.2846673" lon="12.2851655"><ele>525.0</ele><time>2026-04-30T10:49:50.696Z</time></trkpt><trkpt lat="43.2847636" lon="12.2851751"><ele>525.0</ele><time>2026-04-30T10:49:52.696Z</time></trkpt><trkpt lat="43.2848791" lon="12.2851949"><ele>525.0</ele><time>2026-04-30T10:49:54.696Z</time></trkpt><trkpt lat="43.2849452" lon="12.2851815"><ele>525.0</ele><time>2026-04-30T10:49:55.697Z</time></trkpt><trkpt lat="43.2850266" lon="12.2851561"><ele>524.0</ele><time>2026-04-30T10:49:56.695Z</time></trkpt><trkpt lat="43.2850912" lon="12.2851468"><ele>523.0</ele><time>2026-04-30T10:49:57.697Z</time></trkpt><trkpt lat="43.2852134" lon="12.2851354"><ele>522.0</ele><time>2026-04-30T10:49:59.698Z</time></trkpt><trkpt lat="43.2853232" lon="12.2851748"><ele>521.0</ele><time>2026-04-30T10:50:01.696Z</time></trkpt><trkpt lat="43.2854298" lon="12.285212"><ele>520.0</ele><time>2026-04-30T10:50:03.697Z</time></trkpt><trkpt lat="43.2854899" lon="12.2852563"><ele>520.0</ele><time>2026-04-30T10:50:04.696Z</time></trkpt><trkpt lat="43.2855457" lon="12.2853025"><ele>520.0</ele><time>2026-04-30T10:50:05.696Z</time></trkpt><trkpt lat="43.2856209" lon="12.2854154"><ele>520.0</ele><time>2026-04-30T10:50:07.697Z</time></trkpt><trkpt lat="43.2856982" lon="12.2855318"><ele>520.0</ele><time>2026-04-30T10:50:09.696Z</time></trkpt><trkpt lat="43.2857771" lon="12.2855863"><ele>520.0</ele><time>2026-04-30T10:50:11.698Z</time></trkpt><trkpt lat="43.2858682" lon="12.2855307"><ele>517.8333333333334</ele><time>2026-04-30T10:50:13.696Z</time></trkpt><trkpt lat="43.2859114" lon="12.2854586"><ele>515.6666666666667</ele><time>2026-04-30T10:50:15.696Z</time></trkpt><trkpt lat="43.2860093" lon="12.2853582"><ele>513.5</ele><time>2026-04-30T10:50:17.696Z</time></trkpt><trkpt lat="43.2860662" lon="12.2853104"><ele>511.33333333333337</ele><time>2026-04-30T10:50:18.697Z</time></trkpt><trkpt lat="43.2861267" lon="12.2852726"><ele>509.1666666666667</ele><time>2026-04-30T10:50:19.697Z</time></trkpt><trkpt lat="43.286209" lon="12.2851619"><ele>507.0</ele><time>2026-04-30T10:50:21.697Z</time></trkpt><trkpt lat="43.2862962" lon="12.2850626"><ele>507.0</ele><time>2026-04-30T10:50:23.698Z</time></trkpt><trkpt lat="43.2863941" lon="12.2849906"><ele>507.00000000000006</ele><time>2026-04-30T10:50:25.697Z</time></trkpt><trkpt lat="43.2864892" lon="12.2849145"><ele>507.00000000000006</ele><time>2026-04-30T10:50:27.696Z</time></trkpt><trkpt lat="43.2865698" lon="12.2848551"><ele>507.0</ele><time>2026-04-30T10:50:28.696Z</time></trkpt><trkpt lat="43.2866423" lon="12.2848061"><ele>507.0</ele><time>2026-04-30T10:50:29.696Z</time></trkpt><trkpt lat="43.286712" lon="12.2847666"><ele>506.0</ele><time>2026-04-30T10:50:30.696Z</time></trkpt><trkpt lat="43.2867763" lon="12.284734"><ele>505.0</ele><time>2026-04-30T10:50:31.696Z</time></trkpt><trkpt lat="43.2868417" lon="12.2847031"><ele>504.0</ele><time>2026-04-30T10:50:32.696Z</time></trkpt><trkpt lat="43.2869326" lon="12.2846846"><ele>503.0</ele><time>2026-04-30T10:50:33.696Z</time></trkpt><trkpt lat="43.287012" lon="12.2847029"><ele>502.0</ele><time>2026-04-30T10:50:34.696Z</time></trkpt><trkpt lat="43.2870946" lon="12.2847111"><ele>501.0</ele><time>2026-04-30T10:50:35.696Z</time></trkpt><trkpt lat="43.2872049" lon="12.2846669"><ele>501.0</ele><time>2026-04-30T10:50:37.695Z</time></trkpt><trkpt lat="43.2872578" lon="12.2846151"><ele>501.0</ele><time>2026-04-30T10:50:38.696Z</time></trkpt><trkpt lat="43.2873242" lon="12.2845335"><ele>501.0</ele><time>2026-04-30T10:50:39.695Z</time></trkpt><trkpt lat="43.2873953" lon="12.284442"><ele>501.0</ele><time>2026-04-30T10:50:40.695Z</time></trkpt><trkpt lat="43.2874597" lon="12.2843431"><ele>501.0</ele><time>2026-04-30T10:50:41.696Z</time></trkpt><trkpt lat="43.2875124" lon="12.2842397"><ele>501.0</ele><time>2026-04-30T10:50:42.696Z</time></trkpt><trkpt lat="43.2875776" lon="12.2841297"><ele>500.4</ele><time>2026-04-30T10:50:43.696Z</time></trkpt><trkpt lat="43.2876454" lon="12.2840528"><ele>499.8</ele><time>2026-04-30T10:50:44.696Z</time></trkpt><trkpt lat="43.2877707" lon="12.2839405"><ele>499.19999999999993</ele><time>2026-04-30T10:50:45.696Z</time></trkpt><trkpt lat="43.2878512" lon="12.2838871"><ele>498.59999999999997</ele><time>2026-04-30T10:50:46.696Z</time></trkpt><trkpt lat="43.2879376" lon="12.2838069"><ele>498.0</ele><time>2026-04-30T10:50:47.696Z</time></trkpt><trkpt lat="43.2880209" lon="12.2837186"><ele>500.4</ele><time>2026-04-30T10:50:48.698Z</time></trkpt><trkpt lat="43.2881062" lon="12.2836466"><ele>502.79999999999995</ele><time>2026-04-30T10:50:49.697Z</time></trkpt><trkpt lat="43.2881976" lon="12.2835721"><ele>505.2</ele><time>2026-04-30T10:50:50.697Z</time></trkpt><trkpt lat="43.2882724" lon="12.2834835"><ele>507.6</ele><time>2026-04-30T10:50:51.697Z</time></trkpt><trkpt lat="43.2883435" lon="12.283426"><ele>510.0</ele><time>2026-04-30T10:50:52.697Z</time></trkpt><trkpt lat="43.2884089" lon="12.2833591"><ele>510.0</ele><time>2026-04-30T10:50:53.697Z</time></trkpt><trkpt lat="43.2884719" lon="12.2832766"><ele>510.0</ele><time>2026-04-30T10:50:54.697Z</time></trkpt><trkpt lat="43.2885406" lon="12.2831949"><ele>510.0</ele><time>2026-04-30T10:50:55.696Z</time></trkpt><trkpt lat="43.2886212" lon="12.2831027"><ele>510.0</ele><time>2026-04-30T10:50:56.696Z</time></trkpt><trkpt lat="43.2887203" lon="12.2830108"><ele>510.0</ele><time>2026-04-30T10:50:57.696Z</time></trkpt><trkpt lat="43.2888138" lon="12.2829184"><ele>510.5</ele><time>2026-04-30T10:50:58.697Z</time></trkpt><trkpt lat="43.2888999" lon="12.2828074"><ele>511.0</ele><time>2026-04-30T10:50:59.697Z</time></trkpt><trkpt lat="43.2889935" lon="12.2827099"><ele>511.5</ele><time>2026-04-30T10:51:00.697Z</time></trkpt><trkpt lat="43.2890914" lon="12.2826137"><ele>512.0</ele><time>2026-04-30T10:51:01.697Z</time></trkpt><trkpt lat="43.2891802" lon="12.2825345"><ele>512.0</ele><time>2026-04-30T10:51:02.696Z</time></trkpt><trkpt lat="43.2892518" lon="12.2824426"><ele>512.0</ele><time>2026-04-30T10:51:03.696Z</time></trkpt><trkpt lat="43.2893249" lon="12.28235"><ele>512.0</ele><time>2026-04-30T10:51:04.697Z</time></trkpt><trkpt lat="43.2894009" lon="12.2822723"><ele>512.0</ele><time>2026-04-30T10:51:05.697Z</time></trkpt><trkpt lat="43.2894665" lon="12.2822086"><ele>512.0</ele><time>2026-04-30T10:51:06.696Z</time></trkpt><trkpt lat="43.2895396" lon="12.2821454"><ele>510.99999999999994</ele><time>2026-04-30T10:51:07.697Z</time></trkpt><trkpt lat="43.2895933" lon="12.282094"><ele>510.0</ele><time>2026-04-30T10:51:08.696Z</time></trkpt><trkpt lat="43.2897006" lon="12.2820806"><ele>509.0</ele><time>2026-04-30T10:51:11.696Z</time></trkpt><trkpt lat="43.2897892" lon="12.2821354"><ele>508.0</ele><time>2026-04-30T10:51:14.697Z</time></trkpt><trkpt lat="43.2898409" lon="12.2822212"><ele>506.99999999999994</ele><time>2026-04-30T10:51:16.697Z</time></trkpt><trkpt lat="43.2898979" lon="12.2823162"><ele>506.0</ele><time>2026-04-30T10:51:18.696Z</time></trkpt><trkpt lat="43.289968" lon="12.2823897"><ele>508.6</ele><time>2026-04-30T10:51:20.696Z</time></trkpt><trkpt lat="43.2900706" lon="12.2824534"><ele>511.20000000000005</ele><time>2026-04-30T10:51:22.697Z</time></trkpt><trkpt lat="43.2901168" lon="12.2825239"><ele>513.8</ele><time>2026-04-30T10:51:25.696Z</time></trkpt><trkpt lat="43.2900387" lon="12.2824561"><ele>516.4</ele><time>2026-04-30T10:51:30.697Z</time></trkpt><trkpt lat="43.2899406" lon="12.2823842"><ele>519.0</ele><time>2026-04-30T10:51:32.697Z</time></trkpt><trkpt lat="43.2899148" lon="12.2822199"><ele>519.4</ele><time>2026-04-30T10:51:33.697Z</time></trkpt><trkpt lat="43.2898862" lon="12.2820811"><ele>519.8</ele><time>2026-04-30T10:51:35.697Z</time></trkpt><trkpt lat="43.2899178" lon="12.2818909"><ele>520.2</ele><time>2026-04-30T10:51:37.697Z</time></trkpt><trkpt lat="43.2899579" lon="12.281786"><ele>520.6</ele><time>2026-04-30T10:51:38.697Z</time></trkpt><trkpt lat="43.2900481" lon="12.2816861"><ele>521.0</ele><time>2026-04-30T10:51:39.697Z</time></trkpt><trkpt lat="43.2901344" lon="12.2815566"><ele>516.75</ele><time>2026-04-30T10:51:40.697Z</time></trkpt><trkpt lat="43.2902383" lon="12.281429"><ele>512.5</ele><time>2026-04-30T10:51:41.696Z</time></trkpt><trkpt lat="43.2903635" lon="12.2813053"><ele>508.25</ele><time>2026-04-30T10:51:42.697Z</time></trkpt><trkpt lat="43.2904581" lon="12.2812006"><ele>504.0</ele><time>2026-04-30T10:51:43.697Z</time></trkpt><trkpt lat="43.2905452" lon="12.2810948"><ele>508.0</ele><time>2026-04-30T10:51:44.696Z</time></trkpt><trkpt lat="43.2906467" lon="12.2809861"><ele>512.0</ele><time>2026-04-30T10:51:45.697Z</time></trkpt><trkpt lat="43.2907464" lon="12.2808764"><ele>516.0</ele><time>2026-04-30T10:51:46.696Z</time></trkpt><trkpt lat="43.2908398" lon="12.2807928"><ele>520.0</ele><time>2026-04-30T10:51:47.697Z</time></trkpt><trkpt lat="43.2909442" lon="12.2806638"><ele>516.8</ele><time>2026-04-30T10:51:48.697Z</time></trkpt><trkpt lat="43.2910289" lon="12.2805503"><ele>513.6</ele><time>2026-04-30T10:51:49.697Z</time></trkpt><trkpt lat="43.2911659" lon="12.2805419"><ele>510.4</ele><time>2026-04-30T10:51:50.697Z</time></trkpt><trkpt lat="43.2912378" lon="12.2804493"><ele>507.2</ele><time>2026-04-30T10:51:51.696Z</time></trkpt><trkpt lat="43.291312" lon="12.2803847"><ele>504.0</ele><time>2026-04-30T10:51:52.696Z</time></trkpt><trkpt lat="43.291389" lon="12.2802928"><ele>504.0</ele><time>2026-04-30T10:51:53.697Z</time></trkpt><trkpt lat="43.2913964" lon="12.2801325"><ele>504.0</ele><time>2026-04-30T10:51:54.697Z</time></trkpt><trkpt lat="43.2914366" lon="12.2799914"><ele>504.0</ele><time>2026-04-30T10:51:55.697Z</time></trkpt><trkpt lat="43.2914572" lon="12.2798263"><ele>504.0</ele><time>2026-04-30T10:51:56.697Z</time></trkpt><trkpt lat="43.2914991" lon="12.2796598"><ele>508.75</ele><time>2026-04-30T10:51:57.696Z</time></trkpt><trkpt lat="43.2915421" lon="12.2794891"><ele>513.5</ele><time>2026-04-30T10:51:58.697Z</time></trkpt><trkpt lat="43.2915757" lon="12.279324"><ele>518.25</ele><time>2026-04-30T10:51:59.697Z</time></trkpt><trkpt lat="43.2915973" lon="12.2791445"><ele>523.0</ele><time>2026-04-30T10:52:00.697Z</time></trkpt><trkpt lat="43.2916121" lon="12.2789713"><ele>523.0</ele><time>2026-04-30T10:52:01.697Z</time></trkpt><trkpt lat="43.2916032" lon="12.2787828"><ele>523.0</ele><time>2026-04-30T10:52:02.697Z</time></trkpt><trkpt lat="43.2915834" lon="12.2786038"><ele>523.0</ele><time>2026-04-30T10:52:03.696Z</time></trkpt><trkpt lat="43.2915671" lon="12.2784107"><ele>523.0</ele><time>2026-04-30T10:52:04.697Z</time></trkpt><trkpt lat="43.291529" lon="12.2782446"><ele>521.75</ele><time>2026-04-30T10:52:05.697Z</time></trkpt><trkpt lat="43.2914837" lon="12.2780321"><ele>520.5</ele><time>2026-04-30T10:52:06.697Z</time></trkpt><trkpt lat="43.291466" lon="12.2778827"><ele>519.25</ele><time>2026-04-30T10:52:07.697Z</time></trkpt><trkpt lat="43.2914287" lon="12.2777104"><ele>518.0</ele><time>2026-04-30T10:52:08.696Z</time></trkpt><trkpt lat="43.2914063" lon="12.2775678"><ele>517.8</ele><time>2026-04-30T10:52:09.696Z</time></trkpt><trkpt lat="43.2913807" lon="12.2774048"><ele>517.5999999999999</ele><time>2026-04-30T10:52:10.697Z</time></trkpt><trkpt lat="43.2913678" lon="12.277276"><ele>517.4000000000001</ele><time>2026-04-30T10:52:11.697Z</time></trkpt><trkpt lat="43.2913785" lon="12.2771409"><ele>517.2</ele><time>2026-04-30T10:52:12.696Z</time></trkpt><trkpt lat="43.2913913" lon="12.2770057"><ele>517.0</ele><time>2026-04-30T10:52:13.697Z</time></trkpt><trkpt lat="43.2914245" lon="12.276895"><ele>517.0</ele><time>2026-04-30T10:52:14.697Z</time></trkpt><trkpt lat="43.2914909" lon="12.2767988"><ele>517.0</ele><time>2026-04-30T10:52:15.696Z</time></trkpt><trkpt lat="43.2915184" lon="12.2766582"><ele>517.0</ele><time>2026-04-30T10:52:16.697Z</time></trkpt><trkpt lat="43.2915282" lon="12.2765195"><ele>517.0</ele><time>2026-04-30T10:52:17.697Z</time></trkpt><trkpt lat="43.2915296" lon="12.2763793"><ele>517.0</ele><time>2026-04-30T10:52:18.697Z</time></trkpt><trkpt lat="43.2914964" lon="12.2762483"><ele>517.0</ele><time>2026-04-30T10:52:19.697Z</time></trkpt><trkpt lat="43.2914463" lon="12.2761137"><ele>517.0</ele><time>2026-04-30T10:52:20.697Z</time></trkpt><trkpt lat="43.2913802" lon="12.2759758"><ele>517.0</ele><time>2026-04-30T10:52:21.697Z</time></trkpt><trkpt lat="43.2913088" lon="12.2758423"><ele>517.0</ele><time>2026-04-30T10:52:22.697Z</time></trkpt><trkpt lat="43.2912451" lon="12.2757111"><ele>512.8000000000001</ele><time>2026-04-30T10:52:23.696Z</time></trkpt><trkpt lat="43.2911902" lon="12.2755827"><ele>508.6</ele><time>2026-04-30T10:52:24.697Z</time></trkpt><trkpt lat="43.2911557" lon="12.2754473"><ele>504.40000000000003</ele><time>2026-04-30T10:52:25.696Z</time></trkpt><trkpt lat="43.2911395" lon="12.2752823"><ele>500.20000000000005</ele><time>2026-04-30T10:52:26.697Z</time></trkpt><trkpt lat="43.2911489" lon="12.275157"><ele>496.0</ele><time>2026-04-30T10:52:27.697Z</time></trkpt><trkpt lat="43.2911773" lon="12.275009"><ele>496.0</ele><time>2026-04-30T10:52:28.697Z</time></trkpt><trkpt lat="43.2911976" lon="12.2748578"><ele>496.0</ele><time>2026-04-30T10:52:29.697Z</time></trkpt><trkpt lat="43.2912138" lon="12.2747296"><ele>496.0</ele><time>2026-04-30T10:52:30.697Z</time></trkpt><trkpt lat="43.2912341" lon="12.2746114"><ele>496.0</ele><time>2026-04-30T10:52:31.697Z</time></trkpt><trkpt lat="43.2912733" lon="12.2745206"><ele>496.0</ele><time>2026-04-30T10:52:34.697Z</time></trkpt><trkpt lat="43.2914413" lon="12.274585"><ele>497.6666666666667</ele><time>2026-04-30T10:52:39.696Z</time></trkpt><trkpt lat="43.2915026" lon="12.2746503"><ele>499.33333333333337</ele><time>2026-04-30T10:52:40.696Z</time></trkpt><trkpt lat="43.2915638" lon="12.2747055"><ele>501.0</ele><time>2026-04-30T10:52:41.695Z</time></trkpt><trkpt lat="43.2916358" lon="12.2747554"><ele>502.66666666666663</ele><time>2026-04-30T10:52:42.697Z</time></trkpt><trkpt lat="43.2917073" lon="12.2748"><ele>504.3333333333333</ele><time>2026-04-30T10:52:43.696Z</time></trkpt><trkpt lat="43.2917822" lon="12.274828"><ele>506.0</ele><time>2026-04-30T10:52:44.697Z</time></trkpt><trkpt lat="43.2918602" lon="12.2748201"><ele>506.0</ele><time>2026-04-30T10:52:45.697Z</time></trkpt><trkpt lat="43.2919449" lon="12.2748086"><ele>506.0</ele><time>2026-04-30T10:52:46.697Z</time></trkpt><trkpt lat="43.2920432" lon="12.2747705"><ele>506.0</ele><time>2026-04-30T10:52:47.697Z</time></trkpt><trkpt lat="43.2921378" lon="12.2747211"><ele>506.0</ele><time>2026-04-30T10:52:48.697Z</time></trkpt><trkpt lat="43.2922318" lon="12.2746701"><ele>506.0</ele><time>2026-04-30T10:52:49.696Z</time></trkpt><trkpt lat="43.2923352" lon="12.2746194"><ele>503.5</ele><time>2026-04-30T10:52:50.697Z</time></trkpt><trkpt lat="43.2924583" lon="12.2745747"><ele>501.0</ele><time>2026-04-30T10:52:51.697Z</time></trkpt><trkpt lat="43.2925914" lon="12.274541"><ele>498.5</ele><time>2026-04-30T10:52:52.696Z</time></trkpt><trkpt lat="43.2927244" lon="12.2745182"><ele>496.0</ele><time>2026-04-30T10:52:53.697Z</time></trkpt><trkpt lat="43.2928543" lon="12.2744949"><ele>496.0</ele><time>2026-04-30T10:52:54.697Z</time></trkpt><trkpt lat="43.2929866" lon="12.2744752"><ele>496.0</ele><time>2026-04-30T10:52:55.697Z</time></trkpt><trkpt lat="43.2931089" lon="12.2744493"><ele>496.0</ele><time>2026-04-30T10:52:56.696Z</time></trkpt><trkpt lat="43.2932288" lon="12.2744288"><ele>496.0</ele><time>2026-04-30T10:52:57.697Z</time></trkpt><trkpt lat="43.2933483" lon="12.274408"><ele>496.8</ele><time>2026-04-30T10:52:58.697Z</time></trkpt><trkpt lat="43.2934647" lon="12.2743931"><ele>497.6</ele><time>2026-04-30T10:52:59.696Z</time></trkpt><trkpt lat="43.2935731" lon="12.2743729"><ele>498.4</ele><time>2026-04-30T10:53:00.696Z</time></trkpt><trkpt lat="43.2936629" lon="12.2743529"><ele>499.2</ele><time>2026-04-30T10:53:01.697Z</time></trkpt><trkpt lat="43.293758" lon="12.2743214"><ele>500.0</ele><time>2026-04-30T10:53:02.697Z</time></trkpt><trkpt lat="43.2938479" lon="12.2742712"><ele>500.6</ele><time>2026-04-30T10:53:03.696Z</time></trkpt><trkpt lat="43.2939341" lon="12.2742066"><ele>501.2</ele><time>2026-04-30T10:53:04.696Z</time></trkpt><trkpt lat="43.29401" lon="12.2740906"><ele>501.79999999999995</ele><time>2026-04-30T10:53:05.696Z</time></trkpt><trkpt lat="43.2940853" lon="12.2739688"><ele>502.4</ele><time>2026-04-30T10:53:06.697Z</time></trkpt><trkpt lat="43.2941645" lon="12.2738499"><ele>503.0</ele><time>2026-04-30T10:53:07.697Z</time></trkpt><trkpt lat="43.2942287" lon="12.2737274"><ele>503.0</ele><time>2026-04-30T10:53:08.697Z</time></trkpt><trkpt lat="43.2942827" lon="12.2736058"><ele>502.99999999999994</ele><time>2026-04-30T10:53:09.697Z</time></trkpt><trkpt lat="43.2943238" lon="12.2734834"><ele>502.99999999999994</ele><time>2026-04-30T10:53:10.697Z</time></trkpt><trkpt lat="43.2943471" lon="12.2733633"><ele>503.0</ele><time>2026-04-30T10:53:11.697Z</time></trkpt><trkpt lat="43.2943555" lon="12.2732536"><ele>503.0</ele><time>2026-04-30T10:53:12.697Z</time></trkpt><trkpt lat="43.2943449" lon="12.273125"><ele>502.0</ele><time>2026-04-30T10:53:13.696Z</time></trkpt><trkpt lat="43.2943335" lon="12.2729913"><ele>500.99999999999994</ele><time>2026-04-30T10:53:14.697Z</time></trkpt><trkpt lat="43.2943109" lon="12.2728491"><ele>499.99999999999994</ele><time>2026-04-30T10:53:15.696Z</time></trkpt><trkpt lat="43.2942701" lon="12.2727146"><ele>499.0</ele><time>2026-04-30T10:53:16.697Z</time></trkpt><trkpt lat="43.2942261" lon="12.2725842"><ele>498.0</ele><time>2026-04-30T10:53:17.697Z</time></trkpt><trkpt lat="43.2941803" lon="12.2724664"><ele>498.0</ele><time>2026-04-30T10:53:18.696Z</time></trkpt><trkpt lat="43.2941273" lon="12.2723531"><ele>498.0</ele><time>2026-04-30T10:53:19.697Z</time></trkpt><trkpt lat="43.2940843" lon="12.2722372"><ele>498.0</ele><time>2026-04-30T10:53:20.697Z</time></trkpt><trkpt lat="43.2940563" lon="12.2721241"><ele>498.0</ele><time>2026-04-30T10:53:21.696Z</time></trkpt><trkpt lat="43.2940552" lon="12.2720085"><ele>498.0</ele><time>2026-04-30T10:53:22.697Z</time></trkpt><trkpt lat="43.2940664" lon="12.2718923"><ele>498.0</ele><time>2026-04-30T10:53:23.697Z</time></trkpt><trkpt lat="43.2940977" lon="12.2717634"><ele>497.2</ele><time>2026-04-30T10:53:24.696Z</time></trkpt><trkpt lat="43.2941344" lon="12.2716342"><ele>496.4</ele><time>2026-04-30T10:53:25.697Z</time></trkpt><trkpt lat="43.2941858" lon="12.2714989"><ele>495.59999999999997</ele><time>2026-04-30T10:53:26.696Z</time></trkpt><trkpt lat="43.2942307" lon="12.2713687"><ele>494.79999999999995</ele><time>2026-04-30T10:53:27.697Z</time></trkpt><trkpt lat="43.294271" lon="12.2712458"><ele>494.0</ele><time>2026-04-30T10:53:28.697Z</time></trkpt><trkpt lat="43.2942962" lon="12.2711255"><ele>492.66666666666663</ele><time>2026-04-30T10:53:29.697Z</time></trkpt><trkpt lat="43.2943082" lon="12.2710107"><ele>491.3333333333333</ele><time>2026-04-30T10:53:30.697Z</time></trkpt><trkpt lat="43.2942964" lon="12.2708941"><ele>490.0</ele><time>2026-04-30T10:53:31.697Z</time></trkpt><trkpt lat="43.2942794" lon="12.2707784"><ele>488.66666666666663</ele><time>2026-04-30T10:53:32.697Z</time></trkpt><trkpt lat="43.2942753" lon="12.2706441"><ele>487.3333333333333</ele><time>2026-04-30T10:53:33.697Z</time></trkpt><trkpt lat="43.2942675" lon="12.2705193"><ele>486.0</ele><time>2026-04-30T10:53:34.696Z</time></trkpt><trkpt lat="43.2942971" lon="12.2704278"><ele>482.75</ele><time>2026-04-30T10:53:35.697Z</time></trkpt><trkpt lat="43.2943159" lon="12.2702973"><ele>479.5</ele><time>2026-04-30T10:53:36.696Z</time></trkpt><trkpt lat="43.2943606" lon="12.2701293"><ele>476.25</ele><time>2026-04-30T10:53:37.697Z</time></trkpt><trkpt lat="43.2944174" lon="12.2699851"><ele>473.0</ele><time>2026-04-30T10:53:38.697Z</time></trkpt><trkpt lat="43.2944804" lon="12.2698485"><ele>469.75</ele><time>2026-04-30T10:53:39.696Z</time></trkpt><trkpt lat="43.2945583" lon="12.2697043"><ele>466.5</ele><time>2026-04-30T10:53:40.698Z</time></trkpt><trkpt lat="43.2946467" lon="12.2695704"><ele>463.25</ele><time>2026-04-30T10:53:41.697Z</time></trkpt><trkpt lat="43.2947371" lon="12.2694283"><ele>460.0</ele><time>2026-04-30T10:53:42.697Z</time></trkpt><trkpt lat="43.2948046" lon="12.2693101"><ele>464.0</ele><time>2026-04-30T10:53:43.698Z</time></trkpt><trkpt lat="43.2948752" lon="12.2692009"><ele>468.0</ele><time>2026-04-30T10:53:44.697Z</time></trkpt><trkpt lat="43.2949315" lon="12.2691129"><ele>472.0</ele><time>2026-04-30T10:53:45.697Z</time></trkpt><trkpt lat="43.2949784" lon="12.2690479"><ele>476.0</ele><time>2026-04-30T10:53:46.696Z</time></trkpt><trkpt lat="43.2950113" lon="12.2689108"><ele>480.0</ele><time>2026-04-30T10:53:48.697Z</time></trkpt><trkpt lat="43.2950054" lon="12.2687488"><ele>480.0</ele><time>2026-04-30T10:53:50.697Z</time></trkpt><trkpt lat="43.2949759" lon="12.2685962"><ele>480.0</ele><time>2026-04-30T10:53:52.697Z</time></trkpt><trkpt lat="43.2949477" lon="12.2684272"><ele>480.0</ele><time>2026-04-30T10:53:53.698Z</time></trkpt><trkpt lat="43.2949328" lon="12.268281"><ele>480.0</ele><time>2026-04-30T10:53:54.697Z</time></trkpt><trkpt lat="43.2949578" lon="12.2681192"><ele>477.75</ele><time>2026-04-30T10:53:55.697Z</time></trkpt><trkpt lat="43.2949779" lon="12.2679419"><ele>475.5</ele><time>2026-04-30T10:53:56.697Z</time></trkpt><trkpt lat="43.2950129" lon="12.267751"><ele>473.25</ele><time>2026-04-30T10:53:57.697Z</time></trkpt><trkpt lat="43.2950403" lon="12.2675321"><ele>471.0</ele><time>2026-04-30T10:53:58.697Z</time></trkpt><trkpt lat="43.2950727" lon="12.267336"><ele>469.6</ele><time>2026-04-30T10:53:59.697Z</time></trkpt><trkpt lat="43.2951046" lon="12.2671514"><ele>468.20000000000005</ele><time>2026-04-30T10:54:00.697Z</time></trkpt><trkpt lat="43.2951307" lon="12.2670237"><ele>466.79999999999995</ele><time>2026-04-30T10:54:01.697Z</time></trkpt><trkpt lat="43.2951692" lon="12.2669147"><ele>465.4</ele><time>2026-04-30T10:54:02.697Z</time></trkpt><trkpt lat="43.2952208" lon="12.266818"><ele>464.0</ele><time>2026-04-30T10:54:03.697Z</time></trkpt><trkpt lat="43.2952802" lon="12.2667326"><ele>463.99999999999994</ele><time>2026-04-30T10:54:04.697Z</time></trkpt><trkpt lat="43.2953363" lon="12.2666603"><ele>464.0</ele><time>2026-04-30T10:54:05.696Z</time></trkpt><trkpt lat="43.2953871" lon="12.2665859"><ele>464.0</ele><time>2026-04-30T10:54:06.697Z</time></trkpt><trkpt lat="43.2954248" lon="12.2665147"><ele>464.0</ele><time>2026-04-30T10:54:07.697Z</time></trkpt><trkpt lat="43.2954574" lon="12.2663705"><ele>463.99999999999994</ele><time>2026-04-30T10:54:09.697Z</time></trkpt><trkpt lat="43.2954533" lon="12.2662767"><ele>464.0</ele><time>2026-04-30T10:54:10.697Z</time></trkpt><trkpt lat="43.2954366" lon="12.2661595"><ele>462.6</ele><time>2026-04-30T10:54:11.697Z</time></trkpt><trkpt lat="43.2954095" lon="12.2660277"><ele>461.2</ele><time>2026-04-30T10:54:12.696Z</time></trkpt><trkpt lat="43.2953797" lon="12.2658965"><ele>459.80000000000007</ele><time>2026-04-30T10:54:13.696Z</time></trkpt><trkpt lat="43.2953578" lon="12.2657884"><ele>458.40000000000003</ele><time>2026-04-30T10:54:14.697Z</time></trkpt><trkpt lat="43.2953331" lon="12.2656755"><ele>457.0</ele><time>2026-04-30T10:54:15.698Z</time></trkpt><trkpt lat="43.2953131" lon="12.2655612"><ele>456.6</ele><time>2026-04-30T10:54:16.697Z</time></trkpt><trkpt lat="43.2953027" lon="12.265434"><ele>456.20000000000005</ele><time>2026-04-30T10:54:17.696Z</time></trkpt><trkpt lat="43.2952926" lon="12.2653097"><ele>455.8</ele><time>2026-04-30T10:54:18.697Z</time></trkpt><trkpt lat="43.2953004" lon="12.2651839"><ele>455.4</ele><time>2026-04-30T10:54:19.697Z</time></trkpt><trkpt lat="43.2953107" lon="12.2650517"><ele>455.0</ele><time>2026-04-30T10:54:20.696Z</time></trkpt><trkpt lat="43.2953199" lon="12.2649229"><ele>454.99999999999994</ele><time>2026-04-30T10:54:21.697Z</time></trkpt><trkpt lat="43.2953417" lon="12.2647979"><ele>455.0</ele><time>2026-04-30T10:54:22.697Z</time></trkpt><trkpt lat="43.2953552" lon="12.2646784"><ele>455.0</ele><time>2026-04-30T10:54:23.697Z</time></trkpt><trkpt lat="43.2953723" lon="12.2645774"><ele>455.0</ele><time>2026-04-30T10:54:24.697Z</time></trkpt><trkpt lat="43.2953738" lon="12.264473"><ele>454.99999999999994</ele><time>2026-04-30T10:54:25.696Z</time></trkpt><trkpt lat="43.2953766" lon="12.2643608"><ele>455.0</ele><time>2026-04-30T10:54:26.697Z</time></trkpt><trkpt lat="43.2953587" lon="12.2641917"><ele>454.16666666666663</ele><time>2026-04-30T10:54:28.697Z</time></trkpt><trkpt lat="43.2953232" lon="12.2641192"><ele>453.3333333333333</ele><time>2026-04-30T10:54:29.696Z</time></trkpt><trkpt lat="43.2952865" lon="12.2640403"><ele>452.5</ele><time>2026-04-30T10:54:30.697Z</time></trkpt><trkpt lat="43.2952181" lon="12.2639423"><ele>451.66666666666663</ele><time>2026-04-30T10:54:31.698Z</time></trkpt><trkpt lat="43.295174" lon="12.2638516"><ele>450.8333333333333</ele><time>2026-04-30T10:54:32.697Z</time></trkpt><trkpt lat="43.2951499" lon="12.2637634"><ele>450.0</ele><time>2026-04-30T10:54:33.697Z</time></trkpt><trkpt lat="43.2951202" lon="12.2636594"><ele>449.8333333333333</ele><time>2026-04-30T10:54:34.696Z</time></trkpt><trkpt lat="43.2951069" lon="12.263545"><ele>449.66666666666663</ele><time>2026-04-30T10:54:35.697Z</time></trkpt><trkpt lat="43.2951055" lon="12.2634245"><ele>449.5</ele><time>2026-04-30T10:54:36.696Z</time></trkpt><trkpt lat="43.2951114" lon="12.2632947"><ele>449.3333333333333</ele><time>2026-04-30T10:54:37.696Z</time></trkpt><trkpt lat="43.2951192" lon="12.2631581"><ele>449.16666666666663</ele><time>2026-04-30T10:54:38.696Z</time></trkpt><trkpt lat="43.2951451" lon="12.2630653"><ele>449.0</ele><time>2026-04-30T10:54:39.696Z</time></trkpt><trkpt lat="43.295161" lon="12.2629536"><ele>448.3333333333333</ele><time>2026-04-30T10:54:40.697Z</time></trkpt><trkpt lat="43.2951767" lon="12.2628305"><ele>447.66666666666663</ele><time>2026-04-30T10:54:41.696Z</time></trkpt><trkpt lat="43.2951987" lon="12.2627144"><ele>447.0</ele><time>2026-04-30T10:54:42.696Z</time></trkpt><trkpt lat="43.2952319" lon="12.2626094"><ele>446.33333333333337</ele><time>2026-04-30T10:54:43.697Z</time></trkpt><trkpt lat="43.2952757" lon="12.2624962"><ele>445.6666666666667</ele><time>2026-04-30T10:54:44.697Z</time></trkpt><trkpt lat="43.2953182" lon="12.2623947"><ele>445.0</ele><time>2026-04-30T10:54:45.698Z</time></trkpt><trkpt lat="43.2953527" lon="12.2622929"><ele>443.50000000000006</ele><time>2026-04-30T10:54:46.697Z</time></trkpt><trkpt lat="43.2953817" lon="12.2622033"><ele>442.0</ele><time>2026-04-30T10:54:47.696Z</time></trkpt><trkpt lat="43.2953811" lon="12.2620554"><ele>440.5</ele><time>2026-04-30T10:54:49.697Z</time></trkpt><trkpt lat="43.2953246" lon="12.2619423"><ele>439.0</ele><time>2026-04-30T10:54:51.696Z</time></trkpt><trkpt lat="43.295262" lon="12.2618702"><ele>437.50000000000006</ele><time>2026-04-30T10:54:52.697Z</time></trkpt><trkpt lat="43.2951899" lon="12.2618108"><ele>436.0</ele><time>2026-04-30T10:54:53.697Z</time></trkpt><trkpt lat="43.2951135" lon="12.261769"><ele>436.00000000000006</ele><time>2026-04-30T10:54:54.698Z</time></trkpt><trkpt lat="43.2950232" lon="12.2617366"><ele>436.0</ele><time>2026-04-30T10:54:55.696Z</time></trkpt><trkpt lat="43.2949459" lon="12.2616869"><ele>436.0</ele><time>2026-04-30T10:54:56.697Z</time></trkpt><trkpt lat="43.2948677" lon="12.2616481"><ele>436.0</ele><time>2026-04-30T10:54:57.697Z</time></trkpt><trkpt lat="43.2947956" lon="12.2616"><ele>436.00000000000006</ele><time>2026-04-30T10:54:58.697Z</time></trkpt><trkpt lat="43.2947283" lon="12.2615339"><ele>436.0</ele><time>2026-04-30T10:54:59.698Z</time></trkpt><trkpt lat="43.2946682" lon="12.2614613"><ele>434.00000000000006</ele><time>2026-04-30T10:55:00.697Z</time></trkpt><trkpt lat="43.2946225" lon="12.2613485"><ele>432.0</ele><time>2026-04-30T10:55:01.697Z</time></trkpt><trkpt lat="43.2945901" lon="12.2612458"><ele>430.0</ele><time>2026-04-30T10:55:02.697Z</time></trkpt><trkpt lat="43.2945541" lon="12.2611342"><ele>428.0</ele><time>2026-04-30T10:55:03.696Z</time></trkpt><trkpt lat="43.2945362" lon="12.2610291"><ele>426.00000000000006</ele><time>2026-04-30T10:55:04.697Z</time></trkpt><trkpt lat="43.2945067" lon="12.2609131"><ele>424.0</ele><time>2026-04-30T10:55:05.697Z</time></trkpt><trkpt lat="43.2944625" lon="12.2607873"><ele>424.0</ele><time>2026-04-30T10:55:06.697Z</time></trkpt><trkpt lat="43.2944146" lon="12.2606736"><ele>424.0</ele><time>2026-04-30T10:55:07.696Z</time></trkpt><trkpt lat="43.2943386" lon="12.2605524"><ele>424.0</ele><time>2026-04-30T10:55:08.697Z</time></trkpt><trkpt lat="43.2942427" lon="12.2604331"><ele>424.0</ele><time>2026-04-30T10:55:09.698Z</time></trkpt><trkpt lat="43.2941484" lon="12.2603173"><ele>424.4</ele><time>2026-04-30T10:55:10.697Z</time></trkpt><trkpt lat="43.2940802" lon="12.2602259"><ele>424.79999999999995</ele><time>2026-04-30T10:55:11.697Z</time></trkpt><trkpt lat="43.2939999" lon="12.2600669"><ele>425.20000000000005</ele><time>2026-04-30T10:55:13.697Z</time></trkpt><trkpt lat="43.2939841" lon="12.2599662"><ele>425.6</ele><time>2026-04-30T10:55:14.697Z</time></trkpt><trkpt lat="43.2939806" lon="12.2598462"><ele>426.0</ele><time>2026-04-30T10:55:15.697Z</time></trkpt><trkpt lat="43.2939862" lon="12.2597125"><ele>424.8</ele><time>2026-04-30T10:55:16.697Z</time></trkpt><trkpt lat="43.2940114" lon="12.2595634"><ele>423.6</ele><time>2026-04-30T10:55:17.697Z</time></trkpt><trkpt lat="43.2940445" lon="12.259436"><ele>422.4</ele><time>2026-04-30T10:55:18.697Z</time></trkpt><trkpt lat="43.2940648" lon="12.2593059"><ele>421.2</ele><time>2026-04-30T10:55:19.697Z</time></trkpt><trkpt lat="43.2940753" lon="12.2591607"><ele>420.0</ele><time>2026-04-30T10:55:20.697Z</time></trkpt><trkpt lat="43.2940754" lon="12.2590158"><ele>420.3333333333333</ele><time>2026-04-30T10:55:21.697Z</time></trkpt><trkpt lat="43.2940459" lon="12.258874"><ele>420.66666666666663</ele><time>2026-04-30T10:55:22.697Z</time></trkpt><trkpt lat="43.2940213" lon="12.2587523"><ele>421.0</ele><time>2026-04-30T10:55:23.697Z</time></trkpt><trkpt lat="43.294009" lon="12.2586651"><ele>421.3333333333333</ele><time>2026-04-30T10:55:24.697Z</time></trkpt><trkpt lat="43.294017" lon="12.2585783"><ele>421.66666666666663</ele><time>2026-04-30T10:55:25.697Z</time></trkpt><trkpt lat="43.2940922" lon="12.2584638"><ele>422.0</ele><time>2026-04-30T10:55:27.698Z</time></trkpt><trkpt lat="43.294161" lon="12.2584104"><ele>421.99999999999994</ele><time>2026-04-30T10:55:28.696Z</time></trkpt><trkpt lat="43.2942364" lon="12.2583664"><ele>422.0</ele><time>2026-04-30T10:55:29.697Z</time></trkpt><trkpt lat="43.2943024" lon="12.2583006"><ele>422.0</ele><time>2026-04-30T10:55:30.697Z</time></trkpt><trkpt lat="43.2943695" lon="12.2582369"><ele>422.0</ele><time>2026-04-30T10:55:31.697Z</time></trkpt><trkpt lat="43.2944195" lon="12.2581733"><ele>421.99999999999994</ele><time>2026-04-30T10:55:32.698Z</time></trkpt><trkpt lat="43.2944811" lon="12.2581184"><ele>422.0</ele><time>2026-04-30T10:55:33.698Z</time></trkpt><trkpt lat="43.2945191" lon="12.2580467"><ele>421.3333333333333</ele><time>2026-04-30T10:55:34.698Z</time></trkpt><trkpt lat="43.294546" lon="12.2579568"><ele>420.66666666666663</ele><time>2026-04-30T10:55:35.697Z</time></trkpt><trkpt lat="43.2945704" lon="12.2578709"><ele>420.0</ele><time>2026-04-30T10:55:36.698Z</time></trkpt><trkpt lat="43.2945806" lon="12.2577726"><ele>419.33333333333337</ele><time>2026-04-30T10:55:37.698Z</time></trkpt><trkpt lat="43.294571" lon="12.257654"><ele>418.6666666666667</ele><time>2026-04-30T10:55:38.698Z</time></trkpt><trkpt lat="43.2945503" lon="12.2575477"><ele>418.0</ele><time>2026-04-30T10:55:39.698Z</time></trkpt><trkpt lat="43.2945266" lon="12.2574416"><ele>418.0</ele><time>2026-04-30T10:55:40.698Z</time></trkpt><trkpt lat="43.2944954" lon="12.2573289"><ele>418.0</ele><time>2026-04-30T10:55:41.698Z</time></trkpt><trkpt lat="43.2944502" lon="12.2572099"><ele>418.0</ele><time>2026-04-30T10:55:42.698Z</time></trkpt><trkpt lat="43.2943848" lon="12.2570976"><ele>418.0</ele><time>2026-04-30T10:55:43.698Z</time></trkpt><trkpt lat="43.2943134" lon="12.2569628"><ele>418.0</ele><time>2026-04-30T10:55:44.697Z</time></trkpt><trkpt lat="43.2942407" lon="12.2568414"><ele>415.4</ele><time>2026-04-30T10:55:45.697Z</time></trkpt><trkpt lat="43.294174" lon="12.2567249"><ele>412.79999999999995</ele><time>2026-04-30T10:55:46.697Z</time></trkpt><trkpt lat="43.2941246" lon="12.256624"><ele>410.2</ele><time>2026-04-30T10:55:47.697Z</time></trkpt><trkpt lat="43.2940821" lon="12.2565158"><ele>407.6</ele><time>2026-04-30T10:55:48.697Z</time></trkpt><trkpt lat="43.294047" lon="12.2564102"><ele>405.0</ele><time>2026-04-30T10:55:49.697Z</time></trkpt><trkpt lat="43.2940304" lon="12.2562895"><ele>403.6666666666667</ele><time>2026-04-30T10:55:50.696Z</time></trkpt><trkpt lat="43.2940273" lon="12.2561681"><ele>402.33333333333337</ele><time>2026-04-30T10:55:51.697Z</time></trkpt><trkpt lat="43.2940411" lon="12.2560433"><ele>401.0</ele><time>2026-04-30T10:55:52.697Z</time></trkpt><trkpt lat="43.2940592" lon="12.2559147"><ele>399.6666666666667</ele><time>2026-04-30T10:55:53.697Z</time></trkpt><trkpt lat="43.294082" lon="12.2557846"><ele>398.33333333333337</ele><time>2026-04-30T10:55:54.697Z</time></trkpt><trkpt lat="43.2940903" lon="12.2556894"><ele>397.0</ele><time>2026-04-30T10:55:55.697Z</time></trkpt><trkpt lat="43.2941029" lon="12.2555911"><ele>394.8</ele><time>2026-04-30T10:55:56.696Z</time></trkpt><trkpt lat="43.2940885" lon="12.255477"><ele>392.6</ele><time>2026-04-30T10:55:57.696Z</time></trkpt><trkpt lat="43.2940194" lon="12.2553355"><ele>390.40000000000003</ele><time>2026-04-30T10:55:59.697Z</time></trkpt><trkpt lat="43.2939606" lon="12.2553007"><ele>388.20000000000005</ele><time>2026-04-30T10:56:00.697Z</time></trkpt><trkpt lat="43.2938295" lon="12.2552778"><ele>386.0</ele><time>2026-04-30T10:56:02.698Z</time></trkpt><trkpt lat="43.2937534" lon="12.2552903"><ele>386.3333333333333</ele><time>2026-04-30T10:56:03.696Z</time></trkpt><trkpt lat="43.2936969" lon="12.255366"><ele>386.66666666666663</ele><time>2026-04-30T10:56:04.698Z</time></trkpt><trkpt lat="43.2936444" lon="12.2554211"><ele>387.0</ele><time>2026-04-30T10:56:05.698Z</time></trkpt><trkpt lat="43.2935731" lon="12.2555804"><ele>387.33333333333337</ele><time>2026-04-30T10:56:07.696Z</time></trkpt><trkpt lat="43.2935635" lon="12.255684"><ele>387.6666666666667</ele><time>2026-04-30T10:56:08.697Z</time></trkpt><trkpt lat="43.2935567" lon="12.2557873"><ele>388.0</ele><time>2026-04-30T10:56:09.696Z</time></trkpt><trkpt lat="43.2935594" lon="12.2558883"><ele>388.00000000000006</ele><time>2026-04-30T10:56:10.697Z</time></trkpt><trkpt lat="43.2935518" lon="12.2560149"><ele>388.0</ele><time>2026-04-30T10:56:11.697Z</time></trkpt><trkpt lat="43.2935369" lon="12.2561341"><ele>388.0</ele><time>2026-04-30T10:56:12.697Z</time></trkpt><trkpt lat="43.2934944" lon="12.2562325"><ele>388.0</ele><time>2026-04-30T10:56:13.696Z</time></trkpt><trkpt lat="43.2934583" lon="12.2563319"><ele>388.00000000000006</ele><time>2026-04-30T10:56:14.697Z</time></trkpt><trkpt lat="43.2934029" lon="12.256448"><ele>388.0</ele><time>2026-04-30T10:56:15.697Z</time></trkpt><trkpt lat="43.2933439" lon="12.2565589"><ele>388.6666666666667</ele><time>2026-04-30T10:56:16.697Z</time></trkpt><trkpt lat="43.2932918" lon="12.2566734"><ele>389.33333333333337</ele><time>2026-04-30T10:56:17.697Z</time></trkpt><trkpt lat="43.2932354" lon="12.2567792"><ele>390.0</ele><time>2026-04-30T10:56:18.696Z</time></trkpt><trkpt lat="43.2931934" lon="12.2568786"><ele>390.66666666666663</ele><time>2026-04-30T10:56:19.697Z</time></trkpt><trkpt lat="43.2931435" lon="12.2569718"><ele>391.3333333333333</ele><time>2026-04-30T10:56:20.696Z</time></trkpt><trkpt lat="43.2930837" lon="12.2570506"><ele>392.0</ele><time>2026-04-30T10:56:21.697Z</time></trkpt><trkpt lat="43.2929754" lon="12.2571204"><ele>387.8</ele><time>2026-04-30T10:56:23.697Z</time></trkpt><trkpt lat="43.2929157" lon="12.2570131"><ele>383.6</ele><time>2026-04-30T10:56:25.697Z</time></trkpt><trkpt lat="43.2929666" lon="12.2568597"><ele>379.40000000000003</ele><time>2026-04-30T10:56:27.697Z</time></trkpt><trkpt lat="43.2929968" lon="12.25676"><ele>375.20000000000005</ele><time>2026-04-30T10:56:28.696Z</time></trkpt><trkpt lat="43.2930423" lon="12.2566543"><ele>371.0</ele><time>2026-04-30T10:56:29.697Z</time></trkpt><trkpt lat="43.2930798" lon="12.2565612"><ele>369.5</ele><time>2026-04-30T10:56:30.697Z</time></trkpt><trkpt lat="43.2930981" lon="12.2564508"><ele>368.0</ele><time>2026-04-30T10:56:31.697Z</time></trkpt><trkpt lat="43.2931106" lon="12.2563399"><ele>366.5</ele><time>2026-04-30T10:56:32.696Z</time></trkpt><trkpt lat="43.2931129" lon="12.2562211"><ele>365.0</ele><time>2026-04-30T10:56:33.696Z</time></trkpt><trkpt lat="43.2931113" lon="12.2561051"><ele>363.5</ele><time>2026-04-30T10:56:34.697Z</time></trkpt><trkpt lat="43.2930847" lon="12.2560194"><ele>362.0</ele><time>2026-04-30T10:56:35.697Z</time></trkpt><trkpt lat="43.293045" lon="12.2559276"><ele>362.0</ele><time>2026-04-30T10:56:36.697Z</time></trkpt><trkpt lat="43.2929842" lon="12.2558493"><ele>362.0</ele><time>2026-04-30T10:56:37.696Z</time></trkpt><trkpt lat="43.292937" lon="12.2557622"><ele>362.0</ele><time>2026-04-30T10:56:38.696Z</time></trkpt><trkpt lat="43.2928963" lon="12.2556852"><ele>362.0</ele><time>2026-04-30T10:56:39.697Z</time></trkpt><trkpt lat="43.292849" lon="12.2556122"><ele>362.0</ele><time>2026-04-30T10:56:40.697Z</time></trkpt><trkpt lat="43.2928119" lon="12.2555258"><ele>362.0</ele><time>2026-04-30T10:56:41.696Z</time></trkpt><trkpt lat="43.2927877" lon="12.2553576"><ele>361.83333333333337</ele><time>2026-04-30T10:56:43.697Z</time></trkpt><trkpt lat="43.2927887" lon="12.2552533"><ele>361.6666666666667</ele><time>2026-04-30T10:56:44.696Z</time></trkpt><trkpt lat="43.2927927" lon="12.2551521"><ele>361.5</ele><time>2026-04-30T10:56:45.696Z</time></trkpt><trkpt lat="43.2928008" lon="12.2550329"><ele>361.3333333333333</ele><time>2026-04-30T10:56:46.697Z</time></trkpt><trkpt lat="43.2928171" lon="12.2549485"><ele>361.16666666666663</ele><time>2026-04-30T10:56:47.696Z</time></trkpt><trkpt lat="43.2928255" lon="12.2548246"><ele>361.0</ele><time>2026-04-30T10:56:48.697Z</time></trkpt><trkpt lat="43.2928062" lon="12.2546992"><ele>359.6</ele><time>2026-04-30T10:56:49.697Z</time></trkpt><trkpt lat="43.2927868" lon="12.2545064"><ele>358.20000000000005</ele><time>2026-04-30T10:56:51.481Z</time></trkpt><trkpt lat="43.2927967" lon="12.2543516"><ele>356.79999999999995</ele><time>2026-04-30T10:56:52.698Z</time></trkpt><trkpt lat="43.2928087" lon="12.2542491"><ele>355.4</ele><time>2026-04-30T10:56:53.697Z</time></trkpt><trkpt lat="43.2928422" lon="12.2541602"><ele>354.0</ele><time>2026-04-30T10:56:54.697Z</time></trkpt><trkpt lat="43.2928844" lon="12.2540759"><ele>354.0</ele><time>2026-04-30T10:56:55.696Z</time></trkpt><trkpt lat="43.2929539" lon="12.2539801"><ele>354.0</ele><time>2026-04-30T10:56:56.697Z</time></trkpt><trkpt lat="43.293047" lon="12.253896"><ele>354.0</ele><time>2026-04-30T10:56:57.696Z</time></trkpt><trkpt lat="43.2931547" lon="12.2538193"><ele>354.0</ele><time>2026-04-30T10:56:58.697Z</time></trkpt><trkpt lat="43.2932533" lon="12.2537529"><ele>354.0</ele><time>2026-04-30T10:56:59.697Z</time></trkpt><trkpt lat="43.2933477" lon="12.2536915"><ele>352.79999999999995</ele><time>2026-04-30T10:57:00.697Z</time></trkpt><trkpt lat="43.2934417" lon="12.2536204"><ele>351.59999999999997</ele><time>2026-04-30T10:57:01.697Z</time></trkpt><trkpt lat="43.2935236" lon="12.2535537"><ele>350.4</ele><time>2026-04-30T10:57:02.696Z</time></trkpt><trkpt lat="43.2935972" lon="12.2534655"><ele>349.2</ele><time>2026-04-30T10:57:03.696Z</time></trkpt><trkpt lat="43.2936758" lon="12.253373"><ele>348.0</ele><time>2026-04-30T10:57:04.697Z</time></trkpt><trkpt lat="43.2937582" lon="12.2532834"><ele>348.0</ele><time>2026-04-30T10:57:05.697Z</time></trkpt><trkpt lat="43.293836" lon="12.2531778"><ele>348.0</ele><time>2026-04-30T10:57:06.697Z</time></trkpt><trkpt lat="43.29391" lon="12.253081"><ele>348.0</ele><time>2026-04-30T10:57:07.697Z</time></trkpt><trkpt lat="43.2939857" lon="12.2529902"><ele>348.0</ele><time>2026-04-30T10:57:08.697Z</time></trkpt><trkpt lat="43.294063" lon="12.2529165"><ele>348.0</ele><time>2026-04-30T10:57:09.697Z</time></trkpt><trkpt lat="43.2941411" lon="12.2528472"><ele>347.1666666666667</ele><time>2026-04-30T10:57:10.697Z</time></trkpt><trkpt lat="43.2942032" lon="12.2527811"><ele>346.3333333333333</ele><time>2026-04-30T10:57:11.697Z</time></trkpt><trkpt lat="43.2942953" lon="12.2527108"><ele>345.5</ele><time>2026-04-30T10:57:12.697Z</time></trkpt><trkpt lat="43.2943288" lon="12.2526299"><ele>344.66666666666663</ele><time>2026-04-30T10:57:13.697Z</time></trkpt><trkpt lat="43.2943459" lon="12.2525435"><ele>343.8333333333333</ele><time>2026-04-30T10:57:14.697Z</time></trkpt><trkpt lat="43.2944017" lon="12.2524398"><ele>343.0</ele><time>2026-04-30T10:57:15.696Z</time></trkpt><trkpt lat="43.2944285" lon="12.2523075"><ele>340.5</ele><time>2026-04-30T10:57:16.697Z</time></trkpt><trkpt lat="43.2944666" lon="12.2522135"><ele>338.0</ele><time>2026-04-30T10:57:17.697Z</time></trkpt><trkpt lat="43.2944996" lon="12.2521193"><ele>335.5</ele><time>2026-04-30T10:57:18.697Z</time></trkpt><trkpt lat="43.2945512" lon="12.2520258"><ele>333.0</ele><time>2026-04-30T10:57:19.697Z</time></trkpt><trkpt lat="43.2945994" lon="12.2519259"><ele>330.5</ele><time>2026-04-30T10:57:20.697Z</time></trkpt><trkpt lat="43.2946575" lon="12.2518584"><ele>328.0</ele><time>2026-04-30T10:57:21.697Z</time></trkpt><trkpt lat="43.294731" lon="12.2517954"><ele>328.66666666666663</ele><time>2026-04-30T10:57:22.696Z</time></trkpt><trkpt lat="43.2948236" lon="12.2517641"><ele>329.3333333333333</ele><time>2026-04-30T10:57:23.697Z</time></trkpt><trkpt lat="43.2949029" lon="12.2517268"><ele>330.0</ele><time>2026-04-30T10:57:24.697Z</time></trkpt><trkpt lat="43.2949815" lon="12.2516945"><ele>330.6666666666667</ele><time>2026-04-30T10:57:25.696Z</time></trkpt><trkpt lat="43.2950561" lon="12.2517014"><ele>331.33333333333337</ele><time>2026-04-30T10:57:26.697Z</time></trkpt><trkpt lat="43.2951268" lon="12.2517378"><ele>332.0</ele><time>2026-04-30T10:57:27.697Z</time></trkpt><trkpt lat="43.2951918" lon="12.2518025"><ele>332.0</ele><time>2026-04-30T10:57:28.697Z</time></trkpt><trkpt lat="43.2952584" lon="12.2518725"><ele>332.0</ele><time>2026-04-30T10:57:29.697Z</time></trkpt><trkpt lat="43.2953283" lon="12.2519349"><ele>332.0</ele><time>2026-04-30T10:57:30.696Z</time></trkpt><trkpt lat="43.295401" lon="12.2519922"><ele>332.0</ele><time>2026-04-30T10:57:31.696Z</time></trkpt><trkpt lat="43.2954674" lon="12.2519782"><ele>332.0</ele><time>2026-04-30T10:57:32.696Z</time></trkpt><trkpt lat="43.2955404" lon="12.2519727"><ele>332.0</ele><time>2026-04-30T10:57:33.697Z</time></trkpt><trkpt lat="43.2955906" lon="12.2519178"><ele>331.1666666666667</ele><time>2026-04-30T10:57:34.699Z</time></trkpt><trkpt lat="43.2956694" lon="12.2518855"><ele>330.33333333333337</ele><time>2026-04-30T10:57:35.697Z</time></trkpt><trkpt lat="43.2957376" lon="12.2518536"><ele>329.5</ele><time>2026-04-30T10:57:36.697Z</time></trkpt><trkpt lat="43.2958203" lon="12.2518232"><ele>328.6666666666667</ele><time>2026-04-30T10:57:37.698Z</time></trkpt><trkpt lat="43.2958873" lon="12.2517895"><ele>327.8333333333333</ele><time>2026-04-30T10:57:38.696Z</time></trkpt><trkpt lat="43.2959507" lon="12.2517931"><ele>327.0</ele><time>2026-04-30T10:57:39.698Z</time></trkpt><trkpt lat="43.2960594" lon="12.2518815"><ele>327.0</ele><time>2026-04-30T10:57:41.698Z</time></trkpt><trkpt lat="43.2960884" lon="12.2519736"><ele>327.0</ele><time>2026-04-30T10:57:42.696Z</time></trkpt><trkpt lat="43.2961224" lon="12.2520906"><ele>327.0</ele><time>2026-04-30T10:57:43.696Z</time></trkpt><trkpt lat="43.2961543" lon="12.2522118"><ele>327.0</ele><time>2026-04-30T10:57:44.698Z</time></trkpt><trkpt lat="43.2961896" lon="12.252336"><ele>327.0</ele><time>2026-04-30T10:57:45.698Z</time></trkpt><trkpt lat="43.2962719" lon="12.252527"><ele>325.6</ele><time>2026-04-30T10:57:46.698Z</time></trkpt><trkpt lat="43.2963396" lon="12.2526803"><ele>324.20000000000005</ele><time>2026-04-30T10:57:47.696Z</time></trkpt><trkpt lat="43.2964032" lon="12.2528343"><ele>322.8</ele><time>2026-04-30T10:57:48.698Z</time></trkpt><trkpt lat="43.2964666" lon="12.2529503"><ele>321.4</ele><time>2026-04-30T10:57:49.697Z</time></trkpt><trkpt lat="43.2965208" lon="12.253016"><ele>320.0</ele><time>2026-04-30T10:57:50.697Z</time></trkpt><trkpt lat="43.296585" lon="12.2530837"><ele>320.0</ele><time>2026-04-30T10:57:51.696Z</time></trkpt><trkpt lat="43.2966684" lon="12.253115"><ele>320.0</ele><time>2026-04-30T10:57:52.697Z</time></trkpt><trkpt lat="43.2967505" lon="12.2531075"><ele>320.0</ele><time>2026-04-30T10:57:53.698Z</time></trkpt><trkpt lat="43.2968474" lon="12.2531194"><ele>320.0</ele><time>2026-04-30T10:57:54.697Z</time></trkpt><trkpt lat="43.2969374" lon="12.2531291"><ele>320.0</ele><time>2026-04-30T10:57:55.698Z</time></trkpt><trkpt lat="43.2969895" lon="12.2531777"><ele>320.0</ele><time>2026-04-30T10:57:56.698Z</time></trkpt><trkpt lat="43.2970561" lon="12.2532486"><ele>322.0</ele><time>2026-04-30T10:57:57.697Z</time></trkpt><trkpt lat="43.2970824" lon="12.2533563"><ele>324.0</ele><time>2026-04-30T10:57:58.698Z</time></trkpt><trkpt lat="43.2970974" lon="12.2534495"><ele>326.0</ele><time>2026-04-30T10:57:59.698Z</time></trkpt><trkpt lat="43.2970958" lon="12.2535459"><ele>328.0</ele><time>2026-04-30T10:58:00.698Z</time></trkpt><trkpt lat="43.297122" lon="12.2537097"><ele>330.0</ele><time>2026-04-30T10:58:02.698Z</time></trkpt><trkpt lat="43.2971912" lon="12.253824"><ele>329.0</ele><time>2026-04-30T10:58:04.698Z</time></trkpt><trkpt lat="43.2973446" lon="12.2538638"><ele>328.0</ele><time>2026-04-30T10:58:06.697Z</time></trkpt><trkpt lat="43.2974618" lon="12.2538854"><ele>327.0</ele><time>2026-04-30T10:58:07.698Z</time></trkpt><trkpt lat="43.2975512" lon="12.2539153"><ele>326.0</ele><time>2026-04-30T10:58:08.698Z</time></trkpt><trkpt lat="43.2976248" lon="12.2539736"><ele>326.0</ele><time>2026-04-30T10:58:09.698Z</time></trkpt><trkpt lat="43.2976826" lon="12.2540766"><ele>326.0</ele><time>2026-04-30T10:58:10.697Z</time></trkpt><trkpt lat="43.2976932" lon="12.2542078"><ele>326.0</ele><time>2026-04-30T10:58:11.698Z</time></trkpt><trkpt lat="43.297731" lon="12.2543468"><ele>326.0</ele><time>2026-04-30T10:58:12.697Z</time></trkpt><trkpt lat="43.297753" lon="12.2544885"><ele>326.0</ele><time>2026-04-30T10:58:13.698Z</time></trkpt><trkpt lat="43.2977825" lon="12.254612"><ele>326.0</ele><time>2026-04-30T10:58:14.698Z</time></trkpt><trkpt lat="43.2978111" lon="12.2547228"><ele>326.0</ele><time>2026-04-30T10:58:15.698Z</time></trkpt><trkpt lat="43.2978689" lon="12.2548239"><ele>326.0</ele><time>2026-04-30T10:58:16.698Z</time></trkpt><trkpt lat="43.2979332" lon="12.2549044"><ele>326.0</ele><time>2026-04-30T10:58:17.698Z</time></trkpt><trkpt lat="43.2980018" lon="12.2549651"><ele>326.0</ele><time>2026-04-30T10:58:18.698Z</time></trkpt><trkpt lat="43.2981078" lon="12.2549999"><ele>324.40000000000003</ele><time>2026-04-30T10:58:19.698Z</time></trkpt><trkpt lat="43.2982368" lon="12.255053"><ele>322.8</ele><time>2026-04-30T10:58:20.697Z</time></trkpt><trkpt lat="43.2983458" lon="12.2551061"><ele>321.20000000000005</ele><time>2026-04-30T10:58:21.698Z</time></trkpt><trkpt lat="43.2984416" lon="12.2551531"><ele>319.6</ele><time>2026-04-30T10:58:22.698Z</time></trkpt><trkpt lat="43.2985141" lon="12.2551785"><ele>318.0</ele><time>2026-04-30T10:58:23.698Z</time></trkpt><trkpt lat="43.2986032" lon="12.2551884"><ele>318.0</ele><time>2026-04-30T10:58:24.698Z</time></trkpt><trkpt lat="43.2986802" lon="12.2551692"><ele>318.0</ele><time>2026-04-30T10:58:25.697Z</time></trkpt><trkpt lat="43.2987559" lon="12.2551087"><ele>318.0</ele><time>2026-04-30T10:58:26.698Z</time></trkpt><trkpt lat="43.2988346" lon="12.2550137"><ele>318.0</ele><time>2026-04-30T10:58:27.698Z</time></trkpt><trkpt lat="43.2989103" lon="12.2549086"><ele>318.0</ele><time>2026-04-30T10:58:28.698Z</time></trkpt><trkpt lat="43.2989914" lon="12.2547996"><ele>315.8</ele><time>2026-04-30T10:58:29.698Z</time></trkpt><trkpt lat="43.2990712" lon="12.2547038"><ele>313.6</ele><time>2026-04-30T10:58:30.698Z</time></trkpt><trkpt lat="43.2991494" lon="12.2546321"><ele>311.4</ele><time>2026-04-30T10:58:31.697Z</time></trkpt><trkpt lat="43.2992466" lon="12.254566"><ele>309.2</ele><time>2026-04-30T10:58:32.698Z</time></trkpt><trkpt lat="43.2993413" lon="12.2545143"><ele>307.0</ele><time>2026-04-30T10:58:33.698Z</time></trkpt><trkpt lat="43.2994392" lon="12.2544752"><ele>307.0</ele><time>2026-04-30T10:58:34.698Z</time></trkpt><trkpt lat="43.2995288" lon="12.2544514"><ele>307.0</ele><time>2026-04-30T10:58:35.698Z</time></trkpt><trkpt lat="43.299606" lon="12.2544402"><ele>307.0</ele><time>2026-04-30T10:58:36.697Z</time></trkpt><trkpt lat="43.2996833" lon="12.254448"><ele>307.0</ele><time>2026-04-30T10:58:37.698Z</time></trkpt><trkpt lat="43.2997576" lon="12.2544845"><ele>307.0</ele><time>2026-04-30T10:58:38.698Z</time></trkpt><trkpt lat="43.2998247" lon="12.2545317"><ele>307.0</ele><time>2026-04-30T10:58:39.698Z</time></trkpt><trkpt lat="43.2998921" lon="12.2545963"><ele>305.4</ele><time>2026-04-30T10:58:40.698Z</time></trkpt><trkpt lat="43.2999622" lon="12.2546744"><ele>303.79999999999995</ele><time>2026-04-30T10:58:41.698Z</time></trkpt><trkpt lat="43.3000401" lon="12.2547276"><ele>302.2</ele><time>2026-04-30T10:58:42.697Z</time></trkpt><trkpt lat="43.3001098" lon="12.2547482"><ele>300.59999999999997</ele><time>2026-04-30T10:58:43.697Z</time></trkpt><trkpt lat="43.3001731" lon="12.2547297"><ele>299.0</ele><time>2026-04-30T10:58:44.698Z</time></trkpt><trkpt lat="43.3002509" lon="12.2545708"><ele>299.0</ele><time>2026-04-30T10:58:46.698Z</time></trkpt><trkpt lat="43.300258" lon="12.2544441"><ele>299.0</ele><time>2026-04-30T10:58:47.698Z</time></trkpt><trkpt lat="43.3002499" lon="12.2542888"><ele>299.0</ele><time>2026-04-30T10:58:48.697Z</time></trkpt><trkpt lat="43.3002495" lon="12.2541332"><ele>299.0</ele><time>2026-04-30T10:58:49.698Z</time></trkpt><trkpt lat="43.3002424" lon="12.2538861"><ele>297.25</ele><time>2026-04-30T10:58:50.698Z</time></trkpt><trkpt lat="43.3002415" lon="12.2536905"><ele>295.5</ele><time>2026-04-30T10:58:51.696Z</time></trkpt><trkpt lat="43.30024" lon="12.2534846"><ele>293.75</ele><time>2026-04-30T10:58:52.697Z</time></trkpt><trkpt lat="43.3002503" lon="12.2533108"><ele>292.0</ele><time>2026-04-30T10:58:53.698Z</time></trkpt><trkpt lat="43.3002606" lon="12.2531386"><ele>290.25</ele><time>2026-04-30T10:58:54.697Z</time></trkpt><trkpt lat="43.3002856" lon="12.2529716"><ele>288.5</ele><time>2026-04-30T10:58:55.697Z</time></trkpt><trkpt lat="43.3003136" lon="12.2528055"><ele>286.75</ele><time>2026-04-30T10:58:56.697Z</time></trkpt><trkpt lat="43.300381" lon="12.2525776"><ele>285.0</ele><time>2026-04-30T10:58:57.698Z</time></trkpt><trkpt lat="43.300455" lon="12.2524009"><ele>283.6</ele><time>2026-04-30T10:58:58.697Z</time></trkpt><trkpt lat="43.3005269" lon="12.2522441"><ele>282.2</ele><time>2026-04-30T10:58:59.698Z</time></trkpt><trkpt lat="43.3005869" lon="12.2521212"><ele>280.8</ele><time>2026-04-30T10:59:00.698Z</time></trkpt><trkpt lat="43.3006466" lon="12.2520367"><ele>279.4</ele><time>2026-04-30T10:59:01.697Z</time></trkpt><trkpt lat="43.3007106" lon="12.2520353"><ele>278.0</ele><time>2026-04-30T10:59:02.698Z</time></trkpt><trkpt lat="43.3007933" lon="12.2520097"><ele>278.0</ele><time>2026-04-30T10:59:03.697Z</time></trkpt><trkpt lat="43.3008834" lon="12.2519584"><ele>278.0</ele><time>2026-04-30T10:59:04.697Z</time></trkpt><trkpt lat="43.3010125" lon="12.2519145"><ele>278.0</ele><time>2026-04-30T10:59:05.698Z</time></trkpt><trkpt lat="43.3011286" lon="12.2518733"><ele>278.0</ele><time>2026-04-30T10:59:06.698Z</time></trkpt><trkpt lat="43.301242" lon="12.2518451"><ele>278.0</ele><time>2026-04-30T10:59:07.697Z</time></trkpt><trkpt lat="43.3013409" lon="12.2518133"><ele>278.0</ele><time>2026-04-30T10:59:08.697Z</time></trkpt><trkpt lat="43.3014269" lon="12.2517772"><ele>278.0</ele><time>2026-04-30T10:59:09.698Z</time></trkpt><trkpt lat="43.3014801" lon="12.251709"><ele>278.0</ele><time>2026-04-30T10:59:10.698Z</time></trkpt><trkpt lat="43.3015276" lon="12.2515739"><ele>278.0</ele><time>2026-04-30T10:59:12.698Z</time></trkpt><trkpt lat="43.301543" lon="12.2514532"><ele>277.2</ele><time>2026-04-30T10:59:14.698Z</time></trkpt><trkpt lat="43.301544" lon="12.2513514"><ele>276.4</ele><time>2026-04-30T10:59:16.698Z</time></trkpt><trkpt lat="43.3015027" lon="12.2511672"><ele>275.59999999999997</ele><time>2026-04-30T10:59:18.697Z</time></trkpt><trkpt lat="43.3014732" lon="12.251023"><ele>274.8</ele><time>2026-04-30T10:59:19.698Z</time></trkpt><trkpt lat="43.3014464" lon="12.2508848"><ele>274.0</ele><time>2026-04-30T10:59:20.697Z</time></trkpt><trkpt lat="43.3014347" lon="12.2507511"><ele>273.0</ele><time>2026-04-30T10:59:21.698Z</time></trkpt><trkpt lat="43.3014495" lon="12.2506193"><ele>272.0</ele><time>2026-04-30T10:59:22.697Z</time></trkpt><trkpt lat="43.3014885" lon="12.2504814"><ele>271.0</ele><time>2026-04-30T10:59:23.698Z</time></trkpt><trkpt lat="43.301569" lon="12.2503508"><ele>270.0</ele><time>2026-04-30T10:59:24.698Z</time></trkpt><trkpt lat="43.3016507" lon="12.2502234"><ele>270.0</ele><time>2026-04-30T10:59:25.698Z</time></trkpt><trkpt lat="43.301824" lon="12.2500552"><ele>270.0</ele><time>2026-04-30T10:59:26.697Z</time></trkpt><trkpt lat="43.3019907" lon="12.2498827"><ele>270.0</ele><time>2026-04-30T10:59:27.698Z</time></trkpt><trkpt lat="43.3021611" lon="12.2497256"><ele>269.3333333333333</ele><time>2026-04-30T10:59:28.697Z</time></trkpt><trkpt lat="43.3023339" lon="12.2495552"><ele>268.66666666666663</ele><time>2026-04-30T10:59:29.696Z</time></trkpt><trkpt lat="43.3024915" lon="12.2494074"><ele>268.0</ele><time>2026-04-30T10:59:30.698Z</time></trkpt><trkpt lat="43.3026373" lon="12.2492613"><ele>268.0</ele><time>2026-04-30T10:59:31.698Z</time></trkpt><trkpt lat="43.3027572" lon="12.2491375"><ele>268.0</ele><time>2026-04-30T10:59:32.699Z</time></trkpt><trkpt lat="43.3028673" lon="12.2490246"><ele>268.0</ele><time>2026-04-30T10:59:33.695Z</time></trkpt><trkpt lat="43.3029715" lon="12.2489377"><ele>268.0</ele><time>2026-04-30T10:59:34.696Z</time></trkpt><trkpt lat="43.3030743" lon="12.2488696"><ele>268.0</ele><time>2026-04-30T10:59:35.698Z</time></trkpt><trkpt lat="43.3031945" lon="12.2488322"><ele>268.0</ele><time>2026-04-30T10:59:36.697Z</time></trkpt><trkpt lat="43.3032973" lon="12.2488237"><ele>268.0</ele><time>2026-04-30T10:59:37.697Z</time></trkpt><trkpt lat="43.3034055" lon="12.248853"><ele>268.0</ele><time>2026-04-30T10:59:38.697Z</time></trkpt><trkpt lat="43.3035106" lon="12.2488764"><ele>268.0</ele><time>2026-04-30T10:59:39.697Z</time></trkpt><trkpt lat="43.303607" lon="12.2488819"><ele>268.0</ele><time>2026-04-30T10:59:40.697Z</time></trkpt><trkpt lat="43.3037024" lon="12.2488692"><ele>268.0</ele><time>2026-04-30T10:59:41.698Z</time></trkpt><trkpt lat="43.3037971" lon="12.2488398"><ele>268.0</ele><time>2026-04-30T10:59:42.697Z</time></trkpt><trkpt lat="43.3038855" lon="12.2487626"><ele>268.0</ele><time>2026-04-30T10:59:43.698Z</time></trkpt><trkpt lat="43.3039857" lon="12.2486588"><ele>268.0</ele><time>2026-04-30T10:59:44.698Z</time></trkpt><trkpt lat="43.304112" lon="12.2485471"><ele>268.3333333333333</ele><time>2026-04-30T10:59:45.698Z</time></trkpt><trkpt lat="43.3042296" lon="12.2484159"><ele>268.6666666666667</ele><time>2026-04-30T10:59:46.696Z</time></trkpt><trkpt lat="43.3044017" lon="12.2482251"><ele>269.0</ele><time>2026-04-30T10:59:47.699Z</time></trkpt><trkpt lat="43.3045752" lon="12.2480202"><ele>269.0</ele><time>2026-04-30T10:59:48.697Z</time></trkpt><trkpt lat="43.304766" lon="12.2478458"><ele>269.0</ele><time>2026-04-30T10:59:49.697Z</time></trkpt><trkpt lat="43.3049761" lon="12.247645"><ele>269.0</ele><time>2026-04-30T10:59:50.698Z</time></trkpt><trkpt lat="43.3051647" lon="12.2474667"><ele>269.0</ele><time>2026-04-30T10:59:51.697Z</time></trkpt><trkpt lat="43.3053269" lon="12.2472906"><ele>269.0</ele><time>2026-04-30T10:59:52.697Z</time></trkpt><trkpt lat="43.3054922" lon="12.2471408"><ele>269.6666666666667</ele><time>2026-04-30T10:59:53.698Z</time></trkpt><trkpt lat="43.3056382" lon="12.2469978"><ele>270.3333333333333</ele><time>2026-04-30T10:59:54.698Z</time></trkpt><trkpt lat="43.305778" lon="12.2468682"><ele>271.0</ele><time>2026-04-30T10:59:55.696Z</time></trkpt><trkpt lat="43.3059057" lon="12.2467577"><ele>271.0</ele><time>2026-04-30T10:59:56.698Z</time></trkpt><trkpt lat="43.3060215" lon="12.2466551"><ele>271.0</ele><time>2026-04-30T10:59:57.697Z</time></trkpt><trkpt lat="43.306133" lon="12.246572"><ele>271.0</ele><time>2026-04-30T10:59:58.696Z</time></trkpt><trkpt lat="43.3062332" lon="12.2465107"><ele>271.0</ele><time>2026-04-30T10:59:59.698Z</time></trkpt><trkpt lat="43.306318" lon="12.246492"><ele>271.0</ele><time>2026-04-30T11:00:00.698Z</time></trkpt><trkpt lat="43.3063883" lon="12.2464945"><ele>271.0</ele><time>2026-04-30T11:00:01.697Z</time></trkpt><trkpt lat="43.3065063" lon="12.246534"><ele>271.0</ele><time>2026-04-30T11:00:03.698Z</time></trkpt><trkpt lat="43.3065669" lon="12.2465897"><ele>271.0</ele><time>2026-04-30T11:00:04.697Z</time></trkpt><trkpt lat="43.3066196" lon="12.2466684"><ele>271.0</ele><time>2026-04-30T11:00:05.697Z</time></trkpt><trkpt lat="43.3066891" lon="12.2467825"><ele>271.0</ele><time>2026-04-30T11:00:06.698Z</time></trkpt><trkpt lat="43.306767" lon="12.2469285"><ele>271.0</ele><time>2026-04-30T11:00:07.697Z</time></trkpt><trkpt lat="43.3068461" lon="12.2470828"><ele>271.0</ele><time>2026-04-30T11:00:08.697Z</time></trkpt><trkpt lat="43.3069433" lon="12.247269"><ele>271.0</ele><time>2026-04-30T11:00:09.697Z</time></trkpt><trkpt lat="43.3070511" lon="12.2474661"><ele>271.0</ele><time>2026-04-30T11:00:10.698Z</time></trkpt><trkpt lat="43.3071739" lon="12.2476566"><ele>271.0</ele><time>2026-04-30T11:00:11.697Z</time></trkpt><trkpt lat="43.3073157" lon="12.2478347"><ele>271.0</ele><time>2026-04-30T11:00:12.696Z</time></trkpt><trkpt lat="43.3074887" lon="12.2479856"><ele>271.0</ele><time>2026-04-30T11:00:13.696Z</time></trkpt><trkpt lat="43.3076756" lon="12.2481251"><ele>271.0</ele><time>2026-04-30T11:00:14.698Z</time></trkpt><trkpt lat="43.3078738" lon="12.2482576"><ele>271.0</ele><time>2026-04-30T11:00:15.697Z</time></trkpt><trkpt lat="43.3080766" lon="12.2483946"><ele>273.0</ele><time>2026-04-30T11:00:16.697Z</time></trkpt><trkpt lat="43.3082808" lon="12.248535"><ele>275.0</ele><time>2026-04-30T11:00:17.696Z</time></trkpt><trkpt lat="43.3084954" lon="12.2486823"><ele>275.0</ele><time>2026-04-30T11:00:18.697Z</time></trkpt><trkpt lat="43.3087069" lon="12.2488266"><ele>275.0</ele><time>2026-04-30T11:00:19.698Z</time></trkpt><trkpt lat="43.308909" lon="12.24899"><ele>274.6666666666667</ele><time>2026-04-30T11:00:20.697Z</time></trkpt><trkpt lat="43.3090923" lon="12.2491741"><ele>274.3333333333333</ele><time>2026-04-30T11:00:21.698Z</time></trkpt><trkpt lat="43.3092561" lon="12.2493728"><ele>274.0</ele><time>2026-04-30T11:00:22.697Z</time></trkpt><trkpt lat="43.3094058" lon="12.2495751"><ele>273.66666666666663</ele><time>2026-04-30T11:00:23.698Z</time></trkpt><trkpt lat="43.3095478" lon="12.2497944"><ele>273.3333333333333</ele><time>2026-04-30T11:00:24.698Z</time></trkpt><trkpt lat="43.3096848" lon="12.2500199"><ele>273.0</ele><time>2026-04-30T11:00:25.698Z</time></trkpt><trkpt lat="43.3098204" lon="12.2502484"><ele>273.0</ele><time>2026-04-30T11:00:26.697Z</time></trkpt><trkpt lat="43.3099457" lon="12.2504688"><ele>273.0</ele><time>2026-04-30T11:00:27.697Z</time></trkpt><trkpt lat="43.310065" lon="12.2506895"><ele>273.0</ele><time>2026-04-30T11:00:28.697Z</time></trkpt><trkpt lat="43.3101847" lon="12.2509123"><ele>273.3333333333333</ele><time>2026-04-30T11:00:29.697Z</time></trkpt><trkpt lat="43.3103075" lon="12.2511354"><ele>273.66666666666663</ele><time>2026-04-30T11:00:30.697Z</time></trkpt><trkpt lat="43.310439" lon="12.2513571"><ele>274.0</ele><time>2026-04-30T11:00:31.698Z</time></trkpt><trkpt lat="43.3105645" lon="12.2515644"><ele>274.66666666666663</ele><time>2026-04-30T11:00:32.697Z</time></trkpt><trkpt lat="43.3106948" lon="12.2517837"><ele>275.3333333333333</ele><time>2026-04-30T11:00:33.697Z</time></trkpt><trkpt lat="43.3108332" lon="12.2519991"><ele>276.0</ele><time>2026-04-30T11:00:34.697Z</time></trkpt><trkpt lat="43.3109671" lon="12.2522232"><ele>274.0</ele><time>2026-04-30T11:00:35.697Z</time></trkpt><trkpt lat="43.3110974" lon="12.2524487"><ele>272.0</ele><time>2026-04-30T11:00:36.696Z</time></trkpt><trkpt lat="43.3112187" lon="12.2526896"><ele>270.0</ele><time>2026-04-30T11:00:37.697Z</time></trkpt><trkpt lat="43.3113158" lon="12.2529579"><ele>270.3333333333333</ele><time>2026-04-30T11:00:38.697Z</time></trkpt><trkpt lat="43.3114039" lon="12.2532443"><ele>270.66666666666663</ele><time>2026-04-30T11:00:39.696Z</time></trkpt><trkpt lat="43.31147" lon="12.2535341"><ele>271.0</ele><time>2026-04-30T11:00:40.696Z</time></trkpt><trkpt lat="43.3115351" lon="12.253831"><ele>270.0</ele><time>2026-04-30T11:00:41.697Z</time></trkpt><trkpt lat="43.3115988" lon="12.2541249"><ele>269.0</ele><time>2026-04-30T11:00:42.697Z</time></trkpt><trkpt lat="43.3116679" lon="12.2544436"><ele>269.0</ele><time>2026-04-30T11:00:43.698Z</time></trkpt><trkpt lat="43.3117377" lon="12.25475"><ele>269.0</ele><time>2026-04-30T11:00:44.697Z</time></trkpt><trkpt lat="43.3117975" lon="12.2550497"><ele>269.0</ele><time>2026-04-30T11:00:45.697Z</time></trkpt><trkpt lat="43.3118423" lon="12.255329"><ele>269.0</ele><time>2026-04-30T11:00:46.697Z</time></trkpt><trkpt lat="43.3118794" lon="12.2556073"><ele>269.0</ele><time>2026-04-30T11:00:47.696Z</time></trkpt><trkpt lat="43.3119229" lon="12.2558718"><ele>269.0</ele><time>2026-04-30T11:00:48.696Z</time></trkpt><trkpt lat="43.3119737" lon="12.2561032"><ele>269.0</ele><time>2026-04-30T11:00:49.698Z</time></trkpt><trkpt lat="43.3120497" lon="12.2563426"><ele>269.0</ele><time>2026-04-30T11:00:50.697Z</time></trkpt><trkpt lat="43.3121624" lon="12.25657"><ele>270.6666666666667</ele><time>2026-04-30T11:00:51.698Z</time></trkpt><trkpt lat="43.3122965" lon="12.2567631"><ele>272.3333333333333</ele><time>2026-04-30T11:00:52.698Z</time></trkpt><trkpt lat="43.3124348" lon="12.2569598"><ele>274.0</ele><time>2026-04-30T11:00:53.698Z</time></trkpt><trkpt lat="43.3125725" lon="12.2571728"><ele>272.66666666666663</ele><time>2026-04-30T11:00:54.697Z</time></trkpt><trkpt lat="43.3127" lon="12.2574009"><ele>271.3333333333333</ele><time>2026-04-30T11:00:55.697Z</time></trkpt><trkpt lat="43.3128075" lon="12.2576198"><ele>270.0</ele><time>2026-04-30T11:00:56.697Z</time></trkpt><trkpt lat="43.3128977" lon="12.2578401"><ele>270.0</ele><time>2026-04-30T11:00:57.697Z</time></trkpt><trkpt lat="43.3129623" lon="12.2580825"><ele>270.0</ele><time>2026-04-30T11:00:58.697Z</time></trkpt><trkpt lat="43.3130068" lon="12.2583321"><ele>270.0</ele><time>2026-04-30T11:00:59.697Z</time></trkpt><trkpt lat="43.3130173" lon="12.2585912"><ele>270.6666666666667</ele><time>2026-04-30T11:01:00.698Z</time></trkpt><trkpt lat="43.3130439" lon="12.2588289"><ele>271.33333333333337</ele><time>2026-04-30T11:01:01.697Z</time></trkpt><trkpt lat="43.3131004" lon="12.2590818"><ele>272.0</ele><time>2026-04-30T11:01:02.697Z</time></trkpt><trkpt lat="43.3131809" lon="12.2593273"><ele>272.0</ele><time>2026-04-30T11:01:03.698Z</time></trkpt><trkpt lat="43.3132851" lon="12.2595397"><ele>272.0</ele><time>2026-04-30T11:01:04.696Z</time></trkpt><trkpt lat="43.3133969" lon="12.2597325"><ele>272.0</ele><time>2026-04-30T11:01:05.696Z</time></trkpt><trkpt lat="43.3135087" lon="12.2599122"><ele>271.6666666666667</ele><time>2026-04-30T11:01:06.697Z</time></trkpt><trkpt lat="43.3136367" lon="12.2600763"><ele>271.3333333333333</ele><time>2026-04-30T11:01:07.697Z</time></trkpt><trkpt lat="43.3137855" lon="12.2602137"><ele>271.0</ele><time>2026-04-30T11:01:08.696Z</time></trkpt><trkpt lat="43.3139444" lon="12.2603271"><ele>271.0</ele><time>2026-04-30T11:01:09.697Z</time></trkpt><trkpt lat="43.3141128" lon="12.2603897"><ele>271.0</ele><time>2026-04-30T11:01:10.697Z</time></trkpt><trkpt lat="43.3142928" lon="12.2604625"><ele>271.0</ele><time>2026-04-30T11:01:11.698Z</time></trkpt><trkpt lat="43.3144611" lon="12.2605926"><ele>270.66666666666663</ele><time>2026-04-30T11:01:12.698Z</time></trkpt><trkpt lat="43.3146078" lon="12.2608118"><ele>270.3333333333333</ele><time>2026-04-30T11:01:13.697Z</time></trkpt><trkpt lat="43.3147346" lon="12.2610199"><ele>270.0</ele><time>2026-04-30T11:01:14.697Z</time></trkpt><trkpt lat="43.3148423" lon="12.2612257"><ele>268.3333333333333</ele><time>2026-04-30T11:01:15.697Z</time></trkpt><trkpt lat="43.3149357" lon="12.2614635"><ele>266.66666666666663</ele><time>2026-04-30T11:01:16.698Z</time></trkpt><trkpt lat="43.3150377" lon="12.2616999"><ele>265.0</ele><time>2026-04-30T11:01:17.698Z</time></trkpt><trkpt lat="43.3151405" lon="12.2619141"><ele>265.0</ele><time>2026-04-30T11:01:18.697Z</time></trkpt><trkpt lat="43.3152343" lon="12.2621253"><ele>265.0</ele><time>2026-04-30T11:01:19.698Z</time></trkpt><trkpt lat="43.3153156" lon="12.262321"><ele>265.0</ele><time>2026-04-30T11:01:20.697Z</time></trkpt><trkpt lat="43.3153987" lon="12.2625145"><ele>264.0</ele><time>2026-04-30T11:01:21.696Z</time></trkpt><trkpt lat="43.3154718" lon="12.2627022"><ele>263.0</ele><time>2026-04-30T11:01:22.698Z</time></trkpt><trkpt lat="43.3155303" lon="12.2628853"><ele>262.0</ele><time>2026-04-30T11:01:23.698Z</time></trkpt><trkpt lat="43.3155765" lon="12.2630929"><ele>263.66666666666663</ele><time>2026-04-30T11:01:24.698Z</time></trkpt><trkpt lat="43.3156075" lon="12.2633053"><ele>265.3333333333333</ele><time>2026-04-30T11:01:25.698Z</time></trkpt><trkpt lat="43.315644" lon="12.2635222"><ele>267.0</ele><time>2026-04-30T11:01:26.698Z</time></trkpt><trkpt lat="43.3156805" lon="12.2637488"><ele>265.6666666666667</ele><time>2026-04-30T11:01:27.697Z</time></trkpt><trkpt lat="43.3157067" lon="12.2639888"><ele>264.33333333333337</ele><time>2026-04-30T11:01:28.699Z</time></trkpt><trkpt lat="43.3157385" lon="12.2642564"><ele>263.0</ele><time>2026-04-30T11:01:29.698Z</time></trkpt><trkpt lat="43.3157662" lon="12.2645129"><ele>263.0</ele><time>2026-04-30T11:01:30.698Z</time></trkpt><trkpt lat="43.3158062" lon="12.264759"><ele>263.0</ele><time>2026-04-30T11:01:31.697Z</time></trkpt><trkpt lat="43.3158637" lon="12.2649973"><ele>263.0</ele><time>2026-04-30T11:01:32.697Z</time></trkpt><trkpt lat="43.3159463" lon="12.2652364"><ele>263.0</ele><time>2026-04-30T11:01:33.698Z</time></trkpt><trkpt lat="43.3160339" lon="12.2654709"><ele>263.0</ele><time>2026-04-30T11:01:34.697Z</time></trkpt><trkpt lat="43.3161392" lon="12.2656962"><ele>263.0</ele><time>2026-04-30T11:01:35.697Z</time></trkpt><trkpt lat="43.3162387" lon="12.265923"><ele>263.0</ele><time>2026-04-30T11:01:36.698Z</time></trkpt><trkpt lat="43.3163513" lon="12.2661488"><ele>263.0</ele><time>2026-04-30T11:01:37.697Z</time></trkpt><trkpt lat="43.316458" lon="12.2663666"><ele>263.0</ele><time>2026-04-30T11:01:38.697Z</time></trkpt><trkpt lat="43.3165744" lon="12.2665997"><ele>264.0</ele><time>2026-04-30T11:01:39.697Z</time></trkpt><trkpt lat="43.3166692" lon="12.2668124"><ele>265.0</ele><time>2026-04-30T11:01:40.696Z</time></trkpt><trkpt lat="43.3167643" lon="12.2670245"><ele>266.0</ele><time>2026-04-30T11:01:41.697Z</time></trkpt><trkpt lat="43.3168376" lon="12.2672004"><ele>266.2</ele><time>2026-04-30T11:01:42.697Z</time></trkpt><trkpt lat="43.3168968" lon="12.2673296"><ele>266.40000000000003</ele><time>2026-04-30T11:01:43.698Z</time></trkpt><trkpt lat="43.3169404" lon="12.2674469"><ele>266.6</ele><time>2026-04-30T11:01:44.697Z</time></trkpt><trkpt lat="43.3169856" lon="12.2675459"><ele>266.8</ele><time>2026-04-30T11:01:46.697Z</time></trkpt><trkpt lat="43.3170525" lon="12.2675027"><ele>267.0</ele><time>2026-04-30T11:01:49.699Z</time></trkpt><trkpt lat="43.3171203" lon="12.2674322"><ele>267.0</ele><time>2026-04-30T11:01:51.698Z</time></trkpt><trkpt lat="43.3171745" lon="12.2673833"><ele>267.0</ele><time>2026-04-30T11:01:52.699Z</time></trkpt><trkpt lat="43.3172862" lon="12.2672797"><ele>267.0</ele><time>2026-04-30T11:01:54.698Z</time></trkpt><trkpt lat="43.3173451" lon="12.2672375"><ele>267.0</ele><time>2026-04-30T11:01:55.697Z</time></trkpt><trkpt lat="43.3174499" lon="12.2671859"><ele>267.0</ele><time>2026-04-30T11:01:57.696Z</time></trkpt><trkpt lat="43.3175103" lon="12.2672103"><ele>267.0</ele><time>2026-04-30T11:01:58.698Z</time></trkpt><trkpt lat="43.3175758" lon="12.2672224"><ele>267.8</ele><time>2026-04-30T11:01:59.696Z</time></trkpt><trkpt lat="43.3176668" lon="12.2672521"><ele>268.6</ele><time>2026-04-30T11:02:00.697Z</time></trkpt><trkpt lat="43.3177583" lon="12.2672875"><ele>269.40000000000003</ele><time>2026-04-30T11:02:01.698Z</time></trkpt><trkpt lat="43.3178512" lon="12.2673439"><ele>270.2</ele><time>2026-04-30T11:02:02.697Z</time></trkpt><trkpt lat="43.3179276" lon="12.2674316"><ele>271.0</ele><time>2026-04-30T11:02:03.696Z</time></trkpt><trkpt lat="43.3179909" lon="12.2675295"><ele>271.0</ele><time>2026-04-30T11:02:04.697Z</time></trkpt><trkpt lat="43.3180391" lon="12.2676116"><ele>271.0</ele><time>2026-04-30T11:02:05.697Z</time></trkpt><trkpt lat="43.3181002" lon="12.2676615"><ele>271.0</ele><time>2026-04-30T11:02:06.697Z</time></trkpt><trkpt lat="43.3181622" lon="12.2676996"><ele>271.0</ele><time>2026-04-30T11:02:07.697Z</time></trkpt><trkpt lat="43.3182208" lon="12.2676052"><ele>271.0</ele><time>2026-04-30T11:02:08.698Z</time></trkpt><trkpt lat="43.3182845" lon="12.2675756"><ele>271.0</ele><time>2026-04-30T11:02:09.697Z</time></trkpt><trkpt lat="43.318355" lon="12.2675059"><ele>274.0</ele><time>2026-04-30T11:02:10.699Z</time></trkpt><trkpt lat="43.3185258" lon="12.2673638"><ele>277.0</ele><time>2026-04-30T11:02:11.698Z</time></trkpt><trkpt lat="43.3186525" lon="12.2672844"><ele>280.0</ele><time>2026-04-30T11:02:12.697Z</time></trkpt><trkpt lat="43.3187658" lon="12.2672059"><ele>280.0</ele><time>2026-04-30T11:02:13.696Z</time></trkpt><trkpt lat="43.3188877" lon="12.2671196"><ele>280.0</ele><time>2026-04-30T11:02:14.697Z</time></trkpt><trkpt lat="43.3189953" lon="12.2670439"><ele>280.0</ele><time>2026-04-30T11:02:15.697Z</time></trkpt><trkpt lat="43.3190859" lon="12.2669852"><ele>280.0</ele><time>2026-04-30T11:02:16.697Z</time></trkpt><trkpt lat="43.3191872" lon="12.2669432"><ele>283.25</ele><time>2026-04-30T11:02:17.697Z</time></trkpt><trkpt lat="43.319297" lon="12.2668755"><ele>286.5</ele><time>2026-04-30T11:02:18.697Z</time></trkpt><trkpt lat="43.3194264" lon="12.2667966"><ele>289.75</ele><time>2026-04-30T11:02:19.697Z</time></trkpt><trkpt lat="43.3195592" lon="12.2666962"><ele>293.0</ele><time>2026-04-30T11:02:20.697Z</time></trkpt><trkpt lat="43.319685" lon="12.2666062"><ele>295.75</ele><time>2026-04-30T11:02:21.697Z</time></trkpt><trkpt lat="43.3197957" lon="12.2665176"><ele>298.5</ele><time>2026-04-30T11:02:22.697Z</time></trkpt><trkpt lat="43.3199082" lon="12.2664412"><ele>301.25</ele><time>2026-04-30T11:02:23.697Z</time></trkpt><trkpt lat="43.3200139" lon="12.2663565"><ele>304.0</ele><time>2026-04-30T11:02:24.697Z</time></trkpt><trkpt lat="43.3201247" lon="12.2662851"><ele>304.0</ele><time>2026-04-30T11:02:25.697Z</time></trkpt><trkpt lat="43.3202241" lon="12.266206"><ele>304.0</ele><time>2026-04-30T11:02:26.696Z</time></trkpt><trkpt lat="43.3203122" lon="12.2661204"><ele>304.0</ele><time>2026-04-30T11:02:27.697Z</time></trkpt><trkpt lat="43.3203995" lon="12.2660269"><ele>304.0</ele><time>2026-04-30T11:02:28.696Z</time></trkpt><trkpt lat="43.3205089" lon="12.2659503"><ele>306.16666666666663</ele><time>2026-04-30T11:02:29.698Z</time></trkpt><trkpt lat="43.3206082" lon="12.2658933"><ele>308.3333333333333</ele><time>2026-04-30T11:02:30.697Z</time></trkpt><trkpt lat="43.3206864" lon="12.2658291"><ele>310.5</ele><time>2026-04-30T11:02:31.698Z</time></trkpt><trkpt lat="43.3207656" lon="12.2657783"><ele>312.6666666666667</ele><time>2026-04-30T11:02:32.697Z</time></trkpt><trkpt lat="43.3208339" lon="12.2658045"><ele>314.83333333333337</ele><time>2026-04-30T11:02:33.698Z</time></trkpt><trkpt lat="43.320923" lon="12.2658197"><ele>317.0</ele><time>2026-04-30T11:02:34.698Z</time></trkpt><trkpt lat="43.3210172" lon="12.2658471"><ele>317.0</ele><time>2026-04-30T11:02:35.697Z</time></trkpt><trkpt lat="43.3211257" lon="12.2658724"><ele>317.0</ele><time>2026-04-30T11:02:36.698Z</time></trkpt><trkpt lat="43.321249" lon="12.2658955"><ele>317.0</ele><time>2026-04-30T11:02:37.698Z</time></trkpt><trkpt lat="43.321369" lon="12.2659194"><ele>317.0</ele><time>2026-04-30T11:02:38.698Z</time></trkpt><trkpt lat="43.3214911" lon="12.2659161"><ele>318.6</ele><time>2026-04-30T11:02:39.698Z</time></trkpt><trkpt lat="43.3216023" lon="12.2658969"><ele>320.2</ele><time>2026-04-30T11:02:40.697Z</time></trkpt><trkpt lat="43.3216867" lon="12.2658793"><ele>321.8</ele><time>2026-04-30T11:02:41.697Z</time></trkpt><trkpt lat="43.3217999" lon="12.2658399"><ele>323.4</ele><time>2026-04-30T11:02:43.697Z</time></trkpt><trkpt lat="43.3218636" lon="12.2657528"><ele>325.0</ele><time>2026-04-30T11:02:46.699Z</time></trkpt><trkpt lat="43.3219402" lon="12.2656712"><ele>324.6</ele><time>2026-04-30T11:02:48.698Z</time></trkpt><trkpt lat="43.322021" lon="12.2656094"><ele>324.2</ele><time>2026-04-30T11:02:50.697Z</time></trkpt><trkpt lat="43.3221102" lon="12.2655181"><ele>323.79999999999995</ele><time>2026-04-30T11:02:52.696Z</time></trkpt><trkpt lat="43.3221754" lon="12.2654225"><ele>323.4</ele><time>2026-04-30T11:02:53.697Z</time></trkpt><trkpt lat="43.3222512" lon="12.2653215"><ele>323.0</ele><time>2026-04-30T11:02:54.696Z</time></trkpt><trkpt lat="43.3223184" lon="12.2652125"><ele>325.83333333333337</ele><time>2026-04-30T11:02:55.697Z</time></trkpt><trkpt lat="43.3223773" lon="12.2651235"><ele>328.6666666666667</ele><time>2026-04-30T11:02:56.697Z</time></trkpt><trkpt lat="43.3224378" lon="12.2650469"><ele>331.5</ele><time>2026-04-30T11:02:57.696Z</time></trkpt><trkpt lat="43.3225199" lon="12.2650604"><ele>334.3333333333333</ele><time>2026-04-30T11:02:59.696Z</time></trkpt><trkpt lat="43.3225219" lon="12.2651733"><ele>337.16666666666663</ele><time>2026-04-30T11:03:00.697Z</time></trkpt><trkpt lat="43.3225354" lon="12.2653264"><ele>340.0</ele><time>2026-04-30T11:03:02.698Z</time></trkpt><trkpt lat="43.3226002" lon="12.2654254"><ele>340.0</ele><time>2026-04-30T11:03:04.698Z</time></trkpt><trkpt lat="43.3226956" lon="12.2654075"><ele>340.0</ele><time>2026-04-30T11:03:06.696Z</time></trkpt><trkpt lat="43.3228288" lon="12.2652892"><ele>340.0</ele><time>2026-04-30T11:03:08.697Z</time></trkpt><trkpt lat="43.3229318" lon="12.2651777"><ele>340.0</ele><time>2026-04-30T11:03:09.698Z</time></trkpt><trkpt lat="43.3230134" lon="12.2651065"><ele>342.8</ele><time>2026-04-30T11:03:10.697Z</time></trkpt><trkpt lat="43.3231068" lon="12.2650591"><ele>345.6</ele><time>2026-04-30T11:03:11.698Z</time></trkpt><trkpt lat="43.3232033" lon="12.2650031"><ele>348.4</ele><time>2026-04-30T11:03:12.698Z</time></trkpt><trkpt lat="43.3232905" lon="12.2649822"><ele>351.2</ele><time>2026-04-30T11:03:13.698Z</time></trkpt><trkpt lat="43.3233732" lon="12.2649681"><ele>354.0</ele><time>2026-04-30T11:03:14.697Z</time></trkpt><trkpt lat="43.3234455" lon="12.2649295"><ele>354.0</ele><time>2026-04-30T11:03:15.698Z</time></trkpt><trkpt lat="43.3235382" lon="12.2648756"><ele>354.0</ele><time>2026-04-30T11:03:16.698Z</time></trkpt><trkpt lat="43.3236276" lon="12.2648319"><ele>354.0</ele><time>2026-04-30T11:03:17.697Z</time></trkpt><trkpt lat="43.323732" lon="12.2647927"><ele>354.0</ele><time>2026-04-30T11:03:18.697Z</time></trkpt><trkpt lat="43.3238231" lon="12.2647529"><ele>354.0</ele><time>2026-04-30T11:03:19.698Z</time></trkpt><trkpt lat="43.3239487" lon="12.2647278"><ele>359.0</ele><time>2026-04-30T11:03:20.698Z</time></trkpt><trkpt lat="43.3240515" lon="12.2646969"><ele>364.0</ele><time>2026-04-30T11:03:21.698Z</time></trkpt><trkpt lat="43.3241897" lon="12.2646684"><ele>369.0</ele><time>2026-04-30T11:03:22.698Z</time></trkpt><trkpt lat="43.3243092" lon="12.2647547"><ele>374.0</ele><time>2026-04-30T11:03:23.697Z</time></trkpt><trkpt lat="43.3244274" lon="12.2647409"><ele>374.0</ele><time>2026-04-30T11:03:24.698Z</time></trkpt><trkpt lat="43.3245453" lon="12.264773"><ele>374.0</ele><time>2026-04-30T11:03:25.698Z</time></trkpt><trkpt lat="43.3246568" lon="12.2647946"><ele>374.0</ele><time>2026-04-30T11:03:26.698Z</time></trkpt><trkpt lat="43.3247298" lon="12.2648341"><ele>374.0</ele><time>2026-04-30T11:03:27.698Z</time></trkpt><trkpt lat="43.3247117" lon="12.2649476"><ele>374.0</ele><time>2026-04-30T11:03:28.698Z</time></trkpt><trkpt lat="43.3247199" lon="12.2650919"><ele>371.33333333333337</ele><time>2026-04-30T11:03:30.698Z</time></trkpt><trkpt lat="43.3246272" lon="12.2651851"><ele>368.6666666666667</ele><time>2026-04-30T11:03:32.698Z</time></trkpt><trkpt lat="43.3245448" lon="12.2652528"><ele>366.0</ele><time>2026-04-30T11:03:33.698Z</time></trkpt><trkpt lat="43.3244927" lon="12.2653291"><ele>363.3333333333333</ele><time>2026-04-30T11:03:34.697Z</time></trkpt><trkpt lat="43.3245122" lon="12.2654173"><ele>360.66666666666663</ele><time>2026-04-30T11:03:35.698Z</time></trkpt><trkpt lat="43.3245302" lon="12.2655025"><ele>358.0</ele><time>2026-04-30T11:03:36.697Z</time></trkpt><trkpt lat="43.32461" lon="12.2655544"><ele>358.0</ele><time>2026-04-30T11:03:38.698Z</time></trkpt><trkpt lat="43.3247277" lon="12.2655293"><ele>358.0</ele><time>2026-04-30T11:03:40.698Z</time></trkpt><trkpt lat="43.3248014" lon="12.2654788"><ele>358.0</ele><time>2026-04-30T11:03:41.698Z</time></trkpt><trkpt lat="43.324886" lon="12.2654044"><ele>358.0</ele><time>2026-04-30T11:03:42.698Z</time></trkpt><trkpt lat="43.3249528" lon="12.2654039"><ele>358.0</ele><time>2026-04-30T11:03:43.698Z</time></trkpt><trkpt lat="43.3250159" lon="12.2653964"><ele>358.0</ele><time>2026-04-30T11:03:44.698Z</time></trkpt><trkpt lat="43.3251184" lon="12.2655057"><ele>359.79999999999995</ele><time>2026-04-30T11:03:46.697Z</time></trkpt><trkpt lat="43.325178" lon="12.265583"><ele>361.6</ele><time>2026-04-30T11:03:47.697Z</time></trkpt><trkpt lat="43.3252314" lon="12.2656719"><ele>363.4</ele><time>2026-04-30T11:03:48.698Z</time></trkpt><trkpt lat="43.3252672" lon="12.2657796"><ele>365.20000000000005</ele><time>2026-04-30T11:03:49.697Z</time></trkpt><trkpt lat="43.3253448" lon="12.2658821"><ele>367.0</ele><time>2026-04-30T11:03:50.698Z</time></trkpt><trkpt lat="43.3253689" lon="12.2660108"><ele>367.5</ele><time>2026-04-30T11:03:51.698Z</time></trkpt><trkpt lat="43.3253924" lon="12.2661503"><ele>368.0</ele><time>2026-04-30T11:03:52.698Z</time></trkpt><trkpt lat="43.325437" lon="12.2662365"><ele>368.5</ele><time>2026-04-30T11:03:53.697Z</time></trkpt><trkpt lat="43.3254595" lon="12.2663366"><ele>369.0</ele><time>2026-04-30T11:03:54.697Z</time></trkpt><trkpt lat="43.3255016" lon="12.2664142"><ele>369.5</ele><time>2026-04-30T11:03:55.697Z</time></trkpt><trkpt lat="43.3255659" lon="12.2664794"><ele>370.0</ele><time>2026-04-30T11:03:56.698Z</time></trkpt><trkpt lat="43.3256451" lon="12.2665422"><ele>372.66666666666663</ele><time>2026-04-30T11:03:57.698Z</time></trkpt><trkpt lat="43.3257201" lon="12.2666088"><ele>375.3333333333333</ele><time>2026-04-30T11:03:58.697Z</time></trkpt><trkpt lat="43.3257924" lon="12.2666647"><ele>378.0</ele><time>2026-04-30T11:03:59.698Z</time></trkpt><trkpt lat="43.3258624" lon="12.26673"><ele>380.66666666666663</ele><time>2026-04-30T11:04:00.698Z</time></trkpt><trkpt lat="43.3259268" lon="12.2668181"><ele>383.3333333333333</ele><time>2026-04-30T11:04:01.698Z</time></trkpt><trkpt lat="43.3259736" lon="12.2668989"><ele>386.0</ele><time>2026-04-30T11:04:02.698Z</time></trkpt><trkpt lat="43.3260016" lon="12.2669868"><ele>386.0</ele><time>2026-04-30T11:04:03.698Z</time></trkpt><trkpt lat="43.3260225" lon="12.267073"><ele>386.0</ele><time>2026-04-30T11:04:04.698Z</time></trkpt><trkpt lat="43.3259413" lon="12.2672627"><ele>386.0</ele><time>2026-04-30T11:04:06.698Z</time></trkpt><trkpt lat="43.3258635" lon="12.2673625"><ele>386.0</ele><time>2026-04-30T11:04:07.698Z</time></trkpt><trkpt lat="43.3258029" lon="12.2674354"><ele>386.0</ele><time>2026-04-30T11:04:08.697Z</time></trkpt><trkpt lat="43.32576" lon="12.2675151"><ele>386.66666666666663</ele><time>2026-04-30T11:04:09.697Z</time></trkpt><trkpt lat="43.3257132" lon="12.2676005"><ele>387.3333333333333</ele><time>2026-04-30T11:04:10.698Z</time></trkpt><trkpt lat="43.3256776" lon="12.2677031"><ele>388.0</ele><time>2026-04-30T11:04:11.698Z</time></trkpt><trkpt lat="43.3256408" lon="12.2678097"><ele>388.66666666666663</ele><time>2026-04-30T11:04:12.697Z</time></trkpt><trkpt lat="43.3256223" lon="12.2679292"><ele>389.3333333333333</ele><time>2026-04-30T11:04:13.698Z</time></trkpt><trkpt lat="43.325626" lon="12.2680176"><ele>390.0</ele><time>2026-04-30T11:04:14.698Z</time></trkpt><trkpt lat="43.325718" lon="12.2681187"><ele>390.2</ele><time>2026-04-30T11:04:16.698Z</time></trkpt><trkpt lat="43.3258235" lon="12.2680263"><ele>390.4</ele><time>2026-04-30T11:04:18.698Z</time></trkpt><trkpt lat="43.3258826" lon="12.2679477"><ele>390.6</ele><time>2026-04-30T11:04:19.698Z</time></trkpt><trkpt lat="43.325939" lon="12.2678409"><ele>390.8</ele><time>2026-04-30T11:04:20.698Z</time></trkpt><trkpt lat="43.3260489" lon="12.2677269"><ele>391.0</ele><time>2026-04-30T11:04:21.91Z</time></trkpt><trkpt lat="43.3260964" lon="12.2675942"><ele>391.0</ele><time>2026-04-30T11:04:23.909Z</time></trkpt><trkpt lat="43.3262712" lon="12.267591"><ele>391.0</ele><time>2026-04-30T11:04:24.91Z</time></trkpt><trkpt lat="43.3263891" lon="12.2675873"><ele>391.0</ele><time>2026-04-30T11:04:25.909Z</time></trkpt><trkpt lat="43.3264767" lon="12.2676883"><ele>391.0</ele><time>2026-04-30T11:04:26.91Z</time></trkpt><trkpt lat="43.3265625" lon="12.2677889"><ele>394.0</ele><time>2026-04-30T11:04:27.91Z</time></trkpt><trkpt lat="43.3266693" lon="12.267873"><ele>397.0</ele><time>2026-04-30T11:04:28.91Z</time></trkpt><trkpt lat="43.3267331" lon="12.2680357"><ele>400.0</ele><time>2026-04-30T11:04:29.91Z</time></trkpt><trkpt lat="43.3267947" lon="12.2682044"><ele>403.0</ele><time>2026-04-30T11:04:30.909Z</time></trkpt><trkpt lat="43.326842" lon="12.2683834"><ele>403.0</ele><time>2026-04-30T11:04:31.91Z</time></trkpt><trkpt lat="43.3269786" lon="12.2685906"><ele>403.0</ele><time>2026-04-30T11:04:33.698Z</time></trkpt><trkpt lat="43.327053" lon="12.2686828"><ele>403.0</ele><time>2026-04-30T11:04:34.698Z</time></trkpt><trkpt lat="43.3271184" lon="12.268816"><ele>403.0</ele><time>2026-04-30T11:04:35.698Z</time></trkpt><trkpt lat="43.3271725" lon="12.2689707"><ele>403.00000000000006</ele><time>2026-04-30T11:04:36.698Z</time></trkpt><trkpt lat="43.3272176" lon="12.2690879"><ele>403.0</ele><time>2026-04-30T11:04:37.697Z</time></trkpt><trkpt lat="43.3272708" lon="12.2691823"><ele>403.0</ele><time>2026-04-30T11:04:38.698Z</time></trkpt><trkpt lat="43.3273315" lon="12.2692545"><ele>403.0</ele><time>2026-04-30T11:04:39.698Z</time></trkpt><trkpt lat="43.3274039" lon="12.2692909"><ele>403.00000000000006</ele><time>2026-04-30T11:04:40.697Z</time></trkpt><trkpt lat="43.327443" lon="12.2691926"><ele>403.0</ele><time>2026-04-30T11:04:41.698Z</time></trkpt><trkpt lat="43.3274489" lon="12.2689859"><ele>408.75</ele><time>2026-04-30T11:04:42.698Z</time></trkpt><trkpt lat="43.3274159" lon="12.2687301"><ele>414.5</ele><time>2026-04-30T11:04:43.697Z</time></trkpt><trkpt lat="43.3274276" lon="12.2685972"><ele>420.25</ele><time>2026-04-30T11:04:44.698Z</time></trkpt><trkpt lat="43.3274604" lon="12.2684982"><ele>426.0</ele><time>2026-04-30T11:04:45.697Z</time></trkpt><trkpt lat="43.3275271" lon="12.2684229"><ele>426.0</ele><time>2026-04-30T11:04:46.698Z</time></trkpt><trkpt lat="43.3276182" lon="12.2683946"><ele>426.0</ele><time>2026-04-30T11:04:47.698Z</time></trkpt><trkpt lat="43.3277257" lon="12.2683626"><ele>426.0</ele><time>2026-04-30T11:04:48.698Z</time></trkpt><trkpt lat="43.327842" lon="12.268336"><ele>426.0</ele><time>2026-04-30T11:04:49.697Z</time></trkpt><trkpt lat="43.3280062" lon="12.2682775"><ele>429.75</ele><time>2026-04-30T11:04:50.698Z</time></trkpt><trkpt lat="43.3281535" lon="12.2682346"><ele>433.5</ele><time>2026-04-30T11:04:51.696Z</time></trkpt><trkpt lat="43.3282754" lon="12.2681972"><ele>437.25</ele><time>2026-04-30T11:04:52.697Z</time></trkpt><trkpt lat="43.328416" lon="12.2681524"><ele>441.0</ele><time>2026-04-30T11:04:53.698Z</time></trkpt><trkpt lat="43.3285486" lon="12.2681156"><ele>441.25</ele><time>2026-04-30T11:04:54.698Z</time></trkpt><trkpt lat="43.3286824" lon="12.2680722"><ele>441.5</ele><time>2026-04-30T11:04:55.698Z</time></trkpt><trkpt lat="43.3288126" lon="12.2680297"><ele>441.75</ele><time>2026-04-30T11:04:56.698Z</time></trkpt><trkpt lat="43.3289122" lon="12.2680015"><ele>442.0</ele><time>2026-04-30T11:04:57.699Z</time></trkpt><trkpt lat="43.3290155" lon="12.2679713"><ele>442.0</ele><time>2026-04-30T11:04:58.698Z</time></trkpt><trkpt lat="43.3291228" lon="12.2680435"><ele>442.00000000000006</ele><time>2026-04-30T11:05:00.698Z</time></trkpt><trkpt lat="43.329175" lon="12.2681003"><ele>442.00000000000006</ele><time>2026-04-30T11:05:01.698Z</time></trkpt><trkpt lat="43.3290926" lon="12.2682578"><ele>442.0</ele><time>2026-04-30T11:05:02.699Z</time></trkpt><trkpt lat="43.3290805" lon="12.2683998"><ele>442.0</ele><time>2026-04-30T11:05:03.697Z</time></trkpt><trkpt lat="43.3290551" lon="12.2685451"><ele>444.6</ele><time>2026-04-30T11:05:04.698Z</time></trkpt><trkpt lat="43.3290453" lon="12.2686846"><ele>447.20000000000005</ele><time>2026-04-30T11:05:05.697Z</time></trkpt><trkpt lat="43.3290307" lon="12.2688078"><ele>449.8</ele><time>2026-04-30T11:05:06.698Z</time></trkpt><trkpt lat="43.3290374" lon="12.2689572"><ele>452.4</ele><time>2026-04-30T11:05:07.698Z</time></trkpt><trkpt lat="43.32905" lon="12.2690971"><ele>455.0</ele><time>2026-04-30T11:05:08.698Z</time></trkpt><trkpt lat="43.3290976" lon="12.2691969"><ele>455.99999999999994</ele><time>2026-04-30T11:05:09.698Z</time></trkpt><trkpt lat="43.3291713" lon="12.2692664"><ele>457.0</ele><time>2026-04-30T11:05:10.697Z</time></trkpt><trkpt lat="43.329254" lon="12.2693178"><ele>458.0</ele><time>2026-04-30T11:05:11.698Z</time></trkpt><trkpt lat="43.3293392" lon="12.2693452"><ele>459.0</ele><time>2026-04-30T11:05:12.698Z</time></trkpt><trkpt lat="43.3294219" lon="12.2693457"><ele>459.99999999999994</ele><time>2026-04-30T11:05:13.697Z</time></trkpt><trkpt lat="43.3295158" lon="12.269323"><ele>461.0</ele><time>2026-04-30T11:05:14.697Z</time></trkpt><trkpt lat="43.3296248" lon="12.269276"><ele>465.75</ele><time>2026-04-30T11:05:15.697Z</time></trkpt><trkpt lat="43.3297402" lon="12.2692212"><ele>470.5</ele><time>2026-04-30T11:05:16.698Z</time></trkpt><trkpt lat="43.3298594" lon="12.2691646"><ele>475.25</ele><time>2026-04-30T11:05:17.698Z</time></trkpt><trkpt lat="43.3299989" lon="12.2691521"><ele>480.0</ele><time>2026-04-30T11:05:18.698Z</time></trkpt><trkpt lat="43.330132" lon="12.2691491"><ele>480.0</ele><time>2026-04-30T11:05:19.698Z</time></trkpt><trkpt lat="43.3302408" lon="12.2691349"><ele>480.0</ele><time>2026-04-30T11:05:20.697Z</time></trkpt><trkpt lat="43.3303608" lon="12.2691123"><ele>480.0</ele><time>2026-04-30T11:05:21.698Z</time></trkpt><trkpt lat="43.3304689" lon="12.269057"><ele>480.0</ele><time>2026-04-30T11:05:23.697Z</time></trkpt><trkpt lat="43.3305121" lon="12.2689895"><ele>480.0</ele><time>2026-04-30T11:05:24.698Z</time></trkpt><trkpt lat="43.3305698" lon="12.2689022"><ele>481.0</ele><time>2026-04-30T11:05:25.698Z</time></trkpt><trkpt lat="43.3306442" lon="12.2688345"><ele>482.0</ele><time>2026-04-30T11:05:26.697Z</time></trkpt><trkpt lat="43.3307289" lon="12.2687544"><ele>483.0</ele><time>2026-04-30T11:05:27.698Z</time></trkpt><trkpt lat="43.3308209" lon="12.2687012"><ele>484.0</ele><time>2026-04-30T11:05:28.697Z</time></trkpt><trkpt lat="43.3309564" lon="12.2686399"><ele>485.0</ele><time>2026-04-30T11:05:29.698Z</time></trkpt><trkpt lat="43.3310881" lon="12.268592"><ele>485.0</ele><time>2026-04-30T11:05:30.697Z</time></trkpt><trkpt lat="43.3312184" lon="12.2685472"><ele>485.0</ele><time>2026-04-30T11:05:31.697Z</time></trkpt><trkpt lat="43.3313237" lon="12.2685071"><ele>485.0</ele><time>2026-04-30T11:05:32.697Z</time></trkpt><trkpt lat="43.3314286" lon="12.2684581"><ele>485.0</ele><time>2026-04-30T11:05:33.697Z</time></trkpt><trkpt lat="43.3315482" lon="12.2684202"><ele>487.3333333333333</ele><time>2026-04-30T11:05:34.697Z</time></trkpt><trkpt lat="43.3316218" lon="12.2684449"><ele>489.66666666666663</ele><time>2026-04-30T11:05:35.698Z</time></trkpt><trkpt lat="43.3317261" lon="12.2684904"><ele>492.0</ele><time>2026-04-30T11:05:37.698Z</time></trkpt><trkpt lat="43.3317826" lon="12.2685373"><ele>494.33333333333337</ele><time>2026-04-30T11:05:38.698Z</time></trkpt><trkpt lat="43.3318504" lon="12.2685793"><ele>496.6666666666667</ele><time>2026-04-30T11:05:39.698Z</time></trkpt><trkpt lat="43.3319078" lon="12.2686179"><ele>499.0</ele><time>2026-04-30T11:05:40.698Z</time></trkpt><trkpt lat="43.3319649" lon="12.2686703"><ele>499.0</ele><time>2026-04-30T11:05:41.698Z</time></trkpt><trkpt lat="43.332053" lon="12.2686998"><ele>499.0</ele><time>2026-04-30T11:05:43.698Z</time></trkpt><trkpt lat="43.3321143" lon="12.2686767"><ele>499.0</ele><time>2026-04-30T11:05:45.698Z</time></trkpt><trkpt lat="43.3321781" lon="12.2685707"><ele>499.0</ele><time>2026-04-30T11:05:47.698Z</time></trkpt><trkpt lat="43.3322135" lon="12.2684927"><ele>499.0</ele><time>2026-04-30T11:05:48.698Z</time></trkpt><trkpt lat="43.3322916" lon="12.2683523"><ele>500.4</ele><time>2026-04-30T11:05:50.697Z</time></trkpt><trkpt lat="43.3323433" lon="12.2682313"><ele>501.79999999999995</ele><time>2026-04-30T11:05:52.698Z</time></trkpt><trkpt lat="43.3323733" lon="12.2681548"><ele>503.20000000000005</ele><time>2026-04-30T11:05:58.698Z</time></trkpt><trkpt lat="43.3324617" lon="12.2680617"><ele>504.6</ele><time>2026-04-30T11:06:00.698Z</time></trkpt><trkpt lat="43.3325464" lon="12.2679479"><ele>506.0</ele><time>2026-04-30T11:06:02.698Z</time></trkpt><trkpt lat="43.3325972" lon="12.2678878"><ele>506.66666666666663</ele><time>2026-04-30T11:06:03.698Z</time></trkpt><trkpt lat="43.3326529" lon="12.2678443"><ele>507.3333333333333</ele><time>2026-04-30T11:06:04.697Z</time></trkpt><trkpt lat="43.3327152" lon="12.2677962"><ele>508.0</ele><time>2026-04-30T11:06:05.698Z</time></trkpt><trkpt lat="43.3328406" lon="12.2677556"><ele>508.66666666666663</ele><time>2026-04-30T11:06:07.697Z</time></trkpt><trkpt lat="43.3329273" lon="12.2677902"><ele>509.3333333333333</ele><time>2026-04-30T11:06:08.697Z</time></trkpt><trkpt lat="43.3330076" lon="12.2678071"><ele>510.0</ele><time>2026-04-30T11:06:09.697Z</time></trkpt><trkpt lat="43.333114" lon="12.2678671"><ele>510.8333333333333</ele><time>2026-04-30T11:06:10.698Z</time></trkpt><trkpt lat="43.3331902" lon="12.2678899"><ele>511.66666666666663</ele><time>2026-04-30T11:06:11.699Z</time></trkpt><trkpt lat="43.3332522" lon="12.2679151"><ele>512.5</ele><time>2026-04-30T11:06:12.699Z</time></trkpt><trkpt lat="43.3333187" lon="12.2679529"><ele>513.3333333333333</ele><time>2026-04-30T11:06:13.698Z</time></trkpt><trkpt lat="43.3334309" lon="12.2680092"><ele>514.1666666666666</ele><time>2026-04-30T11:06:15.698Z</time></trkpt><trkpt lat="43.3334903" lon="12.2680414"><ele>515.0</ele><time>2026-04-30T11:06:16.698Z</time></trkpt><trkpt lat="43.3335884" lon="12.2680559"><ele>515.0</ele><time>2026-04-30T11:06:18.698Z</time></trkpt><trkpt lat="43.3337175" lon="12.2680864"><ele>515.0</ele><time>2026-04-30T11:06:20.698Z</time></trkpt><trkpt lat="43.3337952" lon="12.26811"><ele>515.0</ele><time>2026-04-30T11:06:21.698Z</time></trkpt><trkpt lat="43.3338591" lon="12.2681339"><ele>515.0</ele><time>2026-04-30T11:06:22.698Z</time></trkpt><trkpt lat="43.3339821" lon="12.2681462"><ele>515.0</ele><time>2026-04-30T11:06:24.698Z</time></trkpt><trkpt lat="43.3340459" lon="12.2681427"><ele>515.2</ele><time>2026-04-30T11:06:25.697Z</time></trkpt><trkpt lat="43.334111" lon="12.2681618"><ele>515.4</ele><time>2026-04-30T11:06:26.698Z</time></trkpt><trkpt lat="43.334231" lon="12.2681917"><ele>515.6</ele><time>2026-04-30T11:06:28.698Z</time></trkpt><trkpt lat="43.3343331" lon="12.2681917"><ele>515.8</ele><time>2026-04-30T11:06:30.698Z</time></trkpt><trkpt lat="43.3344109" lon="12.2681632"><ele>516.0</ele><time>2026-04-30T11:06:32.698Z</time></trkpt><trkpt lat="43.3344836" lon="12.2680765"><ele>516.0</ele><time>2026-04-30T11:06:34.698Z</time></trkpt><trkpt lat="43.3345555" lon="12.2679592"><ele>516.0</ele><time>2026-04-30T11:06:36.698Z</time></trkpt><trkpt lat="43.3346233" lon="12.2678382"><ele>516.0</ele><time>2026-04-30T11:06:38.698Z</time></trkpt><trkpt lat="43.3346844" lon="12.267776"><ele>516.0</ele><time>2026-04-30T11:06:39.698Z</time></trkpt><trkpt lat="43.3347385" lon="12.2677224"><ele>516.0</ele><time>2026-04-30T11:06:40.698Z</time></trkpt><trkpt lat="43.3349443" lon="12.2677816"><ele>513.3333333333334</ele><time>2026-04-30T11:06:45.697Z</time></trkpt><trkpt lat="43.3350525" lon="12.2678162"><ele>510.6666666666667</ele><time>2026-04-30T11:06:47.698Z</time></trkpt><trkpt lat="43.3353087" lon="12.2678204"><ele>508.0</ele><time>2026-04-30T11:06:54.698Z</time></trkpt><trkpt lat="43.3354272" lon="12.2678111"><ele>508.0</ele><time>2026-04-30T11:06:59.697Z</time></trkpt><trkpt lat="43.3354882" lon="12.2677885"><ele>508.0</ele><time>2026-04-30T11:07:01.698Z</time></trkpt><trkpt lat="43.3355511" lon="12.2677705"><ele>508.0</ele><time>2026-04-30T11:07:03.698Z</time></trkpt><trkpt lat="43.3356313" lon="12.2677604"><ele>508.0</ele><time>2026-04-30T11:07:05.697Z</time></trkpt><trkpt lat="43.3357084" lon="12.2677406"><ele>508.0</ele><time>2026-04-30T11:07:07.698Z</time></trkpt><trkpt lat="43.3357732" lon="12.2677361"><ele>508.0</ele><time>2026-04-30T11:07:09.698Z</time></trkpt><trkpt lat="43.335838" lon="12.2677355"><ele>508.0</ele><time>2026-04-30T11:07:11.697Z</time></trkpt><trkpt lat="43.3359572" lon="12.2677504"><ele>503.79999999999995</ele><time>2026-04-30T11:07:18.698Z</time></trkpt><trkpt lat="43.3361" lon="12.2677565"><ele>499.59999999999997</ele><time>2026-04-30T11:08:09.698Z</time></trkpt><trkpt lat="43.3360468" lon="12.2676882"><ele>495.40000000000003</ele><time>2026-04-30T11:09:26.698Z</time></trkpt><trkpt lat="43.3359782" lon="12.2676285"><ele>491.20000000000005</ele><time>2026-04-30T11:09:30.698Z</time></trkpt><trkpt lat="43.3359127" lon="12.2676002"><ele>487.0</ele><time>2026-04-30T11:09:33.698Z</time></trkpt><trkpt lat="43.3358206" lon="12.2676238"><ele>487.0</ele><time>2026-04-30T11:09:35.698Z</time></trkpt><trkpt lat="43.3356866" lon="12.2677158"><ele>487.00000000000006</ele><time>2026-04-30T11:09:36.698Z</time></trkpt><trkpt lat="43.3355758" lon="12.2677336"><ele>487.00000000000006</ele><time>2026-04-30T11:09:38.698Z</time></trkpt><trkpt lat="43.3354889" lon="12.2677607"><ele>487.0</ele><time>2026-04-30T11:09:41.698Z</time></trkpt><trkpt lat="43.3353969" lon="12.2677458"><ele>487.0</ele><time>2026-04-30T11:09:44.697Z</time></trkpt><trkpt lat="43.3353159" lon="12.2677291"><ele>491.20000000000005</ele><time>2026-04-30T11:09:46.698Z</time></trkpt><trkpt lat="43.3352215" lon="12.2677007"><ele>495.40000000000003</ele><time>2026-04-30T11:09:48.698Z</time></trkpt><trkpt lat="43.3351202" lon="12.2676712"><ele>499.59999999999997</ele><time>2026-04-30T11:09:50.697Z</time></trkpt><trkpt lat="43.3350315" lon="12.2676629"><ele>503.79999999999995</ele><time>2026-04-30T11:09:52.698Z</time></trkpt><trkpt lat="43.3349462" lon="12.2676366"><ele>508.0</ele><time>2026-04-30T11:09:54.697Z</time></trkpt><trkpt lat="43.3348536" lon="12.2676535"><ele>508.00000000000006</ele><time>2026-04-30T11:09:56.698Z</time></trkpt><trkpt lat="43.3347829" lon="12.2677172"><ele>508.0</ele><time>2026-04-30T11:09:58.698Z</time></trkpt><trkpt lat="43.3347178" lon="12.2677859"><ele>508.0</ele><time>2026-04-30T11:10:00.698Z</time></trkpt><trkpt lat="43.3346713" lon="12.2678506"><ele>508.0</ele><time>2026-04-30T11:10:02.698Z</time></trkpt><trkpt lat="43.3346099" lon="12.2679422"><ele>508.00000000000006</ele><time>2026-04-30T11:10:05.698Z</time></trkpt><trkpt lat="43.3345596" lon="12.267995"><ele>508.0</ele><time>2026-04-30T11:10:07.698Z</time></trkpt><trkpt lat="43.3345028" lon="12.2680365"><ele>507.6666666666667</ele><time>2026-04-30T11:10:09.697Z</time></trkpt><trkpt lat="43.3344288" lon="12.2680699"><ele>507.33333333333337</ele><time>2026-04-30T11:10:12.697Z</time></trkpt><trkpt lat="43.3343492" lon="12.2680853"><ele>507.0</ele><time>2026-04-30T11:10:14.697Z</time></trkpt><trkpt lat="43.3342383" lon="12.2681089"><ele>506.66666666666663</ele><time>2026-04-30T11:10:15.697Z</time></trkpt><trkpt lat="43.3341721" lon="12.2681228"><ele>506.3333333333333</ele><time>2026-04-30T11:10:16.698Z</time></trkpt><trkpt lat="43.3340779" lon="12.2680851"><ele>506.0</ele><time>2026-04-30T11:10:19.698Z</time></trkpt><trkpt lat="43.333967" lon="12.2680622"><ele>507.49999999999994</ele><time>2026-04-30T11:10:22.698Z</time></trkpt><trkpt lat="43.3338493" lon="12.2680403"><ele>509.0</ele><time>2026-04-30T11:10:24.698Z</time></trkpt><trkpt lat="43.3337837" lon="12.2680347"><ele>510.5</ele><time>2026-04-30T11:10:25.697Z</time></trkpt><trkpt lat="43.3337179" lon="12.2680383"><ele>512.0</ele><time>2026-04-30T11:10:26.698Z</time></trkpt><trkpt lat="43.3336415" lon="12.2680155"><ele>513.5</ele><time>2026-04-30T11:10:28.698Z</time></trkpt><trkpt lat="43.3335444" lon="12.2679914"><ele>515.0</ele><time>2026-04-30T11:10:30.698Z</time></trkpt><trkpt lat="43.3334809" lon="12.2679818"><ele>515.0</ele><time>2026-04-30T11:10:31.698Z</time></trkpt><trkpt lat="43.3333767" lon="12.267975"><ele>515.0</ele><time>2026-04-30T11:10:33.698Z</time></trkpt><trkpt lat="43.3332502" lon="12.2679055"><ele>515.0</ele><time>2026-04-30T11:10:35.698Z</time></trkpt><trkpt lat="43.3331523" lon="12.2678696"><ele>515.0</ele><time>2026-04-30T11:10:37.698Z</time></trkpt><trkpt lat="43.3330581" lon="12.267841"><ele>515.0</ele><time>2026-04-30T11:10:39.698Z</time></trkpt><trkpt lat="43.3329947" lon="12.2678265"><ele>513.75</ele><time>2026-04-30T11:10:42.698Z</time></trkpt><trkpt lat="43.332868" lon="12.2677692"><ele>512.5</ele><time>2026-04-30T11:12:16.698Z</time></trkpt><trkpt lat="43.3327518" lon="12.2677726"><ele>511.25</ele><time>2026-04-30T11:12:18.698Z</time></trkpt><trkpt lat="43.3326536" lon="12.2678487"><ele>510.0</ele><time>2026-04-30T11:12:20.697Z</time></trkpt><trkpt lat="43.332566" lon="12.2679524"><ele>510.0</ele><time>2026-04-30T11:12:22.698Z</time></trkpt><trkpt lat="43.3324897" lon="12.2680527"><ele>510.0</ele><time>2026-04-30T11:12:24.698Z</time></trkpt><trkpt lat="43.3324153" lon="12.268152"><ele>510.0</ele><time>2026-04-30T11:12:26.697Z</time></trkpt><trkpt lat="43.3323553" lon="12.2682738"><ele>510.0</ele><time>2026-04-30T11:12:28.698Z</time></trkpt><trkpt lat="43.3323232" lon="12.2683553"><ele>510.0</ele><time>2026-04-30T11:12:29.698Z</time></trkpt><trkpt lat="43.3322821" lon="12.2684459"><ele>509.2</ele><time>2026-04-30T11:12:30.698Z</time></trkpt><trkpt lat="43.3322422" lon="12.2685362"><ele>508.4</ele><time>2026-04-30T11:12:31.696Z</time></trkpt><trkpt lat="43.3321566" lon="12.2686811"><ele>507.6</ele><time>2026-04-30T11:12:33.698Z</time></trkpt><trkpt lat="43.3320839" lon="12.26871"><ele>506.8</ele><time>2026-04-30T11:12:36.697Z</time></trkpt><trkpt lat="43.3320145" lon="12.2686832"><ele>506.0</ele><time>2026-04-30T11:13:04.697Z</time></trkpt><trkpt lat="43.3319249" lon="12.268638"><ele>504.6</ele><time>2026-04-30T11:13:06.698Z</time></trkpt><trkpt lat="43.3318209" lon="12.2685855"><ele>503.20000000000005</ele><time>2026-04-30T11:13:08.698Z</time></trkpt><trkpt lat="43.331727" lon="12.2685208"><ele>501.79999999999995</ele><time>2026-04-30T11:13:09.697Z</time></trkpt><trkpt lat="43.3316362" lon="12.2684843"><ele>500.4</ele><time>2026-04-30T11:13:10.698Z</time></trkpt><trkpt lat="43.3315677" lon="12.2684466"><ele>499.0</ele><time>2026-04-30T11:13:11.698Z</time></trkpt><trkpt lat="43.3314583" lon="12.2684244"><ele>496.6666666666667</ele><time>2026-04-30T11:13:13.698Z</time></trkpt><trkpt lat="43.331361" lon="12.2684588"><ele>494.33333333333337</ele><time>2026-04-30T11:13:15.697Z</time></trkpt><trkpt lat="43.3312856" lon="12.2684804"><ele>492.0</ele><time>2026-04-30T11:13:16.698Z</time></trkpt><trkpt lat="43.3311993" lon="12.2685214"><ele>489.66666666666663</ele><time>2026-04-30T11:13:17.698Z</time></trkpt><trkpt lat="43.3311232" lon="12.268557"><ele>487.3333333333333</ele><time>2026-04-30T11:13:18.698Z</time></trkpt><trkpt lat="43.3310427" lon="12.2685868"><ele>485.0</ele><time>2026-04-30T11:13:19.699Z</time></trkpt><trkpt lat="43.3309197" lon="12.2686321"><ele>485.0</ele><time>2026-04-30T11:13:21.698Z</time></trkpt><trkpt lat="43.3307996" lon="12.268667"><ele>485.0</ele><time>2026-04-30T11:13:23.699Z</time></trkpt><trkpt lat="43.3307182" lon="12.2687029"><ele>485.0</ele><time>2026-04-30T11:13:25.698Z</time></trkpt><trkpt lat="43.3306582" lon="12.2687403"><ele>485.0</ele><time>2026-04-30T11:13:27.698Z</time></trkpt><trkpt lat="43.3305889" lon="12.2688274"><ele>485.0</ele><time>2026-04-30T11:13:29.699Z</time></trkpt><trkpt lat="43.3305095" lon="12.2689135"><ele>485.0</ele><time>2026-04-30T11:13:31.697Z</time></trkpt><trkpt lat="43.3304215" lon="12.2689973"><ele>485.0</ele><time>2026-04-30T11:13:33.698Z</time></trkpt><trkpt lat="43.3303769" lon="12.2690925"><ele>485.0</ele><time>2026-04-30T11:13:36.698Z</time></trkpt><trkpt lat="43.3304692" lon="12.2689752"><ele>485.0</ele><time>2026-04-30T11:13:50.698Z</time></trkpt><trkpt lat="43.3305278" lon="12.2688916"><ele>485.0</ele><time>2026-04-30T11:13:51.698Z</time></trkpt><trkpt lat="43.3305943" lon="12.2688066"><ele>485.0</ele><time>2026-04-30T11:13:52.697Z</time></trkpt><trkpt lat="43.3306826" lon="12.2687302"><ele>485.0</ele><time>2026-04-30T11:13:53.698Z</time></trkpt><trkpt lat="43.3308128" lon="12.2686833"><ele>485.0</ele><time>2026-04-30T11:13:54.698Z</time></trkpt><trkpt lat="43.3309235" lon="12.2686395"><ele>485.0</ele><time>2026-04-30T11:13:55.698Z</time></trkpt><trkpt lat="43.3310618" lon="12.2686041"><ele>485.0</ele><time>2026-04-30T11:13:56.698Z</time></trkpt><trkpt lat="43.3311835" lon="12.2685522"><ele>485.0</ele><time>2026-04-30T11:13:57.698Z</time></trkpt><trkpt lat="43.3312793" lon="12.2685056"><ele>485.0</ele><time>2026-04-30T11:13:58.698Z</time></trkpt><trkpt lat="43.331378" lon="12.2684738"><ele>485.0</ele><time>2026-04-30T11:13:59.697Z</time></trkpt><trkpt lat="43.3314619" lon="12.2684421"><ele>485.0</ele><time>2026-04-30T11:14:00.698Z</time></trkpt><trkpt lat="43.3315463" lon="12.2684195"><ele>487.8</ele><time>2026-04-30T11:14:01.698Z</time></trkpt><trkpt lat="43.3316369" lon="12.2685131"><ele>490.6</ele><time>2026-04-30T11:14:02.698Z</time></trkpt><trkpt lat="43.3317306" lon="12.2685626"><ele>493.4</ele><time>2026-04-30T11:14:03.697Z</time></trkpt><trkpt lat="43.3318264" lon="12.2686119"><ele>496.2</ele><time>2026-04-30T11:14:04.697Z</time></trkpt><trkpt lat="43.3319085" lon="12.2686543"><ele>499.0</ele><time>2026-04-30T11:14:05.697Z</time></trkpt><trkpt lat="43.3319813" lon="12.2686885"><ele>499.00000000000006</ele><time>2026-04-30T11:14:06.698Z</time></trkpt><trkpt lat="43.3320527" lon="12.26873"><ele>499.0</ele><time>2026-04-30T11:14:07.697Z</time></trkpt><trkpt lat="43.3320595" lon="12.2688502"><ele>499.0</ele><time>2026-04-30T11:14:10.698Z</time></trkpt><trkpt lat="43.3319747" lon="12.2689236"><ele>499.0</ele><time>2026-04-30T11:14:11.698Z</time></trkpt><trkpt lat="43.3319134" lon="12.2689619"><ele>499.00000000000006</ele><time>2026-04-30T11:14:13.698Z</time></trkpt><trkpt lat="43.3318411" lon="12.2689907"><ele>499.0</ele><time>2026-04-30T11:14:15.698Z</time></trkpt><trkpt lat="43.3317741" lon="12.2689996"><ele>500.83333333333337</ele><time>2026-04-30T11:14:17.698Z</time></trkpt><trkpt lat="43.3317054" lon="12.2690526"><ele>502.6666666666667</ele><time>2026-04-30T11:14:19.698Z</time></trkpt><trkpt lat="43.3316657" lon="12.2691599"><ele>504.5</ele><time>2026-04-30T11:14:21.698Z</time></trkpt><trkpt lat="43.3316117" lon="12.2692544"><ele>506.33333333333337</ele><time>2026-04-30T11:14:23.697Z</time></trkpt><trkpt lat="43.3315779" lon="12.2693529"><ele>508.1666666666667</ele><time>2026-04-30T11:14:25.698Z</time></trkpt><trkpt lat="43.3315353" lon="12.2694631"><ele>510.0</ele><time>2026-04-30T11:14:27.698Z</time></trkpt><trkpt lat="43.3315031" lon="12.2695414"><ele>510.0</ele><time>2026-04-30T11:14:29.698Z</time></trkpt><trkpt lat="43.3314508" lon="12.2694927"><ele>510.00000000000006</ele><time>2026-04-30T11:14:37.697Z</time></trkpt><trkpt lat="43.3315136" lon="12.269444"><ele>510.0</ele><time>2026-04-30T11:44:13.7Z</time></trkpt><trkpt lat="43.3315711" lon="12.269352"><ele>510.0</ele><time>2026-04-30T11:44:16.7Z</time></trkpt><trkpt lat="43.3316176" lon="12.2692926"><ele>510.00000000000006</ele><time>2026-04-30T11:44:18.699Z</time></trkpt><trkpt lat="43.3316756" lon="12.2691944"><ele>510.0</ele><time>2026-04-30T11:44:21.699Z</time></trkpt><trkpt lat="43.3317084" lon="12.2691171"><ele>510.0</ele><time>2026-04-30T11:44:23.7Z</time></trkpt><trkpt lat="43.3317555" lon="12.2690526"><ele>510.0</ele><time>2026-04-30T11:44:25.7Z</time></trkpt><trkpt lat="43.3318195" lon="12.2690183"><ele>510.00000000000006</ele><time>2026-04-30T11:44:27.7Z</time></trkpt><trkpt lat="43.3318833" lon="12.2690123"><ele>510.0</ele><time>2026-04-30T11:44:29.7Z</time></trkpt><trkpt lat="43.3319499" lon="12.2689996"><ele>510.0</ele><time>2026-04-30T11:44:31.698Z</time></trkpt><trkpt lat="43.3320037" lon="12.2689453"><ele>510.00000000000006</ele><time>2026-04-30T11:44:33.7Z</time></trkpt><trkpt lat="43.3320477" lon="12.2688739"><ele>510.0</ele><time>2026-04-30T11:44:35.699Z</time></trkpt><trkpt lat="43.3320624" lon="12.2687857"><ele>510.0</ele><time>2026-04-30T11:44:37.699Z</time></trkpt><trkpt lat="43.3320106" lon="12.2687078"><ele>507.8</ele><time>2026-04-30T11:44:39.699Z</time></trkpt><trkpt lat="43.3319223" lon="12.268682"><ele>505.6</ele><time>2026-04-30T11:44:40.699Z</time></trkpt><trkpt lat="43.3318182" lon="12.2686178"><ele>503.4</ele><time>2026-04-30T11:44:42.7Z</time></trkpt><trkpt lat="43.3317388" lon="12.2685746"><ele>501.2</ele><time>2026-04-30T11:44:43.7Z</time></trkpt><trkpt lat="43.3316041" lon="12.2685041"><ele>499.0</ele><time>2026-04-30T11:44:45.7Z</time></trkpt><trkpt lat="43.3315234" lon="12.2684717"><ele>499.0</ele><time>2026-04-30T11:44:46.699Z</time></trkpt><trkpt lat="43.3314558" lon="12.2684601"><ele>499.0</ele><time>2026-04-30T11:44:47.699Z</time></trkpt><trkpt lat="43.3313811" lon="12.2684594"><ele>499.0</ele><time>2026-04-30T11:44:48.7Z</time></trkpt><trkpt lat="43.3312443" lon="12.2685308"><ele>499.0</ele><time>2026-04-30T11:44:50.7Z</time></trkpt><trkpt lat="43.3311642" lon="12.2685563"><ele>499.0</ele><time>2026-04-30T11:44:51.699Z</time></trkpt><trkpt lat="43.3310786" lon="12.2685899"><ele>496.6666666666667</ele><time>2026-04-30T11:44:52.7Z</time></trkpt><trkpt lat="43.330996" lon="12.2686216"><ele>494.33333333333337</ele><time>2026-04-30T11:44:53.699Z</time></trkpt><trkpt lat="43.3309165" lon="12.268649"><ele>492.0</ele><time>2026-04-30T11:44:54.7Z</time></trkpt><trkpt lat="43.3308451" lon="12.2686725"><ele>489.66666666666663</ele><time>2026-04-30T11:44:55.7Z</time></trkpt><trkpt lat="43.330769" lon="12.2686985"><ele>487.3333333333333</ele><time>2026-04-30T11:44:56.7Z</time></trkpt><trkpt lat="43.3307015" lon="12.2687251"><ele>485.0</ele><time>2026-04-30T11:44:57.7Z</time></trkpt><trkpt lat="43.3306411" lon="12.2687722"><ele>484.99999999999994</ele><time>2026-04-30T11:44:58.7Z</time></trkpt><trkpt lat="43.3305816" lon="12.2688278"><ele>485.0</ele><time>2026-04-30T11:44:59.7Z</time></trkpt><trkpt lat="43.3305245" lon="12.2688856"><ele>485.0</ele><time>2026-04-30T11:45:00.7Z</time></trkpt><trkpt lat="43.3304621" lon="12.2689456"><ele>485.0</ele><time>2026-04-30T11:45:01.7Z</time></trkpt><trkpt lat="43.3304276" lon="12.2690327"><ele>484.99999999999994</ele><time>2026-04-30T11:45:02.699Z</time></trkpt><trkpt lat="43.3303339" lon="12.2691283"><ele>485.0</ele><time>2026-04-30T11:45:04.699Z</time></trkpt><trkpt lat="43.330263" lon="12.2691364"><ele>484.16666666666663</ele><time>2026-04-30T11:45:05.7Z</time></trkpt><trkpt lat="43.330175" lon="12.2691496"><ele>483.3333333333333</ele><time>2026-04-30T11:45:06.7Z</time></trkpt><trkpt lat="43.3300938" lon="12.2691595"><ele>482.5</ele><time>2026-04-30T11:45:07.699Z</time></trkpt><trkpt lat="43.3300052" lon="12.2691512"><ele>481.66666666666663</ele><time>2026-04-30T11:45:08.7Z</time></trkpt><trkpt lat="43.3299232" lon="12.2691656"><ele>480.8333333333333</ele><time>2026-04-30T11:45:09.7Z</time></trkpt><trkpt lat="43.329836" lon="12.2691811"><ele>480.0</ele><time>2026-04-30T11:45:10.7Z</time></trkpt><trkpt lat="43.3297439" lon="12.2692062"><ele>476.2</ele><time>2026-04-30T11:45:11.699Z</time></trkpt><trkpt lat="43.3296487" lon="12.2692663"><ele>472.4</ele><time>2026-04-30T11:45:12.699Z</time></trkpt><trkpt lat="43.3295582" lon="12.2693121"><ele>468.6</ele><time>2026-04-30T11:45:13.7Z</time></trkpt><trkpt lat="43.3294677" lon="12.2693565"><ele>464.8</ele><time>2026-04-30T11:45:14.7Z</time></trkpt><trkpt lat="43.3293808" lon="12.2693717"><ele>461.0</ele><time>2026-04-30T11:45:15.7Z</time></trkpt><trkpt lat="43.3292878" lon="12.2693659"><ele>460.99999999999994</ele><time>2026-04-30T11:45:16.7Z</time></trkpt><trkpt lat="43.3291999" lon="12.2693529"><ele>461.0</ele><time>2026-04-30T11:45:17.7Z</time></trkpt><trkpt lat="43.3291184" lon="12.2693066"><ele>461.0</ele><time>2026-04-30T11:45:18.7Z</time></trkpt><trkpt lat="43.3290545" lon="12.2692343"><ele>461.0</ele><time>2026-04-30T11:45:19.7Z</time></trkpt><trkpt lat="43.3289966" lon="12.269147"><ele>460.99999999999994</ele><time>2026-04-30T11:45:20.699Z</time></trkpt><trkpt lat="43.3289625" lon="12.2690624"><ele>461.0</ele><time>2026-04-30T11:45:21.699Z</time></trkpt><trkpt lat="43.3289556" lon="12.2689738"><ele>459.99999999999994</ele><time>2026-04-30T11:45:22.7Z</time></trkpt><trkpt lat="43.3289709" lon="12.2688459"><ele>459.0</ele><time>2026-04-30T11:45:23.7Z</time></trkpt><trkpt lat="43.3289762" lon="12.268734"><ele>458.0</ele><time>2026-04-30T11:45:24.699Z</time></trkpt><trkpt lat="43.3289898" lon="12.2686245"><ele>457.0</ele><time>2026-04-30T11:45:25.7Z</time></trkpt><trkpt lat="43.329016" lon="12.268499"><ele>455.99999999999994</ele><time>2026-04-30T11:45:26.7Z</time></trkpt><trkpt lat="43.3290321" lon="12.2683824"><ele>455.0</ele><time>2026-04-30T11:45:27.699Z</time></trkpt><trkpt lat="43.3290507" lon="12.2682854"><ele>455.0</ele><time>2026-04-30T11:45:28.699Z</time></trkpt><trkpt lat="43.3290615" lon="12.2681964"><ele>455.0</ele><time>2026-04-30T11:45:29.699Z</time></trkpt><trkpt lat="43.3290446" lon="12.2680444"><ele>455.0</ele><time>2026-04-30T11:45:31.7Z</time></trkpt><trkpt lat="43.3289247" lon="12.268026"><ele>455.0</ele><time>2026-04-30T11:45:33.7Z</time></trkpt><trkpt lat="43.328854" lon="12.2680486"><ele>455.0</ele><time>2026-04-30T11:45:34.7Z</time></trkpt><trkpt lat="43.3287741" lon="12.2680791"><ele>452.2</ele><time>2026-04-30T11:45:35.7Z</time></trkpt><trkpt lat="43.3286828" lon="12.2681108"><ele>449.4</ele><time>2026-04-30T11:45:36.7Z</time></trkpt><trkpt lat="43.3285826" lon="12.2681408"><ele>446.6</ele><time>2026-04-30T11:45:37.699Z</time></trkpt><trkpt lat="43.3284833" lon="12.2681702"><ele>443.8</ele><time>2026-04-30T11:45:38.699Z</time></trkpt><trkpt lat="43.328388" lon="12.268195"><ele>441.0</ele><time>2026-04-30T11:45:39.699Z</time></trkpt><trkpt lat="43.328295" lon="12.2682241"><ele>441.0</ele><time>2026-04-30T11:45:40.701Z</time></trkpt><trkpt lat="43.3282022" lon="12.268247"><ele>441.0</ele><time>2026-04-30T11:45:41.7Z</time></trkpt><trkpt lat="43.328112" lon="12.2682684"><ele>441.0</ele><time>2026-04-30T11:45:42.7Z</time></trkpt><trkpt lat="43.3280217" lon="12.2682956"><ele>441.0</ele><time>2026-04-30T11:45:43.7Z</time></trkpt><trkpt lat="43.3279372" lon="12.2683226"><ele>441.0</ele><time>2026-04-30T11:45:44.7Z</time></trkpt><trkpt lat="43.3278541" lon="12.2683469"><ele>438.5</ele><time>2026-04-30T11:45:45.7Z</time></trkpt><trkpt lat="43.3277622" lon="12.2683684"><ele>436.0</ele><time>2026-04-30T11:45:46.657Z</time></trkpt><trkpt lat="43.3276692" lon="12.2683913"><ele>433.5</ele><time>2026-04-30T11:45:47.7Z</time></trkpt><trkpt lat="43.3275843" lon="12.2684152"><ele>431.0</ele><time>2026-04-30T11:45:48.7Z</time></trkpt><trkpt lat="43.3275063" lon="12.2684462"><ele>428.5</ele><time>2026-04-30T11:45:49.7Z</time></trkpt><trkpt lat="43.3274432" lon="12.268495"><ele>426.0</ele><time>2026-04-30T11:45:50.7Z</time></trkpt><trkpt lat="43.3274115" lon="12.2685761"><ele>425.99999999999994</ele><time>2026-04-30T11:45:51.7Z</time></trkpt><trkpt lat="43.3274022" lon="12.2686724"><ele>426.0</ele><time>2026-04-30T11:45:52.7Z</time></trkpt><trkpt lat="43.327397" lon="12.2687716"><ele>426.0</ele><time>2026-04-30T11:45:53.699Z</time></trkpt><trkpt lat="43.3273972" lon="12.2688742"><ele>426.0</ele><time>2026-04-30T11:45:54.7Z</time></trkpt><trkpt lat="43.3273953" lon="12.2689779"><ele>426.0</ele><time>2026-04-30T11:45:55.7Z</time></trkpt><trkpt lat="43.3273785" lon="12.2690695"><ele>425.99999999999994</ele><time>2026-04-30T11:45:56.7Z</time></trkpt><trkpt lat="43.3273317" lon="12.2691325"><ele>426.0</ele><time>2026-04-30T11:45:57.699Z</time></trkpt><trkpt lat="43.327233" lon="12.2690893"><ele>422.20000000000005</ele><time>2026-04-30T11:45:59.7Z</time></trkpt><trkpt lat="43.3271553" lon="12.2689333"><ele>418.40000000000003</ele><time>2026-04-30T11:46:01.699Z</time></trkpt><trkpt lat="43.3271226" lon="12.2688489"><ele>414.6</ele><time>2026-04-30T11:46:02.7Z</time></trkpt><trkpt lat="43.3270781" lon="12.2687459"><ele>410.8</ele><time>2026-04-30T11:46:03.7Z</time></trkpt><trkpt lat="43.3270231" lon="12.2686492"><ele>407.0</ele><time>2026-04-30T11:46:04.7Z</time></trkpt><trkpt lat="43.3269664" lon="12.2685748"><ele>407.0</ele><time>2026-04-30T11:46:05.7Z</time></trkpt><trkpt lat="43.3269034" lon="12.2684683"><ele>407.0</ele><time>2026-04-30T11:46:06.699Z</time></trkpt><trkpt lat="43.32684" lon="12.2683706"><ele>407.0</ele><time>2026-04-30T11:46:07.699Z</time></trkpt><trkpt lat="43.3267966" lon="12.2682321"><ele>407.0</ele><time>2026-04-30T11:46:08.701Z</time></trkpt><trkpt lat="43.3267538" lon="12.268115"><ele>407.0</ele><time>2026-04-30T11:46:09.7Z</time></trkpt><trkpt lat="43.3267248" lon="12.2679935"><ele>406.20000000000005</ele><time>2026-04-30T11:46:10.7Z</time></trkpt><trkpt lat="43.326674" lon="12.2678591"><ele>405.4</ele><time>2026-04-30T11:46:11.7Z</time></trkpt><trkpt lat="43.326617" lon="12.2677546"><ele>404.6</ele><time>2026-04-30T11:46:12.7Z</time></trkpt><trkpt lat="43.3265645" lon="12.2676957"><ele>403.79999999999995</ele><time>2026-04-30T11:46:13.699Z</time></trkpt><trkpt lat="43.3264614" lon="12.2676675"><ele>403.0</ele><time>2026-04-30T11:46:14.7Z</time></trkpt><trkpt lat="43.3263768" lon="12.2676866"><ele>400.59999999999997</ele><time>2026-04-30T11:46:15.7Z</time></trkpt><trkpt lat="43.3262782" lon="12.2676942"><ele>398.2</ele><time>2026-04-30T11:46:16.821Z</time></trkpt><trkpt lat="43.3261187" lon="12.267766"><ele>395.8</ele><time>2026-04-30T11:46:18.7Z</time></trkpt><trkpt lat="43.3260352" lon="12.2678231"><ele>393.4</ele><time>2026-04-30T11:46:19.699Z</time></trkpt><trkpt lat="43.3259662" lon="12.2678899"><ele>391.0</ele><time>2026-04-30T11:46:20.699Z</time></trkpt><trkpt lat="43.3259048" lon="12.2679734"><ele>391.00000000000006</ele><time>2026-04-30T11:46:21.699Z</time></trkpt><trkpt lat="43.3258448" lon="12.2680596"><ele>391.0</ele><time>2026-04-30T11:46:22.7Z</time></trkpt><trkpt lat="43.3257729" lon="12.2681231"><ele>391.0</ele><time>2026-04-30T11:46:23.7Z</time></trkpt><trkpt lat="43.3257056" lon="12.2681343"><ele>391.0</ele><time>2026-04-30T11:46:24.7Z</time></trkpt><trkpt lat="43.3256244" lon="12.2680278"><ele>391.00000000000006</ele><time>2026-04-30T11:46:26.7Z</time></trkpt><trkpt lat="43.3255939" lon="12.2679517"><ele>391.0</ele><time>2026-04-30T11:46:27.7Z</time></trkpt><trkpt lat="43.3256405" lon="12.2678406"><ele>391.0</ele><time>2026-04-30T11:46:28.7Z</time></trkpt><trkpt lat="43.3256664" lon="12.2677266"><ele>391.0</ele><time>2026-04-30T11:46:29.7Z</time></trkpt><trkpt lat="43.3257053" lon="12.2676079"><ele>391.0</ele><time>2026-04-30T11:46:30.699Z</time></trkpt><trkpt lat="43.3257439" lon="12.2674912"><ele>391.0</ele><time>2026-04-30T11:46:31.7Z</time></trkpt><trkpt lat="43.3257951" lon="12.2674006"><ele>391.0</ele><time>2026-04-30T11:46:32.7Z</time></trkpt><trkpt lat="43.3258521" lon="12.2672851"><ele>390.1666666666667</ele><time>2026-04-30T11:46:33.7Z</time></trkpt><trkpt lat="43.3259127" lon="12.2671788"><ele>389.33333333333337</ele><time>2026-04-30T11:46:34.7Z</time></trkpt><trkpt lat="43.3259407" lon="12.2670891"><ele>388.5</ele><time>2026-04-30T11:46:35.699Z</time></trkpt><trkpt lat="43.3259354" lon="12.2669928"><ele>387.66666666666663</ele><time>2026-04-30T11:46:36.7Z</time></trkpt><trkpt lat="43.3259333" lon="12.2669045"><ele>386.8333333333333</ele><time>2026-04-30T11:46:37.699Z</time></trkpt><trkpt lat="43.3258775" lon="12.2667712"><ele>386.0</ele><time>2026-04-30T11:46:39.7Z</time></trkpt><trkpt lat="43.3258012" lon="12.2666981"><ele>386.0</ele><time>2026-04-30T11:46:40.7Z</time></trkpt><trkpt lat="43.3257229" lon="12.2666303"><ele>386.0</ele><time>2026-04-30T11:46:41.7Z</time></trkpt><trkpt lat="43.3256437" lon="12.2665523"><ele>386.0</ele><time>2026-04-30T11:46:42.701Z</time></trkpt><trkpt lat="43.3255236" lon="12.266447"><ele>386.0</ele><time>2026-04-30T11:46:44.7Z</time></trkpt><trkpt lat="43.325468" lon="12.2663951"><ele>386.0</ele><time>2026-04-30T11:46:45.7Z</time></trkpt><trkpt lat="43.3254221" lon="12.2663235"><ele>382.8</ele><time>2026-04-30T11:46:46.699Z</time></trkpt><trkpt lat="43.3253729" lon="12.266244"><ele>379.6</ele><time>2026-04-30T11:46:47.7Z</time></trkpt><trkpt lat="43.3252807" lon="12.2660251"><ele>376.4</ele><time>2026-04-30T11:46:49.701Z</time></trkpt><trkpt lat="43.325248" lon="12.2659197"><ele>373.2</ele><time>2026-04-30T11:46:50.7Z</time></trkpt><trkpt lat="43.3252097" lon="12.2658007"><ele>370.0</ele><time>2026-04-30T11:46:51.699Z</time></trkpt><trkpt lat="43.3251623" lon="12.2656899"><ele>370.0</ele><time>2026-04-30T11:46:52.699Z</time></trkpt><trkpt lat="43.3251141" lon="12.2656236"><ele>370.0</ele><time>2026-04-30T11:46:53.7Z</time></trkpt><trkpt lat="43.3250812" lon="12.2655472"><ele>370.0</ele><time>2026-04-30T11:46:54.7Z</time></trkpt><trkpt lat="43.3250138" lon="12.2654756"><ele>370.0</ele><time>2026-04-30T11:46:55.7Z</time></trkpt><trkpt lat="43.3248765" lon="12.2655009"><ele>370.0</ele><time>2026-04-30T11:46:57.7Z</time></trkpt><trkpt lat="43.3248096" lon="12.2655096"><ele>370.0</ele><time>2026-04-30T11:46:58.7Z</time></trkpt><trkpt lat="43.3247225" lon="12.2655554"><ele>367.6</ele><time>2026-04-30T11:46:59.7Z</time></trkpt><trkpt lat="43.324653" lon="12.2655768"><ele>365.2</ele><time>2026-04-30T11:47:00.7Z</time></trkpt><trkpt lat="43.3245372" lon="12.2655791"><ele>362.79999999999995</ele><time>2026-04-30T11:47:02.7Z</time></trkpt><trkpt lat="43.324522" lon="12.2654315"><ele>360.4</ele><time>2026-04-30T11:47:04.7Z</time></trkpt><trkpt lat="43.3245166" lon="12.2653228"><ele>358.0</ele><time>2026-04-30T11:47:06.699Z</time></trkpt><trkpt lat="43.3246328" lon="12.2652255"><ele>358.0</ele><time>2026-04-30T11:47:08.7Z</time></trkpt><trkpt lat="43.3246868" lon="12.2651453"><ele>358.0</ele><time>2026-04-30T11:47:09.7Z</time></trkpt><trkpt lat="43.3247366" lon="12.2650659"><ele>358.0</ele><time>2026-04-30T11:47:10.7Z</time></trkpt><trkpt lat="43.3247422" lon="12.2649647"><ele>358.0</ele><time>2026-04-30T11:47:11.7Z</time></trkpt><trkpt lat="43.3246942" lon="12.2649002"><ele>358.0</ele><time>2026-04-30T11:47:12.7Z</time></trkpt><trkpt lat="43.3245925" lon="12.2648489"><ele>358.0</ele><time>2026-04-30T11:47:14.7Z</time></trkpt><trkpt lat="43.324527" lon="12.2648261"><ele>358.0</ele><time>2026-04-30T11:47:15.699Z</time></trkpt><trkpt lat="43.3244518" lon="12.2647955"><ele>358.0</ele><time>2026-04-30T11:47:16.699Z</time></trkpt><trkpt lat="43.3243526" lon="12.2647934"><ele>358.0</ele><time>2026-04-30T11:47:17.7Z</time></trkpt><trkpt lat="43.324195" lon="12.2647693"><ele>358.0</ele><time>2026-04-30T11:47:19.702Z</time></trkpt><trkpt lat="43.3240844" lon="12.2647753"><ele>358.0</ele><time>2026-04-30T11:47:20.699Z</time></trkpt><trkpt lat="43.3239757" lon="12.2648"><ele>357.2</ele><time>2026-04-30T11:47:21.7Z</time></trkpt><trkpt lat="43.3238711" lon="12.264815"><ele>356.4</ele><time>2026-04-30T11:47:22.7Z</time></trkpt><trkpt lat="43.3237697" lon="12.2648506"><ele>355.59999999999997</ele><time>2026-04-30T11:47:23.7Z</time></trkpt><trkpt lat="43.3236507" lon="12.2648991"><ele>354.79999999999995</ele><time>2026-04-30T11:47:24.7Z</time></trkpt><trkpt lat="43.3235717" lon="12.2649667"><ele>354.0</ele><time>2026-04-30T11:47:25.7Z</time></trkpt><trkpt lat="43.3234913" lon="12.2650118"><ele>354.0</ele><time>2026-04-30T11:47:26.7Z</time></trkpt><trkpt lat="43.3234159" lon="12.2650311"><ele>354.0</ele><time>2026-04-30T11:47:27.7Z</time></trkpt><trkpt lat="43.3233315" lon="12.2650479"><ele>354.0</ele><time>2026-04-30T11:47:28.7Z</time></trkpt><trkpt lat="43.323241" lon="12.2650723"><ele>354.0</ele><time>2026-04-30T11:47:29.7Z</time></trkpt><trkpt lat="43.3231543" lon="12.2651016"><ele>354.0</ele><time>2026-04-30T11:47:30.699Z</time></trkpt><trkpt lat="43.3230637" lon="12.2651425"><ele>354.0</ele><time>2026-04-30T11:47:31.7Z</time></trkpt><trkpt lat="43.3229893" lon="12.2652116"><ele>351.6666666666667</ele><time>2026-04-30T11:47:32.7Z</time></trkpt><trkpt lat="43.3229116" lon="12.265273"><ele>349.3333333333333</ele><time>2026-04-30T11:47:33.699Z</time></trkpt><trkpt lat="43.3228354" lon="12.2653508"><ele>347.0</ele><time>2026-04-30T11:47:34.7Z</time></trkpt><trkpt lat="43.3227711" lon="12.2654328"><ele>344.66666666666663</ele><time>2026-04-30T11:47:35.7Z</time></trkpt><trkpt lat="43.3227231" lon="12.2655053"><ele>342.3333333333333</ele><time>2026-04-30T11:47:36.7Z</time></trkpt><trkpt lat="43.3226279" lon="12.265528"><ele>340.0</ele><time>2026-04-30T11:47:38.7Z</time></trkpt><trkpt lat="43.3225741" lon="12.2654088"><ele>340.0</ele><time>2026-04-30T11:47:40.7Z</time></trkpt><trkpt lat="43.3225576" lon="12.2652362"><ele>340.0</ele><time>2026-04-30T11:47:42.699Z</time></trkpt><trkpt lat="43.3224965" lon="12.2651389"><ele>340.0</ele><time>2026-04-30T11:47:44.7Z</time></trkpt><trkpt lat="43.3223944" lon="12.2652201"><ele>340.0</ele><time>2026-04-30T11:47:46.7Z</time></trkpt><trkpt lat="43.3223358" lon="12.2652897"><ele>340.0</ele><time>2026-04-30T11:47:47.7Z</time></trkpt><trkpt lat="43.3222738" lon="12.2654014"><ele>336.25</ele><time>2026-04-30T11:47:48.82Z</time></trkpt><trkpt lat="43.322151" lon="12.2655721"><ele>332.5</ele><time>2026-04-30T11:47:50.699Z</time></trkpt><trkpt lat="43.3220799" lon="12.2656509"><ele>328.75</ele><time>2026-04-30T11:47:51.7Z</time></trkpt><trkpt lat="43.3220019" lon="12.2657308"><ele>325.0</ele><time>2026-04-30T11:47:52.699Z</time></trkpt><trkpt lat="43.3219237" lon="12.2657901"><ele>325.0</ele><time>2026-04-30T11:47:53.699Z</time></trkpt><trkpt lat="43.3218426" lon="12.2658443"><ele>325.0</ele><time>2026-04-30T11:47:54.7Z</time></trkpt><trkpt lat="43.3217561" lon="12.2658993"><ele>325.0</ele><time>2026-04-30T11:47:55.7Z</time></trkpt><trkpt lat="43.3216613" lon="12.2659377"><ele>325.0</ele><time>2026-04-30T11:47:56.7Z</time></trkpt><trkpt lat="43.3215646" lon="12.2659533"><ele>325.0</ele><time>2026-04-30T11:47:57.699Z</time></trkpt><trkpt lat="43.3214761" lon="12.2659656"><ele>323.4</ele><time>2026-04-30T11:47:58.699Z</time></trkpt><trkpt lat="43.3213903" lon="12.2659613"><ele>321.8</ele><time>2026-04-30T11:47:59.7Z</time></trkpt><trkpt lat="43.3212936" lon="12.2659449"><ele>320.2</ele><time>2026-04-30T11:48:00.7Z</time></trkpt><trkpt lat="43.3211961" lon="12.2659328"><ele>318.6</ele><time>2026-04-30T11:48:01.7Z</time></trkpt><trkpt lat="43.3210856" lon="12.2659081"><ele>317.0</ele><time>2026-04-30T11:48:02.7Z</time></trkpt><trkpt lat="43.3209856" lon="12.2658862"><ele>317.0</ele><time>2026-04-30T11:48:03.7Z</time></trkpt><trkpt lat="43.3208977" lon="12.2658711"><ele>317.0</ele><time>2026-04-30T11:48:04.7Z</time></trkpt><trkpt lat="43.3208229" lon="12.2658717"><ele>317.0</ele><time>2026-04-30T11:48:05.7Z</time></trkpt><trkpt lat="43.3207491" lon="12.2658685"><ele>317.0</ele><time>2026-04-30T11:48:06.7Z</time></trkpt><trkpt lat="43.3206581" lon="12.2659287"><ele>317.0</ele><time>2026-04-30T11:48:07.7Z</time></trkpt><trkpt lat="43.3205764" lon="12.2659847"><ele>317.0</ele><time>2026-04-30T11:48:08.7Z</time></trkpt><trkpt lat="43.3204914" lon="12.2660521"><ele>314.4</ele><time>2026-04-30T11:48:09.7Z</time></trkpt><trkpt lat="43.3204025" lon="12.2661218"><ele>311.79999999999995</ele><time>2026-04-30T11:48:10.7Z</time></trkpt><trkpt lat="43.3203152" lon="12.2661958"><ele>309.2</ele><time>2026-04-30T11:48:11.7Z</time></trkpt><trkpt lat="43.3202268" lon="12.2662713"><ele>306.59999999999997</ele><time>2026-04-30T11:48:12.7Z</time></trkpt><trkpt lat="43.3201402" lon="12.266347"><ele>304.0</ele><time>2026-04-30T11:48:13.7Z</time></trkpt><trkpt lat="43.3200323" lon="12.266412"><ele>304.8</ele><time>2026-04-30T11:48:14.7Z</time></trkpt><trkpt lat="43.3199285" lon="12.2664913"><ele>305.59999999999997</ele><time>2026-04-30T11:48:15.699Z</time></trkpt><trkpt lat="43.3198325" lon="12.2665546"><ele>306.4</ele><time>2026-04-30T11:48:16.7Z</time></trkpt><trkpt lat="43.3197256" lon="12.2666024"><ele>307.2</ele><time>2026-04-30T11:48:17.701Z</time></trkpt><trkpt lat="43.3196265" lon="12.2666627"><ele>308.0</ele><time>2026-04-30T11:48:18.699Z</time></trkpt><trkpt lat="43.3195274" lon="12.2667369"><ele>304.25</ele><time>2026-04-30T11:48:19.817Z</time></trkpt><trkpt lat="43.3193586" lon="12.2668415"><ele>300.5</ele><time>2026-04-30T11:48:21.7Z</time></trkpt><trkpt lat="43.3192714" lon="12.2668992"><ele>296.75</ele><time>2026-04-30T11:48:22.7Z</time></trkpt><trkpt lat="43.3191809" lon="12.2669639"><ele>293.0</ele><time>2026-04-30T11:48:23.7Z</time></trkpt><trkpt lat="43.3191127" lon="12.2670118"><ele>293.0</ele><time>2026-04-30T11:48:24.699Z</time></trkpt><trkpt lat="43.3190266" lon="12.2670422"><ele>293.0</ele><time>2026-04-30T11:48:25.699Z</time></trkpt><trkpt lat="43.3189507" lon="12.2670942"><ele>293.0</ele><time>2026-04-30T11:48:26.699Z</time></trkpt><trkpt lat="43.3188646" lon="12.2671432"><ele>293.0</ele><time>2026-04-30T11:48:27.7Z</time></trkpt><trkpt lat="43.3187798" lon="12.2672045"><ele>293.0</ele><time>2026-04-30T11:48:28.699Z</time></trkpt><trkpt lat="43.3186894" lon="12.2672609"><ele>291.0</ele><time>2026-04-30T11:48:29.7Z</time></trkpt><trkpt lat="43.318596" lon="12.2673154"><ele>289.0</ele><time>2026-04-30T11:48:30.7Z</time></trkpt><trkpt lat="43.3185113" lon="12.2673941"><ele>287.0</ele><time>2026-04-30T11:48:31.7Z</time></trkpt><trkpt lat="43.3184349" lon="12.2674728"><ele>285.0</ele><time>2026-04-30T11:48:32.699Z</time></trkpt><trkpt lat="43.3183494" lon="12.2675468"><ele>283.0</ele><time>2026-04-30T11:48:33.7Z</time></trkpt><trkpt lat="43.3182602" lon="12.2676127"><ele>283.0</ele><time>2026-04-30T11:48:34.7Z</time></trkpt><trkpt lat="43.3181505" lon="12.2677087"><ele>283.0</ele><time>2026-04-30T11:48:36.698Z</time></trkpt><trkpt lat="43.3180842" lon="12.2677218"><ele>283.0</ele><time>2026-04-30T11:48:37.699Z</time></trkpt><trkpt lat="43.3179739" lon="12.2676607"><ele>283.0</ele><time>2026-04-30T11:48:39.7Z</time></trkpt><trkpt lat="43.3179271" lon="12.2675269"><ele>283.0</ele><time>2026-04-30T11:48:40.7Z</time></trkpt><trkpt lat="43.3178617" lon="12.2674518"><ele>281.0</ele><time>2026-04-30T11:48:41.7Z</time></trkpt><trkpt lat="43.3177885" lon="12.2673859"><ele>279.0</ele><time>2026-04-30T11:48:42.699Z</time></trkpt><trkpt lat="43.3177083" lon="12.2673381"><ele>277.0</ele><time>2026-04-30T11:48:43.7Z</time></trkpt><trkpt lat="43.3176296" lon="12.2673206"><ele>275.0</ele><time>2026-04-30T11:48:44.7Z</time></trkpt><trkpt lat="43.3175575" lon="12.2673068"><ele>273.0</ele><time>2026-04-30T11:48:45.7Z</time></trkpt><trkpt lat="43.3174501" lon="12.2672699"><ele>271.0</ele><time>2026-04-30T11:48:47.7Z</time></trkpt><trkpt lat="43.3173068" lon="12.2672957"><ele>270.2</ele><time>2026-04-30T11:48:49.995Z</time></trkpt><trkpt lat="43.3171861" lon="12.2673867"><ele>269.40000000000003</ele><time>2026-04-30T11:48:51.7Z</time></trkpt><trkpt lat="43.3171156" lon="12.2674286"><ele>268.6</ele><time>2026-04-30T11:48:52.7Z</time></trkpt><trkpt lat="43.3170138" lon="12.2675012"><ele>267.8</ele><time>2026-04-30T11:48:54.7Z</time></trkpt><trkpt lat="43.3169679" lon="12.2675735"><ele>267.0</ele><time>2026-04-30T11:48:57.7Z</time></trkpt><trkpt lat="43.3169816" lon="12.2677225"><ele>267.0</ele><time>2026-04-30T11:48:59.7Z</time></trkpt><trkpt lat="43.3170027" lon="12.2678509"><ele>267.0</ele><time>2026-04-30T11:49:00.7Z</time></trkpt><trkpt lat="43.3170341" lon="12.2680094"><ele>267.0</ele><time>2026-04-30T11:49:01.7Z</time></trkpt><trkpt lat="43.3170768" lon="12.2681889"><ele>267.0</ele><time>2026-04-30T11:49:02.699Z</time></trkpt><trkpt lat="43.3171324" lon="12.2684002"><ele>266.6666666666667</ele><time>2026-04-30T11:49:03.7Z</time></trkpt><trkpt lat="43.3171923" lon="12.2686281"><ele>266.33333333333337</ele><time>2026-04-30T11:49:04.7Z</time></trkpt><trkpt lat="43.3172613" lon="12.2688809"><ele>266.0</ele><time>2026-04-30T11:49:05.7Z</time></trkpt><trkpt lat="43.3173362" lon="12.2691506"><ele>266.0</ele><time>2026-04-30T11:49:06.7Z</time></trkpt><trkpt lat="43.3174078" lon="12.2694307"><ele>266.0</ele><time>2026-04-30T11:49:07.7Z</time></trkpt><trkpt lat="43.3174874" lon="12.2697221"><ele>266.0</ele><time>2026-04-30T11:49:08.7Z</time></trkpt><trkpt lat="43.3175667" lon="12.2700076"><ele>263.5</ele><time>2026-04-30T11:49:09.7Z</time></trkpt><trkpt lat="43.3176402" lon="12.2703102"><ele>261.0</ele><time>2026-04-30T11:49:10.699Z</time></trkpt><trkpt lat="43.3177195" lon="12.2706149"><ele>261.0</ele><time>2026-04-30T11:49:11.699Z</time></trkpt><trkpt lat="43.3178088" lon="12.2709076"><ele>261.0</ele><time>2026-04-30T11:49:12.7Z</time></trkpt><trkpt lat="43.3178888" lon="12.2712"><ele>260.6666666666667</ele><time>2026-04-30T11:49:13.7Z</time></trkpt><trkpt lat="43.3179584" lon="12.2714886"><ele>260.33333333333337</ele><time>2026-04-30T11:49:14.7Z</time></trkpt><trkpt lat="43.3179957" lon="12.2717946"><ele>260.0</ele><time>2026-04-30T11:49:15.7Z</time></trkpt><trkpt lat="43.3180213" lon="12.2720835"><ele>258.5</ele><time>2026-04-30T11:49:16.7Z</time></trkpt><trkpt lat="43.3180346" lon="12.2723826"><ele>257.0</ele><time>2026-04-30T11:49:17.7Z</time></trkpt><trkpt lat="43.3180335" lon="12.2727061"><ele>257.0</ele><time>2026-04-30T11:49:18.7Z</time></trkpt><trkpt lat="43.3180384" lon="12.2730228"><ele>257.0</ele><time>2026-04-30T11:49:19.7Z</time></trkpt><trkpt lat="43.3180555" lon="12.2734116"><ele>259.0</ele><time>2026-04-30T11:49:20.889Z</time></trkpt><trkpt lat="43.3180975" lon="12.2740111"><ele>261.0</ele><time>2026-04-30T11:49:22.7Z</time></trkpt><trkpt lat="43.3181131" lon="12.2743361"><ele>261.0</ele><time>2026-04-30T11:49:23.699Z</time></trkpt><trkpt lat="43.3181304" lon="12.2746507"><ele>261.0</ele><time>2026-04-30T11:49:24.7Z</time></trkpt><trkpt lat="43.3181483" lon="12.2749567"><ele>260.5</ele><time>2026-04-30T11:49:25.7Z</time></trkpt><trkpt lat="43.3181689" lon="12.2752726"><ele>260.0</ele><time>2026-04-30T11:49:26.7Z</time></trkpt><trkpt lat="43.3181965" lon="12.2755991"><ele>259.5</ele><time>2026-04-30T11:49:27.699Z</time></trkpt><trkpt lat="43.3182365" lon="12.2759291"><ele>259.0</ele><time>2026-04-30T11:49:28.7Z</time></trkpt><trkpt lat="43.3182914" lon="12.2762781"><ele>258.5</ele><time>2026-04-30T11:49:29.699Z</time></trkpt><trkpt lat="43.3183465" lon="12.2766384"><ele>258.0</ele><time>2026-04-30T11:49:30.7Z</time></trkpt><trkpt lat="43.318393" lon="12.2769927"><ele>257.0</ele><time>2026-04-30T11:49:31.7Z</time></trkpt><trkpt lat="43.3184322" lon="12.2773402"><ele>256.0</ele><time>2026-04-30T11:49:32.699Z</time></trkpt><trkpt lat="43.3184686" lon="12.2776787"><ele>256.0</ele><time>2026-04-30T11:49:33.699Z</time></trkpt><trkpt lat="43.3185016" lon="12.2780052"><ele>256.0</ele><time>2026-04-30T11:49:34.699Z</time></trkpt><trkpt lat="43.3185255" lon="12.2783275"><ele>255.5</ele><time>2026-04-30T11:49:35.7Z</time></trkpt><trkpt lat="43.3185368" lon="12.2786545"><ele>255.0</ele><time>2026-04-30T11:49:36.699Z</time></trkpt><trkpt lat="43.3185329" lon="12.2789774"><ele>253.5</ele><time>2026-04-30T11:49:37.699Z</time></trkpt><trkpt lat="43.3185194" lon="12.2792967"><ele>252.0</ele><time>2026-04-30T11:49:38.7Z</time></trkpt><trkpt lat="43.3185174" lon="12.2796211"><ele>252.5</ele><time>2026-04-30T11:49:39.701Z</time></trkpt><trkpt lat="43.3185307" lon="12.2799271"><ele>253.0</ele><time>2026-04-30T11:49:40.7Z</time></trkpt><trkpt lat="43.3185602" lon="12.2802437"><ele>253.0</ele><time>2026-04-30T11:49:41.699Z</time></trkpt><trkpt lat="43.3185929" lon="12.2805637"><ele>253.0</ele><time>2026-04-30T11:49:42.7Z</time></trkpt><trkpt lat="43.3186218" lon="12.2808866"><ele>253.5</ele><time>2026-04-30T11:49:43.7Z</time></trkpt><trkpt lat="43.3186488" lon="12.2812108"><ele>254.0</ele><time>2026-04-30T11:49:44.699Z</time></trkpt><trkpt lat="43.3186801" lon="12.2815283"><ele>253.0</ele><time>2026-04-30T11:49:45.7Z</time></trkpt><trkpt lat="43.3187121" lon="12.2818408"><ele>252.0</ele><time>2026-04-30T11:49:46.7Z</time></trkpt><trkpt lat="43.3187619" lon="12.2821588"><ele>252.0</ele><time>2026-04-30T11:49:47.7Z</time></trkpt><trkpt lat="43.3188177" lon="12.2824738"><ele>252.0</ele><time>2026-04-30T11:49:48.699Z</time></trkpt><trkpt lat="43.318885" lon="12.2827887"><ele>253.5</ele><time>2026-04-30T11:49:49.7Z</time></trkpt><trkpt lat="43.3189559" lon="12.2831021"><ele>255.0</ele><time>2026-04-30T11:49:50.699Z</time></trkpt><trkpt lat="43.3190845" lon="12.2837413"><ele>255.0</ele><time>2026-04-30T11:49:52.701Z</time></trkpt><trkpt lat="43.3191046" lon="12.2840669"><ele>255.0</ele><time>2026-04-30T11:49:53.699Z</time></trkpt><trkpt lat="43.3191" lon="12.2843967"><ele>255.0</ele><time>2026-04-30T11:49:54.7Z</time></trkpt><trkpt lat="43.3190924" lon="12.2847258"><ele>255.0</ele><time>2026-04-30T11:49:55.7Z</time></trkpt><trkpt lat="43.3191085" lon="12.2850515"><ele>254.0</ele><time>2026-04-30T11:49:56.699Z</time></trkpt><trkpt lat="43.3191469" lon="12.2853717"><ele>253.0</ele><time>2026-04-30T11:49:57.7Z</time></trkpt><trkpt lat="43.319215" lon="12.285677"><ele>252.0</ele><time>2026-04-30T11:49:58.7Z</time></trkpt><trkpt lat="43.319308" lon="12.2859638"><ele>251.0</ele><time>2026-04-30T11:49:59.7Z</time></trkpt><trkpt lat="43.3194061" lon="12.2862569"><ele>250.0</ele><time>2026-04-30T11:50:00.7Z</time></trkpt><trkpt lat="43.3195077" lon="12.2865475"><ele>249.0</ele><time>2026-04-30T11:50:01.699Z</time></trkpt><trkpt lat="43.3196119" lon="12.2868356"><ele>249.0</ele><time>2026-04-30T11:50:02.7Z</time></trkpt><trkpt lat="43.3197139" lon="12.2871218"><ele>249.0</ele><time>2026-04-30T11:50:03.699Z</time></trkpt><trkpt lat="43.3198176" lon="12.2873988"><ele>253.0</ele><time>2026-04-30T11:50:04.7Z</time></trkpt><trkpt lat="43.31992" lon="12.2876752"><ele>257.0</ele><time>2026-04-30T11:50:05.699Z</time></trkpt><trkpt lat="43.3200242" lon="12.2879568"><ele>256.5</ele><time>2026-04-30T11:50:06.7Z</time></trkpt><trkpt lat="43.3201252" lon="12.28823"><ele>256.0</ele><time>2026-04-30T11:50:07.7Z</time></trkpt><trkpt lat="43.3202303" lon="12.2885109"><ele>256.0</ele><time>2026-04-30T11:50:08.7Z</time></trkpt><trkpt lat="43.3203329" lon="12.2887799"><ele>256.0</ele><time>2026-04-30T11:50:09.699Z</time></trkpt><trkpt lat="43.3204394" lon="12.2890668"><ele>256.0</ele><time>2026-04-30T11:50:10.7Z</time></trkpt><trkpt lat="43.3205464" lon="12.2893456"><ele>256.0</ele><time>2026-04-30T11:50:11.7Z</time></trkpt><trkpt lat="43.320651" lon="12.2896364"><ele>257.5</ele><time>2026-04-30T11:50:12.7Z</time></trkpt><trkpt lat="43.3207621" lon="12.2899125"><ele>259.0</ele><time>2026-04-30T11:50:13.7Z</time></trkpt><trkpt lat="43.3208719" lon="12.2901888"><ele>259.0</ele><time>2026-04-30T11:50:14.7Z</time></trkpt><trkpt lat="43.3209873" lon="12.2904886"><ele>259.0</ele><time>2026-04-30T11:50:15.7Z</time></trkpt><trkpt lat="43.3210886" lon="12.2907674"><ele>257.0</ele><time>2026-04-30T11:50:16.7Z</time></trkpt><trkpt lat="43.3211997" lon="12.2910576"><ele>255.0</ele><time>2026-04-30T11:50:17.699Z</time></trkpt><trkpt lat="43.3213129" lon="12.2913484"><ele>259.5</ele><time>2026-04-30T11:50:18.7Z</time></trkpt><trkpt lat="43.321414" lon="12.2916428"><ele>264.0</ele><time>2026-04-30T11:50:19.699Z</time></trkpt><trkpt lat="43.3215174" lon="12.2919169"><ele>264.0</ele><time>2026-04-30T11:50:20.7Z</time></trkpt><trkpt lat="43.3216199" lon="12.2922009"><ele>264.0</ele><time>2026-04-30T11:50:21.786Z</time></trkpt><trkpt lat="43.3218044" lon="12.2927002"><ele>262.0</ele><time>2026-04-30T11:50:23.701Z</time></trkpt><trkpt lat="43.321886" lon="12.2929647"><ele>260.0</ele><time>2026-04-30T11:50:24.701Z</time></trkpt><trkpt lat="43.3219473" lon="12.2932347"><ele>258.0</ele><time>2026-04-30T11:50:25.7Z</time></trkpt><trkpt lat="43.3219854" lon="12.2935122"><ele>257.0</ele><time>2026-04-30T11:50:26.701Z</time></trkpt><trkpt lat="43.3219985" lon="12.2937878"><ele>256.0</ele><time>2026-04-30T11:50:27.701Z</time></trkpt><trkpt lat="43.3219907" lon="12.2940449"><ele>255.0</ele><time>2026-04-30T11:50:28.701Z</time></trkpt><trkpt lat="43.3219479" lon="12.2942861"><ele>255.0</ele><time>2026-04-30T11:50:29.701Z</time></trkpt><trkpt lat="43.3218942" lon="12.2945063"><ele>255.0</ele><time>2026-04-30T11:50:30.7Z</time></trkpt><trkpt lat="43.3218344" lon="12.2947235"><ele>255.0</ele><time>2026-04-30T11:50:31.7Z</time></trkpt><trkpt lat="43.3216679" lon="12.2948086"><ele>255.0</ele><time>2026-04-30T11:50:32.7Z</time></trkpt><trkpt lat="43.3215601" lon="12.2949455"><ele>255.0</ele><time>2026-04-30T11:50:33.701Z</time></trkpt><trkpt lat="43.3214507" lon="12.2950752"><ele>255.0</ele><time>2026-04-30T11:50:34.7Z</time></trkpt><trkpt lat="43.3213228" lon="12.2951863"><ele>255.0</ele><time>2026-04-30T11:50:35.7Z</time></trkpt><trkpt lat="43.3212011" lon="12.2952973"><ele>253.25</ele><time>2026-04-30T11:50:36.7Z</time></trkpt><trkpt lat="43.32109" lon="12.2952981"><ele>251.5</ele><time>2026-04-30T11:50:37.701Z</time></trkpt><trkpt lat="43.3209557" lon="12.2953306"><ele>249.75</ele><time>2026-04-30T11:50:38.7Z</time></trkpt><trkpt lat="43.3208159" lon="12.2953415"><ele>248.0</ele><time>2026-04-30T11:50:39.7Z</time></trkpt><trkpt lat="43.3206725" lon="12.2953493"><ele>247.60000000000002</ele><time>2026-04-30T11:50:40.7Z</time></trkpt><trkpt lat="43.3205465" lon="12.2953665"><ele>247.20000000000002</ele><time>2026-04-30T11:50:41.699Z</time></trkpt><trkpt lat="43.3204312" lon="12.2953674"><ele>246.8</ele><time>2026-04-30T11:50:42.699Z</time></trkpt><trkpt lat="43.3203237" lon="12.2953934"><ele>246.4</ele><time>2026-04-30T11:50:43.699Z</time></trkpt><trkpt lat="43.3202591" lon="12.2954334"><ele>246.0</ele><time>2026-04-30T11:50:44.7Z</time></trkpt><trkpt lat="43.3202102" lon="12.295591"><ele>246.0</ele><time>2026-04-30T11:50:46.7Z</time></trkpt><trkpt lat="43.3202218" lon="12.2956951"><ele>246.00000000000003</ele><time>2026-04-30T11:50:47.701Z</time></trkpt><trkpt lat="43.3202491" lon="12.2958342"><ele>246.00000000000003</ele><time>2026-04-30T11:50:48.7Z</time></trkpt><trkpt lat="43.3202687" lon="12.2960003"><ele>246.0</ele><time>2026-04-30T11:50:49.699Z</time></trkpt><trkpt lat="43.3203083" lon="12.2961684"><ele>246.0</ele><time>2026-04-30T11:50:50.7Z</time></trkpt><trkpt lat="43.3203355" lon="12.2963529"><ele>246.0</ele><time>2026-04-30T11:50:51.7Z</time></trkpt><trkpt lat="43.3204042" lon="12.2967174"><ele>246.0</ele><time>2026-04-30T11:50:53.7Z</time></trkpt><trkpt lat="43.3204353" lon="12.2968772"><ele>246.0</ele><time>2026-04-30T11:50:54.699Z</time></trkpt><trkpt lat="43.3204758" lon="12.2970126"><ele>246.0</ele><time>2026-04-30T11:50:55.7Z</time></trkpt><trkpt lat="43.3205208" lon="12.2971311"><ele>246.00000000000003</ele><time>2026-04-30T11:50:56.7Z</time></trkpt><trkpt lat="43.3205703" lon="12.2972261"><ele>246.00000000000003</ele><time>2026-04-30T11:50:57.7Z</time></trkpt><trkpt lat="43.3206108" lon="12.2973101"><ele>246.0</ele><time>2026-04-30T11:50:58.699Z</time></trkpt><trkpt lat="43.3206738" lon="12.2974175"><ele>246.0</ele><time>2026-04-30T11:51:00.699Z</time></trkpt><trkpt lat="43.3207892" lon="12.2974905"><ele>247.25</ele><time>2026-04-30T11:51:02.7Z</time></trkpt><trkpt lat="43.320885" lon="12.2975283"><ele>248.5</ele><time>2026-04-30T11:51:03.699Z</time></trkpt><trkpt lat="43.3210199" lon="12.2975714"><ele>249.75</ele><time>2026-04-30T11:51:04.699Z</time></trkpt><trkpt lat="43.3211566" lon="12.2976042"><ele>251.0</ele><time>2026-04-30T11:51:05.699Z</time></trkpt><trkpt lat="43.3213295" lon="12.297639"><ele>251.33333333333334</ele><time>2026-04-30T11:51:06.699Z</time></trkpt><trkpt lat="43.3214895" lon="12.2976722"><ele>251.66666666666669</ele><time>2026-04-30T11:51:07.7Z</time></trkpt><trkpt lat="43.3217272" lon="12.297713"><ele>252.0</ele><time>2026-04-30T11:51:08.7Z</time></trkpt><trkpt lat="43.3219438" lon="12.2977681"><ele>252.0</ele><time>2026-04-30T11:51:09.7Z</time></trkpt><trkpt lat="43.3221696" lon="12.2978212"><ele>252.0</ele><time>2026-04-30T11:51:10.699Z</time></trkpt><trkpt lat="43.3224179" lon="12.2978382"><ele>254.5</ele><time>2026-04-30T11:51:11.7Z</time></trkpt><trkpt lat="43.3226618" lon="12.2978442"><ele>257.0</ele><time>2026-04-30T11:51:12.699Z</time></trkpt><trkpt lat="43.3229069" lon="12.2978193"><ele>255.33333333333334</ele><time>2026-04-30T11:51:13.7Z</time></trkpt><trkpt lat="43.3231145" lon="12.2977727"><ele>253.66666666666669</ele><time>2026-04-30T11:51:14.699Z</time></trkpt><trkpt lat="43.3233167" lon="12.2977286"><ele>252.0</ele><time>2026-04-30T11:51:15.7Z</time></trkpt><trkpt lat="43.323518" lon="12.2977151"><ele>252.0</ele><time>2026-04-30T11:51:16.7Z</time></trkpt><trkpt lat="43.3237125" lon="12.2977073"><ele>252.0</ele><time>2026-04-30T11:51:17.7Z</time></trkpt><trkpt lat="43.3238593" lon="12.2978011"><ele>252.0</ele><time>2026-04-30T11:51:18.7Z</time></trkpt><trkpt lat="43.3239766" lon="12.2979022"><ele>252.66666666666669</ele><time>2026-04-30T11:51:19.701Z</time></trkpt><trkpt lat="43.3240743" lon="12.2980678"><ele>253.33333333333334</ele><time>2026-04-30T11:51:20.7Z</time></trkpt><trkpt lat="43.3241491" lon="12.2982504"><ele>254.0</ele><time>2026-04-30T11:51:21.699Z</time></trkpt><trkpt lat="43.324227" lon="12.298543"><ele>250.0</ele><time>2026-04-30T11:51:22.856Z</time></trkpt><trkpt lat="43.3243994" lon="12.2989996"><ele>246.0</ele><time>2026-04-30T11:51:24.699Z</time></trkpt><trkpt lat="43.3245466" lon="12.2992207"><ele>246.0</ele><time>2026-04-30T11:51:25.7Z</time></trkpt><trkpt lat="43.3247123" lon="12.2994489"><ele>246.0</ele><time>2026-04-30T11:51:26.699Z</time></trkpt><trkpt lat="43.3249051" lon="12.2996567"><ele>246.0</ele><time>2026-04-30T11:51:27.7Z</time></trkpt><trkpt lat="43.3251153" lon="12.2998459"><ele>246.0</ele><time>2026-04-30T11:51:28.7Z</time></trkpt><trkpt lat="43.3253457" lon="12.3000181"><ele>248.5</ele><time>2026-04-30T11:51:29.7Z</time></trkpt><trkpt lat="43.3255837" lon="12.3001794"><ele>251.0</ele><time>2026-04-30T11:51:30.7Z</time></trkpt><trkpt lat="43.3258548" lon="12.3002624"><ele>251.0</ele><time>2026-04-30T11:51:31.699Z</time></trkpt><trkpt lat="43.3261164" lon="12.3003472"><ele>251.0</ele><time>2026-04-30T11:51:32.7Z</time></trkpt><trkpt lat="43.3263911" lon="12.3004398"><ele>251.5</ele><time>2026-04-30T11:51:33.7Z</time></trkpt><trkpt lat="43.3266456" lon="12.3004174"><ele>252.0</ele><time>2026-04-30T11:51:34.7Z</time></trkpt><trkpt lat="43.3268869" lon="12.3004358"><ele>252.0</ele><time>2026-04-30T11:51:35.699Z</time></trkpt><trkpt lat="43.3271332" lon="12.3004564"><ele>252.0</ele><time>2026-04-30T11:51:36.7Z</time></trkpt><trkpt lat="43.327387" lon="12.3004724"><ele>252.0</ele><time>2026-04-30T11:51:37.7Z</time></trkpt><trkpt lat="43.3276411" lon="12.30049"><ele>252.0</ele><time>2026-04-30T11:51:38.701Z</time></trkpt><trkpt lat="43.3278938" lon="12.3005053"><ele>253.0</ele><time>2026-04-30T11:51:39.7Z</time></trkpt><trkpt lat="43.3281495" lon="12.3005228"><ele>254.0</ele><time>2026-04-30T11:51:40.7Z</time></trkpt><trkpt lat="43.3284069" lon="12.3005432"><ele>254.0</ele><time>2026-04-30T11:51:41.7Z</time></trkpt><trkpt lat="43.3286563" lon="12.3005646"><ele>254.0</ele><time>2026-04-30T11:51:42.7Z</time></trkpt><trkpt lat="43.328935" lon="12.3005748"><ele>254.0</ele><time>2026-04-30T11:51:43.7Z</time></trkpt><trkpt lat="43.329193" lon="12.3005961"><ele>254.0</ele><time>2026-04-30T11:51:44.7Z</time></trkpt><trkpt lat="43.3294522" lon="12.3006209"><ele>254.0</ele><time>2026-04-30T11:51:45.7Z</time></trkpt><trkpt lat="43.3297002" lon="12.3006419"><ele>254.0</ele><time>2026-04-30T11:51:46.701Z</time></trkpt><trkpt lat="43.3299284" lon="12.3006671"><ele>255.33333333333334</ele><time>2026-04-30T11:51:47.7Z</time></trkpt><trkpt lat="43.3301551" lon="12.3006834"><ele>256.6666666666667</ele><time>2026-04-30T11:51:48.7Z</time></trkpt><trkpt lat="43.3303712" lon="12.3006975"><ele>258.0</ele><time>2026-04-30T11:51:49.7Z</time></trkpt><trkpt lat="43.330577" lon="12.3007181"><ele>258.3333333333333</ele><time>2026-04-30T11:51:50.7Z</time></trkpt><trkpt lat="43.3307742" lon="12.3007369"><ele>258.66666666666663</ele><time>2026-04-30T11:51:51.7Z</time></trkpt><trkpt lat="43.3309705" lon="12.3007453"><ele>259.0</ele><time>2026-04-30T11:51:52.699Z</time></trkpt><trkpt lat="43.3313598" lon="12.3007078"><ele>259.3333333333333</ele><time>2026-04-30T11:51:54.701Z</time></trkpt><trkpt lat="43.3315409" lon="12.3006511"><ele>259.6666666666667</ele><time>2026-04-30T11:51:55.7Z</time></trkpt><trkpt lat="43.3317105" lon="12.3005696"><ele>260.0</ele><time>2026-04-30T11:51:56.699Z</time></trkpt><trkpt lat="43.3318839" lon="12.3004615"><ele>259.6666666666667</ele><time>2026-04-30T11:51:57.7Z</time></trkpt><trkpt lat="43.3320735" lon="12.3003288"><ele>259.3333333333333</ele><time>2026-04-30T11:51:58.7Z</time></trkpt><trkpt lat="43.332281" lon="12.3001734"><ele>259.0</ele><time>2026-04-30T11:51:59.7Z</time></trkpt><trkpt lat="43.3325188" lon="12.3000063"><ele>259.0</ele><time>2026-04-30T11:52:00.7Z</time></trkpt><trkpt lat="43.3327621" lon="12.2998537"><ele>259.0</ele><time>2026-04-30T11:52:01.7Z</time></trkpt><trkpt lat="43.33299" lon="12.2997044"><ele>261.0</ele><time>2026-04-30T11:52:02.7Z</time></trkpt><trkpt lat="43.333206" lon="12.299557"><ele>263.0</ele><time>2026-04-30T11:52:03.699Z</time></trkpt><trkpt lat="43.3334123" lon="12.2994199"><ele>263.0</ele><time>2026-04-30T11:52:04.7Z</time></trkpt><trkpt lat="43.3336142" lon="12.2992831"><ele>263.0</ele><time>2026-04-30T11:52:05.699Z</time></trkpt><trkpt lat="43.3338117" lon="12.2991359"><ele>260.0</ele><time>2026-04-30T11:52:06.7Z</time></trkpt><trkpt lat="43.3340173" lon="12.2989914"><ele>257.0</ele><time>2026-04-30T11:52:07.7Z</time></trkpt><trkpt lat="43.3342201" lon="12.2988451"><ele>263.0</ele><time>2026-04-30T11:52:08.7Z</time></trkpt><trkpt lat="43.3344347" lon="12.2987116"><ele>269.0</ele><time>2026-04-30T11:52:09.7Z</time></trkpt><trkpt lat="43.3346392" lon="12.2985546"><ele>265.0</ele><time>2026-04-30T11:52:10.7Z</time></trkpt><trkpt lat="43.3348389" lon="12.2983928"><ele>261.0</ele><time>2026-04-30T11:52:11.7Z</time></trkpt><trkpt lat="43.3350204" lon="12.2982609"><ele>257.0</ele><time>2026-04-30T11:52:12.7Z</time></trkpt><trkpt lat="43.3351975" lon="12.2981459"><ele>257.6666666666667</ele><time>2026-04-30T11:52:13.699Z</time></trkpt><trkpt lat="43.3353655" lon="12.2980226"><ele>258.3333333333333</ele><time>2026-04-30T11:52:14.699Z</time></trkpt><trkpt lat="43.3355274" lon="12.2979027"><ele>259.0</ele><time>2026-04-30T11:52:15.7Z</time></trkpt><trkpt lat="43.3356819" lon="12.2977971"><ele>259.0</ele><time>2026-04-30T11:52:16.7Z</time></trkpt><trkpt lat="43.3358373" lon="12.2976906"><ele>259.0</ele><time>2026-04-30T11:52:17.7Z</time></trkpt><trkpt lat="43.3359881" lon="12.2975827"><ele>259.0</ele><time>2026-04-30T11:52:18.699Z</time></trkpt><trkpt lat="43.3361408" lon="12.2974748"><ele>259.0</ele><time>2026-04-30T11:52:19.699Z</time></trkpt><trkpt lat="43.3362999" lon="12.2973623"><ele>259.0</ele><time>2026-04-30T11:52:20.699Z</time></trkpt><trkpt lat="43.3364551" lon="12.2972537"><ele>259.0</ele><time>2026-04-30T11:52:21.7Z</time></trkpt><trkpt lat="43.3366072" lon="12.2971485"><ele>260.0</ele><time>2026-04-30T11:52:22.699Z</time></trkpt><trkpt lat="43.3367819" lon="12.297028"><ele>261.0</ele><time>2026-04-30T11:52:23.813Z</time></trkpt><trkpt lat="43.3370584" lon="12.2968292"><ele>261.0</ele><time>2026-04-30T11:52:25.7Z</time></trkpt><trkpt lat="43.3372042" lon="12.2967303"><ele>261.0</ele><time>2026-04-30T11:52:26.7Z</time></trkpt><trkpt lat="43.3373566" lon="12.2966318"><ele>261.0</ele><time>2026-04-30T11:52:27.7Z</time></trkpt><trkpt lat="43.3375123" lon="12.2965214"><ele>261.0</ele><time>2026-04-30T11:52:28.699Z</time></trkpt><trkpt lat="43.3376743" lon="12.2964026"><ele>261.0</ele><time>2026-04-30T11:52:29.7Z</time></trkpt><trkpt lat="43.3378466" lon="12.2962825"><ele>261.0</ele><time>2026-04-30T11:52:30.7Z</time></trkpt><trkpt lat="43.3380266" lon="12.2961564"><ele>261.6666666666667</ele><time>2026-04-30T11:52:31.7Z</time></trkpt><trkpt lat="43.3382131" lon="12.2960188"><ele>262.33333333333337</ele><time>2026-04-30T11:52:32.7Z</time></trkpt><trkpt lat="43.3384041" lon="12.2958809"><ele>263.0</ele><time>2026-04-30T11:52:33.7Z</time></trkpt><trkpt lat="43.3386048" lon="12.2957398"><ele>263.0</ele><time>2026-04-30T11:52:34.699Z</time></trkpt><trkpt lat="43.3388105" lon="12.2955938"><ele>263.0</ele><time>2026-04-30T11:52:35.7Z</time></trkpt><trkpt lat="43.3390224" lon="12.2954457"><ele>265.0</ele><time>2026-04-30T11:52:36.699Z</time></trkpt><trkpt lat="43.33924" lon="12.2952953"><ele>267.0</ele><time>2026-04-30T11:52:37.699Z</time></trkpt><trkpt lat="43.3394556" lon="12.2951442"><ele>267.0</ele><time>2026-04-30T11:52:38.7Z</time></trkpt><trkpt lat="43.3396332" lon="12.2950291"><ele>267.0</ele><time>2026-04-30T11:52:39.7Z</time></trkpt><trkpt lat="43.3398101" lon="12.2949086"><ele>267.0</ele><time>2026-04-30T11:52:40.7Z</time></trkpt><trkpt lat="43.3399705" lon="12.294796"><ele>268.6666666666667</ele><time>2026-04-30T11:52:41.701Z</time></trkpt><trkpt lat="43.3401195" lon="12.294686"><ele>270.33333333333337</ele><time>2026-04-30T11:52:42.699Z</time></trkpt><trkpt lat="43.3402614" lon="12.2945846"><ele>272.0</ele><time>2026-04-30T11:52:43.7Z</time></trkpt><trkpt lat="43.3404043" lon="12.2944892"><ele>272.0</ele><time>2026-04-30T11:52:44.7Z</time></trkpt><trkpt lat="43.340528" lon="12.2943931"><ele>272.0</ele><time>2026-04-30T11:52:45.7Z</time></trkpt><trkpt lat="43.3406553" lon="12.2942833"><ele>272.0</ele><time>2026-04-30T11:52:46.701Z</time></trkpt><trkpt lat="43.3407778" lon="12.2941638"><ele>272.0</ele><time>2026-04-30T11:52:47.7Z</time></trkpt><trkpt lat="43.3408953" lon="12.2940158"><ele>271.6666666666667</ele><time>2026-04-30T11:52:48.7Z</time></trkpt><trkpt lat="43.3409968" lon="12.2938474"><ele>271.3333333333333</ele><time>2026-04-30T11:52:49.699Z</time></trkpt><trkpt lat="43.3410765" lon="12.2936433"><ele>271.0</ele><time>2026-04-30T11:52:50.7Z</time></trkpt><trkpt lat="43.3411668" lon="12.2934244"><ele>271.0</ele><time>2026-04-30T11:52:51.699Z</time></trkpt><trkpt lat="43.3412499" lon="12.2932061"><ele>271.0</ele><time>2026-04-30T11:52:52.699Z</time></trkpt><trkpt lat="43.3413282" lon="12.292989"><ele>271.0</ele><time>2026-04-30T11:52:53.7Z</time></trkpt><trkpt lat="43.3414026" lon="12.292781"><ele>270.5</ele><time>2026-04-30T11:52:54.702Z</time></trkpt><trkpt lat="43.3415449" lon="12.2924049"><ele>270.0</ele><time>2026-04-30T11:52:56.699Z</time></trkpt><trkpt lat="43.3416149" lon="12.2922339"><ele>270.0</ele><time>2026-04-30T11:52:57.7Z</time></trkpt><trkpt lat="43.3416853" lon="12.2921014"><ele>270.0</ele><time>2026-04-30T11:52:58.699Z</time></trkpt><trkpt lat="43.3417455" lon="12.2920068"><ele>270.0</ele><time>2026-04-30T11:52:59.7Z</time></trkpt><trkpt lat="43.3417865" lon="12.2918862"><ele>270.0</ele><time>2026-04-30T11:53:00.7Z</time></trkpt><trkpt lat="43.3418181" lon="12.2917473"><ele>270.0</ele><time>2026-04-30T11:53:01.7Z</time></trkpt><trkpt lat="43.3418488" lon="12.2915852"><ele>272.3333333333333</ele><time>2026-04-30T11:53:02.699Z</time></trkpt><trkpt lat="43.3418874" lon="12.2913827"><ele>274.66666666666663</ele><time>2026-04-30T11:53:03.7Z</time></trkpt><trkpt lat="43.3419433" lon="12.2911558"><ele>277.0</ele><time>2026-04-30T11:53:04.7Z</time></trkpt><trkpt lat="43.3420074" lon="12.2909036"><ele>277.0</ele><time>2026-04-30T11:53:05.7Z</time></trkpt><trkpt lat="43.3420859" lon="12.2906378"><ele>277.0</ele><time>2026-04-30T11:53:06.699Z</time></trkpt><trkpt lat="43.3421614" lon="12.2903613"><ele>277.0</ele><time>2026-04-30T11:53:07.7Z</time></trkpt><trkpt lat="43.3422354" lon="12.2900718"><ele>272.0</ele><time>2026-04-30T11:53:08.7Z</time></trkpt><trkpt lat="43.3422962" lon="12.2897711"><ele>267.0</ele><time>2026-04-30T11:53:09.7Z</time></trkpt><trkpt lat="43.3423829" lon="12.2894816"><ele>267.0</ele><time>2026-04-30T11:53:10.7Z</time></trkpt><trkpt lat="43.3424622" lon="12.2891949"><ele>267.0</ele><time>2026-04-30T11:53:11.699Z</time></trkpt><trkpt lat="43.3425361" lon="12.2889259"><ele>267.0</ele><time>2026-04-30T11:53:12.7Z</time></trkpt><trkpt lat="43.3426167" lon="12.2886716"><ele>268.3333333333333</ele><time>2026-04-30T11:53:13.7Z</time></trkpt><trkpt lat="43.3426707" lon="12.2884265"><ele>269.66666666666663</ele><time>2026-04-30T11:53:14.7Z</time></trkpt><trkpt lat="43.3426895" lon="12.2881705"><ele>271.0</ele><time>2026-04-30T11:53:15.699Z</time></trkpt><trkpt lat="43.3426797" lon="12.2879009"><ele>271.0</ele><time>2026-04-30T11:53:16.699Z</time></trkpt><trkpt lat="43.3426408" lon="12.2876142"><ele>271.0</ele><time>2026-04-30T11:53:17.7Z</time></trkpt><trkpt lat="43.3425984" lon="12.2873268"><ele>271.0</ele><time>2026-04-30T11:53:18.7Z</time></trkpt><trkpt lat="43.342542" lon="12.2870309"><ele>270.0</ele><time>2026-04-30T11:53:19.7Z</time></trkpt><trkpt lat="43.342503" lon="12.2867374"><ele>269.0</ele><time>2026-04-30T11:53:20.7Z</time></trkpt><trkpt lat="43.3425164" lon="12.2864269"><ele>268.0</ele><time>2026-04-30T11:53:21.7Z</time></trkpt><trkpt lat="43.3425308" lon="12.2861221"><ele>268.0</ele><time>2026-04-30T11:53:22.7Z</time></trkpt><trkpt lat="43.3425595" lon="12.2858084"><ele>268.0</ele><time>2026-04-30T11:53:23.7Z</time></trkpt><trkpt lat="43.3426373" lon="12.2853645"><ele>270.0</ele><time>2026-04-30T11:53:25.142Z</time></trkpt><trkpt lat="43.3427509" lon="12.2849876"><ele>272.0</ele><time>2026-04-30T11:53:26.699Z</time></trkpt><trkpt lat="43.3428616" lon="12.2847886"><ele>273.33333333333337</ele><time>2026-04-30T11:53:27.7Z</time></trkpt><trkpt lat="43.3430053" lon="12.2846025"><ele>274.6666666666667</ele><time>2026-04-30T11:53:28.7Z</time></trkpt><trkpt lat="43.3431534" lon="12.2844232"><ele>276.0</ele><time>2026-04-30T11:53:29.7Z</time></trkpt><trkpt lat="43.3433" lon="12.284233"><ele>274.6666666666667</ele><time>2026-04-30T11:53:30.699Z</time></trkpt><trkpt lat="43.3434552" lon="12.28403"><ele>273.33333333333337</ele><time>2026-04-30T11:53:31.7Z</time></trkpt><trkpt lat="43.343631" lon="12.2838311"><ele>272.0</ele><time>2026-04-30T11:53:32.7Z</time></trkpt><trkpt lat="43.3438286" lon="12.2836394"><ele>270.0</ele><time>2026-04-30T11:53:33.7Z</time></trkpt><trkpt lat="43.3440465" lon="12.2834586"><ele>268.0</ele><time>2026-04-30T11:53:34.7Z</time></trkpt><trkpt lat="43.344276" lon="12.2832848"><ele>268.0</ele><time>2026-04-30T11:53:35.7Z</time></trkpt><trkpt lat="43.3445062" lon="12.2831091"><ele>268.0</ele><time>2026-04-30T11:53:36.7Z</time></trkpt><trkpt lat="43.3447228" lon="12.2829268"><ele>265.5</ele><time>2026-04-30T11:53:37.7Z</time></trkpt><trkpt lat="43.3449238" lon="12.28274"><ele>263.0</ele><time>2026-04-30T11:53:38.7Z</time></trkpt><trkpt lat="43.3451185" lon="12.2825534"><ele>263.0</ele><time>2026-04-30T11:53:39.7Z</time></trkpt><trkpt lat="43.3453118" lon="12.2823512"><ele>263.0</ele><time>2026-04-30T11:53:40.7Z</time></trkpt><trkpt lat="43.3455028" lon="12.2821555"><ele>262.5</ele><time>2026-04-30T11:53:41.699Z</time></trkpt><trkpt lat="43.3456993" lon="12.2819213"><ele>262.0</ele><time>2026-04-30T11:53:42.7Z</time></trkpt><trkpt lat="43.3458738" lon="12.281699"><ele>262.0</ele><time>2026-04-30T11:53:43.7Z</time></trkpt><trkpt lat="43.3460473" lon="12.2814533"><ele>262.0</ele><time>2026-04-30T11:53:44.7Z</time></trkpt><trkpt lat="43.3462234" lon="12.281221"><ele>259.5</ele><time>2026-04-30T11:53:45.7Z</time></trkpt><trkpt lat="43.3464043" lon="12.2809818"><ele>257.0</ele><time>2026-04-30T11:53:46.7Z</time></trkpt><trkpt lat="43.3465664" lon="12.28074"><ele>259.5</ele><time>2026-04-30T11:53:47.699Z</time></trkpt><trkpt lat="43.3467449" lon="12.280481"><ele>262.0</ele><time>2026-04-30T11:53:48.7Z</time></trkpt><trkpt lat="43.3469233" lon="12.2802221"><ele>262.0</ele><time>2026-04-30T11:53:49.7Z</time></trkpt><trkpt lat="43.347091" lon="12.2799579"><ele>262.0</ele><time>2026-04-30T11:53:50.7Z</time></trkpt><trkpt lat="43.3472622" lon="12.2796858"><ele>259.5</ele><time>2026-04-30T11:53:51.701Z</time></trkpt><trkpt lat="43.3474315" lon="12.2794013"><ele>257.0</ele><time>2026-04-30T11:53:52.699Z</time></trkpt><trkpt lat="43.3475784" lon="12.2791176"><ele>261.0</ele><time>2026-04-30T11:53:53.7Z</time></trkpt><trkpt lat="43.347737" lon="12.2788167"><ele>265.0</ele><time>2026-04-30T11:53:54.7Z</time></trkpt><trkpt lat="43.347894" lon="12.2784322"><ele>254.0</ele><time>2026-04-30T11:53:55.906Z</time></trkpt><trkpt lat="43.3480929" lon="12.2778496"><ele>254.0</ele><time>2026-04-30T11:53:57.7Z</time></trkpt><trkpt lat="43.3482002" lon="12.2775181"><ele>254.0</ele><time>2026-04-30T11:53:58.699Z</time></trkpt><trkpt lat="43.3483053" lon="12.2771902"><ele>255.5</ele><time>2026-04-30T11:53:59.7Z</time></trkpt><trkpt lat="43.3484144" lon="12.2768628"><ele>257.0</ele><time>2026-04-30T11:54:00.7Z</time></trkpt><trkpt lat="43.3485275" lon="12.2765382"><ele>261.5</ele><time>2026-04-30T11:54:01.699Z</time></trkpt><trkpt lat="43.3486404" lon="12.2762178"><ele>266.0</ele><time>2026-04-30T11:54:02.7Z</time></trkpt><trkpt lat="43.3487539" lon="12.275894"><ele>269.0</ele><time>2026-04-30T11:54:03.7Z</time></trkpt><trkpt lat="43.3488661" lon="12.2755752"><ele>272.0</ele><time>2026-04-30T11:54:04.7Z</time></trkpt><trkpt lat="43.3489651" lon="12.2752772"><ele>264.5</ele><time>2026-04-30T11:54:05.7Z</time></trkpt><trkpt lat="43.3490544" lon="12.2749875"><ele>257.0</ele><time>2026-04-30T11:54:06.699Z</time></trkpt><trkpt lat="43.3491389" lon="12.2746989"><ele>257.0</ele><time>2026-04-30T11:54:07.7Z</time></trkpt><trkpt lat="43.3491668" lon="12.2744033"><ele>257.0</ele><time>2026-04-30T11:54:08.7Z</time></trkpt><trkpt lat="43.3492121" lon="12.2740894"><ele>257.0</ele><time>2026-04-30T11:54:09.699Z</time></trkpt><trkpt lat="43.3492492" lon="12.2737718"><ele>257.0</ele><time>2026-04-30T11:54:10.7Z</time></trkpt><trkpt lat="43.3492854" lon="12.2734453"><ele>257.0</ele><time>2026-04-30T11:54:11.7Z</time></trkpt><trkpt lat="43.3493177" lon="12.2731246"><ele>257.33333333333337</ele><time>2026-04-30T11:54:12.699Z</time></trkpt><trkpt lat="43.3493554" lon="12.2728186"><ele>257.6666666666667</ele><time>2026-04-30T11:54:13.7Z</time></trkpt><trkpt lat="43.3494147" lon="12.2725222"><ele>258.0</ele><time>2026-04-30T11:54:14.7Z</time></trkpt><trkpt lat="43.3494699" lon="12.2722384"><ele>258.6666666666667</ele><time>2026-04-30T11:54:15.7Z</time></trkpt><trkpt lat="43.3495502" lon="12.2719495"><ele>259.33333333333337</ele><time>2026-04-30T11:54:16.701Z</time></trkpt><trkpt lat="43.3496182" lon="12.2716716"><ele>260.0</ele><time>2026-04-30T11:54:17.7Z</time></trkpt><trkpt lat="43.3496898" lon="12.2713823"><ele>259.33333333333337</ele><time>2026-04-30T11:54:18.701Z</time></trkpt><trkpt lat="43.3497618" lon="12.2711227"><ele>258.6666666666667</ele><time>2026-04-30T11:54:19.701Z</time></trkpt><trkpt lat="43.3498302" lon="12.270875"><ele>258.0</ele><time>2026-04-30T11:54:20.7Z</time></trkpt><trkpt lat="43.349886" lon="12.2706378"><ele>257.6666666666667</ele><time>2026-04-30T11:54:21.7Z</time></trkpt><trkpt lat="43.3499273" lon="12.2703988"><ele>257.33333333333337</ele><time>2026-04-30T11:54:22.7Z</time></trkpt><trkpt lat="43.3499679" lon="12.2701669"><ele>257.0</ele><time>2026-04-30T11:54:23.7Z</time></trkpt><trkpt lat="43.3500097" lon="12.2699347"><ele>258.0</ele><time>2026-04-30T11:54:24.701Z</time></trkpt><trkpt lat="43.3500607" lon="12.269619"><ele>259.0</ele><time>2026-04-30T11:54:26.027Z</time></trkpt><trkpt lat="43.3500865" lon="12.2692582"><ele>259.0</ele><time>2026-04-30T11:54:27.7Z</time></trkpt><trkpt lat="43.3500533" lon="12.2690457"><ele>259.0</ele><time>2026-04-30T11:54:28.7Z</time></trkpt><trkpt lat="43.3499883" lon="12.2688514"><ele>259.0</ele><time>2026-04-30T11:54:29.7Z</time></trkpt><trkpt lat="43.3499214" lon="12.2686539"><ele>258.66666666666663</ele><time>2026-04-30T11:54:30.699Z</time></trkpt><trkpt lat="43.3498608" lon="12.2684517"><ele>258.3333333333333</ele><time>2026-04-30T11:54:31.7Z</time></trkpt><trkpt lat="43.3498458" lon="12.2682471"><ele>258.0</ele><time>2026-04-30T11:54:32.7Z</time></trkpt><trkpt lat="43.3498719" lon="12.268041"><ele>258.0</ele><time>2026-04-30T11:54:33.699Z</time></trkpt><trkpt lat="43.3499388" lon="12.2678314"><ele>258.0</ele><time>2026-04-30T11:54:34.7Z</time></trkpt><trkpt lat="43.3500147" lon="12.267611"><ele>258.0</ele><time>2026-04-30T11:54:35.7Z</time></trkpt><trkpt lat="43.3500953" lon="12.2673753"><ele>258.6666666666667</ele><time>2026-04-30T11:54:36.699Z</time></trkpt><trkpt lat="43.3501755" lon="12.2671217"><ele>259.33333333333337</ele><time>2026-04-30T11:54:37.7Z</time></trkpt><trkpt lat="43.3502387" lon="12.2668502"><ele>260.0</ele><time>2026-04-30T11:54:38.7Z</time></trkpt><trkpt lat="43.3502915" lon="12.2665696"><ele>260.5</ele><time>2026-04-30T11:54:39.7Z</time></trkpt><trkpt lat="43.3503275" lon="12.2662667"><ele>261.0</ele><time>2026-04-30T11:54:40.7Z</time></trkpt><trkpt lat="43.3503642" lon="12.2659582"><ele>261.0</ele><time>2026-04-30T11:54:41.7Z</time></trkpt><trkpt lat="43.3504011" lon="12.2656461"><ele>261.0</ele><time>2026-04-30T11:54:42.701Z</time></trkpt><trkpt lat="43.3504382" lon="12.2653378"><ele>260.5</ele><time>2026-04-30T11:54:43.7Z</time></trkpt><trkpt lat="43.3504758" lon="12.2650184"><ele>260.0</ele><time>2026-04-30T11:54:44.7Z</time></trkpt><trkpt lat="43.3505142" lon="12.2646865"><ele>258.0</ele><time>2026-04-30T11:54:45.7Z</time></trkpt><trkpt lat="43.3505647" lon="12.2643409"><ele>256.0</ele><time>2026-04-30T11:54:46.7Z</time></trkpt><trkpt lat="43.3506029" lon="12.2639988"><ele>255.5</ele><time>2026-04-30T11:54:47.701Z</time></trkpt><trkpt lat="43.3506362" lon="12.2636564"><ele>255.0</ele><time>2026-04-30T11:54:48.7Z</time></trkpt><trkpt lat="43.3506717" lon="12.2633033"><ele>254.5</ele><time>2026-04-30T11:54:49.7Z</time></trkpt><trkpt lat="43.3506963" lon="12.262939"><ele>254.0</ele><time>2026-04-30T11:54:50.7Z</time></trkpt><trkpt lat="43.3507415" lon="12.262578"><ele>255.0</ele><time>2026-04-30T11:54:51.7Z</time></trkpt><trkpt lat="43.3507866" lon="12.2622184"><ele>256.0</ele><time>2026-04-30T11:54:52.7Z</time></trkpt><trkpt lat="43.3508274" lon="12.2618612"><ele>256.0</ele><time>2026-04-30T11:54:53.699Z</time></trkpt><trkpt lat="43.3508702" lon="12.2615018"><ele>256.0</ele><time>2026-04-30T11:54:54.7Z</time></trkpt><trkpt lat="43.3509017" lon="12.2611563"><ele>257.0</ele><time>2026-04-30T11:54:55.7Z</time></trkpt><trkpt lat="43.3509462" lon="12.2607347"><ele>258.0</ele><time>2026-04-30T11:54:56.918Z</time></trkpt><trkpt lat="43.3510183" lon="12.2601046"><ele>259.5</ele><time>2026-04-30T11:54:58.701Z</time></trkpt><trkpt lat="43.351061" lon="12.2597514"><ele>261.0</ele><time>2026-04-30T11:54:59.701Z</time></trkpt><trkpt lat="43.3511007" lon="12.2594023"><ele>261.0</ele><time>2026-04-30T11:55:00.701Z</time></trkpt><trkpt lat="43.3511418" lon="12.2590471"><ele>261.0</ele><time>2026-04-30T11:55:01.701Z</time></trkpt><trkpt lat="43.3511864" lon="12.2586922"><ele>262.5</ele><time>2026-04-30T11:55:02.701Z</time></trkpt><trkpt lat="43.3512305" lon="12.2583373"><ele>264.0</ele><time>2026-04-30T11:55:03.701Z</time></trkpt><trkpt lat="43.3512718" lon="12.2579813"><ele>264.3333333333333</ele><time>2026-04-30T11:55:04.701Z</time></trkpt><trkpt lat="43.351319" lon="12.2576418"><ele>264.66666666666663</ele><time>2026-04-30T11:55:05.701Z</time></trkpt><trkpt lat="43.3513584" lon="12.2573964"><ele>265.0</ele><time>2026-04-30T11:55:06.7Z</time></trkpt><trkpt lat="43.3514037" lon="12.2571419"><ele>264.0</ele><time>2026-04-30T11:55:07.701Z</time></trkpt><trkpt lat="43.3514483" lon="12.2569567"><ele>263.0</ele><time>2026-04-30T11:55:08.701Z</time></trkpt><trkpt lat="43.3514418" lon="12.2568093"><ele>262.0</ele><time>2026-04-30T11:55:11.7Z</time></trkpt><trkpt lat="43.3514697" lon="12.2567124"><ele>261.0</ele><time>2026-04-30T11:55:12.701Z</time></trkpt><trkpt lat="43.3514948" lon="12.2565808"><ele>260.0</ele><time>2026-04-30T11:55:13.701Z</time></trkpt><trkpt lat="43.3515217" lon="12.2564148"><ele>259.6666666666667</ele><time>2026-04-30T11:55:14.7Z</time></trkpt><trkpt lat="43.3515695" lon="12.2562224"><ele>259.3333333333333</ele><time>2026-04-30T11:55:15.699Z</time></trkpt><trkpt lat="43.35162" lon="12.2560115"><ele>259.0</ele><time>2026-04-30T11:55:16.7Z</time></trkpt><trkpt lat="43.3516744" lon="12.2557695"><ele>259.66666666666663</ele><time>2026-04-30T11:55:17.7Z</time></trkpt><trkpt lat="43.3517343" lon="12.2555118"><ele>260.3333333333333</ele><time>2026-04-30T11:55:18.699Z</time></trkpt><trkpt lat="43.351795" lon="12.2552442"><ele>261.0</ele><time>2026-04-30T11:55:19.701Z</time></trkpt><trkpt lat="43.3518585" lon="12.2549712"><ele>262.0</ele><time>2026-04-30T11:55:20.7Z</time></trkpt><trkpt lat="43.3519186" lon="12.2547057"><ele>263.0</ele><time>2026-04-30T11:55:21.701Z</time></trkpt><trkpt lat="43.351976" lon="12.2544201"><ele>264.0</ele><time>2026-04-30T11:55:22.699Z</time></trkpt><trkpt lat="43.3520287" lon="12.2541145"><ele>265.0</ele><time>2026-04-30T11:55:23.7Z</time></trkpt><trkpt lat="43.3520591" lon="12.253807"><ele>266.0</ele><time>2026-04-30T11:55:24.7Z</time></trkpt><trkpt lat="43.3520734" lon="12.2534891"><ele>266.0</ele><time>2026-04-30T11:55:25.7Z</time></trkpt><trkpt lat="43.3520858" lon="12.2531675"><ele>266.0</ele><time>2026-04-30T11:55:26.7Z</time></trkpt><trkpt lat="43.3520992" lon="12.2528226"><ele>267.0</ele><time>2026-04-30T11:55:27.86Z</time></trkpt><trkpt lat="43.3521156" lon="12.2523025"><ele>268.0</ele><time>2026-04-30T11:55:29.7Z</time></trkpt><trkpt lat="43.3521264" lon="12.2520346"><ele>268.3333333333333</ele><time>2026-04-30T11:55:30.7Z</time></trkpt><trkpt lat="43.3521333" lon="12.2517617"><ele>268.6666666666667</ele><time>2026-04-30T11:55:31.7Z</time></trkpt><trkpt lat="43.3521399" lon="12.2514829"><ele>269.0</ele><time>2026-04-30T11:55:32.7Z</time></trkpt><trkpt lat="43.3521499" lon="12.2512071"><ele>269.0</ele><time>2026-04-30T11:55:33.699Z</time></trkpt><trkpt lat="43.3521639" lon="12.2509319"><ele>269.0</ele><time>2026-04-30T11:55:34.7Z</time></trkpt><trkpt lat="43.3521767" lon="12.2506645"><ele>269.0</ele><time>2026-04-30T11:55:35.699Z</time></trkpt><trkpt lat="43.352204" lon="12.2504021"><ele>267.33333333333337</ele><time>2026-04-30T11:55:36.699Z</time></trkpt><trkpt lat="43.3522399" lon="12.2501358"><ele>265.6666666666667</ele><time>2026-04-30T11:55:37.699Z</time></trkpt><trkpt lat="43.3522873" lon="12.2498612"><ele>264.0</ele><time>2026-04-30T11:55:38.7Z</time></trkpt><trkpt lat="43.3523372" lon="12.2495821"><ele>263.6666666666667</ele><time>2026-04-30T11:55:39.7Z</time></trkpt><trkpt lat="43.3523904" lon="12.2492995"><ele>263.33333333333337</ele><time>2026-04-30T11:55:40.7Z</time></trkpt><trkpt lat="43.352444" lon="12.2490107"><ele>263.0</ele><time>2026-04-30T11:55:41.7Z</time></trkpt><trkpt lat="43.3524997" lon="12.2487194"><ele>263.6666666666667</ele><time>2026-04-30T11:55:42.7Z</time></trkpt><trkpt lat="43.3525578" lon="12.2484243"><ele>264.3333333333333</ele><time>2026-04-30T11:55:43.7Z</time></trkpt><trkpt lat="43.3526165" lon="12.2481289"><ele>265.0</ele><time>2026-04-30T11:55:44.7Z</time></trkpt><trkpt lat="43.352694" lon="12.2478302"><ele>265.5</ele><time>2026-04-30T11:55:45.7Z</time></trkpt><trkpt lat="43.3527578" lon="12.2475335"><ele>266.0</ele><time>2026-04-30T11:55:46.7Z</time></trkpt><trkpt lat="43.3528201" lon="12.2472363"><ele>267.0</ele><time>2026-04-30T11:55:47.7Z</time></trkpt><trkpt lat="43.3528908" lon="12.2469365"><ele>268.0</ele><time>2026-04-30T11:55:48.701Z</time></trkpt><trkpt lat="43.3529655" lon="12.2466465"><ele>265.5</ele><time>2026-04-30T11:55:49.7Z</time></trkpt><trkpt lat="43.3530559" lon="12.2463631"><ele>263.0</ele><time>2026-04-30T11:55:50.7Z</time></trkpt><trkpt lat="43.3531409" lon="12.2460698"><ele>263.0</ele><time>2026-04-30T11:55:51.7Z</time></trkpt><trkpt lat="43.3532265" lon="12.2457922"><ele>263.0</ele><time>2026-04-30T11:55:52.701Z</time></trkpt><trkpt lat="43.3533236" lon="12.2455106"><ele>263.0</ele><time>2026-04-30T11:55:53.699Z</time></trkpt><trkpt lat="43.3534144" lon="12.2452355"><ele>264.33333333333337</ele><time>2026-04-30T11:55:54.701Z</time></trkpt><trkpt lat="43.3535007" lon="12.2449636"><ele>265.6666666666667</ele><time>2026-04-30T11:55:55.699Z</time></trkpt><trkpt lat="43.3535858" lon="12.2446936"><ele>267.0</ele><time>2026-04-30T11:55:56.699Z</time></trkpt><trkpt lat="43.3537133" lon="12.2442505"><ele>273.5</ele><time>2026-04-30T11:55:58.302Z</time></trkpt><trkpt lat="43.3538161" lon="12.2438561"><ele>280.0</ele><time>2026-04-30T11:55:59.701Z</time></trkpt><trkpt lat="43.3538689" lon="12.2435681"><ele>275.0</ele><time>2026-04-30T11:56:00.7Z</time></trkpt><trkpt lat="43.3539149" lon="12.2432732"><ele>270.0</ele><time>2026-04-30T11:56:01.7Z</time></trkpt><trkpt lat="43.3539515" lon="12.2429761"><ele>265.0</ele><time>2026-04-30T11:56:02.699Z</time></trkpt><trkpt lat="43.35398" lon="12.2426844"><ele>265.0</ele><time>2026-04-30T11:56:03.7Z</time></trkpt><trkpt lat="43.3540107" lon="12.2423896"><ele>265.0</ele><time>2026-04-30T11:56:04.7Z</time></trkpt><trkpt lat="43.3540325" lon="12.2420989"><ele>265.0</ele><time>2026-04-30T11:56:05.7Z</time></trkpt><trkpt lat="43.3540682" lon="12.2417949"><ele>265.5</ele><time>2026-04-30T11:56:06.7Z</time></trkpt><trkpt lat="43.354103" lon="12.241488"><ele>266.0</ele><time>2026-04-30T11:56:07.7Z</time></trkpt><trkpt lat="43.3541365" lon="12.2411822"><ele>266.0</ele><time>2026-04-30T11:56:08.699Z</time></trkpt><trkpt lat="43.3541685" lon="12.240889"><ele>266.0</ele><time>2026-04-30T11:56:09.699Z</time></trkpt><trkpt lat="43.3541995" lon="12.2405915"><ele>266.0</ele><time>2026-04-30T11:56:10.7Z</time></trkpt><trkpt lat="43.354228" lon="12.2403017"><ele>265.33333333333337</ele><time>2026-04-30T11:56:11.7Z</time></trkpt><trkpt lat="43.3542501" lon="12.2400292"><ele>264.6666666666667</ele><time>2026-04-30T11:56:12.699Z</time></trkpt><trkpt lat="43.354275" lon="12.2397515"><ele>264.0</ele><time>2026-04-30T11:56:13.7Z</time></trkpt><trkpt lat="43.3543083" lon="12.2395"><ele>264.0</ele><time>2026-04-30T11:56:14.7Z</time></trkpt><trkpt lat="43.354333" lon="12.2392713"><ele>264.0</ele><time>2026-04-30T11:56:15.701Z</time></trkpt><trkpt lat="43.3543664" lon="12.2390498"><ele>264.0</ele><time>2026-04-30T11:56:16.7Z</time></trkpt><trkpt lat="43.3544058" lon="12.2388422"><ele>265.0</ele><time>2026-04-30T11:56:17.7Z</time></trkpt><trkpt lat="43.3544757" lon="12.2386345"><ele>266.0</ele><time>2026-04-30T11:56:18.7Z</time></trkpt><trkpt lat="43.3545422" lon="12.2384419"><ele>267.0</ele><time>2026-04-30T11:56:19.701Z</time></trkpt><trkpt lat="43.3546385" lon="12.2382568"><ele>265.0</ele><time>2026-04-30T11:56:20.7Z</time></trkpt><trkpt lat="43.3547535" lon="12.2380853"><ele>263.0</ele><time>2026-04-30T11:56:21.7Z</time></trkpt><trkpt lat="43.3548939" lon="12.237934"><ele>261.0</ele><time>2026-04-30T11:56:22.701Z</time></trkpt><trkpt lat="43.3550391" lon="12.2378116"><ele>261.0</ele><time>2026-04-30T11:56:23.7Z</time></trkpt><trkpt lat="43.3551984" lon="12.2377051"><ele>261.0</ele><time>2026-04-30T11:56:24.701Z</time></trkpt><trkpt lat="43.3553622" lon="12.2376044"><ele>261.0</ele><time>2026-04-30T11:56:25.699Z</time></trkpt><trkpt lat="43.3555449" lon="12.2375651"><ele>260.3333333333333</ele><time>2026-04-30T11:56:26.701Z</time></trkpt><trkpt lat="43.3557161" lon="12.2375362"><ele>259.66666666666663</ele><time>2026-04-30T11:56:27.701Z</time></trkpt><trkpt lat="43.355881" lon="12.2375273"><ele>259.0</ele><time>2026-04-30T11:56:28.675Z</time></trkpt><trkpt lat="43.3560494" lon="12.2375137"><ele>259.0</ele><time>2026-04-30T11:56:29.7Z</time></trkpt><trkpt lat="43.3562109" lon="12.2375011"><ele>259.0</ele><time>2026-04-30T11:56:30.7Z</time></trkpt><trkpt lat="43.3563766" lon="12.2374818"><ele>259.0</ele><time>2026-04-30T11:56:31.699Z</time></trkpt><trkpt lat="43.3565458" lon="12.2374569"><ele>259.0</ele><time>2026-04-30T11:56:32.7Z</time></trkpt><trkpt lat="43.3567256" lon="12.2374219"><ele>259.0</ele><time>2026-04-30T11:56:33.7Z</time></trkpt><trkpt lat="43.3569136" lon="12.2373906"><ele>259.0</ele><time>2026-04-30T11:56:34.7Z</time></trkpt><trkpt lat="43.3570928" lon="12.2373659"><ele>259.0</ele><time>2026-04-30T11:56:35.7Z</time></trkpt><trkpt lat="43.3572755" lon="12.2373448"><ele>259.0</ele><time>2026-04-30T11:56:36.7Z</time></trkpt><trkpt lat="43.3574718" lon="12.237311"><ele>259.0</ele><time>2026-04-30T11:56:37.699Z</time></trkpt><trkpt lat="43.3576822" lon="12.2372748"><ele>259.0</ele><time>2026-04-30T11:56:38.699Z</time></trkpt><trkpt lat="43.357875" lon="12.2372497"><ele>259.0</ele><time>2026-04-30T11:56:39.7Z</time></trkpt><trkpt lat="43.3580543" lon="12.2372395"><ele>259.0</ele><time>2026-04-30T11:56:40.7Z</time></trkpt><trkpt lat="43.3582206" lon="12.2372222"><ele>258.66666666666663</ele><time>2026-04-30T11:56:41.699Z</time></trkpt><trkpt lat="43.3583758" lon="12.2372021"><ele>258.3333333333333</ele><time>2026-04-30T11:56:42.7Z</time></trkpt><trkpt lat="43.3585257" lon="12.2371895"><ele>258.0</ele><time>2026-04-30T11:56:43.7Z</time></trkpt><trkpt lat="43.3586711" lon="12.2371655"><ele>258.0</ele><time>2026-04-30T11:56:44.701Z</time></trkpt><trkpt lat="43.3588322" lon="12.2371933"><ele>258.0</ele><time>2026-04-30T11:56:45.7Z</time></trkpt><trkpt lat="43.3589952" lon="12.2372308"><ele>258.0</ele><time>2026-04-30T11:56:46.7Z</time></trkpt><trkpt lat="43.3591841" lon="12.2372744"><ele>257.6666666666667</ele><time>2026-04-30T11:56:47.701Z</time></trkpt><trkpt lat="43.3593616" lon="12.2373074"><ele>257.33333333333337</ele><time>2026-04-30T11:56:48.699Z</time></trkpt><trkpt lat="43.3595273" lon="12.2373474"><ele>257.0</ele><time>2026-04-30T11:56:49.7Z</time></trkpt><trkpt lat="43.3596952" lon="12.2374092"><ele>257.6666666666667</ele><time>2026-04-30T11:56:50.7Z</time></trkpt><trkpt lat="43.359871" lon="12.2374854"><ele>258.3333333333333</ele><time>2026-04-30T11:56:51.7Z</time></trkpt><trkpt lat="43.3600506" lon="12.2375539"><ele>259.0</ele><time>2026-04-30T11:56:52.7Z</time></trkpt><trkpt lat="43.3602248" lon="12.2376248"><ele>259.0</ele><time>2026-04-30T11:56:53.7Z</time></trkpt><trkpt lat="43.3603877" lon="12.2376974"><ele>259.0</ele><time>2026-04-30T11:56:54.701Z</time></trkpt><trkpt lat="43.3605511" lon="12.2377619"><ele>259.0</ele><time>2026-04-30T11:56:55.7Z</time></trkpt><trkpt lat="43.3607202" lon="12.2378312"><ele>259.0</ele><time>2026-04-30T11:56:56.699Z</time></trkpt><trkpt lat="43.3609164" lon="12.2378869"><ele>259.0</ele><time>2026-04-30T11:56:57.7Z</time></trkpt><trkpt lat="43.3611411" lon="12.2379237"><ele>259.0</ele><time>2026-04-30T11:56:59.14Z</time></trkpt><trkpt lat="43.3613718" lon="12.2378981"><ele>259.0</ele><time>2026-04-30T11:57:00.7Z</time></trkpt><trkpt lat="43.3615216" lon="12.2378768"><ele>259.0</ele><time>2026-04-30T11:57:01.701Z</time></trkpt><trkpt lat="43.3616578" lon="12.2378538"><ele>259.0</ele><time>2026-04-30T11:57:02.701Z</time></trkpt><trkpt lat="43.3617799" lon="12.2378357"><ele>259.0</ele><time>2026-04-30T11:57:03.701Z</time></trkpt><trkpt lat="43.3618962" lon="12.2378166"><ele>259.0</ele><time>2026-04-30T11:57:04.701Z</time></trkpt><trkpt lat="43.3620041" lon="12.2377968"><ele>259.0</ele><time>2026-04-30T11:57:05.7Z</time></trkpt><trkpt lat="43.3621165" lon="12.2377683"><ele>259.0</ele><time>2026-04-30T11:57:06.701Z</time></trkpt><trkpt lat="43.362241" lon="12.2377506"><ele>259.0</ele><time>2026-04-30T11:57:07.7Z</time></trkpt><trkpt lat="43.3623851" lon="12.2377336"><ele>259.3333333333333</ele><time>2026-04-30T11:57:08.701Z</time></trkpt><trkpt lat="43.3625391" lon="12.2377083"><ele>259.6666666666667</ele><time>2026-04-30T11:57:09.701Z</time></trkpt><trkpt lat="43.3627083" lon="12.2376857"><ele>260.0</ele><time>2026-04-30T11:57:10.701Z</time></trkpt><trkpt lat="43.3628938" lon="12.2376664"><ele>260.33333333333337</ele><time>2026-04-30T11:57:11.7Z</time></trkpt><trkpt lat="43.3630798" lon="12.2376449"><ele>260.6666666666667</ele><time>2026-04-30T11:57:12.701Z</time></trkpt><trkpt lat="43.3632779" lon="12.2376168"><ele>261.0</ele><time>2026-04-30T11:57:13.701Z</time></trkpt><trkpt lat="43.3634736" lon="12.2375876"><ele>261.0</ele><time>2026-04-30T11:57:14.701Z</time></trkpt><trkpt lat="43.3636716" lon="12.2375562"><ele>261.0</ele><time>2026-04-30T11:57:15.701Z</time></trkpt><trkpt lat="43.3638612" lon="12.23753"><ele>261.0</ele><time>2026-04-30T11:57:16.701Z</time></trkpt><trkpt lat="43.3640467" lon="12.2375106"><ele>261.3333333333333</ele><time>2026-04-30T11:57:17.699Z</time></trkpt><trkpt lat="43.3642092" lon="12.2374822"><ele>261.66666666666663</ele><time>2026-04-30T11:57:18.7Z</time></trkpt><trkpt lat="43.3643767" lon="12.2374472"><ele>262.0</ele><time>2026-04-30T11:57:19.7Z</time></trkpt><trkpt lat="43.3645411" lon="12.2374248"><ele>262.3333333333333</ele><time>2026-04-30T11:57:20.7Z</time></trkpt><trkpt lat="43.364713" lon="12.2373933"><ele>262.6666666666667</ele><time>2026-04-30T11:57:21.7Z</time></trkpt><trkpt lat="43.364884" lon="12.2373543"><ele>263.0</ele><time>2026-04-30T11:57:22.7Z</time></trkpt><trkpt lat="43.3650515" lon="12.2373298"><ele>262.33333333333337</ele><time>2026-04-30T11:57:23.7Z</time></trkpt><trkpt lat="43.3652158" lon="12.2372945"><ele>261.6666666666667</ele><time>2026-04-30T11:57:24.701Z</time></trkpt><trkpt lat="43.3653639" lon="12.2372691"><ele>261.0</ele><time>2026-04-30T11:57:25.7Z</time></trkpt><trkpt lat="43.365511" lon="12.237256"><ele>261.3333333333333</ele><time>2026-04-30T11:57:26.7Z</time></trkpt><trkpt lat="43.3656484" lon="12.237237"><ele>261.66666666666663</ele><time>2026-04-30T11:57:27.7Z</time></trkpt><trkpt lat="43.365782" lon="12.2372213"><ele>262.0</ele><time>2026-04-30T11:57:28.7Z</time></trkpt><trkpt lat="43.3660515" lon="12.2371807"><ele>262.0</ele><time>2026-04-30T11:57:30.701Z</time></trkpt><trkpt lat="43.3661891" lon="12.2371696"><ele>262.0</ele><time>2026-04-30T11:57:31.7Z</time></trkpt><trkpt lat="43.3663303" lon="12.2371562"><ele>262.0</ele><time>2026-04-30T11:57:32.7Z</time></trkpt><trkpt lat="43.3664785" lon="12.2371397"><ele>262.0</ele><time>2026-04-30T11:57:33.7Z</time></trkpt><trkpt lat="43.366618" lon="12.237124"><ele>262.5</ele><time>2026-04-30T11:57:34.7Z</time></trkpt><trkpt lat="43.3667472" lon="12.2371004"><ele>263.0</ele><time>2026-04-30T11:57:35.7Z</time></trkpt><trkpt lat="43.3668662" lon="12.2370856"><ele>263.5</ele><time>2026-04-30T11:57:36.699Z</time></trkpt><trkpt lat="43.3669818" lon="12.2370715"><ele>264.0</ele><time>2026-04-30T11:57:37.7Z</time></trkpt><trkpt lat="43.3670948" lon="12.237059"><ele>264.25</ele><time>2026-04-30T11:57:38.7Z</time></trkpt><trkpt lat="43.3672104" lon="12.2370426"><ele>264.5</ele><time>2026-04-30T11:57:39.699Z</time></trkpt><trkpt lat="43.3673265" lon="12.2370223"><ele>264.75</ele><time>2026-04-30T11:57:40.7Z</time></trkpt><trkpt lat="43.3674454" lon="12.2370084"><ele>265.0</ele><time>2026-04-30T11:57:41.7Z</time></trkpt><trkpt lat="43.3675593" lon="12.2369966"><ele>265.0</ele><time>2026-04-30T11:57:42.7Z</time></trkpt><trkpt lat="43.3676841" lon="12.2369834"><ele>265.0</ele><time>2026-04-30T11:57:43.7Z</time></trkpt><trkpt lat="43.3677898" lon="12.2369493"><ele>265.0</ele><time>2026-04-30T11:57:44.7Z</time></trkpt><trkpt lat="43.3678972" lon="12.23694"><ele>265.0</ele><time>2026-04-30T11:57:45.701Z</time></trkpt><trkpt lat="43.3680027" lon="12.236924"><ele>265.0</ele><time>2026-04-30T11:57:46.701Z</time></trkpt><trkpt lat="43.3680946" lon="12.2369199"><ele>265.4</ele><time>2026-04-30T11:57:47.701Z</time></trkpt><trkpt lat="43.3681944" lon="12.2369114"><ele>265.8</ele><time>2026-04-30T11:57:48.701Z</time></trkpt><trkpt lat="43.3682812" lon="12.2369252"><ele>266.2</ele><time>2026-04-30T11:57:49.701Z</time></trkpt><trkpt lat="43.3683829" lon="12.2369451"><ele>266.6</ele><time>2026-04-30T11:57:50.7Z</time></trkpt><trkpt lat="43.3684808" lon="12.2369833"><ele>267.0</ele><time>2026-04-30T11:57:51.7Z</time></trkpt><trkpt lat="43.3685693" lon="12.237012"><ele>267.0</ele><time>2026-04-30T11:57:52.699Z</time></trkpt><trkpt lat="43.3686553" lon="12.2370715"><ele>267.0</ele><time>2026-04-30T11:57:53.699Z</time></trkpt><trkpt lat="43.3687435" lon="12.2371364"><ele>267.0</ele><time>2026-04-30T11:57:54.699Z</time></trkpt><trkpt lat="43.3688249" lon="12.2371962"><ele>267.0</ele><time>2026-04-30T11:57:55.7Z</time></trkpt><trkpt lat="43.3689193" lon="12.2372519"><ele>267.0</ele><time>2026-04-30T11:57:56.699Z</time></trkpt><trkpt lat="43.3690281" lon="12.2373279"><ele>267.0</ele><time>2026-04-30T11:57:57.701Z</time></trkpt><trkpt lat="43.36913" lon="12.2373991"><ele>267.0</ele><time>2026-04-30T11:57:58.7Z</time></trkpt><trkpt lat="43.369272" lon="12.2375031"><ele>267.0</ele><time>2026-04-30T11:58:00.09Z</time></trkpt><trkpt lat="43.3694442" lon="12.2376136"><ele>267.0</ele><time>2026-04-30T11:58:01.7Z</time></trkpt><trkpt lat="43.3695514" lon="12.2376875"><ele>267.0</ele><time>2026-04-30T11:58:02.699Z</time></trkpt><trkpt lat="43.3696422" lon="12.2377733"><ele>267.0</ele><time>2026-04-30T11:58:03.699Z</time></trkpt><trkpt lat="43.3697476" lon="12.2378425"><ele>267.0</ele><time>2026-04-30T11:58:04.7Z</time></trkpt><trkpt lat="43.3698471" lon="12.237917"><ele>267.6</ele><time>2026-04-30T11:58:05.7Z</time></trkpt><trkpt lat="43.3699534" lon="12.2379882"><ele>268.2</ele><time>2026-04-30T11:58:06.7Z</time></trkpt><trkpt lat="43.3700416" lon="12.2380521"><ele>268.8</ele><time>2026-04-30T11:58:07.7Z</time></trkpt><trkpt lat="43.3701179" lon="12.2381096"><ele>269.4</ele><time>2026-04-30T11:58:08.699Z</time></trkpt><trkpt lat="43.3701888" lon="12.2381642"><ele>270.0</ele><time>2026-04-30T11:58:09.699Z</time></trkpt><trkpt lat="43.3702566" lon="12.2382204"><ele>270.0</ele><time>2026-04-30T11:58:10.7Z</time></trkpt><trkpt lat="43.3703246" lon="12.2382898"><ele>270.0</ele><time>2026-04-30T11:58:11.7Z</time></trkpt><trkpt lat="43.3703964" lon="12.2383683"><ele>270.0</ele><time>2026-04-30T11:58:12.699Z</time></trkpt><trkpt lat="43.370464" lon="12.2384646"><ele>270.0</ele><time>2026-04-30T11:58:13.7Z</time></trkpt><trkpt lat="43.3705334" lon="12.2385545"><ele>270.0</ele><time>2026-04-30T11:58:14.7Z</time></trkpt><trkpt lat="43.3706044" lon="12.2386531"><ele>269.6666666666667</ele><time>2026-04-30T11:58:15.7Z</time></trkpt><trkpt lat="43.3706616" lon="12.2387747"><ele>269.3333333333333</ele><time>2026-04-30T11:58:16.7Z</time></trkpt><trkpt lat="43.3707092" lon="12.2388603"><ele>269.0</ele><time>2026-04-30T11:58:17.699Z</time></trkpt><trkpt lat="43.3707499" lon="12.2389376"><ele>268.66666666666663</ele><time>2026-04-30T11:58:18.7Z</time></trkpt><trkpt lat="43.3707849" lon="12.2390179"><ele>268.3333333333333</ele><time>2026-04-30T11:58:19.7Z</time></trkpt><trkpt lat="43.3708307" lon="12.239095"><ele>268.0</ele><time>2026-04-30T11:58:20.699Z</time></trkpt><trkpt lat="43.3708884" lon="12.2391526"><ele>268.0</ele><time>2026-04-30T11:58:21.699Z</time></trkpt><trkpt lat="43.3709675" lon="12.2391881"><ele>268.0</ele><time>2026-04-30T11:58:22.699Z</time></trkpt><trkpt lat="43.3710633" lon="12.2392009"><ele>268.0</ele><time>2026-04-30T11:58:23.7Z</time></trkpt><trkpt lat="43.3711703" lon="12.2392283"><ele>268.0</ele><time>2026-04-30T11:58:24.7Z</time></trkpt><trkpt lat="43.3712845" lon="12.2392755"><ele>268.0</ele><time>2026-04-30T11:58:25.701Z</time></trkpt><trkpt lat="43.3714021" lon="12.2393328"><ele>270.0</ele><time>2026-04-30T11:58:26.7Z</time></trkpt><trkpt lat="43.371532" lon="12.2394168"><ele>272.0</ele><time>2026-04-30T11:58:27.701Z</time></trkpt><trkpt lat="43.3716642" lon="12.2394927"><ele>274.0</ele><time>2026-04-30T11:58:28.7Z</time></trkpt><trkpt lat="43.3718085" lon="12.239566"><ele>276.0</ele><time>2026-04-30T11:58:29.699Z</time></trkpt><trkpt lat="43.3719642" lon="12.2396341"><ele>270.0</ele><time>2026-04-30T11:58:30.699Z</time></trkpt><trkpt lat="43.3722912" lon="12.2397743"><ele>264.0</ele><time>2026-04-30T11:58:32.701Z</time></trkpt><trkpt lat="43.3724723" lon="12.2398061"><ele>264.0</ele><time>2026-04-30T11:58:33.701Z</time></trkpt><trkpt lat="43.3726487" lon="12.2398226"><ele>264.0</ele><time>2026-04-30T11:58:34.701Z</time></trkpt><trkpt lat="43.3728224" lon="12.2398218"><ele>264.0</ele><time>2026-04-30T11:58:35.7Z</time></trkpt><trkpt lat="43.3730007" lon="12.2397964"><ele>272.3333333333333</ele><time>2026-04-30T11:58:36.701Z</time></trkpt><trkpt lat="43.3731802" lon="12.2397374"><ele>280.66666666666663</ele><time>2026-04-30T11:58:37.7Z</time></trkpt><trkpt lat="43.373373" lon="12.2396838"><ele>289.0</ele><time>2026-04-30T11:58:38.701Z</time></trkpt><trkpt lat="43.3735561" lon="12.2395906"><ele>289.0</ele><time>2026-04-30T11:58:39.7Z</time></trkpt><trkpt lat="43.3738041" lon="12.2394638"><ele>289.0</ele><time>2026-04-30T11:58:40.701Z</time></trkpt><trkpt lat="43.3740401" lon="12.239359"><ele>281.0</ele><time>2026-04-30T11:58:41.7Z</time></trkpt><trkpt lat="43.3742762" lon="12.2392493"><ele>273.0</ele><time>2026-04-30T11:58:42.701Z</time></trkpt><trkpt lat="43.3745085" lon="12.2391211"><ele>275.0</ele><time>2026-04-30T11:58:43.701Z</time></trkpt><trkpt lat="43.3747306" lon="12.2389913"><ele>277.0</ele><time>2026-04-30T11:58:44.7Z</time></trkpt><trkpt lat="43.3749443" lon="12.2388599"><ele>277.0</ele><time>2026-04-30T11:58:45.701Z</time></trkpt><trkpt lat="43.3751554" lon="12.2387061"><ele>277.0</ele><time>2026-04-30T11:58:46.7Z</time></trkpt><trkpt lat="43.3753677" lon="12.2385414"><ele>272.0</ele><time>2026-04-30T11:58:47.7Z</time></trkpt><trkpt lat="43.3755781" lon="12.2383697"><ele>267.0</ele><time>2026-04-30T11:58:48.701Z</time></trkpt><trkpt lat="43.3757714" lon="12.2381772"><ele>272.5</ele><time>2026-04-30T11:58:49.7Z</time></trkpt><trkpt lat="43.3759615" lon="12.23799"><ele>278.0</ele><time>2026-04-30T11:58:50.701Z</time></trkpt><trkpt lat="43.3761487" lon="12.2378132"><ele>278.0</ele><time>2026-04-30T11:58:51.699Z</time></trkpt><trkpt lat="43.3763208" lon="12.2376688"><ele>278.0</ele><time>2026-04-30T11:58:52.7Z</time></trkpt><trkpt lat="43.3764963" lon="12.237537"><ele>278.0</ele><time>2026-04-30T11:58:53.7Z</time></trkpt><trkpt lat="43.3766525" lon="12.2374229"><ele>274.6666666666667</ele><time>2026-04-30T11:58:54.701Z</time></trkpt><trkpt lat="43.3768207" lon="12.2373729"><ele>271.3333333333333</ele><time>2026-04-30T11:58:55.7Z</time></trkpt><trkpt lat="43.3769755" lon="12.2373368"><ele>268.0</ele><time>2026-04-30T11:58:56.701Z</time></trkpt><trkpt lat="43.377107" lon="12.237365"><ele>267.25</ele><time>2026-04-30T11:58:57.701Z</time></trkpt><trkpt lat="43.3772468" lon="12.2373948"><ele>266.5</ele><time>2026-04-30T11:58:58.701Z</time></trkpt><trkpt lat="43.3773771" lon="12.2374174"><ele>265.75</ele><time>2026-04-30T11:58:59.7Z</time></trkpt><trkpt lat="43.3774909" lon="12.2374177"><ele>265.0</ele><time>2026-04-30T11:59:00.701Z</time></trkpt><trkpt lat="43.3776197" lon="12.2374483"><ele>265.0</ele><time>2026-04-30T11:59:01.911Z</time></trkpt><trkpt lat="43.3777482" lon="12.23751"><ele>265.0</ele><time>2026-04-30T11:59:03.7Z</time></trkpt><trkpt lat="43.3778008" lon="12.2375735"><ele>265.0</ele><time>2026-04-30T11:59:04.701Z</time></trkpt><trkpt lat="43.377872" lon="12.2376265"><ele>265.0</ele><time>2026-04-30T11:59:06.7Z</time></trkpt><trkpt lat="43.3779386" lon="12.2376213"><ele>265.0</ele><time>2026-04-30T12:02:37.701Z</time></trkpt><trkpt lat="43.3780757" lon="12.2376061"><ele>265.4</ele><time>2026-04-30T12:02:39.701Z</time></trkpt><trkpt lat="43.378143" lon="12.237605"><ele>265.8</ele><time>2026-04-30T12:02:40.7Z</time></trkpt><trkpt lat="43.378259" lon="12.2376033"><ele>266.2</ele><time>2026-04-30T12:02:41.7Z</time></trkpt><trkpt lat="43.3783714" lon="12.2376304"><ele>266.6</ele><time>2026-04-30T12:02:42.701Z</time></trkpt><trkpt lat="43.378498" lon="12.2376552"><ele>267.0</ele><time>2026-04-30T12:02:43.701Z</time></trkpt><trkpt lat="43.3786443" lon="12.2376821"><ele>267.0</ele><time>2026-04-30T12:02:44.701Z</time></trkpt><trkpt lat="43.3787845" lon="12.2376898"><ele>267.0</ele><time>2026-04-30T12:02:45.7Z</time></trkpt><trkpt lat="43.378928" lon="12.237712"><ele>267.0</ele><time>2026-04-30T12:02:46.701Z</time></trkpt><trkpt lat="43.3790631" lon="12.2377412"><ele>267.0</ele><time>2026-04-30T12:02:47.701Z</time></trkpt><trkpt lat="43.3791767" lon="12.2377454"><ele>267.4</ele><time>2026-04-30T12:02:48.7Z</time></trkpt><trkpt lat="43.3792873" lon="12.2377612"><ele>267.79999999999995</ele><time>2026-04-30T12:02:49.7Z</time></trkpt><trkpt lat="43.379393" lon="12.237772"><ele>268.2</ele><time>2026-04-30T12:02:50.7Z</time></trkpt><trkpt lat="43.3794798" lon="12.2377792"><ele>268.59999999999997</ele><time>2026-04-30T12:02:51.7Z</time></trkpt><trkpt lat="43.3795585" lon="12.2377868"><ele>269.0</ele><time>2026-04-30T12:02:52.7Z</time></trkpt><trkpt lat="43.3795623" lon="12.2379818"><ele>270.0</ele><time>2026-04-30T12:02:56.909Z</time></trkpt><trkpt lat="43.3797345" lon="12.2379001"><ele>271.0</ele><time>2026-04-30T12:02:59.909Z</time></trkpt><trkpt lat="43.3799179" lon="12.2379772"><ele>272.0</ele><time>2026-04-30T12:03:00.91Z</time></trkpt><trkpt lat="43.3800509" lon="12.2380054"><ele>272.0</ele><time>2026-04-30T12:03:01.91Z</time></trkpt><trkpt lat="43.3803296" lon="12.2380592"><ele>272.0</ele><time>2026-04-30T12:03:03.701Z</time></trkpt><trkpt lat="43.3804744" lon="12.2380639"><ele>272.0</ele><time>2026-04-30T12:03:04.7Z</time></trkpt><trkpt lat="43.3806375" lon="12.2380974"><ele>272.33333333333337</ele><time>2026-04-30T12:03:05.701Z</time></trkpt><trkpt lat="43.3808146" lon="12.2381159"><ele>272.6666666666667</ele><time>2026-04-30T12:03:06.7Z</time></trkpt><trkpt lat="43.3810261" lon="12.2381342"><ele>273.0</ele><time>2026-04-30T12:03:07.701Z</time></trkpt><trkpt lat="43.3812176" lon="12.2381785"><ele>272.0</ele><time>2026-04-30T12:03:08.7Z</time></trkpt><trkpt lat="43.3814189" lon="12.2382085"><ele>271.0</ele><time>2026-04-30T12:03:09.701Z</time></trkpt><trkpt lat="43.3816312" lon="12.2382427"><ele>270.0</ele><time>2026-04-30T12:03:10.701Z</time></trkpt><trkpt lat="43.3818494" lon="12.2382615"><ele>270.0</ele><time>2026-04-30T12:03:11.7Z</time></trkpt><trkpt lat="43.382069" lon="12.2382707"><ele>270.0</ele><time>2026-04-30T12:03:12.701Z</time></trkpt><trkpt lat="43.3822892" lon="12.2382685"><ele>270.0</ele><time>2026-04-30T12:03:13.701Z</time></trkpt><trkpt lat="43.3825041" lon="12.2382641"><ele>270.0</ele><time>2026-04-30T12:03:14.701Z</time></trkpt><trkpt lat="43.3827194" lon="12.2382591"><ele>270.0</ele><time>2026-04-30T12:03:15.701Z</time></trkpt><trkpt lat="43.3829418" lon="12.23829"><ele>270.0</ele><time>2026-04-30T12:03:16.701Z</time></trkpt><trkpt lat="43.3831737" lon="12.2383245"><ele>270.0</ele><time>2026-04-30T12:03:17.7Z</time></trkpt><trkpt lat="43.3834035" lon="12.2383714"><ele>270.0</ele><time>2026-04-30T12:03:18.7Z</time></trkpt><trkpt lat="43.3836342" lon="12.2384436"><ele>270.5</ele><time>2026-04-30T12:03:19.7Z</time></trkpt><trkpt lat="43.3838632" lon="12.2385"><ele>271.0</ele><time>2026-04-30T12:03:20.701Z</time></trkpt><trkpt lat="43.384095" lon="12.2385731"><ele>271.0</ele><time>2026-04-30T12:03:21.7Z</time></trkpt><trkpt lat="43.384322" lon="12.2386443"><ele>271.0</ele><time>2026-04-30T12:03:22.7Z</time></trkpt><trkpt lat="43.3845599" lon="12.238717"><ele>272.0</ele><time>2026-04-30T12:03:23.701Z</time></trkpt><trkpt lat="43.3848016" lon="12.2387842"><ele>273.0</ele><time>2026-04-30T12:03:24.701Z</time></trkpt><trkpt lat="43.385035" lon="12.2388555"><ele>273.0</ele><time>2026-04-30T12:03:25.701Z</time></trkpt><trkpt lat="43.3852905" lon="12.2388449"><ele>273.0</ele><time>2026-04-30T12:03:26.701Z</time></trkpt><trkpt lat="43.385537" lon="12.2388421"><ele>275.0</ele><time>2026-04-30T12:03:27.701Z</time></trkpt><trkpt lat="43.385768" lon="12.2388358"><ele>277.0</ele><time>2026-04-30T12:03:28.699Z</time></trkpt><trkpt lat="43.3859993" lon="12.2388525"><ele>277.0</ele><time>2026-04-30T12:03:29.7Z</time></trkpt><trkpt lat="43.3862319" lon="12.2388735"><ele>277.0</ele><time>2026-04-30T12:03:30.701Z</time></trkpt><trkpt lat="43.3864458" lon="12.2389385"><ele>273.66666666666663</ele><time>2026-04-30T12:03:31.701Z</time></trkpt><trkpt lat="43.3866606" lon="12.2390116"><ele>270.3333333333333</ele><time>2026-04-30T12:03:32.7Z</time></trkpt><trkpt lat="43.3868365" lon="12.2390455"><ele>267.0</ele><time>2026-04-30T12:03:33.701Z</time></trkpt><trkpt lat="43.3870396" lon="12.2390511"><ele>266.3333333333333</ele><time>2026-04-30T12:03:34.7Z</time></trkpt><trkpt lat="43.3872425" lon="12.2389848"><ele>265.66666666666663</ele><time>2026-04-30T12:03:35.699Z</time></trkpt><trkpt lat="43.3874695" lon="12.2389008"><ele>265.0</ele><time>2026-04-30T12:03:36.701Z</time></trkpt><trkpt lat="43.3876895" lon="12.238773"><ele>268.0</ele><time>2026-04-30T12:03:37.701Z</time></trkpt><trkpt lat="43.3879218" lon="12.2386483"><ele>271.0</ele><time>2026-04-30T12:03:38.7Z</time></trkpt><trkpt lat="43.3881576" lon="12.2385167"><ele>271.0</ele><time>2026-04-30T12:03:39.701Z</time></trkpt><trkpt lat="43.3883849" lon="12.2383847"><ele>271.0</ele><time>2026-04-30T12:03:40.7Z</time></trkpt><trkpt lat="43.3885991" lon="12.2382548"><ele>271.0</ele><time>2026-04-30T12:03:41.701Z</time></trkpt><trkpt lat="43.3888153" lon="12.2381446"><ele>271.0</ele><time>2026-04-30T12:03:42.7Z</time></trkpt><trkpt lat="43.3890252" lon="12.2380259"><ele>277.5</ele><time>2026-04-30T12:03:43.701Z</time></trkpt><trkpt lat="43.3892408" lon="12.2379329"><ele>284.0</ele><time>2026-04-30T12:03:44.7Z</time></trkpt><trkpt lat="43.3894652" lon="12.2378531"><ele>280.0</ele><time>2026-04-30T12:03:45.701Z</time></trkpt><trkpt lat="43.3897115" lon="12.2378685"><ele>276.0</ele><time>2026-04-30T12:03:46.7Z</time></trkpt><trkpt lat="43.3899726" lon="12.2379051"><ele>276.0</ele><time>2026-04-30T12:03:47.701Z</time></trkpt><trkpt lat="43.3902294" lon="12.2379356"><ele>276.0</ele><time>2026-04-30T12:03:48.7Z</time></trkpt><trkpt lat="43.3904839" lon="12.2379541"><ele>278.0</ele><time>2026-04-30T12:03:49.701Z</time></trkpt><trkpt lat="43.390733" lon="12.2379775"><ele>280.0</ele><time>2026-04-30T12:03:50.701Z</time></trkpt><trkpt lat="43.3909899" lon="12.237995"><ele>280.0</ele><time>2026-04-30T12:03:51.701Z</time></trkpt><trkpt lat="43.3912429" lon="12.2380058"><ele>280.0</ele><time>2026-04-30T12:03:52.701Z</time></trkpt><trkpt lat="43.391479" lon="12.2380157"><ele>280.3333333333333</ele><time>2026-04-30T12:03:53.7Z</time></trkpt><trkpt lat="43.3916953" lon="12.2380208"><ele>280.6666666666667</ele><time>2026-04-30T12:03:54.701Z</time></trkpt><trkpt lat="43.3919046" lon="12.2379575"><ele>281.0</ele><time>2026-04-30T12:03:55.699Z</time></trkpt><trkpt lat="43.3920973" lon="12.2378411"><ele>278.0</ele><time>2026-04-30T12:03:56.7Z</time></trkpt><trkpt lat="43.3923103" lon="12.2377252"><ele>275.0</ele><time>2026-04-30T12:03:57.701Z</time></trkpt><trkpt lat="43.3925091" lon="12.2375698"><ele>275.0</ele><time>2026-04-30T12:03:58.701Z</time></trkpt><trkpt lat="43.3927051" lon="12.2374002"><ele>275.0</ele><time>2026-04-30T12:03:59.7Z</time></trkpt><trkpt lat="43.3929185" lon="12.2372153"><ele>276.0</ele><time>2026-04-30T12:04:00.701Z</time></trkpt><trkpt lat="43.3931325" lon="12.2370356"><ele>277.0</ele><time>2026-04-30T12:04:01.7Z</time></trkpt><trkpt lat="43.3933387" lon="12.2368539"><ele>277.0</ele><time>2026-04-30T12:04:02.701Z</time></trkpt><trkpt lat="43.39353" lon="12.2366693"><ele>277.0</ele><time>2026-04-30T12:04:03.7Z</time></trkpt><trkpt lat="43.3937216" lon="12.2365081"><ele>274.0</ele><time>2026-04-30T12:04:04.7Z</time></trkpt><trkpt lat="43.3939246" lon="12.2363836"><ele>271.0</ele><time>2026-04-30T12:04:05.701Z</time></trkpt><trkpt lat="43.3941448" lon="12.2363043"><ele>271.0</ele><time>2026-04-30T12:04:06.7Z</time></trkpt><trkpt lat="43.3943668" lon="12.2362664"><ele>271.0</ele><time>2026-04-30T12:04:07.7Z</time></trkpt><trkpt lat="43.3945972" lon="12.2362472"><ele>269.5</ele><time>2026-04-30T12:04:08.699Z</time></trkpt><trkpt lat="43.3948299" lon="12.2362276"><ele>268.0</ele><time>2026-04-30T12:04:09.701Z</time></trkpt><trkpt lat="43.3951048" lon="12.2362304"><ele>268.0</ele><time>2026-04-30T12:04:10.701Z</time></trkpt><trkpt lat="43.3953588" lon="12.2362326"><ele>268.0</ele><time>2026-04-30T12:04:11.701Z</time></trkpt><trkpt lat="43.3956132" lon="12.2362269"><ele>268.0</ele><time>2026-04-30T12:04:12.699Z</time></trkpt><trkpt lat="43.3958336" lon="12.2362141"><ele>268.0</ele><time>2026-04-30T12:04:13.7Z</time></trkpt><trkpt lat="43.3960477" lon="12.2362089"><ele>268.0</ele><time>2026-04-30T12:04:14.701Z</time></trkpt><trkpt lat="43.3961939" lon="12.2362069"><ele>269.0</ele><time>2026-04-30T12:04:15.702Z</time></trkpt><trkpt lat="43.3963657" lon="12.2362088"><ele>270.0</ele><time>2026-04-30T12:04:16.701Z</time></trkpt><trkpt lat="43.3965285" lon="12.2362121"><ele>271.0</ele><time>2026-04-30T12:04:17.701Z</time></trkpt><trkpt lat="43.3966829" lon="12.2362143"><ele>271.0</ele><time>2026-04-30T12:04:18.701Z</time></trkpt><trkpt lat="43.3968509" lon="12.2361976"><ele>271.0</ele><time>2026-04-30T12:04:19.7Z</time></trkpt><trkpt lat="43.3970162" lon="12.2361746"><ele>271.0</ele><time>2026-04-30T12:04:20.7Z</time></trkpt><trkpt lat="43.3971724" lon="12.236168"><ele>271.66666666666663</ele><time>2026-04-30T12:04:21.701Z</time></trkpt><trkpt lat="43.3973441" lon="12.2361641"><ele>272.3333333333333</ele><time>2026-04-30T12:04:22.7Z</time></trkpt><trkpt lat="43.3975069" lon="12.2361473"><ele>273.0</ele><time>2026-04-30T12:04:23.701Z</time></trkpt><trkpt lat="43.3976601" lon="12.2361391"><ele>273.0</ele><time>2026-04-30T12:04:24.701Z</time></trkpt><trkpt lat="43.3978152" lon="12.2361389"><ele>273.0</ele><time>2026-04-30T12:04:25.701Z</time></trkpt><trkpt lat="43.3979436" lon="12.2361232"><ele>273.0</ele><time>2026-04-30T12:04:26.702Z</time></trkpt><trkpt lat="43.3980627" lon="12.2360854"><ele>273.0</ele><time>2026-04-30T12:04:27.701Z</time></trkpt><trkpt lat="43.3981741" lon="12.23604"><ele>274.0</ele><time>2026-04-30T12:04:28.7Z</time></trkpt><trkpt lat="43.3982918" lon="12.2359755"><ele>275.0</ele><time>2026-04-30T12:04:29.701Z</time></trkpt><trkpt lat="43.3983889" lon="12.2359319"><ele>276.0</ele><time>2026-04-30T12:04:30.701Z</time></trkpt><trkpt lat="43.3984959" lon="12.2358939"><ele>277.0</ele><time>2026-04-30T12:04:31.701Z</time></trkpt><trkpt lat="43.3986014" lon="12.2358643"><ele>278.0</ele><time>2026-04-30T12:04:32.701Z</time></trkpt><trkpt lat="43.3987083" lon="12.2359006"><ele>278.0</ele><time>2026-04-30T12:04:33.702Z</time></trkpt><trkpt lat="43.3988047" lon="12.2358801"><ele>278.0</ele><time>2026-04-30T12:04:34.701Z</time></trkpt><trkpt lat="43.3989168" lon="12.2358766"><ele>278.0</ele><time>2026-04-30T12:04:35.7Z</time></trkpt><trkpt lat="43.3990146" lon="12.2358637"><ele>278.0</ele><time>2026-04-30T12:04:36.7Z</time></trkpt><trkpt lat="43.399129" lon="12.2358923"><ele>278.0</ele><time>2026-04-30T12:04:37.7Z</time></trkpt><trkpt lat="43.3992198" lon="12.235915"><ele>278.4</ele><time>2026-04-30T12:04:38.699Z</time></trkpt><trkpt lat="43.3993254" lon="12.2359865"><ele>278.8</ele><time>2026-04-30T12:04:39.7Z</time></trkpt><trkpt lat="43.3994276" lon="12.2359617"><ele>279.2</ele><time>2026-04-30T12:04:40.7Z</time></trkpt><trkpt lat="43.3995201" lon="12.2359526"><ele>279.6</ele><time>2026-04-30T12:04:41.7Z</time></trkpt><trkpt lat="43.3996084" lon="12.2359121"><ele>280.0</ele><time>2026-04-30T12:04:42.699Z</time></trkpt><trkpt lat="43.3998169" lon="12.235725"><ele>283.3333333333333</ele><time>2026-04-30T12:04:43.7Z</time></trkpt><trkpt lat="43.3999874" lon="12.23561"><ele>286.6666666666667</ele><time>2026-04-30T12:04:44.7Z</time></trkpt><trkpt lat="43.4001732" lon="12.2354469"><ele>290.0</ele><time>2026-04-30T12:04:45.7Z</time></trkpt><trkpt lat="43.4003539" lon="12.2352937"><ele>283.5</ele><time>2026-04-30T12:04:46.7Z</time></trkpt><trkpt lat="43.4005538" lon="12.2351363"><ele>277.0</ele><time>2026-04-30T12:04:47.7Z</time></trkpt><trkpt lat="43.4007576" lon="12.2349991"><ele>277.0</ele><time>2026-04-30T12:04:48.7Z</time></trkpt><trkpt lat="43.400966" lon="12.2348905"><ele>277.0</ele><time>2026-04-30T12:04:49.699Z</time></trkpt><trkpt lat="43.4011777" lon="12.234799"><ele>277.0</ele><time>2026-04-30T12:04:50.7Z</time></trkpt><trkpt lat="43.4013862" lon="12.2347195"><ele>278.0</ele><time>2026-04-30T12:04:51.7Z</time></trkpt><trkpt lat="43.4015709" lon="12.234652"><ele>279.0</ele><time>2026-04-30T12:04:52.699Z</time></trkpt><trkpt lat="43.4017515" lon="12.2345945"><ele>280.0</ele><time>2026-04-30T12:04:53.7Z</time></trkpt><trkpt lat="43.4019201" lon="12.2345409"><ele>280.0</ele><time>2026-04-30T12:04:54.7Z</time></trkpt><trkpt lat="43.4020785" lon="12.2344974"><ele>280.0</ele><time>2026-04-30T12:04:55.7Z</time></trkpt><trkpt lat="43.4022404" lon="12.2344544"><ele>280.0</ele><time>2026-04-30T12:04:56.701Z</time></trkpt><trkpt lat="43.4024231" lon="12.2343999"><ele>278.3333333333333</ele><time>2026-04-30T12:04:57.7Z</time></trkpt><trkpt lat="43.4026165" lon="12.234348"><ele>276.6666666666667</ele><time>2026-04-30T12:04:58.701Z</time></trkpt><trkpt lat="43.4028508" lon="12.2343222"><ele>275.0</ele><time>2026-04-30T12:04:59.7Z</time></trkpt><trkpt lat="43.4031031" lon="12.2342778"><ele>274.0</ele><time>2026-04-30T12:05:00.701Z</time></trkpt><trkpt lat="43.4033491" lon="12.2342511"><ele>273.0</ele><time>2026-04-30T12:05:01.7Z</time></trkpt><trkpt lat="43.4035897" lon="12.2342176"><ele>273.0</ele><time>2026-04-30T12:05:02.7Z</time></trkpt><trkpt lat="43.403824" lon="12.2342057"><ele>273.0</ele><time>2026-04-30T12:05:03.701Z</time></trkpt><trkpt lat="43.4040643" lon="12.2341935"><ele>271.5</ele><time>2026-04-30T12:05:04.701Z</time></trkpt><trkpt lat="43.4043017" lon="12.2341748"><ele>270.0</ele><time>2026-04-30T12:05:05.701Z</time></trkpt><trkpt lat="43.4045433" lon="12.234161"><ele>268.5</ele><time>2026-04-30T12:05:06.701Z</time></trkpt><trkpt lat="43.4047824" lon="12.2341418"><ele>267.0</ele><time>2026-04-30T12:05:07.701Z</time></trkpt><trkpt lat="43.4050205" lon="12.2341393"><ele>267.0</ele><time>2026-04-30T12:05:08.701Z</time></trkpt><trkpt lat="43.4052573" lon="12.2341438"><ele>267.0</ele><time>2026-04-30T12:05:09.7Z</time></trkpt><trkpt lat="43.4054855" lon="12.2341201"><ele>268.0</ele><time>2026-04-30T12:05:10.7Z</time></trkpt><trkpt lat="43.4057236" lon="12.2341052"><ele>269.0</ele><time>2026-04-30T12:05:11.701Z</time></trkpt><trkpt lat="43.4059612" lon="12.2340886"><ele>269.0</ele><time>2026-04-30T12:05:12.702Z</time></trkpt><trkpt lat="43.406209" lon="12.2340651"><ele>269.0</ele><time>2026-04-30T12:05:13.7Z</time></trkpt><trkpt lat="43.4064518" lon="12.2340379"><ele>269.5</ele><time>2026-04-30T12:05:14.7Z</time></trkpt><trkpt lat="43.4067005" lon="12.2340204"><ele>270.0</ele><time>2026-04-30T12:05:15.701Z</time></trkpt><trkpt lat="43.4069328" lon="12.2340098"><ele>270.0</ele><time>2026-04-30T12:05:16.7Z</time></trkpt><trkpt lat="43.4071669" lon="12.2340007"><ele>270.0</ele><time>2026-04-30T12:05:17.7Z</time></trkpt><trkpt lat="43.4073998" lon="12.2339854"><ele>272.0</ele><time>2026-04-30T12:05:18.701Z</time></trkpt><trkpt lat="43.4076341" lon="12.2339668"><ele>274.0</ele><time>2026-04-30T12:05:19.701Z</time></trkpt><trkpt lat="43.4078738" lon="12.2339546"><ele>274.5</ele><time>2026-04-30T12:05:20.701Z</time></trkpt><trkpt lat="43.4081063" lon="12.2339226"><ele>275.0</ele><time>2026-04-30T12:05:21.7Z</time></trkpt><trkpt lat="43.4083362" lon="12.2339031"><ele>275.0</ele><time>2026-04-30T12:05:22.7Z</time></trkpt><trkpt lat="43.4085489" lon="12.2338918"><ele>275.0</ele><time>2026-04-30T12:05:23.701Z</time></trkpt><trkpt lat="43.4087449" lon="12.2338817"><ele>275.0</ele><time>2026-04-30T12:05:24.7Z</time></trkpt><trkpt lat="43.4089224" lon="12.2338649"><ele>275.33333333333337</ele><time>2026-04-30T12:05:25.701Z</time></trkpt><trkpt lat="43.4090927" lon="12.2338585"><ele>275.6666666666667</ele><time>2026-04-30T12:05:26.701Z</time></trkpt><trkpt lat="43.4092614" lon="12.2338443"><ele>276.0</ele><time>2026-04-30T12:05:27.7Z</time></trkpt><trkpt lat="43.4094066" lon="12.2338247"><ele>276.0</ele><time>2026-04-30T12:05:28.701Z</time></trkpt><trkpt lat="43.4095474" lon="12.2338133"><ele>276.0</ele><time>2026-04-30T12:05:29.701Z</time></trkpt><trkpt lat="43.409675" lon="12.2338143"><ele>276.0</ele><time>2026-04-30T12:05:30.701Z</time></trkpt><trkpt lat="43.4097746" lon="12.2337837"><ele>276.0</ele><time>2026-04-30T12:05:31.701Z</time></trkpt><trkpt lat="43.4099075" lon="12.233786"><ele>276.0</ele><time>2026-04-30T12:05:32.7Z</time></trkpt><trkpt lat="43.4100503" lon="12.2338003"><ele>276.0</ele><time>2026-04-30T12:05:33.701Z</time></trkpt><trkpt lat="43.4102025" lon="12.2337912"><ele>276.0</ele><time>2026-04-30T12:05:34.701Z</time></trkpt><trkpt lat="43.4103677" lon="12.2337802"><ele>275.6666666666667</ele><time>2026-04-30T12:05:35.699Z</time></trkpt><trkpt lat="43.4105517" lon="12.233747"><ele>275.33333333333337</ele><time>2026-04-30T12:05:36.701Z</time></trkpt><trkpt lat="43.4107593" lon="12.2337389"><ele>275.0</ele><time>2026-04-30T12:05:37.701Z</time></trkpt><trkpt lat="43.4109843" lon="12.2337115"><ele>275.0</ele><time>2026-04-30T12:05:38.701Z</time></trkpt><trkpt lat="43.4112171" lon="12.2337013"><ele>275.0</ele><time>2026-04-30T12:05:39.701Z</time></trkpt><trkpt lat="43.411457" lon="12.2336863"><ele>277.0</ele><time>2026-04-30T12:05:40.7Z</time></trkpt><trkpt lat="43.4117003" lon="12.2336624"><ele>279.0</ele><time>2026-04-30T12:05:41.7Z</time></trkpt><trkpt lat="43.4119435" lon="12.2336433"><ele>279.5</ele><time>2026-04-30T12:05:42.701Z</time></trkpt><trkpt lat="43.4121895" lon="12.2336255"><ele>280.0</ele><time>2026-04-30T12:05:43.7Z</time></trkpt><trkpt lat="43.412435" lon="12.2336102"><ele>280.0</ele><time>2026-04-30T12:05:44.7Z</time></trkpt><trkpt lat="43.4126656" lon="12.2335924"><ele>280.0</ele><time>2026-04-30T12:05:45.701Z</time></trkpt><trkpt lat="43.4129047" lon="12.2335861"><ele>279.5</ele><time>2026-04-30T12:05:46.7Z</time></trkpt><trkpt lat="43.4131552" lon="12.2335721"><ele>279.0</ele><time>2026-04-30T12:05:47.701Z</time></trkpt><trkpt lat="43.4133866" lon="12.2335556"><ele>279.0</ele><time>2026-04-30T12:05:48.701Z</time></trkpt><trkpt lat="43.4136146" lon="12.2335376"><ele>279.0</ele><time>2026-04-30T12:05:49.701Z</time></trkpt><trkpt lat="43.4138384" lon="12.23351"><ele>278.6666666666667</ele><time>2026-04-30T12:05:50.7Z</time></trkpt><trkpt lat="43.4140585" lon="12.2334702"><ele>278.33333333333337</ele><time>2026-04-30T12:05:51.7Z</time></trkpt><trkpt lat="43.4142811" lon="12.2334288"><ele>278.0</ele><time>2026-04-30T12:05:52.7Z</time></trkpt><trkpt lat="43.4145044" lon="12.2333786"><ele>277.0</ele><time>2026-04-30T12:05:53.7Z</time></trkpt><trkpt lat="43.414727" lon="12.2333253"><ele>276.0</ele><time>2026-04-30T12:05:54.701Z</time></trkpt><trkpt lat="43.4149615" lon="12.2332847"><ele>276.0</ele><time>2026-04-30T12:05:55.7Z</time></trkpt><trkpt lat="43.4152004" lon="12.2332392"><ele>276.0</ele><time>2026-04-30T12:05:56.7Z</time></trkpt><trkpt lat="43.4154375" lon="12.2331871"><ele>276.0</ele><time>2026-04-30T12:05:57.699Z</time></trkpt><trkpt lat="43.4156843" lon="12.2331525"><ele>276.0</ele><time>2026-04-30T12:05:58.7Z</time></trkpt><trkpt lat="43.415909" lon="12.2330956"><ele>276.0</ele><time>2026-04-30T12:05:59.7Z</time></trkpt><trkpt lat="43.4161444" lon="12.2330442"><ele>276.0</ele><time>2026-04-30T12:06:00.699Z</time></trkpt><trkpt lat="43.4163844" lon="12.2329963"><ele>277.0</ele><time>2026-04-30T12:06:01.701Z</time></trkpt><trkpt lat="43.4166236" lon="12.2329463"><ele>278.0</ele><time>2026-04-30T12:06:02.7Z</time></trkpt><trkpt lat="43.4168569" lon="12.2328897"><ele>278.0</ele><time>2026-04-30T12:06:03.7Z</time></trkpt><trkpt lat="43.4170841" lon="12.2328293"><ele>278.0</ele><time>2026-04-30T12:06:04.701Z</time></trkpt><trkpt lat="43.4173316" lon="12.232766"><ele>280.0</ele><time>2026-04-30T12:06:05.7Z</time></trkpt><trkpt lat="43.4175626" lon="12.2327157"><ele>282.0</ele><time>2026-04-30T12:06:06.699Z</time></trkpt><trkpt lat="43.4177913" lon="12.2326671"><ele>281.3333333333333</ele><time>2026-04-30T12:06:07.7Z</time></trkpt><trkpt lat="43.4180206" lon="12.2326167"><ele>280.66666666666663</ele><time>2026-04-30T12:06:08.701Z</time></trkpt><trkpt lat="43.4182157" lon="12.2325968"><ele>280.0</ele><time>2026-04-30T12:06:09.702Z</time></trkpt><trkpt lat="43.4184213" lon="12.2325828"><ele>280.0</ele><time>2026-04-30T12:06:10.701Z</time></trkpt><trkpt lat="43.4186163" lon="12.2325791"><ele>280.0</ele><time>2026-04-30T12:06:11.701Z</time></trkpt><trkpt lat="43.4188073" lon="12.2326057"><ele>280.0</ele><time>2026-04-30T12:06:12.7Z</time></trkpt><trkpt lat="43.4189978" lon="12.2326598"><ele>281.3333333333333</ele><time>2026-04-30T12:06:13.7Z</time></trkpt><trkpt lat="43.4191739" lon="12.2327145"><ele>282.6666666666667</ele><time>2026-04-30T12:06:14.699Z</time></trkpt><trkpt lat="43.4193571" lon="12.2328066"><ele>284.0</ele><time>2026-04-30T12:06:15.7Z</time></trkpt><trkpt lat="43.4195481" lon="12.2329101"><ele>284.0</ele><time>2026-04-30T12:06:16.701Z</time></trkpt><trkpt lat="43.4197415" lon="12.2330099"><ele>284.0</ele><time>2026-04-30T12:06:17.7Z</time></trkpt><trkpt lat="43.4199197" lon="12.2331074"><ele>284.0</ele><time>2026-04-30T12:06:18.701Z</time></trkpt><trkpt lat="43.4201022" lon="12.2332007"><ele>284.0</ele><time>2026-04-30T12:06:19.699Z</time></trkpt><trkpt lat="43.4202766" lon="12.2331847"><ele>284.0</ele><time>2026-04-30T12:06:20.702Z</time></trkpt><trkpt lat="43.4204632" lon="12.2331782"><ele>284.0</ele><time>2026-04-30T12:06:21.7Z</time></trkpt><trkpt lat="43.4206639" lon="12.2330001"><ele>286.5</ele><time>2026-04-30T12:06:22.701Z</time></trkpt><trkpt lat="43.4208802" lon="12.2328871"><ele>289.0</ele><time>2026-04-30T12:06:23.7Z</time></trkpt><trkpt lat="43.4211065" lon="12.2327867"><ele>286.0</ele><time>2026-04-30T12:06:24.699Z</time></trkpt><trkpt lat="43.4213228" lon="12.2327058"><ele>283.0</ele><time>2026-04-30T12:06:25.701Z</time></trkpt><trkpt lat="43.4215437" lon="12.2326259"><ele>283.0</ele><time>2026-04-30T12:06:26.7Z</time></trkpt><trkpt lat="43.421778" lon="12.2326033"><ele>283.0</ele><time>2026-04-30T12:06:27.701Z</time></trkpt><trkpt lat="43.421994" lon="12.2325463"><ele>286.0</ele><time>2026-04-30T12:06:28.7Z</time></trkpt><trkpt lat="43.4222167" lon="12.232521"><ele>289.0</ele><time>2026-04-30T12:06:29.701Z</time></trkpt><trkpt lat="43.4224433" lon="12.2325153"><ele>289.0</ele><time>2026-04-30T12:06:30.701Z</time></trkpt><trkpt lat="43.4226813" lon="12.2325306"><ele>289.0</ele><time>2026-04-30T12:06:31.701Z</time></trkpt><trkpt lat="43.4229131" lon="12.2325681"><ele>287.66666666666663</ele><time>2026-04-30T12:06:32.7Z</time></trkpt><trkpt lat="43.4231212" lon="12.2325837"><ele>286.3333333333333</ele><time>2026-04-30T12:06:33.701Z</time></trkpt><trkpt lat="43.4233471" lon="12.2325776"><ele>285.0</ele><time>2026-04-30T12:06:34.701Z</time></trkpt><trkpt lat="43.4235636" lon="12.2325757"><ele>285.0</ele><time>2026-04-30T12:06:35.701Z</time></trkpt><trkpt lat="43.4237699" lon="12.2325583"><ele>285.0</ele><time>2026-04-30T12:06:36.7Z</time></trkpt><trkpt lat="43.4239729" lon="12.2325585"><ele>285.0</ele><time>2026-04-30T12:06:37.7Z</time></trkpt><trkpt lat="43.4241552" lon="12.2325992"><ele>285.6666666666667</ele><time>2026-04-30T12:06:38.702Z</time></trkpt><trkpt lat="43.424344" lon="12.2326233"><ele>286.33333333333337</ele><time>2026-04-30T12:06:39.701Z</time></trkpt><trkpt lat="43.4245524" lon="12.2326438"><ele>287.0</ele><time>2026-04-30T12:06:40.701Z</time></trkpt><trkpt lat="43.4247748" lon="12.2326954"><ele>288.0</ele><time>2026-04-30T12:06:41.701Z</time></trkpt><trkpt lat="43.4250026" lon="12.2327508"><ele>289.0</ele><time>2026-04-30T12:06:42.7Z</time></trkpt><trkpt lat="43.4252256" lon="12.2328092"><ele>289.0</ele><time>2026-04-30T12:06:43.701Z</time></trkpt><trkpt lat="43.4254373" lon="12.2328492"><ele>289.0</ele><time>2026-04-30T12:06:44.701Z</time></trkpt><trkpt lat="43.4256415" lon="12.23289"><ele>289.0</ele><time>2026-04-30T12:06:45.7Z</time></trkpt><trkpt lat="43.425827" lon="12.2328806"><ele>288.3333333333333</ele><time>2026-04-30T12:06:46.702Z</time></trkpt><trkpt lat="43.4260084" lon="12.2328729"><ele>287.6666666666667</ele><time>2026-04-30T12:06:47.701Z</time></trkpt><trkpt lat="43.4261577" lon="12.2327041"><ele>287.0</ele><time>2026-04-30T12:06:48.699Z</time></trkpt><trkpt lat="43.4263197" lon="12.232502"><ele>289.33333333333337</ele><time>2026-04-30T12:06:49.7Z</time></trkpt><trkpt lat="43.4264696" lon="12.2323416"><ele>291.6666666666667</ele><time>2026-04-30T12:06:50.701Z</time></trkpt><trkpt lat="43.4266357" lon="12.2322047"><ele>294.0</ele><time>2026-04-30T12:06:51.701Z</time></trkpt><trkpt lat="43.4268271" lon="12.2321234"><ele>294.0</ele><time>2026-04-30T12:06:52.701Z</time></trkpt><trkpt lat="43.4270175" lon="12.2320473"><ele>294.0</ele><time>2026-04-30T12:06:53.7Z</time></trkpt><trkpt lat="43.4272315" lon="12.2321132"><ele>294.0</ele><time>2026-04-30T12:06:54.701Z</time></trkpt><trkpt lat="43.4274417" lon="12.2322365"><ele>286.5</ele><time>2026-04-30T12:06:55.702Z</time></trkpt><trkpt lat="43.4276704" lon="12.2323185"><ele>279.0</ele><time>2026-04-30T12:06:56.7Z</time></trkpt><trkpt lat="43.4279009" lon="12.2324079"><ele>282.0</ele><time>2026-04-30T12:06:57.701Z</time></trkpt><trkpt lat="43.4281339" lon="12.2324934"><ele>285.0</ele><time>2026-04-30T12:06:58.7Z</time></trkpt><trkpt lat="43.4283884" lon="12.2325904"><ele>285.0</ele><time>2026-04-30T12:06:59.702Z</time></trkpt><trkpt lat="43.4286339" lon="12.2326801"><ele>285.0</ele><time>2026-04-30T12:07:00.701Z</time></trkpt><trkpt lat="43.428866" lon="12.2328594"><ele>282.0</ele><time>2026-04-30T12:07:01.7Z</time></trkpt><trkpt lat="43.4290938" lon="12.2330054"><ele>279.0</ele><time>2026-04-30T12:07:02.701Z</time></trkpt><trkpt lat="43.4293048" lon="12.2331532"><ele>279.0</ele><time>2026-04-30T12:07:03.701Z</time></trkpt><trkpt lat="43.4295124" lon="12.2332796"><ele>279.0</ele><time>2026-04-30T12:07:04.702Z</time></trkpt><trkpt lat="43.4297407" lon="12.233375"><ele>280.5</ele><time>2026-04-30T12:07:05.699Z</time></trkpt><trkpt lat="43.4299558" lon="12.2334842"><ele>282.0</ele><time>2026-04-30T12:07:06.7Z</time></trkpt><trkpt lat="43.4302423" lon="12.2333996"><ele>284.0</ele><time>2026-04-30T12:07:07.7Z</time></trkpt><trkpt lat="43.430491" lon="12.2334136"><ele>286.0</ele><time>2026-04-30T12:07:08.7Z</time></trkpt><trkpt lat="43.4307592" lon="12.2334596"><ele>286.0</ele><time>2026-04-30T12:07:09.699Z</time></trkpt><trkpt lat="43.431018" lon="12.2335022"><ele>286.0</ele><time>2026-04-30T12:07:10.7Z</time></trkpt><trkpt lat="43.4312751" lon="12.2335373"><ele>287.0</ele><time>2026-04-30T12:07:11.699Z</time></trkpt><trkpt lat="43.4315355" lon="12.2335579"><ele>288.0</ele><time>2026-04-30T12:07:12.7Z</time></trkpt><trkpt lat="43.4317848" lon="12.233585"><ele>288.0</ele><time>2026-04-30T12:07:13.7Z</time></trkpt><trkpt lat="43.432022" lon="12.2336056"><ele>288.0</ele><time>2026-04-30T12:07:14.699Z</time></trkpt><trkpt lat="43.4322365" lon="12.2336063"><ele>289.3333333333333</ele><time>2026-04-30T12:07:15.7Z</time></trkpt><trkpt lat="43.4324491" lon="12.2336162"><ele>290.66666666666663</ele><time>2026-04-30T12:07:16.7Z</time></trkpt><trkpt lat="43.4326481" lon="12.2336327"><ele>292.0</ele><time>2026-04-30T12:07:17.7Z</time></trkpt><trkpt lat="43.4328603" lon="12.233688"><ele>292.66666666666663</ele><time>2026-04-30T12:07:18.7Z</time></trkpt><trkpt lat="43.4330619" lon="12.2337942"><ele>293.3333333333333</ele><time>2026-04-30T12:07:19.699Z</time></trkpt><trkpt lat="43.4332743" lon="12.2339281"><ele>294.0</ele><time>2026-04-30T12:07:20.7Z</time></trkpt><trkpt lat="43.433483" lon="12.2340814"><ele>294.0</ele><time>2026-04-30T12:07:21.699Z</time></trkpt><trkpt lat="43.4336878" lon="12.2342315"><ele>294.0</ele><time>2026-04-30T12:07:22.7Z</time></trkpt><trkpt lat="43.4339007" lon="12.2343942"><ele>300.5</ele><time>2026-04-30T12:07:23.7Z</time></trkpt><trkpt lat="43.4341089" lon="12.2345529"><ele>307.0</ele><time>2026-04-30T12:07:24.7Z</time></trkpt><trkpt lat="43.4343271" lon="12.2346955"><ele>304.5</ele><time>2026-04-30T12:07:25.7Z</time></trkpt><trkpt lat="43.4345494" lon="12.2348706"><ele>302.0</ele><time>2026-04-30T12:07:26.7Z</time></trkpt><trkpt lat="43.4347624" lon="12.2350417"><ele>302.0</ele><time>2026-04-30T12:07:27.7Z</time></trkpt><trkpt lat="43.4349699" lon="12.2352175"><ele>302.0</ele><time>2026-04-30T12:07:28.699Z</time></trkpt><trkpt lat="43.4351688" lon="12.2354082"><ele>302.0</ele><time>2026-04-30T12:07:29.7Z</time></trkpt><trkpt lat="43.4353564" lon="12.2356248"><ele>302.0</ele><time>2026-04-30T12:07:30.7Z</time></trkpt><trkpt lat="43.4355491" lon="12.2358458"><ele>302.5</ele><time>2026-04-30T12:07:31.7Z</time></trkpt><trkpt lat="43.4357365" lon="12.2360644"><ele>303.0</ele><time>2026-04-30T12:07:32.7Z</time></trkpt><trkpt lat="43.4359089" lon="12.2362748"><ele>297.5</ele><time>2026-04-30T12:07:33.7Z</time></trkpt><trkpt lat="43.4360851" lon="12.2364781"><ele>292.0</ele><time>2026-04-30T12:07:34.7Z</time></trkpt><trkpt lat="43.436267" lon="12.2366953"><ele>294.5</ele><time>2026-04-30T12:07:35.699Z</time></trkpt><trkpt lat="43.4364462" lon="12.2369025"><ele>297.0</ele><time>2026-04-30T12:07:36.7Z</time></trkpt><trkpt lat="43.4365953" lon="12.2371486"><ele>295.5</ele><time>2026-04-30T12:07:37.7Z</time></trkpt><trkpt lat="43.4367309" lon="12.2374222"><ele>294.0</ele><time>2026-04-30T12:07:38.7Z</time></trkpt><trkpt lat="43.4368355" lon="12.237701"><ele>294.0</ele><time>2026-04-30T12:07:39.699Z</time></trkpt><trkpt lat="43.4369417" lon="12.2379757"><ele>294.0</ele><time>2026-04-30T12:07:40.701Z</time></trkpt><trkpt lat="43.4370602" lon="12.238243"><ele>295.0</ele><time>2026-04-30T12:07:41.701Z</time></trkpt><trkpt lat="43.4372043" lon="12.2384885"><ele>296.0</ele><time>2026-04-30T12:07:42.701Z</time></trkpt><trkpt lat="43.4373514" lon="12.2387298"><ele>296.0</ele><time>2026-04-30T12:07:43.7Z</time></trkpt><trkpt lat="43.4374839" lon="12.2389378"><ele>296.0</ele><time>2026-04-30T12:07:44.702Z</time></trkpt><trkpt lat="43.4376011" lon="12.2391767"><ele>296.0</ele><time>2026-04-30T12:07:45.7Z</time></trkpt><trkpt lat="43.4376944" lon="12.239435"><ele>293.6666666666667</ele><time>2026-04-30T12:07:46.7Z</time></trkpt><trkpt lat="43.4377724" lon="12.2397189"><ele>291.3333333333333</ele><time>2026-04-30T12:07:47.701Z</time></trkpt><trkpt lat="43.4378558" lon="12.2400014"><ele>289.0</ele><time>2026-04-30T12:07:48.7Z</time></trkpt><trkpt lat="43.4379201" lon="12.2403092"><ele>289.3333333333333</ele><time>2026-04-30T12:07:49.7Z</time></trkpt><trkpt lat="43.4379914" lon="12.2405929"><ele>289.6666666666667</ele><time>2026-04-30T12:07:50.701Z</time></trkpt><trkpt lat="43.4380512" lon="12.2408812"><ele>290.0</ele><time>2026-04-30T12:07:51.7Z</time></trkpt><trkpt lat="43.4381076" lon="12.2411362"><ele>290.33333333333337</ele><time>2026-04-30T12:07:52.7Z</time></trkpt><trkpt lat="43.4381754" lon="12.2413853"><ele>290.6666666666667</ele><time>2026-04-30T12:07:53.701Z</time></trkpt><trkpt lat="43.4382562" lon="12.2416101"><ele>291.0</ele><time>2026-04-30T12:07:54.701Z</time></trkpt><trkpt lat="43.4383561" lon="12.2418044"><ele>290.0</ele><time>2026-04-30T12:07:55.7Z</time></trkpt><trkpt lat="43.4384822" lon="12.2419646"><ele>289.0</ele><time>2026-04-30T12:07:56.701Z</time></trkpt><trkpt lat="43.4386151" lon="12.2421183"><ele>288.0</ele><time>2026-04-30T12:07:57.701Z</time></trkpt><trkpt lat="43.4388113" lon="12.2421688"><ele>288.0</ele><time>2026-04-30T12:07:58.701Z</time></trkpt><trkpt lat="43.43899" lon="12.242191"><ele>288.0</ele><time>2026-04-30T12:07:59.7Z</time></trkpt><trkpt lat="43.439183" lon="12.242154"><ele>288.0</ele><time>2026-04-30T12:08:00.7Z</time></trkpt><trkpt lat="43.4393835" lon="12.2420599"><ele>288.0</ele><time>2026-04-30T12:08:01.701Z</time></trkpt><trkpt lat="43.4395694" lon="12.2418872"><ele>288.0</ele><time>2026-04-30T12:08:02.701Z</time></trkpt><trkpt lat="43.4397663" lon="12.2417152"><ele>288.5</ele><time>2026-04-30T12:08:03.701Z</time></trkpt><trkpt lat="43.4399513" lon="12.2415069"><ele>289.0</ele><time>2026-04-30T12:08:04.701Z</time></trkpt><trkpt lat="43.4401505" lon="12.2413193"><ele>290.5</ele><time>2026-04-30T12:08:05.701Z</time></trkpt><trkpt lat="43.4403634" lon="12.2411351"><ele>292.0</ele><time>2026-04-30T12:08:06.701Z</time></trkpt><trkpt lat="43.4405731" lon="12.2409654"><ele>292.0</ele><time>2026-04-30T12:08:07.701Z</time></trkpt><trkpt lat="43.4407705" lon="12.2408024"><ele>292.0</ele><time>2026-04-30T12:08:08.701Z</time></trkpt><trkpt lat="43.4409607" lon="12.2406344"><ele>292.3333333333333</ele><time>2026-04-30T12:08:09.701Z</time></trkpt><trkpt lat="43.4411451" lon="12.2404586"><ele>292.6666666666667</ele><time>2026-04-30T12:08:10.7Z</time></trkpt><trkpt lat="43.4413256" lon="12.2402806"><ele>293.0</ele><time>2026-04-30T12:08:11.7Z</time></trkpt><trkpt lat="43.4414972" lon="12.2401142"><ele>293.0</ele><time>2026-04-30T12:08:12.701Z</time></trkpt><trkpt lat="43.4416863" lon="12.2399648"><ele>293.0</ele><time>2026-04-30T12:08:13.7Z</time></trkpt><trkpt lat="43.4418868" lon="12.2398361"><ele>293.0</ele><time>2026-04-30T12:08:14.7Z</time></trkpt><trkpt lat="43.4420827" lon="12.239737"><ele>292.6666666666667</ele><time>2026-04-30T12:08:15.701Z</time></trkpt><trkpt lat="43.4422893" lon="12.2396491"><ele>292.3333333333333</ele><time>2026-04-30T12:08:16.701Z</time></trkpt><trkpt lat="43.442489" lon="12.2395816"><ele>292.0</ele><time>2026-04-30T12:08:17.701Z</time></trkpt><trkpt lat="43.4426972" lon="12.2395359"><ele>292.0</ele><time>2026-04-30T12:08:18.7Z</time></trkpt><trkpt lat="43.4429167" lon="12.2394985"><ele>292.0</ele><time>2026-04-30T12:08:19.701Z</time></trkpt><trkpt lat="43.4431497" lon="12.2394635"><ele>291.5</ele><time>2026-04-30T12:08:20.701Z</time></trkpt><trkpt lat="43.4433781" lon="12.2394014"><ele>291.0</ele><time>2026-04-30T12:08:21.7Z</time></trkpt><trkpt lat="43.4436207" lon="12.2393364"><ele>291.5</ele><time>2026-04-30T12:08:22.7Z</time></trkpt><trkpt lat="43.4438618" lon="12.2392744"><ele>292.0</ele><time>2026-04-30T12:08:23.701Z</time></trkpt><trkpt lat="43.4441102" lon="12.2392263"><ele>292.0</ele><time>2026-04-30T12:08:24.702Z</time></trkpt><trkpt lat="43.4443607" lon="12.2391679"><ele>292.0</ele><time>2026-04-30T12:08:25.701Z</time></trkpt><trkpt lat="43.4446016" lon="12.239118"><ele>291.5</ele><time>2026-04-30T12:08:26.7Z</time></trkpt><trkpt lat="43.4448357" lon="12.2390868"><ele>291.0</ele><time>2026-04-30T12:08:27.701Z</time></trkpt><trkpt lat="43.4450649" lon="12.239079"><ele>291.0</ele><time>2026-04-30T12:08:28.7Z</time></trkpt><trkpt lat="43.4452801" lon="12.2390747"><ele>291.0</ele><time>2026-04-30T12:08:29.7Z</time></trkpt><trkpt lat="43.4454951" lon="12.23907"><ele>291.0</ele><time>2026-04-30T12:08:30.7Z</time></trkpt><trkpt lat="43.4456994" lon="12.2390624"><ele>290.5</ele><time>2026-04-30T12:08:31.7Z</time></trkpt><trkpt lat="43.4458616" lon="12.2390149"><ele>290.0</ele><time>2026-04-30T12:08:32.701Z</time></trkpt><trkpt lat="43.4460422" lon="12.2389796"><ele>289.5</ele><time>2026-04-30T12:08:33.701Z</time></trkpt><trkpt lat="43.4461129" lon="12.2389564"><ele>289.0</ele><time>2026-04-30T12:08:34.702Z</time></trkpt><trkpt lat="43.4462129" lon="12.2389208"><ele>289.8333333333333</ele><time>2026-04-30T12:08:35.7Z</time></trkpt><trkpt lat="43.4462922" lon="12.2388829"><ele>290.66666666666663</ele><time>2026-04-30T12:08:36.701Z</time></trkpt><trkpt lat="43.4463736" lon="12.2388546"><ele>291.5</ele><time>2026-04-30T12:08:37.699Z</time></trkpt><trkpt lat="43.4464574" lon="12.2388282"><ele>292.3333333333333</ele><time>2026-04-30T12:08:38.7Z</time></trkpt><trkpt lat="43.4465358" lon="12.2387853"><ele>293.1666666666667</ele><time>2026-04-30T12:08:39.7Z</time></trkpt><trkpt lat="43.4466251" lon="12.2387727"><ele>294.0</ele><time>2026-04-30T12:08:40.701Z</time></trkpt><trkpt lat="43.4467087" lon="12.2387532"><ele>294.0</ele><time>2026-04-30T12:08:41.7Z</time></trkpt><trkpt lat="43.4468035" lon="12.2387089"><ele>294.0</ele><time>2026-04-30T12:08:42.701Z</time></trkpt><trkpt lat="43.4469098" lon="12.2386669"><ele>294.0</ele><time>2026-04-30T12:08:43.7Z</time></trkpt><trkpt lat="43.4470861" lon="12.2386326"><ele>294.0</ele><time>2026-04-30T12:08:44.702Z</time></trkpt><trkpt lat="43.4472658" lon="12.2385664"><ele>292.0</ele><time>2026-04-30T12:08:45.7Z</time></trkpt><trkpt lat="43.4474873" lon="12.2385049"><ele>290.0</ele><time>2026-04-30T12:08:46.699Z</time></trkpt><trkpt lat="43.447709" lon="12.2384141"><ele>290.0</ele><time>2026-04-30T12:08:47.701Z</time></trkpt><trkpt lat="43.4479419" lon="12.2383096"><ele>290.0</ele><time>2026-04-30T12:08:48.701Z</time></trkpt><trkpt lat="43.4481856" lon="12.2382423"><ele>289.5</ele><time>2026-04-30T12:08:49.7Z</time></trkpt><trkpt lat="43.4484173" lon="12.2381708"><ele>289.0</ele><time>2026-04-30T12:08:50.7Z</time></trkpt><trkpt lat="43.4486331" lon="12.2381094"><ele>291.3333333333333</ele><time>2026-04-30T12:08:51.7Z</time></trkpt><trkpt lat="43.4488244" lon="12.2380672"><ele>293.6666666666667</ele><time>2026-04-30T12:08:52.701Z</time></trkpt><trkpt lat="43.4490141" lon="12.2380497"><ele>296.0</ele><time>2026-04-30T12:08:53.7Z</time></trkpt><trkpt lat="43.4491979" lon="12.2380623"><ele>293.6666666666667</ele><time>2026-04-30T12:08:54.701Z</time></trkpt><trkpt lat="43.4493571" lon="12.238136"><ele>291.3333333333333</ele><time>2026-04-30T12:08:55.7Z</time></trkpt><trkpt lat="43.4494934" lon="12.2382048"><ele>289.0</ele><time>2026-04-30T12:08:56.7Z</time></trkpt><trkpt lat="43.4496295" lon="12.2382359"><ele>288.25</ele><time>2026-04-30T12:08:57.701Z</time></trkpt><trkpt lat="43.4497684" lon="12.2382284"><ele>287.5</ele><time>2026-04-30T12:08:58.701Z</time></trkpt><trkpt lat="43.449903" lon="12.2381959"><ele>286.75</ele><time>2026-04-30T12:08:59.701Z</time></trkpt><trkpt lat="43.4500375" lon="12.2381035"><ele>286.0</ele><time>2026-04-30T12:09:00.701Z</time></trkpt><trkpt lat="43.4501689" lon="12.2379555"><ele>285.0</ele><time>2026-04-30T12:09:01.7Z</time></trkpt><trkpt lat="43.4502923" lon="12.2377714"><ele>284.0</ele><time>2026-04-30T12:09:02.7Z</time></trkpt><trkpt lat="43.45041" lon="12.237566"><ele>283.0</ele><time>2026-04-30T12:09:03.7Z</time></trkpt><trkpt lat="43.4505336" lon="12.2373836"><ele>285.0</ele><time>2026-04-30T12:09:04.7Z</time></trkpt><trkpt lat="43.4506541" lon="12.2371941"><ele>287.0</ele><time>2026-04-30T12:09:05.701Z</time></trkpt><trkpt lat="43.4507736" lon="12.2370209"><ele>289.0</ele><time>2026-04-30T12:09:06.701Z</time></trkpt><trkpt lat="43.4509012" lon="12.2368531"><ele>289.0</ele><time>2026-04-30T12:09:07.701Z</time></trkpt><trkpt lat="43.4510358" lon="12.2367114"><ele>289.0</ele><time>2026-04-30T12:09:08.701Z</time></trkpt><trkpt lat="43.4511652" lon="12.2365586"><ele>289.0</ele><time>2026-04-30T12:09:09.701Z</time></trkpt><trkpt lat="43.4512939" lon="12.2364145"><ele>289.66666666666663</ele><time>2026-04-30T12:09:10.701Z</time></trkpt><trkpt lat="43.4514186" lon="12.2362679"><ele>290.3333333333333</ele><time>2026-04-30T12:09:11.701Z</time></trkpt><trkpt lat="43.4515344" lon="12.2361277"><ele>291.0</ele><time>2026-04-30T12:09:12.7Z</time></trkpt><trkpt lat="43.4516495" lon="12.2360062"><ele>291.0</ele><time>2026-04-30T12:09:13.701Z</time></trkpt><trkpt lat="43.4517626" lon="12.2358988"><ele>291.0</ele><time>2026-04-30T12:09:14.701Z</time></trkpt><trkpt lat="43.4518766" lon="12.235918"><ele>291.0</ele><time>2026-04-30T12:09:15.701Z</time></trkpt><trkpt lat="43.4519999" lon="12.2358815"><ele>291.0</ele><time>2026-04-30T12:09:16.7Z</time></trkpt><trkpt lat="43.4521116" lon="12.2359958"><ele>288.5</ele><time>2026-04-30T12:09:17.701Z</time></trkpt><trkpt lat="43.4522304" lon="12.2360907"><ele>286.0</ele><time>2026-04-30T12:09:18.7Z</time></trkpt><trkpt lat="43.4523591" lon="12.2361976"><ele>283.5</ele><time>2026-04-30T12:09:19.701Z</time></trkpt><trkpt lat="43.4524951" lon="12.2362909"><ele>281.0</ele><time>2026-04-30T12:09:20.7Z</time></trkpt><trkpt lat="43.452641" lon="12.2363962"><ele>280.6666666666667</ele><time>2026-04-30T12:09:21.701Z</time></trkpt><trkpt lat="43.4527917" lon="12.2364935"><ele>280.3333333333333</ele><time>2026-04-30T12:09:22.701Z</time></trkpt><trkpt lat="43.4529305" lon="12.2366052"><ele>280.0</ele><time>2026-04-30T12:09:23.701Z</time></trkpt><trkpt lat="43.4530707" lon="12.2366994"><ele>279.5</ele><time>2026-04-30T12:09:24.701Z</time></trkpt><trkpt lat="43.4531969" lon="12.2367757"><ele>279.0</ele><time>2026-04-30T12:09:25.701Z</time></trkpt><trkpt lat="43.4533181" lon="12.2368533"><ele>278.5</ele><time>2026-04-30T12:09:26.7Z</time></trkpt><trkpt lat="43.4534361" lon="12.2369284"><ele>278.0</ele><time>2026-04-30T12:09:27.701Z</time></trkpt><trkpt lat="43.4535509" lon="12.2369507"><ele>278.0</ele><time>2026-04-30T12:09:28.702Z</time></trkpt><trkpt lat="43.4536595" lon="12.2369723"><ele>278.0</ele><time>2026-04-30T12:09:29.701Z</time></trkpt><trkpt lat="43.453769" lon="12.236995"><ele>278.0</ele><time>2026-04-30T12:09:30.701Z</time></trkpt><trkpt lat="43.4538406" lon="12.2371393"><ele>278.0</ele><time>2026-04-30T12:09:31.701Z</time></trkpt><trkpt lat="43.453905" lon="12.2372772"><ele>279.25</ele><time>2026-04-30T12:09:32.701Z</time></trkpt><trkpt lat="43.453949" lon="12.2374143"><ele>280.5</ele><time>2026-04-30T12:09:33.701Z</time></trkpt><trkpt lat="43.4539446" lon="12.2376089"><ele>281.75</ele><time>2026-04-30T12:09:34.701Z</time></trkpt><trkpt lat="43.4539309" lon="12.2377936"><ele>283.0</ele><time>2026-04-30T12:09:35.701Z</time></trkpt><trkpt lat="43.4539277" lon="12.2380339"><ele>282.3333333333333</ele><time>2026-04-30T12:09:36.7Z</time></trkpt><trkpt lat="43.4539195" lon="12.2382898"><ele>281.6666666666667</ele><time>2026-04-30T12:09:37.7Z</time></trkpt><trkpt lat="43.4539121" lon="12.2385303"><ele>281.0</ele><time>2026-04-30T12:09:38.701Z</time></trkpt><trkpt lat="43.4538944" lon="12.2387547"><ele>281.0</ele><time>2026-04-30T12:09:39.702Z</time></trkpt><trkpt lat="43.453882" lon="12.2389547"><ele>281.0</ele><time>2026-04-30T12:09:40.701Z</time></trkpt><trkpt lat="43.4538605" lon="12.2391695"><ele>281.0</ele><time>2026-04-30T12:09:41.701Z</time></trkpt><trkpt lat="43.4538485" lon="12.2393628"><ele>281.0</ele><time>2026-04-30T12:09:42.702Z</time></trkpt><trkpt lat="43.4538255" lon="12.2395755"><ele>281.0</ele><time>2026-04-30T12:09:43.701Z</time></trkpt><trkpt lat="43.4538405" lon="12.2397388"><ele>281.0</ele><time>2026-04-30T12:09:44.701Z</time></trkpt><trkpt lat="43.4538276" lon="12.2399325"><ele>281.0</ele><time>2026-04-30T12:09:45.701Z</time></trkpt><trkpt lat="43.4537944" lon="12.2401572"><ele>281.0</ele><time>2026-04-30T12:09:46.701Z</time></trkpt><trkpt lat="43.453778" lon="12.2403512"><ele>281.0</ele><time>2026-04-30T12:09:47.701Z</time></trkpt><trkpt lat="43.4537411" lon="12.2405034"><ele>281.0</ele><time>2026-04-30T12:09:48.701Z</time></trkpt><trkpt lat="43.4537492" lon="12.2406491"><ele>281.0</ele><time>2026-04-30T12:09:49.701Z</time></trkpt><trkpt lat="43.4537551" lon="12.240814"><ele>281.0</ele><time>2026-04-30T12:09:50.701Z</time></trkpt><trkpt lat="43.453737" lon="12.2409526"><ele>281.0</ele><time>2026-04-30T12:09:51.701Z</time></trkpt><trkpt lat="43.4537307" lon="12.2411165"><ele>281.0</ele><time>2026-04-30T12:09:52.701Z</time></trkpt><trkpt lat="43.4537096" lon="12.24128"><ele>281.0</ele><time>2026-04-30T12:09:53.7Z</time></trkpt><trkpt lat="43.4536971" lon="12.2414301"><ele>281.0</ele><time>2026-04-30T12:09:54.7Z</time></trkpt><trkpt lat="43.4536915" lon="12.2415976"><ele>281.0</ele><time>2026-04-30T12:09:55.701Z</time></trkpt><trkpt lat="43.4536784" lon="12.2417479"><ele>281.40000000000003</ele><time>2026-04-30T12:09:56.701Z</time></trkpt><trkpt lat="43.4536516" lon="12.2418582"><ele>281.8</ele><time>2026-04-30T12:09:57.701Z</time></trkpt><trkpt lat="43.4536361" lon="12.241987"><ele>282.20000000000005</ele><time>2026-04-30T12:09:58.7Z</time></trkpt><trkpt lat="43.4536279" lon="12.2420734"><ele>282.6</ele><time>2026-04-30T12:09:59.702Z</time></trkpt><trkpt lat="43.4536154" lon="12.2421755"><ele>283.0</ele><time>2026-04-30T12:10:00.701Z</time></trkpt><trkpt lat="43.4536187" lon="12.2423697"><ele>283.0</ele><time>2026-04-30T12:10:02.701Z</time></trkpt><trkpt lat="43.4536955" lon="12.2425014"><ele>283.0</ele><time>2026-04-30T12:10:04.701Z</time></trkpt><trkpt lat="43.4537537" lon="12.2425675"><ele>283.0</ele><time>2026-04-30T12:10:05.7Z</time></trkpt><trkpt lat="43.4538065" lon="12.2426323"><ele>283.0</ele><time>2026-04-30T12:10:06.701Z</time></trkpt><trkpt lat="43.4538593" lon="12.2426976"><ele>283.0</ele><time>2026-04-30T12:10:07.7Z</time></trkpt><trkpt lat="43.4539079" lon="12.2427723"><ele>283.0</ele><time>2026-04-30T12:10:08.701Z</time></trkpt><trkpt lat="43.4539365" lon="12.2428814"><ele>283.57142857142856</ele><time>2026-04-30T12:10:09.701Z</time></trkpt><trkpt lat="43.4539719" lon="12.2429789"><ele>284.14285714285717</ele><time>2026-04-30T12:10:10.701Z</time></trkpt><trkpt lat="43.454003" lon="12.2430792"><ele>284.7142857142857</ele><time>2026-04-30T12:10:11.7Z</time></trkpt><trkpt lat="43.4540426" lon="12.2431675"><ele>285.2857142857143</ele><time>2026-04-30T12:10:12.699Z</time></trkpt><trkpt lat="43.4540797" lon="12.2432503"><ele>285.8571428571429</ele><time>2026-04-30T12:10:13.701Z</time></trkpt><trkpt lat="43.4541113" lon="12.2433323"><ele>286.42857142857144</ele><time>2026-04-30T12:10:14.7Z</time></trkpt><trkpt lat="43.4541393" lon="12.2434183"><ele>287.0</ele><time>2026-04-30T12:10:15.701Z</time></trkpt><trkpt lat="43.4541758" lon="12.2435153"><ele>287.0</ele><time>2026-04-30T12:10:17.7Z</time></trkpt><trkpt lat="43.4541943" lon="12.2436346"><ele>287.0</ele><time>2026-04-30T12:10:22.7Z</time></trkpt><trkpt lat="43.4542523" lon="12.2437967"><ele>287.0</ele><time>2026-04-30T12:10:24.7Z</time></trkpt><trkpt lat="43.4542927" lon="12.243878"><ele>287.0</ele><time>2026-04-30T12:10:25.701Z</time></trkpt><trkpt lat="43.454358" lon="12.2439821"><ele>287.0</ele><time>2026-04-30T12:10:26.701Z</time></trkpt><trkpt lat="43.4543996" lon="12.2440827"><ele>286.8</ele><time>2026-04-30T12:10:27.7Z</time></trkpt><trkpt lat="43.454445" lon="12.2441873"><ele>286.6</ele><time>2026-04-30T12:10:28.701Z</time></trkpt><trkpt lat="43.4545121" lon="12.2443198"><ele>286.40000000000003</ele><time>2026-04-30T12:10:29.702Z</time></trkpt><trkpt lat="43.4545603" lon="12.2444334"><ele>286.2</ele><time>2026-04-30T12:10:30.7Z</time></trkpt><trkpt lat="43.454599" lon="12.2445669"><ele>286.0</ele><time>2026-04-30T12:10:31.702Z</time></trkpt><trkpt lat="43.4546573" lon="12.2446716"><ele>286.0</ele><time>2026-04-30T12:10:32.702Z</time></trkpt><trkpt lat="43.4547055" lon="12.2447998"><ele>286.0</ele><time>2026-04-30T12:10:33.701Z</time></trkpt><trkpt lat="43.4547413" lon="12.2449479"><ele>286.0</ele><time>2026-04-30T12:10:34.701Z</time></trkpt><trkpt lat="43.4547762" lon="12.2450801"><ele>286.0</ele><time>2026-04-30T12:10:35.701Z</time></trkpt><trkpt lat="43.4548207" lon="12.2451951"><ele>286.0</ele><time>2026-04-30T12:10:36.7Z</time></trkpt><trkpt lat="43.4548654" lon="12.2453549"><ele>286.0</ele><time>2026-04-30T12:10:37.701Z</time></trkpt><trkpt lat="43.4549071" lon="12.2454836"><ele>286.0</ele><time>2026-04-30T12:10:38.7Z</time></trkpt><trkpt lat="43.4549383" lon="12.2455916"><ele>286.0</ele><time>2026-04-30T12:10:39.701Z</time></trkpt><trkpt lat="43.454974" lon="12.2456967"><ele>286.0</ele><time>2026-04-30T12:10:40.701Z</time></trkpt><trkpt lat="43.4549806" lon="12.2458076"><ele>286.0</ele><time>2026-04-30T12:10:41.701Z</time></trkpt><trkpt lat="43.4549979" lon="12.2459171"><ele>286.0</ele><time>2026-04-30T12:10:42.701Z</time></trkpt><trkpt lat="43.455018" lon="12.2460256"><ele>286.0</ele><time>2026-04-30T12:10:43.701Z</time></trkpt><trkpt lat="43.4550578" lon="12.2461048"><ele>286.0</ele><time>2026-04-30T12:10:44.701Z</time></trkpt><trkpt lat="43.4550391" lon="12.2462393"><ele>286.0</ele><time>2026-04-30T12:10:46.701Z</time></trkpt><trkpt lat="43.4550361" lon="12.2463327"><ele>286.0</ele><time>2026-04-30T12:10:47.7Z</time></trkpt><trkpt lat="43.4550273" lon="12.2464237"><ele>286.0</ele><time>2026-04-30T12:10:48.701Z</time></trkpt><trkpt lat="43.4550631" lon="12.2465879"><ele>286.0</ele><time>2026-04-30T12:10:50.701Z</time></trkpt><trkpt lat="43.4551208" lon="12.2466265"><ele>285.57142857142856</ele><time>2026-04-30T12:10:51.7Z</time></trkpt><trkpt lat="43.4551919" lon="12.2466399"><ele>285.1428571428571</ele><time>2026-04-30T12:10:52.701Z</time></trkpt><trkpt lat="43.4552662" lon="12.2466227"><ele>284.7142857142857</ele><time>2026-04-30T12:10:53.701Z</time></trkpt><trkpt lat="43.4553321" lon="12.246624"><ele>284.2857142857143</ele><time>2026-04-30T12:10:54.701Z</time></trkpt><trkpt lat="43.4554014" lon="12.2466349"><ele>283.8571428571429</ele><time>2026-04-30T12:10:55.701Z</time></trkpt><trkpt lat="43.4554671" lon="12.2466514"><ele>283.42857142857144</ele><time>2026-04-30T12:10:56.701Z</time></trkpt><trkpt lat="43.4555393" lon="12.2466606"><ele>283.0</ele><time>2026-04-30T12:10:57.699Z</time></trkpt><trkpt lat="43.4556289" lon="12.2466475"><ele>283.0</ele><time>2026-04-30T12:10:58.701Z</time></trkpt><trkpt lat="43.4557117" lon="12.246628"><ele>283.0</ele><time>2026-04-30T12:10:59.701Z</time></trkpt><trkpt lat="43.455797" lon="12.2466125"><ele>283.0</ele><time>2026-04-30T12:11:00.701Z</time></trkpt><trkpt lat="43.4558878" lon="12.2465973"><ele>283.0</ele><time>2026-04-30T12:11:01.701Z</time></trkpt><trkpt lat="43.4559795" lon="12.2465889"><ele>283.0</ele><time>2026-04-30T12:11:02.701Z</time></trkpt><trkpt lat="43.4560737" lon="12.2465814"><ele>283.0</ele><time>2026-04-30T12:11:03.7Z</time></trkpt><trkpt lat="43.4561782" lon="12.2465776"><ele>283.0</ele><time>2026-04-30T12:11:04.7Z</time></trkpt><trkpt lat="43.4562704" lon="12.2465668"><ele>283.0</ele><time>2026-04-30T12:11:05.701Z</time></trkpt><trkpt lat="43.4563594" lon="12.2465562"><ele>283.0</ele><time>2026-04-30T12:11:06.7Z</time></trkpt><trkpt lat="43.4564441" lon="12.2465355"><ele>283.0</ele><time>2026-04-30T12:11:07.7Z</time></trkpt><trkpt lat="43.4565486" lon="12.2465303"><ele>283.0</ele><time>2026-04-30T12:11:08.701Z</time></trkpt><trkpt lat="43.4566304" lon="12.2465186"><ele>283.0</ele><time>2026-04-30T12:11:09.701Z</time></trkpt><trkpt lat="43.4566969" lon="12.2465044"><ele>283.0</ele><time>2026-04-30T12:11:10.701Z</time></trkpt><trkpt lat="43.4567686" lon="12.2464943"><ele>283.0</ele><time>2026-04-30T12:11:12.7Z</time></trkpt><trkpt lat="43.4568271" lon="12.2465298"><ele>283.0</ele><time>2026-04-30T12:11:14.701Z</time></trkpt><trkpt lat="43.4568837" lon="12.246583"><ele>283.0</ele><time>2026-04-30T12:11:16.7Z</time></trkpt><trkpt lat="43.4569102" lon="12.2466808"><ele>283.0</ele><time>2026-04-30T12:11:18.7Z</time></trkpt><trkpt lat="43.4568512" lon="12.2467978"><ele>283.0</ele><time>2026-04-30T12:11:20.701Z</time></trkpt><trkpt lat="43.4567701" lon="12.2468287"><ele>283.0</ele><time>2026-04-30T12:11:21.701Z</time></trkpt><trkpt lat="43.4566888" lon="12.2468612"><ele>283.0</ele><time>2026-04-30T12:11:22.701Z</time></trkpt><trkpt lat="43.4565579" lon="12.2469242"><ele>283.0</ele><time>2026-04-30T12:11:23.702Z</time></trkpt><trkpt lat="43.4564357" lon="12.2469591"><ele>283.0</ele><time>2026-04-30T12:11:24.701Z</time></trkpt><trkpt lat="43.4563223" lon="12.2469974"><ele>283.0</ele><time>2026-04-30T12:11:25.701Z</time></trkpt><trkpt lat="43.4562303" lon="12.2470301"><ele>283.0</ele><time>2026-04-30T12:11:26.701Z</time></trkpt><trkpt lat="43.456152" lon="12.2470537"><ele>283.0</ele><time>2026-04-30T12:11:27.7Z</time></trkpt><trkpt lat="43.4560622" lon="12.2470727"><ele>283.0</ele><time>2026-04-30T12:11:28.701Z</time></trkpt><trkpt lat="43.4559896" lon="12.2470819"><ele>283.0</ele><time>2026-04-30T12:11:29.7Z</time></trkpt><trkpt lat="43.4559187" lon="12.2471701"><ele>283.0</ele><time>2026-04-30T12:11:31.7Z</time></trkpt><trkpt lat="43.4559492" lon="12.247318"><ele>283.0</ele><time>2026-04-30T12:11:33.701Z</time></trkpt><trkpt lat="43.4559924" lon="12.2474382"><ele>283.0</ele><time>2026-04-30T12:11:34.701Z</time></trkpt><trkpt lat="43.45603" lon="12.2475617"><ele>283.0</ele><time>2026-04-30T12:11:35.7Z</time></trkpt><trkpt lat="43.4560672" lon="12.2476802"><ele>283.0</ele><time>2026-04-30T12:11:36.701Z</time></trkpt><trkpt lat="43.4560918" lon="12.2477857"><ele>283.0</ele><time>2026-04-30T12:11:37.7Z</time></trkpt><trkpt lat="43.4561099" lon="12.2479095"><ele>283.0</ele><time>2026-04-30T12:11:38.701Z</time></trkpt><trkpt lat="43.4561461" lon="12.2480224"><ele>283.0</ele><time>2026-04-30T12:11:39.701Z</time></trkpt><trkpt lat="43.4561767" lon="12.2481315"><ele>283.0</ele><time>2026-04-30T12:11:40.7Z</time></trkpt><trkpt lat="43.4561954" lon="12.2482199"><ele>283.0</ele><time>2026-04-30T12:11:41.701Z</time></trkpt><trkpt lat="43.4562155" lon="12.2483259"><ele>283.0</ele><time>2026-04-30T12:11:42.7Z</time></trkpt><trkpt lat="43.4562448" lon="12.2484156"><ele>283.0</ele><time>2026-04-30T12:11:43.699Z</time></trkpt><trkpt lat="43.4563132" lon="12.2485003"><ele>286.0</ele><time>2026-04-30T12:11:45.7Z</time></trkpt><trkpt lat="43.4563778" lon="12.2485556"><ele>286.0</ele><time>2026-04-30T12:11:47.701Z</time></trkpt></trkseg></trk></gpx>